<?xml version="1.0" encoding="UTF-8" standalone="no" ?>
<gpx xmlns="http://www.topografix.com/GPX/1/1" xmlns:xsi="http://www.w3.org/2001/XMLSchema-instance" xsi:schemaLocation="http://www.topografix.com/GPX/1/1 http://www.topografix.com/GPX/1/1/gpx.xsd" version="1.1" creator="VisuGPX - https://www.visugpx.com">
  <metadata>
    <name>[BASE Jump] Sputnik depuis Lusis</name>
    <desc><![CDATA[







]]></desc>
  </metadata>
  <trk>
    <name><![CDATA[[BASE Jump] Sputnik depuis Lusis_1]]></name>
    <desc><![CDATA[

















]]></desc>
    <extensions>
      <line xmlns="http://www.topografix.com/GPX/gpx_style/0/2">
        <color>0000FF</color>
        <width>4</width>
      </line>
    </extensions>
    <trkseg>
      <trkpt lat="47.13488" lon="9.33099">
        <ele>1315.7</ele>
        <time>2024-07-10T05:07:43Z</time>
      </trkpt>
      <trkpt lat="47.13489" lon="9.33098">
        <ele>1316.3</ele>
        <time>2024-07-10T05:07:44Z</time>
      </trkpt>
      <trkpt lat="47.1349" lon="9.33097">
        <ele>1316.7</ele>
        <time>2024-07-10T05:07:45Z</time>
      </trkpt>
      <trkpt lat="47.13492" lon="9.33095">
        <ele>1316.4</ele>
        <time>2024-07-10T05:07:46Z</time>
      </trkpt>
      <trkpt lat="47.13493" lon="9.33095">
        <ele>1316.1</ele>
        <time>2024-07-10T05:07:47Z</time>
      </trkpt>
      <trkpt lat="47.13493" lon="9.33092">
        <ele>1316.1</ele>
        <time>2024-07-10T05:07:48Z</time>
      </trkpt>
      <trkpt lat="47.13494" lon="9.3309">
        <ele>1316.1</ele>
        <time>2024-07-10T05:07:49Z</time>
      </trkpt>
      <trkpt lat="47.13494" lon="9.33087">
        <ele>1315.8</ele>
        <time>2024-07-10T05:07:50Z</time>
      </trkpt>
      <trkpt lat="47.13495" lon="9.33084">
        <ele>1315.4</ele>
        <time>2024-07-10T05:07:51Z</time>
      </trkpt>
      <trkpt lat="47.13495" lon="9.33082">
        <ele>1315</ele>
        <time>2024-07-10T05:07:52Z</time>
      </trkpt>
      <trkpt lat="47.13495" lon="9.33079">
        <ele>1314.9</ele>
        <time>2024-07-10T05:07:54Z</time>
      </trkpt>
      <trkpt lat="47.13496" lon="9.33079">
        <ele>1314.9</ele>
        <time>2024-07-10T05:07:55Z</time>
      </trkpt>
      <trkpt lat="47.13497" lon="9.33076">
        <ele>1314.6</ele>
        <time>2024-07-10T05:07:57Z</time>
      </trkpt>
      <trkpt lat="47.13498" lon="9.33074">
        <ele>1314.4</ele>
        <time>2024-07-10T05:07:59Z</time>
      </trkpt>
      <trkpt lat="47.135" lon="9.33072">
        <ele>1314.3</ele>
        <time>2024-07-10T05:08:00Z</time>
      </trkpt>
      <trkpt lat="47.13501" lon="9.33071">
        <ele>1314.4</ele>
        <time>2024-07-10T05:08:01Z</time>
      </trkpt>
      <trkpt lat="47.13502" lon="9.33067">
        <ele>1314.2</ele>
        <time>2024-07-10T05:08:05Z</time>
      </trkpt>
      <trkpt lat="47.13504" lon="9.33066">
        <ele>1314.2</ele>
        <time>2024-07-10T05:08:06Z</time>
      </trkpt>
      <trkpt lat="47.13505" lon="9.33064">
        <ele>1314.2</ele>
        <time>2024-07-10T05:08:09Z</time>
      </trkpt>
      <trkpt lat="47.13506" lon="9.33063">
        <ele>1314.1</ele>
        <time>2024-07-10T05:08:11Z</time>
      </trkpt>
      <trkpt lat="47.13507" lon="9.33061">
        <ele>1314</ele>
        <time>2024-07-10T05:08:13Z</time>
      </trkpt>
      <trkpt lat="47.13508" lon="9.3306">
        <ele>1314.2</ele>
        <time>2024-07-10T05:08:14Z</time>
      </trkpt>
      <trkpt lat="47.13509" lon="9.33058">
        <ele>1314.3</ele>
        <time>2024-07-10T05:08:16Z</time>
      </trkpt>
      <trkpt lat="47.13509" lon="9.33057">
        <ele>1314.1</ele>
        <time>2024-07-10T05:08:17Z</time>
      </trkpt>
      <trkpt lat="47.1351" lon="9.33055">
        <ele>1314.1</ele>
        <time>2024-07-10T05:08:18Z</time>
      </trkpt>
      <trkpt lat="47.1351" lon="9.33054">
        <ele>1314.2</ele>
        <time>2024-07-10T05:08:20Z</time>
      </trkpt>
      <trkpt lat="47.13512" lon="9.33051">
        <ele>1314.2</ele>
        <time>2024-07-10T05:08:22Z</time>
      </trkpt>
      <trkpt lat="47.13513" lon="9.3305">
        <ele>1314.3</ele>
        <time>2024-07-10T05:08:23Z</time>
      </trkpt>
      <trkpt lat="47.13514" lon="9.33049">
        <ele>1314.9</ele>
        <time>2024-07-10T05:08:25Z</time>
      </trkpt>
      <trkpt lat="47.13515" lon="9.33049">
        <ele>1315.1</ele>
        <time>2024-07-10T05:08:26Z</time>
      </trkpt>
      <trkpt lat="47.13517" lon="9.33049">
        <ele>1315.6</ele>
        <time>2024-07-10T05:08:27Z</time>
      </trkpt>
      <trkpt lat="47.13518" lon="9.3305">
        <ele>1316.1</ele>
        <time>2024-07-10T05:08:29Z</time>
      </trkpt>
      <trkpt lat="47.1352" lon="9.33051">
        <ele>1316.9</ele>
        <time>2024-07-10T05:08:31Z</time>
      </trkpt>
      <trkpt lat="47.1352" lon="9.33053">
        <ele>1317</ele>
        <time>2024-07-10T05:08:32Z</time>
      </trkpt>
      <trkpt lat="47.13521" lon="9.33056">
        <ele>1317.8</ele>
        <time>2024-07-10T05:08:34Z</time>
      </trkpt>
      <trkpt lat="47.13521" lon="9.33057">
        <ele>1318.2</ele>
        <time>2024-07-10T05:08:35Z</time>
      </trkpt>
      <trkpt lat="47.13522" lon="9.33059">
        <ele>1318.8</ele>
        <time>2024-07-10T05:08:36Z</time>
      </trkpt>
      <trkpt lat="47.13523" lon="9.33061">
        <ele>1319.2</ele>
        <time>2024-07-10T05:08:37Z</time>
      </trkpt>
      <trkpt lat="47.13523" lon="9.33063">
        <ele>1319.8</ele>
        <time>2024-07-10T05:08:38Z</time>
      </trkpt>
      <trkpt lat="47.13523" lon="9.33064">
        <ele>1320.1</ele>
        <time>2024-07-10T05:08:39Z</time>
      </trkpt>
      <trkpt lat="47.13524" lon="9.33065">
        <ele>1320.3</ele>
        <time>2024-07-10T05:08:40Z</time>
      </trkpt>
      <trkpt lat="47.13524" lon="9.33067">
        <ele>1320.5</ele>
        <time>2024-07-10T05:08:41Z</time>
      </trkpt>
      <trkpt lat="47.13525" lon="9.33068">
        <ele>1320.6</ele>
        <time>2024-07-10T05:08:42Z</time>
      </trkpt>
      <trkpt lat="47.13525" lon="9.33069">
        <ele>1320.8</ele>
        <time>2024-07-10T05:08:43Z</time>
      </trkpt>
      <trkpt lat="47.13526" lon="9.33072">
        <ele>1320.6</ele>
        <time>2024-07-10T05:08:45Z</time>
      </trkpt>
      <trkpt lat="47.13527" lon="9.33073">
        <ele>1320</ele>
        <time>2024-07-10T05:08:47Z</time>
      </trkpt>
      <trkpt lat="47.13528" lon="9.33075">
        <ele>1319.8</ele>
        <time>2024-07-10T05:08:49Z</time>
      </trkpt>
      <trkpt lat="47.13529" lon="9.33076">
        <ele>1319.8</ele>
        <time>2024-07-10T05:08:50Z</time>
      </trkpt>
      <trkpt lat="47.13529" lon="9.33078">
        <ele>1319.6</ele>
        <time>2024-07-10T05:08:51Z</time>
      </trkpt>
      <trkpt lat="47.13531" lon="9.3308">
        <ele>1319.3</ele>
        <time>2024-07-10T05:08:53Z</time>
      </trkpt>
      <trkpt lat="47.13531" lon="9.33081">
        <ele>1319.1</ele>
        <time>2024-07-10T05:08:54Z</time>
      </trkpt>
      <trkpt lat="47.13532" lon="9.33082">
        <ele>1319.2</ele>
        <time>2024-07-10T05:08:55Z</time>
      </trkpt>
      <trkpt lat="47.13533" lon="9.33083">
        <ele>1319.1</ele>
        <time>2024-07-10T05:08:56Z</time>
      </trkpt>
      <trkpt lat="47.13534" lon="9.33085">
        <ele>1319</ele>
        <time>2024-07-10T05:08:57Z</time>
      </trkpt>
      <trkpt lat="47.13535" lon="9.33086">
        <ele>1318.8</ele>
        <time>2024-07-10T05:08:59Z</time>
      </trkpt>
      <trkpt lat="47.13536" lon="9.33086">
        <ele>1318.7</ele>
        <time>2024-07-10T05:09:00Z</time>
      </trkpt>
      <trkpt lat="47.13538" lon="9.33086">
        <ele>1318.8</ele>
        <time>2024-07-10T05:09:02Z</time>
      </trkpt>
      <trkpt lat="47.13539" lon="9.33087">
        <ele>1318.8</ele>
        <time>2024-07-10T05:09:04Z</time>
      </trkpt>
      <trkpt lat="47.1354" lon="9.33087">
        <ele>1318.9</ele>
        <time>2024-07-10T05:09:06Z</time>
      </trkpt>
      <trkpt lat="47.13541" lon="9.33086">
        <ele>1319.3</ele>
        <time>2024-07-10T05:09:08Z</time>
      </trkpt>
      <trkpt lat="47.13542" lon="9.33084">
        <ele>1319.4</ele>
        <time>2024-07-10T05:09:11Z</time>
      </trkpt>
      <trkpt lat="47.13543" lon="9.33082">
        <ele>1319.4</ele>
        <time>2024-07-10T05:09:12Z</time>
      </trkpt>
      <trkpt lat="47.13543" lon="9.33081">
        <ele>1319.3</ele>
        <time>2024-07-10T05:09:13Z</time>
      </trkpt>
      <trkpt lat="47.13544" lon="9.33079">
        <ele>1319.4</ele>
        <time>2024-07-10T05:09:14Z</time>
      </trkpt>
      <trkpt lat="47.13545" lon="9.33077">
        <ele>1319.4</ele>
        <time>2024-07-10T05:09:15Z</time>
      </trkpt>
      <trkpt lat="47.13545" lon="9.33076">
        <ele>1319.6</ele>
        <time>2024-07-10T05:09:16Z</time>
      </trkpt>
      <trkpt lat="47.13546" lon="9.33074">
        <ele>1320.2</ele>
        <time>2024-07-10T05:09:17Z</time>
      </trkpt>
      <trkpt lat="47.13547" lon="9.33073">
        <ele>1320.3</ele>
        <time>2024-07-10T05:09:18Z</time>
      </trkpt>
      <trkpt lat="47.13548" lon="9.33072">
        <ele>1320.6</ele>
        <time>2024-07-10T05:09:19Z</time>
      </trkpt>
      <trkpt lat="47.13549" lon="9.33069">
        <ele>1321.3</ele>
        <time>2024-07-10T05:09:21Z</time>
      </trkpt>
      <trkpt lat="47.1355" lon="9.33068">
        <ele>1321.9</ele>
        <time>2024-07-10T05:09:22Z</time>
      </trkpt>
      <trkpt lat="47.1355" lon="9.33066">
        <ele>1322.8</ele>
        <time>2024-07-10T05:09:24Z</time>
      </trkpt>
      <trkpt lat="47.1355" lon="9.33063">
        <ele>1323</ele>
        <time>2024-07-10T05:09:26Z</time>
      </trkpt>
      <trkpt lat="47.13551" lon="9.33062">
        <ele>1323.2</ele>
        <time>2024-07-10T05:09:27Z</time>
      </trkpt>
      <trkpt lat="47.13551" lon="9.3306">
        <ele>1323.3</ele>
        <time>2024-07-10T05:09:28Z</time>
      </trkpt>
      <trkpt lat="47.13552" lon="9.33059">
        <ele>1323.6</ele>
        <time>2024-07-10T05:09:29Z</time>
      </trkpt>
      <trkpt lat="47.13552" lon="9.33057">
        <ele>1323.8</ele>
        <time>2024-07-10T05:09:31Z</time>
      </trkpt>
      <trkpt lat="47.13553" lon="9.33056">
        <ele>1324.1</ele>
        <time>2024-07-10T05:09:32Z</time>
      </trkpt>
      <trkpt lat="47.13553" lon="9.33054">
        <ele>1324.3</ele>
        <time>2024-07-10T05:09:33Z</time>
      </trkpt>
      <trkpt lat="47.13553" lon="9.33052">
        <ele>1324.7</ele>
        <time>2024-07-10T05:09:35Z</time>
      </trkpt>
      <trkpt lat="47.13553" lon="9.33051">
        <ele>1325.1</ele>
        <time>2024-07-10T05:09:36Z</time>
      </trkpt>
      <trkpt lat="47.13554" lon="9.33049">
        <ele>1325.6</ele>
        <time>2024-07-10T05:09:38Z</time>
      </trkpt>
      <trkpt lat="47.13554" lon="9.33046">
        <ele>1326.2</ele>
        <time>2024-07-10T05:09:40Z</time>
      </trkpt>
      <trkpt lat="47.13554" lon="9.33044">
        <ele>1327.3</ele>
        <time>2024-07-10T05:09:42Z</time>
      </trkpt>
      <trkpt lat="47.13554" lon="9.33043">
        <ele>1328.1</ele>
        <time>2024-07-10T05:09:44Z</time>
      </trkpt>
      <trkpt lat="47.13555" lon="9.3304">
        <ele>1329.1</ele>
        <time>2024-07-10T05:09:46Z</time>
      </trkpt>
      <trkpt lat="47.13555" lon="9.33039">
        <ele>1329.4</ele>
        <time>2024-07-10T05:09:47Z</time>
      </trkpt>
      <trkpt lat="47.13555" lon="9.33037">
        <ele>1330.4</ele>
        <time>2024-07-10T05:09:49Z</time>
      </trkpt>
      <trkpt lat="47.13556" lon="9.33035">
        <ele>1330.6</ele>
        <time>2024-07-10T05:09:50Z</time>
      </trkpt>
      <trkpt lat="47.13556" lon="9.33034">
        <ele>1331.2</ele>
        <time>2024-07-10T05:09:51Z</time>
      </trkpt>
      <trkpt lat="47.13557" lon="9.33032">
        <ele>1331.6</ele>
        <time>2024-07-10T05:09:52Z</time>
      </trkpt>
      <trkpt lat="47.13557" lon="9.3303">
        <ele>1331.8</ele>
        <time>2024-07-10T05:09:53Z</time>
      </trkpt>
      <trkpt lat="47.13558" lon="9.33029">
        <ele>1331.9</ele>
        <time>2024-07-10T05:09:55Z</time>
      </trkpt>
      <trkpt lat="47.13558" lon="9.33026">
        <ele>1332.4</ele>
        <time>2024-07-10T05:09:57Z</time>
      </trkpt>
      <trkpt lat="47.13558" lon="9.33024">
        <ele>1333</ele>
        <time>2024-07-10T05:09:59Z</time>
      </trkpt>
      <trkpt lat="47.13558" lon="9.33022">
        <ele>1332.9</ele>
        <time>2024-07-10T05:10:01Z</time>
      </trkpt>
      <trkpt lat="47.13558" lon="9.3302">
        <ele>1332.9</ele>
        <time>2024-07-10T05:10:02Z</time>
      </trkpt>
      <trkpt lat="47.13559" lon="9.33018">
        <ele>1332.9</ele>
        <time>2024-07-10T05:10:03Z</time>
      </trkpt>
      <trkpt lat="47.1356" lon="9.33017">
        <ele>1333.1</ele>
        <time>2024-07-10T05:10:04Z</time>
      </trkpt>
      <trkpt lat="47.1356" lon="9.33016">
        <ele>1333.4</ele>
        <time>2024-07-10T05:10:05Z</time>
      </trkpt>
      <trkpt lat="47.13561" lon="9.33014">
        <ele>1333.8</ele>
        <time>2024-07-10T05:10:06Z</time>
      </trkpt>
      <trkpt lat="47.13561" lon="9.33012">
        <ele>1334.3</ele>
        <time>2024-07-10T05:10:08Z</time>
      </trkpt>
      <trkpt lat="47.13562" lon="9.33011">
        <ele>1334.4</ele>
        <time>2024-07-10T05:10:09Z</time>
      </trkpt>
      <trkpt lat="47.13562" lon="9.33009">
        <ele>1334.5</ele>
        <time>2024-07-10T05:10:10Z</time>
      </trkpt>
      <trkpt lat="47.13563" lon="9.33008">
        <ele>1334.8</ele>
        <time>2024-07-10T05:10:11Z</time>
      </trkpt>
      <trkpt lat="47.13563" lon="9.33007">
        <ele>1335</ele>
        <time>2024-07-10T05:10:12Z</time>
      </trkpt>
      <trkpt lat="47.13564" lon="9.33005">
        <ele>1335.5</ele>
        <time>2024-07-10T05:10:13Z</time>
      </trkpt>
      <trkpt lat="47.13564" lon="9.33004">
        <ele>1335.9</ele>
        <time>2024-07-10T05:10:14Z</time>
      </trkpt>
      <trkpt lat="47.13565" lon="9.33003">
        <ele>1336.4</ele>
        <time>2024-07-10T05:10:15Z</time>
      </trkpt>
      <trkpt lat="47.13566" lon="9.33001">
        <ele>1336.5</ele>
        <time>2024-07-10T05:10:16Z</time>
      </trkpt>
      <trkpt lat="47.13566" lon="9.33">
        <ele>1336.5</ele>
        <time>2024-07-10T05:10:17Z</time>
      </trkpt>
      <trkpt lat="47.13567" lon="9.32998">
        <ele>1336.1</ele>
        <time>2024-07-10T05:10:19Z</time>
      </trkpt>
      <trkpt lat="47.13567" lon="9.32996">
        <ele>1336.1</ele>
        <time>2024-07-10T05:10:20Z</time>
      </trkpt>
      <trkpt lat="47.13567" lon="9.32995">
        <ele>1336</ele>
        <time>2024-07-10T05:10:21Z</time>
      </trkpt>
      <trkpt lat="47.13568" lon="9.32994">
        <ele>1336</ele>
        <time>2024-07-10T05:10:22Z</time>
      </trkpt>
      <trkpt lat="47.13568" lon="9.32993">
        <ele>1336.1</ele>
        <time>2024-07-10T05:10:23Z</time>
      </trkpt>
      <trkpt lat="47.13569" lon="9.32991">
        <ele>1336.1</ele>
        <time>2024-07-10T05:10:25Z</time>
      </trkpt>
      <trkpt lat="47.13571" lon="9.3299">
        <ele>1336.7</ele>
        <time>2024-07-10T05:10:27Z</time>
      </trkpt>
      <trkpt lat="47.13572" lon="9.3299">
        <ele>1337.2</ele>
        <time>2024-07-10T05:10:29Z</time>
      </trkpt>
      <trkpt lat="47.13573" lon="9.32989">
        <ele>1337.4</ele>
        <time>2024-07-10T05:10:31Z</time>
      </trkpt>
      <trkpt lat="47.13574" lon="9.32989">
        <ele>1337.9</ele>
        <time>2024-07-10T05:10:34Z</time>
      </trkpt>
      <trkpt lat="47.13575" lon="9.32989">
        <ele>1338.3</ele>
        <time>2024-07-10T05:10:36Z</time>
      </trkpt>
      <trkpt lat="47.13576" lon="9.32991">
        <ele>1338.6</ele>
        <time>2024-07-10T05:10:38Z</time>
      </trkpt>
      <trkpt lat="47.13577" lon="9.32993">
        <ele>1338.8</ele>
        <time>2024-07-10T05:10:40Z</time>
      </trkpt>
      <trkpt lat="47.13578" lon="9.32994">
        <ele>1338.9</ele>
        <time>2024-07-10T05:10:41Z</time>
      </trkpt>
      <trkpt lat="47.13578" lon="9.32995">
        <ele>1339.1</ele>
        <time>2024-07-10T05:10:42Z</time>
      </trkpt>
      <trkpt lat="47.13579" lon="9.32997">
        <ele>1339.7</ele>
        <time>2024-07-10T05:10:44Z</time>
      </trkpt>
      <trkpt lat="47.13581" lon="9.33">
        <ele>1340.2</ele>
        <time>2024-07-10T05:10:46Z</time>
      </trkpt>
      <trkpt lat="47.13581" lon="9.33001">
        <ele>1340.4</ele>
        <time>2024-07-10T05:10:47Z</time>
      </trkpt>
      <trkpt lat="47.13582" lon="9.33002">
        <ele>1340.5</ele>
        <time>2024-07-10T05:10:48Z</time>
      </trkpt>
      <trkpt lat="47.13583" lon="9.33004">
        <ele>1341.3</ele>
        <time>2024-07-10T05:10:49Z</time>
      </trkpt>
      <trkpt lat="47.13583" lon="9.33005">
        <ele>1341.8</ele>
        <time>2024-07-10T05:10:50Z</time>
      </trkpt>
      <trkpt lat="47.13584" lon="9.33006">
        <ele>1342.3</ele>
        <time>2024-07-10T05:10:51Z</time>
      </trkpt>
      <trkpt lat="47.13585" lon="9.33008">
        <ele>1343</ele>
        <time>2024-07-10T05:10:53Z</time>
      </trkpt>
      <trkpt lat="47.13586" lon="9.3301">
        <ele>1343.8</ele>
        <time>2024-07-10T05:10:54Z</time>
      </trkpt>
      <trkpt lat="47.13587" lon="9.33012">
        <ele>1344.1</ele>
        <time>2024-07-10T05:10:56Z</time>
      </trkpt>
      <trkpt lat="47.13588" lon="9.33013">
        <ele>1344.5</ele>
        <time>2024-07-10T05:10:57Z</time>
      </trkpt>
      <trkpt lat="47.13589" lon="9.33014">
        <ele>1345</ele>
        <time>2024-07-10T05:10:58Z</time>
      </trkpt>
      <trkpt lat="47.13589" lon="9.33015">
        <ele>1345.4</ele>
        <time>2024-07-10T05:10:59Z</time>
      </trkpt>
      <trkpt lat="47.1359" lon="9.33016">
        <ele>1345.4</ele>
        <time>2024-07-10T05:11:00Z</time>
      </trkpt>
      <trkpt lat="47.13591" lon="9.33017">
        <ele>1345.7</ele>
        <time>2024-07-10T05:11:01Z</time>
      </trkpt>
      <trkpt lat="47.13592" lon="9.33019">
        <ele>1345.9</ele>
        <time>2024-07-10T05:11:02Z</time>
      </trkpt>
      <trkpt lat="47.13593" lon="9.3302">
        <ele>1345.9</ele>
        <time>2024-07-10T05:11:04Z</time>
      </trkpt>
      <trkpt lat="47.13594" lon="9.33021">
        <ele>1346.1</ele>
        <time>2024-07-10T05:11:05Z</time>
      </trkpt>
      <trkpt lat="47.13595" lon="9.33022">
        <ele>1346.4</ele>
        <time>2024-07-10T05:11:07Z</time>
      </trkpt>
      <trkpt lat="47.13596" lon="9.33022">
        <ele>1346.3</ele>
        <time>2024-07-10T05:11:08Z</time>
      </trkpt>
      <trkpt lat="47.13597" lon="9.33023">
        <ele>1346.4</ele>
        <time>2024-07-10T05:11:09Z</time>
      </trkpt>
      <trkpt lat="47.13598" lon="9.33024">
        <ele>1346.5</ele>
        <time>2024-07-10T05:11:11Z</time>
      </trkpt>
      <trkpt lat="47.13599" lon="9.33025">
        <ele>1346.6</ele>
        <time>2024-07-10T05:11:12Z</time>
      </trkpt>
      <trkpt lat="47.136" lon="9.33026">
        <ele>1346.5</ele>
        <time>2024-07-10T05:11:13Z</time>
      </trkpt>
      <trkpt lat="47.13601" lon="9.33027">
        <ele>1346.6</ele>
        <time>2024-07-10T05:11:14Z</time>
      </trkpt>
      <trkpt lat="47.13601" lon="9.33029">
        <ele>1346.9</ele>
        <time>2024-07-10T05:11:15Z</time>
      </trkpt>
      <trkpt lat="47.13602" lon="9.3303">
        <ele>1347.4</ele>
        <time>2024-07-10T05:11:16Z</time>
      </trkpt>
      <trkpt lat="47.13603" lon="9.3303">
        <ele>1348</ele>
        <time>2024-07-10T05:11:17Z</time>
      </trkpt>
      <trkpt lat="47.13604" lon="9.33032">
        <ele>1348.9</ele>
        <time>2024-07-10T05:11:19Z</time>
      </trkpt>
      <trkpt lat="47.13606" lon="9.33032">
        <ele>1349.7</ele>
        <time>2024-07-10T05:11:21Z</time>
      </trkpt>
      <trkpt lat="47.13607" lon="9.33034">
        <ele>1350.1</ele>
        <time>2024-07-10T05:11:23Z</time>
      </trkpt>
      <trkpt lat="47.13608" lon="9.33036">
        <ele>1351.1</ele>
        <time>2024-07-10T05:11:24Z</time>
      </trkpt>
      <trkpt lat="47.1361" lon="9.33036">
        <ele>1351.7</ele>
        <time>2024-07-10T05:11:25Z</time>
      </trkpt>
      <trkpt lat="47.13611" lon="9.33037">
        <ele>1352.1</ele>
        <time>2024-07-10T05:11:26Z</time>
      </trkpt>
      <trkpt lat="47.13612" lon="9.33038">
        <ele>1352.7</ele>
        <time>2024-07-10T05:11:27Z</time>
      </trkpt>
      <trkpt lat="47.13613" lon="9.33039">
        <ele>1353.1</ele>
        <time>2024-07-10T05:11:28Z</time>
      </trkpt>
      <trkpt lat="47.13614" lon="9.33039">
        <ele>1353.7</ele>
        <time>2024-07-10T05:11:29Z</time>
      </trkpt>
      <trkpt lat="47.13615" lon="9.33041">
        <ele>1354.4</ele>
        <time>2024-07-10T05:11:31Z</time>
      </trkpt>
      <trkpt lat="47.13616" lon="9.33042">
        <ele>1354.6</ele>
        <time>2024-07-10T05:11:32Z</time>
      </trkpt>
      <trkpt lat="47.13617" lon="9.33043">
        <ele>1354.6</ele>
        <time>2024-07-10T05:11:33Z</time>
      </trkpt>
      <trkpt lat="47.13619" lon="9.33044">
        <ele>1355.1</ele>
        <time>2024-07-10T05:11:35Z</time>
      </trkpt>
      <trkpt lat="47.1362" lon="9.33044">
        <ele>1355.2</ele>
        <time>2024-07-10T05:11:36Z</time>
      </trkpt>
      <trkpt lat="47.13621" lon="9.33044">
        <ele>1355.7</ele>
        <time>2024-07-10T05:11:37Z</time>
      </trkpt>
      <trkpt lat="47.13622" lon="9.33045">
        <ele>1356.1</ele>
        <time>2024-07-10T05:11:38Z</time>
      </trkpt>
      <trkpt lat="47.13624" lon="9.33044">
        <ele>1357</ele>
        <time>2024-07-10T05:11:40Z</time>
      </trkpt>
      <trkpt lat="47.13624" lon="9.33042">
        <ele>1357.3</ele>
        <time>2024-07-10T05:11:41Z</time>
      </trkpt>
      <trkpt lat="47.13625" lon="9.33041">
        <ele>1357.4</ele>
        <time>2024-07-10T05:11:42Z</time>
      </trkpt>
      <trkpt lat="47.13626" lon="9.3304">
        <ele>1357.5</ele>
        <time>2024-07-10T05:11:43Z</time>
      </trkpt>
      <trkpt lat="47.13627" lon="9.33039">
        <ele>1357.3</ele>
        <time>2024-07-10T05:11:45Z</time>
      </trkpt>
      <trkpt lat="47.13629" lon="9.33038">
        <ele>1356.8</ele>
        <time>2024-07-10T05:11:47Z</time>
      </trkpt>
      <trkpt lat="47.1363" lon="9.33038">
        <ele>1356.5</ele>
        <time>2024-07-10T05:11:48Z</time>
      </trkpt>
      <trkpt lat="47.13631" lon="9.33037">
        <ele>1356.2</ele>
        <time>2024-07-10T05:11:49Z</time>
      </trkpt>
      <trkpt lat="47.13632" lon="9.33037">
        <ele>1355.7</ele>
        <time>2024-07-10T05:11:51Z</time>
      </trkpt>
      <trkpt lat="47.13633" lon="9.33036">
        <ele>1355.6</ele>
        <time>2024-07-10T05:11:52Z</time>
      </trkpt>
      <trkpt lat="47.13634" lon="9.33035">
        <ele>1355.5</ele>
        <time>2024-07-10T05:11:53Z</time>
      </trkpt>
      <trkpt lat="47.13635" lon="9.33034">
        <ele>1355.7</ele>
        <time>2024-07-10T05:11:54Z</time>
      </trkpt>
      <trkpt lat="47.13636" lon="9.33034">
        <ele>1355.8</ele>
        <time>2024-07-10T05:11:55Z</time>
      </trkpt>
      <trkpt lat="47.13637" lon="9.33033">
        <ele>1355.7</ele>
        <time>2024-07-10T05:11:57Z</time>
      </trkpt>
      <trkpt lat="47.13638" lon="9.33033">
        <ele>1356.3</ele>
        <time>2024-07-10T05:11:58Z</time>
      </trkpt>
      <trkpt lat="47.13639" lon="9.33033">
        <ele>1357.1</ele>
        <time>2024-07-10T05:12:00Z</time>
      </trkpt>
      <trkpt lat="47.1364" lon="9.33032">
        <ele>1358.4</ele>
        <time>2024-07-10T05:12:02Z</time>
      </trkpt>
      <trkpt lat="47.13641" lon="9.33033">
        <ele>1360.5</ele>
        <time>2024-07-10T05:12:05Z</time>
      </trkpt>
      <trkpt lat="47.13641" lon="9.33034">
        <ele>1358.9</ele>
        <time>2024-07-10T05:12:07Z</time>
      </trkpt>
      <trkpt lat="47.1364" lon="9.33034">
        <ele>1356.5</ele>
        <time>2024-07-10T05:12:11Z</time>
      </trkpt>
      <trkpt lat="47.13641" lon="9.33032">
        <ele>1358.3</ele>
        <time>2024-07-10T05:12:12Z</time>
      </trkpt>
      <trkpt lat="47.13642" lon="9.3303">
        <ele>1358.5</ele>
        <time>2024-07-10T05:12:14Z</time>
      </trkpt>
      <trkpt lat="47.13643" lon="9.33028">
        <ele>1358.5</ele>
        <time>2024-07-10T05:12:15Z</time>
      </trkpt>
      <trkpt lat="47.13644" lon="9.33026">
        <ele>1358</ele>
        <time>2024-07-10T05:12:16Z</time>
      </trkpt>
      <trkpt lat="47.13645" lon="9.33027">
        <ele>1357.8</ele>
        <time>2024-07-10T05:12:17Z</time>
      </trkpt>
      <trkpt lat="47.13646" lon="9.33026">
        <ele>1358.6</ele>
        <time>2024-07-10T05:12:18Z</time>
      </trkpt>
      <trkpt lat="47.13647" lon="9.33024">
        <ele>1359.8</ele>
        <time>2024-07-10T05:12:19Z</time>
      </trkpt>
      <trkpt lat="47.13648" lon="9.33023">
        <ele>1361.3</ele>
        <time>2024-07-10T05:12:20Z</time>
      </trkpt>
      <trkpt lat="47.13648" lon="9.33024">
        <ele>1362.1</ele>
        <time>2024-07-10T05:12:22Z</time>
      </trkpt>
      <trkpt lat="47.13649" lon="9.33025">
        <ele>1362.3</ele>
        <time>2024-07-10T05:12:23Z</time>
      </trkpt>
      <trkpt lat="47.1365" lon="9.33025">
        <ele>1363.2</ele>
        <time>2024-07-10T05:12:25Z</time>
      </trkpt>
      <trkpt lat="47.13651" lon="9.33024">
        <ele>1363.6</ele>
        <time>2024-07-10T05:12:26Z</time>
      </trkpt>
      <trkpt lat="47.13652" lon="9.33023">
        <ele>1363.8</ele>
        <time>2024-07-10T05:12:27Z</time>
      </trkpt>
      <trkpt lat="47.13653" lon="9.33022">
        <ele>1365</ele>
        <time>2024-07-10T05:12:28Z</time>
      </trkpt>
      <trkpt lat="47.13655" lon="9.33021">
        <ele>1365.8</ele>
        <time>2024-07-10T05:12:29Z</time>
      </trkpt>
      <trkpt lat="47.13656" lon="9.33021">
        <ele>1366.6</ele>
        <time>2024-07-10T05:12:30Z</time>
      </trkpt>
      <trkpt lat="47.13657" lon="9.33019">
        <ele>1367</ele>
        <time>2024-07-10T05:12:31Z</time>
      </trkpt>
      <trkpt lat="47.13658" lon="9.33018">
        <ele>1367</ele>
        <time>2024-07-10T05:12:32Z</time>
      </trkpt>
      <trkpt lat="47.13659" lon="9.33016">
        <ele>1366.6</ele>
        <time>2024-07-10T05:12:33Z</time>
      </trkpt>
      <trkpt lat="47.1366" lon="9.33015">
        <ele>1366.2</ele>
        <time>2024-07-10T05:12:34Z</time>
      </trkpt>
      <trkpt lat="47.13661" lon="9.33014">
        <ele>1366.2</ele>
        <time>2024-07-10T05:12:36Z</time>
      </trkpt>
      <trkpt lat="47.13662" lon="9.33013">
        <ele>1365.2</ele>
        <time>2024-07-10T05:12:37Z</time>
      </trkpt>
      <trkpt lat="47.13663" lon="9.33011">
        <ele>1364.5</ele>
        <time>2024-07-10T05:12:39Z</time>
      </trkpt>
      <trkpt lat="47.13665" lon="9.33011">
        <ele>1364.4</ele>
        <time>2024-07-10T05:12:40Z</time>
      </trkpt>
      <trkpt lat="47.13666" lon="9.3301">
        <ele>1363.4</ele>
        <time>2024-07-10T05:12:42Z</time>
      </trkpt>
      <trkpt lat="47.13667" lon="9.33008">
        <ele>1362.6</ele>
        <time>2024-07-10T05:12:44Z</time>
      </trkpt>
      <trkpt lat="47.13667" lon="9.33007">
        <ele>1362.2</ele>
        <time>2024-07-10T05:12:46Z</time>
      </trkpt>
      <trkpt lat="47.13668" lon="9.33006">
        <ele>1362</ele>
        <time>2024-07-10T05:12:47Z</time>
      </trkpt>
      <trkpt lat="47.13669" lon="9.33006">
        <ele>1361.8</ele>
        <time>2024-07-10T05:12:48Z</time>
      </trkpt>
      <trkpt lat="47.1367" lon="9.33004">
        <ele>1362.5</ele>
        <time>2024-07-10T05:12:49Z</time>
      </trkpt>
      <trkpt lat="47.13671" lon="9.33003">
        <ele>1362.5</ele>
        <time>2024-07-10T05:12:50Z</time>
      </trkpt>
      <trkpt lat="47.13672" lon="9.33003">
        <ele>1362.6</ele>
        <time>2024-07-10T05:12:51Z</time>
      </trkpt>
      <trkpt lat="47.13673" lon="9.33001">
        <ele>1362.7</ele>
        <time>2024-07-10T05:12:53Z</time>
      </trkpt>
      <trkpt lat="47.13674" lon="9.33001">
        <ele>1362.9</ele>
        <time>2024-07-10T05:12:54Z</time>
      </trkpt>
      <trkpt lat="47.13675" lon="9.33">
        <ele>1362.9</ele>
        <time>2024-07-10T05:12:55Z</time>
      </trkpt>
      <trkpt lat="47.13676" lon="9.32998">
        <ele>1362.6</ele>
        <time>2024-07-10T05:12:56Z</time>
      </trkpt>
      <trkpt lat="47.13677" lon="9.32997">
        <ele>1362.6</ele>
        <time>2024-07-10T05:12:57Z</time>
      </trkpt>
      <trkpt lat="47.13679" lon="9.32996">
        <ele>1362.3</ele>
        <time>2024-07-10T05:12:59Z</time>
      </trkpt>
      <trkpt lat="47.13679" lon="9.32994">
        <ele>1362.6</ele>
        <time>2024-07-10T05:13:00Z</time>
      </trkpt>
      <trkpt lat="47.1368" lon="9.32992">
        <ele>1363.3</ele>
        <time>2024-07-10T05:13:02Z</time>
      </trkpt>
      <trkpt lat="47.13681" lon="9.32991">
        <ele>1364.2</ele>
        <time>2024-07-10T05:13:03Z</time>
      </trkpt>
      <trkpt lat="47.13682" lon="9.3299">
        <ele>1364.6</ele>
        <time>2024-07-10T05:13:04Z</time>
      </trkpt>
      <trkpt lat="47.13683" lon="9.32988">
        <ele>1365.2</ele>
        <time>2024-07-10T05:13:06Z</time>
      </trkpt>
      <trkpt lat="47.13683" lon="9.32986">
        <ele>1365.3</ele>
        <time>2024-07-10T05:13:07Z</time>
      </trkpt>
      <trkpt lat="47.13683" lon="9.32985">
        <ele>1365.9</ele>
        <time>2024-07-10T05:13:08Z</time>
      </trkpt>
      <trkpt lat="47.13683" lon="9.32982">
        <ele>1366.5</ele>
        <time>2024-07-10T05:13:10Z</time>
      </trkpt>
      <trkpt lat="47.13684" lon="9.3298">
        <ele>1367.6</ele>
        <time>2024-07-10T05:13:12Z</time>
      </trkpt>
      <trkpt lat="47.13685" lon="9.32978">
        <ele>1367.9</ele>
        <time>2024-07-10T05:13:13Z</time>
      </trkpt>
      <trkpt lat="47.13685" lon="9.32977">
        <ele>1368.2</ele>
        <time>2024-07-10T05:13:14Z</time>
      </trkpt>
      <trkpt lat="47.13686" lon="9.32975">
        <ele>1368</ele>
        <time>2024-07-10T05:13:15Z</time>
      </trkpt>
      <trkpt lat="47.13686" lon="9.32974">
        <ele>1368.3</ele>
        <time>2024-07-10T05:13:16Z</time>
      </trkpt>
      <trkpt lat="47.13687" lon="9.32972">
        <ele>1369.4</ele>
        <time>2024-07-10T05:13:18Z</time>
      </trkpt>
      <trkpt lat="47.13688" lon="9.32969">
        <ele>1370.3</ele>
        <time>2024-07-10T05:13:20Z</time>
      </trkpt>
      <trkpt lat="47.13688" lon="9.32967">
        <ele>1371.2</ele>
        <time>2024-07-10T05:13:21Z</time>
      </trkpt>
      <trkpt lat="47.13689" lon="9.32966">
        <ele>1371.2</ele>
        <time>2024-07-10T05:13:22Z</time>
      </trkpt>
      <trkpt lat="47.1369" lon="9.32965">
        <ele>1371.3</ele>
        <time>2024-07-10T05:13:23Z</time>
      </trkpt>
      <trkpt lat="47.13691" lon="9.32963">
        <ele>1371.3</ele>
        <time>2024-07-10T05:13:24Z</time>
      </trkpt>
      <trkpt lat="47.13692" lon="9.32961">
        <ele>1371.4</ele>
        <time>2024-07-10T05:13:25Z</time>
      </trkpt>
      <trkpt lat="47.13693" lon="9.32959">
        <ele>1371.6</ele>
        <time>2024-07-10T05:13:26Z</time>
      </trkpt>
      <trkpt lat="47.13693" lon="9.32958">
        <ele>1371.5</ele>
        <time>2024-07-10T05:13:27Z</time>
      </trkpt>
      <trkpt lat="47.13694" lon="9.32957">
        <ele>1371.7</ele>
        <time>2024-07-10T05:13:28Z</time>
      </trkpt>
      <trkpt lat="47.13695" lon="9.32955">
        <ele>1373.1</ele>
        <time>2024-07-10T05:13:30Z</time>
      </trkpt>
      <trkpt lat="47.13696" lon="9.32953">
        <ele>1374</ele>
        <time>2024-07-10T05:13:32Z</time>
      </trkpt>
      <trkpt lat="47.13696" lon="9.3295">
        <ele>1374.8</ele>
        <time>2024-07-10T05:13:34Z</time>
      </trkpt>
      <trkpt lat="47.13696" lon="9.32949">
        <ele>1375.1</ele>
        <time>2024-07-10T05:13:35Z</time>
      </trkpt>
      <trkpt lat="47.13696" lon="9.32947">
        <ele>1375.2</ele>
        <time>2024-07-10T05:13:36Z</time>
      </trkpt>
      <trkpt lat="47.13696" lon="9.32945">
        <ele>1375.1</ele>
        <time>2024-07-10T05:13:37Z</time>
      </trkpt>
      <trkpt lat="47.13696" lon="9.32944">
        <ele>1375.3</ele>
        <time>2024-07-10T05:13:38Z</time>
      </trkpt>
      <trkpt lat="47.13697" lon="9.32942">
        <ele>1375.5</ele>
        <time>2024-07-10T05:13:39Z</time>
      </trkpt>
      <trkpt lat="47.13698" lon="9.3294">
        <ele>1375.9</ele>
        <time>2024-07-10T05:13:41Z</time>
      </trkpt>
      <trkpt lat="47.13699" lon="9.32938">
        <ele>1376.3</ele>
        <time>2024-07-10T05:13:42Z</time>
      </trkpt>
      <trkpt lat="47.13699" lon="9.32937">
        <ele>1376.5</ele>
        <time>2024-07-10T05:13:43Z</time>
      </trkpt>
      <trkpt lat="47.137" lon="9.32935">
        <ele>1376.7</ele>
        <time>2024-07-10T05:13:44Z</time>
      </trkpt>
      <trkpt lat="47.137" lon="9.32933">
        <ele>1377.9</ele>
        <time>2024-07-10T05:13:46Z</time>
      </trkpt>
      <trkpt lat="47.137" lon="9.32932">
        <ele>1378</ele>
        <time>2024-07-10T05:13:47Z</time>
      </trkpt>
      <trkpt lat="47.137" lon="9.3293">
        <ele>1378.1</ele>
        <time>2024-07-10T05:13:48Z</time>
      </trkpt>
      <trkpt lat="47.137" lon="9.32927">
        <ele>1378.2</ele>
        <time>2024-07-10T05:13:50Z</time>
      </trkpt>
      <trkpt lat="47.137" lon="9.32926">
        <ele>1378.5</ele>
        <time>2024-07-10T05:13:51Z</time>
      </trkpt>
      <trkpt lat="47.13701" lon="9.32924">
        <ele>1378.9</ele>
        <time>2024-07-10T05:13:52Z</time>
      </trkpt>
      <trkpt lat="47.13702" lon="9.32922">
        <ele>1379.1</ele>
        <time>2024-07-10T05:13:53Z</time>
      </trkpt>
      <trkpt lat="47.13702" lon="9.3292">
        <ele>1379.7</ele>
        <time>2024-07-10T05:13:54Z</time>
      </trkpt>
      <trkpt lat="47.13703" lon="9.32918">
        <ele>1380</ele>
        <time>2024-07-10T05:13:56Z</time>
      </trkpt>
      <trkpt lat="47.13703" lon="9.32916">
        <ele>1380.1</ele>
        <time>2024-07-10T05:13:57Z</time>
      </trkpt>
      <trkpt lat="47.13704" lon="9.32915">
        <ele>1380</ele>
        <time>2024-07-10T05:13:58Z</time>
      </trkpt>
      <trkpt lat="47.13704" lon="9.32913">
        <ele>1379</ele>
        <time>2024-07-10T05:13:59Z</time>
      </trkpt>
      <trkpt lat="47.13705" lon="9.32912">
        <ele>1378.7</ele>
        <time>2024-07-10T05:14:00Z</time>
      </trkpt>
      <trkpt lat="47.13705" lon="9.32911">
        <ele>1378</ele>
        <time>2024-07-10T05:14:01Z</time>
      </trkpt>
      <trkpt lat="47.13706" lon="9.32909">
        <ele>1377.2</ele>
        <time>2024-07-10T05:14:02Z</time>
      </trkpt>
      <trkpt lat="47.13707" lon="9.32906">
        <ele>1377.1</ele>
        <time>2024-07-10T05:14:04Z</time>
      </trkpt>
      <trkpt lat="47.13707" lon="9.32905">
        <ele>1377.3</ele>
        <time>2024-07-10T05:14:05Z</time>
      </trkpt>
      <trkpt lat="47.13708" lon="9.32904">
        <ele>1377.4</ele>
        <time>2024-07-10T05:14:06Z</time>
      </trkpt>
      <trkpt lat="47.13709" lon="9.32903">
        <ele>1377.5</ele>
        <time>2024-07-10T05:14:08Z</time>
      </trkpt>
      <trkpt lat="47.1371" lon="9.32902">
        <ele>1377.4</ele>
        <time>2024-07-10T05:14:10Z</time>
      </trkpt>
      <trkpt lat="47.13711" lon="9.32901">
        <ele>1377.4</ele>
        <time>2024-07-10T05:14:11Z</time>
      </trkpt>
      <trkpt lat="47.13712" lon="9.32901">
        <ele>1377.6</ele>
        <time>2024-07-10T05:14:12Z</time>
      </trkpt>
      <trkpt lat="47.13713" lon="9.32901">
        <ele>1377.7</ele>
        <time>2024-07-10T05:14:13Z</time>
      </trkpt>
      <trkpt lat="47.13714" lon="9.329">
        <ele>1377.6</ele>
        <time>2024-07-10T05:14:14Z</time>
      </trkpt>
      <trkpt lat="47.13715" lon="9.329">
        <ele>1377.7</ele>
        <time>2024-07-10T05:14:15Z</time>
      </trkpt>
      <trkpt lat="47.13717" lon="9.32899">
        <ele>1377.6</ele>
        <time>2024-07-10T05:14:16Z</time>
      </trkpt>
      <trkpt lat="47.13718" lon="9.32899">
        <ele>1377.5</ele>
        <time>2024-07-10T05:14:17Z</time>
      </trkpt>
      <trkpt lat="47.13719" lon="9.32899">
        <ele>1377.3</ele>
        <time>2024-07-10T05:14:18Z</time>
      </trkpt>
      <trkpt lat="47.1372" lon="9.329">
        <ele>1377.4</ele>
        <time>2024-07-10T05:14:19Z</time>
      </trkpt>
      <trkpt lat="47.13721" lon="9.32899">
        <ele>1377.4</ele>
        <time>2024-07-10T05:14:20Z</time>
      </trkpt>
      <trkpt lat="47.13722" lon="9.329">
        <ele>1377.5</ele>
        <time>2024-07-10T05:14:21Z</time>
      </trkpt>
      <trkpt lat="47.13724" lon="9.32899">
        <ele>1377.4</ele>
        <time>2024-07-10T05:14:22Z</time>
      </trkpt>
      <trkpt lat="47.13725" lon="9.32899">
        <ele>1377.5</ele>
        <time>2024-07-10T05:14:23Z</time>
      </trkpt>
      <trkpt lat="47.13726" lon="9.32899">
        <ele>1377.3</ele>
        <time>2024-07-10T05:14:24Z</time>
      </trkpt>
      <trkpt lat="47.13727" lon="9.329">
        <ele>1377.3</ele>
        <time>2024-07-10T05:14:25Z</time>
      </trkpt>
      <trkpt lat="47.13729" lon="9.329">
        <ele>1377.1</ele>
        <time>2024-07-10T05:14:26Z</time>
      </trkpt>
      <trkpt lat="47.1373" lon="9.32901">
        <ele>1376.9</ele>
        <time>2024-07-10T05:14:27Z</time>
      </trkpt>
      <trkpt lat="47.13732" lon="9.32901">
        <ele>1376.2</ele>
        <time>2024-07-10T05:14:29Z</time>
      </trkpt>
      <trkpt lat="47.13734" lon="9.32901">
        <ele>1376.2</ele>
        <time>2024-07-10T05:14:30Z</time>
      </trkpt>
      <trkpt lat="47.13735" lon="9.32901">
        <ele>1376.2</ele>
        <time>2024-07-10T05:14:31Z</time>
      </trkpt>
      <trkpt lat="47.13736" lon="9.329">
        <ele>1376</ele>
        <time>2024-07-10T05:14:32Z</time>
      </trkpt>
      <trkpt lat="47.13737" lon="9.32899">
        <ele>1375.8</ele>
        <time>2024-07-10T05:14:33Z</time>
      </trkpt>
      <trkpt lat="47.13738" lon="9.32899">
        <ele>1375.9</ele>
        <time>2024-07-10T05:14:34Z</time>
      </trkpt>
      <trkpt lat="47.1374" lon="9.32898">
        <ele>1375.9</ele>
        <time>2024-07-10T05:14:35Z</time>
      </trkpt>
      <trkpt lat="47.13741" lon="9.32897">
        <ele>1375.9</ele>
        <time>2024-07-10T05:14:36Z</time>
      </trkpt>
      <trkpt lat="47.13742" lon="9.32896">
        <ele>1375.7</ele>
        <time>2024-07-10T05:14:38Z</time>
      </trkpt>
      <trkpt lat="47.13743" lon="9.32895">
        <ele>1375</ele>
        <time>2024-07-10T05:14:39Z</time>
      </trkpt>
      <trkpt lat="47.13744" lon="9.32894">
        <ele>1374.8</ele>
        <time>2024-07-10T05:14:40Z</time>
      </trkpt>
      <trkpt lat="47.13746" lon="9.32893">
        <ele>1374.9</ele>
        <time>2024-07-10T05:14:41Z</time>
      </trkpt>
      <trkpt lat="47.13747" lon="9.32893">
        <ele>1375.2</ele>
        <time>2024-07-10T05:14:42Z</time>
      </trkpt>
      <trkpt lat="47.13749" lon="9.32892">
        <ele>1375.8</ele>
        <time>2024-07-10T05:14:43Z</time>
      </trkpt>
      <trkpt lat="47.1375" lon="9.32892">
        <ele>1376</ele>
        <time>2024-07-10T05:14:44Z</time>
      </trkpt>
      <trkpt lat="47.13751" lon="9.32891">
        <ele>1375.9</ele>
        <time>2024-07-10T05:14:45Z</time>
      </trkpt>
      <trkpt lat="47.13752" lon="9.32891">
        <ele>1375.8</ele>
        <time>2024-07-10T05:14:46Z</time>
      </trkpt>
      <trkpt lat="47.13753" lon="9.3289">
        <ele>1375.8</ele>
        <time>2024-07-10T05:14:47Z</time>
      </trkpt>
      <trkpt lat="47.13754" lon="9.32889">
        <ele>1375.7</ele>
        <time>2024-07-10T05:14:48Z</time>
      </trkpt>
      <trkpt lat="47.13755" lon="9.32889">
        <ele>1375.8</ele>
        <time>2024-07-10T05:14:49Z</time>
      </trkpt>
      <trkpt lat="47.13756" lon="9.32888">
        <ele>1375.6</ele>
        <time>2024-07-10T05:14:50Z</time>
      </trkpt>
      <trkpt lat="47.13757" lon="9.32887">
        <ele>1375.7</ele>
        <time>2024-07-10T05:14:51Z</time>
      </trkpt>
      <trkpt lat="47.13759" lon="9.32886">
        <ele>1375.6</ele>
        <time>2024-07-10T05:14:52Z</time>
      </trkpt>
      <trkpt lat="47.1376" lon="9.32886">
        <ele>1375.7</ele>
        <time>2024-07-10T05:14:53Z</time>
      </trkpt>
      <trkpt lat="47.13761" lon="9.32885">
        <ele>1375.4</ele>
        <time>2024-07-10T05:14:54Z</time>
      </trkpt>
      <trkpt lat="47.13763" lon="9.32884">
        <ele>1375.3</ele>
        <time>2024-07-10T05:14:55Z</time>
      </trkpt>
      <trkpt lat="47.13764" lon="9.32883">
        <ele>1375.2</ele>
        <time>2024-07-10T05:14:56Z</time>
      </trkpt>
      <trkpt lat="47.13765" lon="9.32882">
        <ele>1375</ele>
        <time>2024-07-10T05:14:57Z</time>
      </trkpt>
      <trkpt lat="47.13766" lon="9.32881">
        <ele>1374.8</ele>
        <time>2024-07-10T05:14:58Z</time>
      </trkpt>
      <trkpt lat="47.13767" lon="9.32881">
        <ele>1375.1</ele>
        <time>2024-07-10T05:14:59Z</time>
      </trkpt>
      <trkpt lat="47.13769" lon="9.3288">
        <ele>1375.7</ele>
        <time>2024-07-10T05:15:00Z</time>
      </trkpt>
      <trkpt lat="47.1377" lon="9.3288">
        <ele>1375.9</ele>
        <time>2024-07-10T05:15:01Z</time>
      </trkpt>
      <trkpt lat="47.13771" lon="9.32879">
        <ele>1376.2</ele>
        <time>2024-07-10T05:15:02Z</time>
      </trkpt>
      <trkpt lat="47.13772" lon="9.32878">
        <ele>1376.4</ele>
        <time>2024-07-10T05:15:03Z</time>
      </trkpt>
      <trkpt lat="47.13773" lon="9.32878">
        <ele>1376.6</ele>
        <time>2024-07-10T05:15:04Z</time>
      </trkpt>
      <trkpt lat="47.13774" lon="9.32877">
        <ele>1376.7</ele>
        <time>2024-07-10T05:15:05Z</time>
      </trkpt>
      <trkpt lat="47.13775" lon="9.32876">
        <ele>1376.7</ele>
        <time>2024-07-10T05:15:06Z</time>
      </trkpt>
      <trkpt lat="47.13776" lon="9.32875">
        <ele>1376.8</ele>
        <time>2024-07-10T05:15:07Z</time>
      </trkpt>
      <trkpt lat="47.13777" lon="9.32875">
        <ele>1376.6</ele>
        <time>2024-07-10T05:15:08Z</time>
      </trkpt>
      <trkpt lat="47.13778" lon="9.32874">
        <ele>1376.5</ele>
        <time>2024-07-10T05:15:09Z</time>
      </trkpt>
      <trkpt lat="47.13779" lon="9.32873">
        <ele>1376.6</ele>
        <time>2024-07-10T05:15:10Z</time>
      </trkpt>
      <trkpt lat="47.1378" lon="9.32873">
        <ele>1376.6</ele>
        <time>2024-07-10T05:15:11Z</time>
      </trkpt>
      <trkpt lat="47.13782" lon="9.32872">
        <ele>1376.7</ele>
        <time>2024-07-10T05:15:12Z</time>
      </trkpt>
      <trkpt lat="47.13783" lon="9.32872">
        <ele>1376.9</ele>
        <time>2024-07-10T05:15:13Z</time>
      </trkpt>
      <trkpt lat="47.13784" lon="9.32872">
        <ele>1376.8</ele>
        <time>2024-07-10T05:15:14Z</time>
      </trkpt>
      <trkpt lat="47.13786" lon="9.32872">
        <ele>1376.3</ele>
        <time>2024-07-10T05:15:15Z</time>
      </trkpt>
      <trkpt lat="47.13787" lon="9.32872">
        <ele>1376.3</ele>
        <time>2024-07-10T05:15:16Z</time>
      </trkpt>
      <trkpt lat="47.13788" lon="9.32871">
        <ele>1376.5</ele>
        <time>2024-07-10T05:15:17Z</time>
      </trkpt>
      <trkpt lat="47.13789" lon="9.3287">
        <ele>1374.9</ele>
        <time>2024-07-10T05:15:18Z</time>
      </trkpt>
      <trkpt lat="47.13791" lon="9.32869">
        <ele>1374.6</ele>
        <time>2024-07-10T05:15:19Z</time>
      </trkpt>
      <trkpt lat="47.13793" lon="9.32868">
        <ele>1373</ele>
        <time>2024-07-10T05:15:20Z</time>
      </trkpt>
      <trkpt lat="47.13796" lon="9.32865">
        <ele>1371.3</ele>
        <time>2024-07-10T05:15:21Z</time>
      </trkpt>
      <trkpt lat="47.13798" lon="9.32864">
        <ele>1369.8</ele>
        <time>2024-07-10T05:15:22Z</time>
      </trkpt>
      <trkpt lat="47.13799" lon="9.32862">
        <ele>1369</ele>
        <time>2024-07-10T05:15:23Z</time>
      </trkpt>
      <trkpt lat="47.13801" lon="9.32861">
        <ele>1368.8</ele>
        <time>2024-07-10T05:15:24Z</time>
      </trkpt>
      <trkpt lat="47.13802" lon="9.3286">
        <ele>1368.4</ele>
        <time>2024-07-10T05:15:25Z</time>
      </trkpt>
      <trkpt lat="47.13804" lon="9.32859">
        <ele>1368.8</ele>
        <time>2024-07-10T05:15:26Z</time>
      </trkpt>
      <trkpt lat="47.13805" lon="9.32859">
        <ele>1369.3</ele>
        <time>2024-07-10T05:15:27Z</time>
      </trkpt>
      <trkpt lat="47.13806" lon="9.32859">
        <ele>1369.2</ele>
        <time>2024-07-10T05:15:28Z</time>
      </trkpt>
      <trkpt lat="47.13808" lon="9.32858">
        <ele>1369</ele>
        <time>2024-07-10T05:15:29Z</time>
      </trkpt>
      <trkpt lat="47.13809" lon="9.32858">
        <ele>1369</ele>
        <time>2024-07-10T05:15:30Z</time>
      </trkpt>
      <trkpt lat="47.13811" lon="9.32858">
        <ele>1368.9</ele>
        <time>2024-07-10T05:15:31Z</time>
      </trkpt>
      <trkpt lat="47.13812" lon="9.32858">
        <ele>1368.5</ele>
        <time>2024-07-10T05:15:32Z</time>
      </trkpt>
      <trkpt lat="47.13813" lon="9.32858">
        <ele>1368.4</ele>
        <time>2024-07-10T05:15:33Z</time>
      </trkpt>
      <trkpt lat="47.13814" lon="9.32858">
        <ele>1368.4</ele>
        <time>2024-07-10T05:15:34Z</time>
      </trkpt>
      <trkpt lat="47.13815" lon="9.32858">
        <ele>1368.4</ele>
        <time>2024-07-10T05:15:35Z</time>
      </trkpt>
      <trkpt lat="47.13816" lon="9.32858">
        <ele>1368.4</ele>
        <time>2024-07-10T05:15:36Z</time>
      </trkpt>
      <trkpt lat="47.13818" lon="9.32858">
        <ele>1368.5</ele>
        <time>2024-07-10T05:15:37Z</time>
      </trkpt>
      <trkpt lat="47.1382" lon="9.32858">
        <ele>1368.4</ele>
        <time>2024-07-10T05:15:38Z</time>
      </trkpt>
      <trkpt lat="47.13822" lon="9.32857">
        <ele>1367.9</ele>
        <time>2024-07-10T05:15:39Z</time>
      </trkpt>
      <trkpt lat="47.13823" lon="9.32857">
        <ele>1367.4</ele>
        <time>2024-07-10T05:15:40Z</time>
      </trkpt>
      <trkpt lat="47.13825" lon="9.32856">
        <ele>1366.9</ele>
        <time>2024-07-10T05:15:41Z</time>
      </trkpt>
      <trkpt lat="47.13826" lon="9.32855">
        <ele>1366.5</ele>
        <time>2024-07-10T05:15:42Z</time>
      </trkpt>
      <trkpt lat="47.13828" lon="9.32854">
        <ele>1365.9</ele>
        <time>2024-07-10T05:15:43Z</time>
      </trkpt>
      <trkpt lat="47.13829" lon="9.32853">
        <ele>1365.7</ele>
        <time>2024-07-10T05:15:44Z</time>
      </trkpt>
      <trkpt lat="47.1383" lon="9.32852">
        <ele>1364.4</ele>
        <time>2024-07-10T05:15:45Z</time>
      </trkpt>
      <trkpt lat="47.13831" lon="9.32851">
        <ele>1363.7</ele>
        <time>2024-07-10T05:15:46Z</time>
      </trkpt>
      <trkpt lat="47.13832" lon="9.32851">
        <ele>1363.4</ele>
        <time>2024-07-10T05:15:47Z</time>
      </trkpt>
      <trkpt lat="47.13834" lon="9.3285">
        <ele>1363</ele>
        <time>2024-07-10T05:15:48Z</time>
      </trkpt>
      <trkpt lat="47.13836" lon="9.3285">
        <ele>1363</ele>
        <time>2024-07-10T05:15:49Z</time>
      </trkpt>
      <trkpt lat="47.13838" lon="9.3285">
        <ele>1362.5</ele>
        <time>2024-07-10T05:15:50Z</time>
      </trkpt>
      <trkpt lat="47.1384" lon="9.32849">
        <ele>1362.4</ele>
        <time>2024-07-10T05:15:51Z</time>
      </trkpt>
      <trkpt lat="47.13841" lon="9.32849">
        <ele>1362.2</ele>
        <time>2024-07-10T05:15:52Z</time>
      </trkpt>
      <trkpt lat="47.13843" lon="9.32848">
        <ele>1364.2</ele>
        <time>2024-07-10T05:15:54Z</time>
      </trkpt>
      <trkpt lat="47.13844" lon="9.32847">
        <ele>1364.3</ele>
        <time>2024-07-10T05:15:55Z</time>
      </trkpt>
      <trkpt lat="47.13844" lon="9.32846">
        <ele>1364.3</ele>
        <time>2024-07-10T05:15:57Z</time>
      </trkpt>
      <trkpt lat="47.13846" lon="9.32847">
        <ele>1364.1</ele>
        <time>2024-07-10T05:15:58Z</time>
      </trkpt>
      <trkpt lat="47.13847" lon="9.32848">
        <ele>1364.1</ele>
        <time>2024-07-10T05:15:59Z</time>
      </trkpt>
      <trkpt lat="47.13848" lon="9.32848">
        <ele>1364.1</ele>
        <time>2024-07-10T05:16:00Z</time>
      </trkpt>
      <trkpt lat="47.1385" lon="9.32848">
        <ele>1364</ele>
        <time>2024-07-10T05:16:01Z</time>
      </trkpt>
      <trkpt lat="47.1385" lon="9.32847">
        <ele>1365</ele>
        <time>2024-07-10T05:16:02Z</time>
      </trkpt>
      <trkpt lat="47.13851" lon="9.32846">
        <ele>1364.4</ele>
        <time>2024-07-10T05:16:03Z</time>
      </trkpt>
      <trkpt lat="47.13852" lon="9.32845">
        <ele>1364.3</ele>
        <time>2024-07-10T05:16:04Z</time>
      </trkpt>
      <trkpt lat="47.13853" lon="9.32845">
        <ele>1364.2</ele>
        <time>2024-07-10T05:16:05Z</time>
      </trkpt>
      <trkpt lat="47.13855" lon="9.32845">
        <ele>1363.8</ele>
        <time>2024-07-10T05:16:06Z</time>
      </trkpt>
      <trkpt lat="47.13856" lon="9.32843">
        <ele>1362.3</ele>
        <time>2024-07-10T05:16:07Z</time>
      </trkpt>
      <trkpt lat="47.13857" lon="9.32841">
        <ele>1361.8</ele>
        <time>2024-07-10T05:16:08Z</time>
      </trkpt>
      <trkpt lat="47.13858" lon="9.3284">
        <ele>1361.8</ele>
        <time>2024-07-10T05:16:09Z</time>
      </trkpt>
      <trkpt lat="47.13859" lon="9.32839">
        <ele>1361.7</ele>
        <time>2024-07-10T05:16:10Z</time>
      </trkpt>
      <trkpt lat="47.1386" lon="9.32838">
        <ele>1361.2</ele>
        <time>2024-07-10T05:16:11Z</time>
      </trkpt>
      <trkpt lat="47.13861" lon="9.32837">
        <ele>1361.2</ele>
        <time>2024-07-10T05:16:12Z</time>
      </trkpt>
      <trkpt lat="47.13862" lon="9.32836">
        <ele>1361.2</ele>
        <time>2024-07-10T05:16:13Z</time>
      </trkpt>
      <trkpt lat="47.13863" lon="9.32835">
        <ele>1361.1</ele>
        <time>2024-07-10T05:16:14Z</time>
      </trkpt>
      <trkpt lat="47.13864" lon="9.32834">
        <ele>1361</ele>
        <time>2024-07-10T05:16:15Z</time>
      </trkpt>
      <trkpt lat="47.13866" lon="9.32832">
        <ele>1360.4</ele>
        <time>2024-07-10T05:16:16Z</time>
      </trkpt>
      <trkpt lat="47.13867" lon="9.32831">
        <ele>1360.3</ele>
        <time>2024-07-10T05:16:17Z</time>
      </trkpt>
      <trkpt lat="47.13867" lon="9.3283">
        <ele>1360.2</ele>
        <time>2024-07-10T05:16:18Z</time>
      </trkpt>
      <trkpt lat="47.13868" lon="9.32829">
        <ele>1360</ele>
        <time>2024-07-10T05:16:19Z</time>
      </trkpt>
      <trkpt lat="47.13868" lon="9.32827">
        <ele>1359.5</ele>
        <time>2024-07-10T05:16:20Z</time>
      </trkpt>
      <trkpt lat="47.13869" lon="9.32826">
        <ele>1359.2</ele>
        <time>2024-07-10T05:16:21Z</time>
      </trkpt>
      <trkpt lat="47.13869" lon="9.32824">
        <ele>1358.9</ele>
        <time>2024-07-10T05:16:22Z</time>
      </trkpt>
      <trkpt lat="47.13869" lon="9.32822">
        <ele>1358.7</ele>
        <time>2024-07-10T05:16:23Z</time>
      </trkpt>
      <trkpt lat="47.1387" lon="9.3282">
        <ele>1358.7</ele>
        <time>2024-07-10T05:16:24Z</time>
      </trkpt>
      <trkpt lat="47.13871" lon="9.32818">
        <ele>1358.8</ele>
        <time>2024-07-10T05:16:25Z</time>
      </trkpt>
      <trkpt lat="47.13871" lon="9.32816">
        <ele>1358.7</ele>
        <time>2024-07-10T05:16:26Z</time>
      </trkpt>
      <trkpt lat="47.13872" lon="9.32814">
        <ele>1358.7</ele>
        <time>2024-07-10T05:16:27Z</time>
      </trkpt>
      <trkpt lat="47.13873" lon="9.32812">
        <ele>1359.9</ele>
        <time>2024-07-10T05:16:28Z</time>
      </trkpt>
      <trkpt lat="47.13873" lon="9.3281">
        <ele>1360.5</ele>
        <time>2024-07-10T05:16:29Z</time>
      </trkpt>
      <trkpt lat="47.13873" lon="9.32808">
        <ele>1360.8</ele>
        <time>2024-07-10T05:16:30Z</time>
      </trkpt>
      <trkpt lat="47.13873" lon="9.32806">
        <ele>1361</ele>
        <time>2024-07-10T05:16:31Z</time>
      </trkpt>
      <trkpt lat="47.13873" lon="9.32805">
        <ele>1361.1</ele>
        <time>2024-07-10T05:16:32Z</time>
      </trkpt>
      <trkpt lat="47.13874" lon="9.32803">
        <ele>1361.5</ele>
        <time>2024-07-10T05:16:33Z</time>
      </trkpt>
      <trkpt lat="47.13875" lon="9.32801">
        <ele>1362.5</ele>
        <time>2024-07-10T05:16:34Z</time>
      </trkpt>
      <trkpt lat="47.13876" lon="9.328">
        <ele>1363.7</ele>
        <time>2024-07-10T05:16:35Z</time>
      </trkpt>
      <trkpt lat="47.13878" lon="9.32799">
        <ele>1364.4</ele>
        <time>2024-07-10T05:16:36Z</time>
      </trkpt>
      <trkpt lat="47.13879" lon="9.32798">
        <ele>1364.7</ele>
        <time>2024-07-10T05:16:37Z</time>
      </trkpt>
      <trkpt lat="47.1388" lon="9.32797">
        <ele>1365.5</ele>
        <time>2024-07-10T05:16:38Z</time>
      </trkpt>
      <trkpt lat="47.13882" lon="9.32796">
        <ele>1366</ele>
        <time>2024-07-10T05:16:39Z</time>
      </trkpt>
      <trkpt lat="47.13883" lon="9.32795">
        <ele>1366.3</ele>
        <time>2024-07-10T05:16:40Z</time>
      </trkpt>
      <trkpt lat="47.13884" lon="9.32794">
        <ele>1366.5</ele>
        <time>2024-07-10T05:16:41Z</time>
      </trkpt>
      <trkpt lat="47.13884" lon="9.32794">
        <ele>1366.3</ele>
        <time>2024-07-10T05:16:42Z</time>
      </trkpt>
      <trkpt lat="47.13885" lon="9.32792">
        <ele>1366</ele>
        <time>2024-07-10T05:16:43Z</time>
      </trkpt>
      <trkpt lat="47.13885" lon="9.32791">
        <ele>1365.6</ele>
        <time>2024-07-10T05:16:44Z</time>
      </trkpt>
      <trkpt lat="47.13885" lon="9.32789">
        <ele>1365.2</ele>
        <time>2024-07-10T05:16:45Z</time>
      </trkpt>
      <trkpt lat="47.13886" lon="9.32786">
        <ele>1364.9</ele>
        <time>2024-07-10T05:16:46Z</time>
      </trkpt>
      <trkpt lat="47.13886" lon="9.32784">
        <ele>1364.4</ele>
        <time>2024-07-10T05:16:47Z</time>
      </trkpt>
      <trkpt lat="47.13886" lon="9.32782">
        <ele>1363.9</ele>
        <time>2024-07-10T05:16:48Z</time>
      </trkpt>
      <trkpt lat="47.13887" lon="9.3278">
        <ele>1363.7</ele>
        <time>2024-07-10T05:16:49Z</time>
      </trkpt>
      <trkpt lat="47.13888" lon="9.32778">
        <ele>1363.5</ele>
        <time>2024-07-10T05:16:50Z</time>
      </trkpt>
      <trkpt lat="47.13888" lon="9.32777">
        <ele>1363.3</ele>
        <time>2024-07-10T05:16:51Z</time>
      </trkpt>
      <trkpt lat="47.13889" lon="9.32774">
        <ele>1362.8</ele>
        <time>2024-07-10T05:16:52Z</time>
      </trkpt>
      <trkpt lat="47.13889" lon="9.32772">
        <ele>1362.8</ele>
        <time>2024-07-10T05:16:53Z</time>
      </trkpt>
      <trkpt lat="47.1389" lon="9.3277">
        <ele>1362.6</ele>
        <time>2024-07-10T05:16:54Z</time>
      </trkpt>
      <trkpt lat="47.1389" lon="9.32768">
        <ele>1362.6</ele>
        <time>2024-07-10T05:16:55Z</time>
      </trkpt>
      <trkpt lat="47.13891" lon="9.32766">
        <ele>1362.5</ele>
        <time>2024-07-10T05:16:56Z</time>
      </trkpt>
      <trkpt lat="47.13891" lon="9.32764">
        <ele>1362.3</ele>
        <time>2024-07-10T05:16:57Z</time>
      </trkpt>
      <trkpt lat="47.13892" lon="9.32762">
        <ele>1362.2</ele>
        <time>2024-07-10T05:16:58Z</time>
      </trkpt>
      <trkpt lat="47.13892" lon="9.32761">
        <ele>1362.1</ele>
        <time>2024-07-10T05:16:59Z</time>
      </trkpt>
      <trkpt lat="47.13893" lon="9.32759">
        <ele>1362</ele>
        <time>2024-07-10T05:17:00Z</time>
      </trkpt>
      <trkpt lat="47.13893" lon="9.32757">
        <ele>1362</ele>
        <time>2024-07-10T05:17:01Z</time>
      </trkpt>
      <trkpt lat="47.13894" lon="9.32756">
        <ele>1361.8</ele>
        <time>2024-07-10T05:17:02Z</time>
      </trkpt>
      <trkpt lat="47.13894" lon="9.32753">
        <ele>1360.9</ele>
        <time>2024-07-10T05:17:04Z</time>
      </trkpt>
      <trkpt lat="47.13895" lon="9.32752">
        <ele>1360.4</ele>
        <time>2024-07-10T05:17:05Z</time>
      </trkpt>
      <trkpt lat="47.13895" lon="9.3275">
        <ele>1360</ele>
        <time>2024-07-10T05:17:06Z</time>
      </trkpt>
      <trkpt lat="47.13895" lon="9.32748">
        <ele>1359.6</ele>
        <time>2024-07-10T05:17:07Z</time>
      </trkpt>
      <trkpt lat="47.13896" lon="9.32746">
        <ele>1359.2</ele>
        <time>2024-07-10T05:17:08Z</time>
      </trkpt>
      <trkpt lat="47.13896" lon="9.32744">
        <ele>1358.9</ele>
        <time>2024-07-10T05:17:09Z</time>
      </trkpt>
      <trkpt lat="47.13897" lon="9.32743">
        <ele>1358.6</ele>
        <time>2024-07-10T05:17:10Z</time>
      </trkpt>
      <trkpt lat="47.13897" lon="9.32741">
        <ele>1358.4</ele>
        <time>2024-07-10T05:17:11Z</time>
      </trkpt>
      <trkpt lat="47.13897" lon="9.3274">
        <ele>1358.1</ele>
        <time>2024-07-10T05:17:12Z</time>
      </trkpt>
      <trkpt lat="47.13898" lon="9.32738">
        <ele>1357.2</ele>
        <time>2024-07-10T05:17:14Z</time>
      </trkpt>
      <trkpt lat="47.13898" lon="9.32735">
        <ele>1356.7</ele>
        <time>2024-07-10T05:17:16Z</time>
      </trkpt>
      <trkpt lat="47.13898" lon="9.32732">
        <ele>1356.7</ele>
        <time>2024-07-10T05:17:17Z</time>
      </trkpt>
      <trkpt lat="47.13898" lon="9.3273">
        <ele>1356.4</ele>
        <time>2024-07-10T05:17:18Z</time>
      </trkpt>
      <trkpt lat="47.13898" lon="9.32727">
        <ele>1356.4</ele>
        <time>2024-07-10T05:17:19Z</time>
      </trkpt>
      <trkpt lat="47.13897" lon="9.32724">
        <ele>1356.6</ele>
        <time>2024-07-10T05:17:20Z</time>
      </trkpt>
      <trkpt lat="47.13897" lon="9.32722">
        <ele>1356.3</ele>
        <time>2024-07-10T05:17:21Z</time>
      </trkpt>
      <trkpt lat="47.13897" lon="9.3272">
        <ele>1356.6</ele>
        <time>2024-07-10T05:17:22Z</time>
      </trkpt>
      <trkpt lat="47.13897" lon="9.32718">
        <ele>1356.8</ele>
        <time>2024-07-10T05:17:23Z</time>
      </trkpt>
      <trkpt lat="47.13897" lon="9.32715">
        <ele>1356.9</ele>
        <time>2024-07-10T05:17:24Z</time>
      </trkpt>
      <trkpt lat="47.13897" lon="9.32712">
        <ele>1357.1</ele>
        <time>2024-07-10T05:17:25Z</time>
      </trkpt>
      <trkpt lat="47.13897" lon="9.3271">
        <ele>1357.1</ele>
        <time>2024-07-10T05:17:26Z</time>
      </trkpt>
      <trkpt lat="47.13897" lon="9.32708">
        <ele>1357.3</ele>
        <time>2024-07-10T05:17:27Z</time>
      </trkpt>
      <trkpt lat="47.13897" lon="9.32706">
        <ele>1358.1</ele>
        <time>2024-07-10T05:17:28Z</time>
      </trkpt>
      <trkpt lat="47.13897" lon="9.32704">
        <ele>1358.4</ele>
        <time>2024-07-10T05:17:29Z</time>
      </trkpt>
      <trkpt lat="47.13897" lon="9.32702">
        <ele>1358.8</ele>
        <time>2024-07-10T05:17:30Z</time>
      </trkpt>
      <trkpt lat="47.13897" lon="9.327">
        <ele>1359</ele>
        <time>2024-07-10T05:17:31Z</time>
      </trkpt>
      <trkpt lat="47.13897" lon="9.32697">
        <ele>1359.8</ele>
        <time>2024-07-10T05:17:32Z</time>
      </trkpt>
      <trkpt lat="47.13898" lon="9.32696">
        <ele>1361.1</ele>
        <time>2024-07-10T05:17:33Z</time>
      </trkpt>
      <trkpt lat="47.13898" lon="9.32694">
        <ele>1361.6</ele>
        <time>2024-07-10T05:17:34Z</time>
      </trkpt>
      <trkpt lat="47.13899" lon="9.32692">
        <ele>1363.1</ele>
        <time>2024-07-10T05:17:36Z</time>
      </trkpt>
      <trkpt lat="47.139" lon="9.32689">
        <ele>1364.2</ele>
        <time>2024-07-10T05:17:38Z</time>
      </trkpt>
      <trkpt lat="47.13901" lon="9.32687">
        <ele>1364.2</ele>
        <time>2024-07-10T05:17:39Z</time>
      </trkpt>
      <trkpt lat="47.13902" lon="9.32684">
        <ele>1364.2</ele>
        <time>2024-07-10T05:17:41Z</time>
      </trkpt>
      <trkpt lat="47.13903" lon="9.32682">
        <ele>1364.1</ele>
        <time>2024-07-10T05:17:42Z</time>
      </trkpt>
      <trkpt lat="47.13903" lon="9.3268">
        <ele>1363.7</ele>
        <time>2024-07-10T05:17:43Z</time>
      </trkpt>
      <trkpt lat="47.13904" lon="9.32677">
        <ele>1363.8</ele>
        <time>2024-07-10T05:17:45Z</time>
      </trkpt>
      <trkpt lat="47.13904" lon="9.32675">
        <ele>1363.7</ele>
        <time>2024-07-10T05:17:46Z</time>
      </trkpt>
      <trkpt lat="47.13905" lon="9.32673">
        <ele>1363.4</ele>
        <time>2024-07-10T05:17:47Z</time>
      </trkpt>
      <trkpt lat="47.13905" lon="9.32671">
        <ele>1363.3</ele>
        <time>2024-07-10T05:17:48Z</time>
      </trkpt>
      <trkpt lat="47.13906" lon="9.32669">
        <ele>1363.1</ele>
        <time>2024-07-10T05:17:49Z</time>
      </trkpt>
      <trkpt lat="47.13906" lon="9.32667">
        <ele>1363.1</ele>
        <time>2024-07-10T05:17:50Z</time>
      </trkpt>
      <trkpt lat="47.13906" lon="9.32665">
        <ele>1363.2</ele>
        <time>2024-07-10T05:17:51Z</time>
      </trkpt>
      <trkpt lat="47.13907" lon="9.32663">
        <ele>1363.2</ele>
        <time>2024-07-10T05:17:52Z</time>
      </trkpt>
      <trkpt lat="47.13906" lon="9.32661">
        <ele>1364.3</ele>
        <time>2024-07-10T05:17:54Z</time>
      </trkpt>
      <trkpt lat="47.13906" lon="9.32659">
        <ele>1364.9</ele>
        <time>2024-07-10T05:17:55Z</time>
      </trkpt>
      <trkpt lat="47.13905" lon="9.32657">
        <ele>1365</ele>
        <time>2024-07-10T05:17:56Z</time>
      </trkpt>
      <trkpt lat="47.13905" lon="9.32656">
        <ele>1365</ele>
        <time>2024-07-10T05:17:57Z</time>
      </trkpt>
      <trkpt lat="47.13905" lon="9.32653">
        <ele>1365.1</ele>
        <time>2024-07-10T05:17:59Z</time>
      </trkpt>
      <trkpt lat="47.13905" lon="9.32651">
        <ele>1365.3</ele>
        <time>2024-07-10T05:18:00Z</time>
      </trkpt>
      <trkpt lat="47.13905" lon="9.32649">
        <ele>1365.2</ele>
        <time>2024-07-10T05:18:01Z</time>
      </trkpt>
      <trkpt lat="47.13905" lon="9.32647">
        <ele>1365.4</ele>
        <time>2024-07-10T05:18:02Z</time>
      </trkpt>
      <trkpt lat="47.13905" lon="9.32645">
        <ele>1365.4</ele>
        <time>2024-07-10T05:18:03Z</time>
      </trkpt>
      <trkpt lat="47.13905" lon="9.32642">
        <ele>1365.4</ele>
        <time>2024-07-10T05:18:04Z</time>
      </trkpt>
      <trkpt lat="47.13905" lon="9.3264">
        <ele>1365.6</ele>
        <time>2024-07-10T05:18:05Z</time>
      </trkpt>
      <trkpt lat="47.13905" lon="9.32638">
        <ele>1365.6</ele>
        <time>2024-07-10T05:18:06Z</time>
      </trkpt>
      <trkpt lat="47.13905" lon="9.32636">
        <ele>1365.6</ele>
        <time>2024-07-10T05:18:07Z</time>
      </trkpt>
      <trkpt lat="47.13905" lon="9.32634">
        <ele>1365.6</ele>
        <time>2024-07-10T05:18:08Z</time>
      </trkpt>
      <trkpt lat="47.13905" lon="9.32632">
        <ele>1365.9</ele>
        <time>2024-07-10T05:18:09Z</time>
      </trkpt>
      <trkpt lat="47.13905" lon="9.32629">
        <ele>1365.8</ele>
        <time>2024-07-10T05:18:10Z</time>
      </trkpt>
      <trkpt lat="47.13905" lon="9.32627">
        <ele>1365.8</ele>
        <time>2024-07-10T05:18:11Z</time>
      </trkpt>
      <trkpt lat="47.13904" lon="9.32625">
        <ele>1366</ele>
        <time>2024-07-10T05:18:12Z</time>
      </trkpt>
      <trkpt lat="47.13904" lon="9.32622">
        <ele>1366.2</ele>
        <time>2024-07-10T05:18:13Z</time>
      </trkpt>
      <trkpt lat="47.13903" lon="9.3262">
        <ele>1366.2</ele>
        <time>2024-07-10T05:18:14Z</time>
      </trkpt>
      <trkpt lat="47.13902" lon="9.32618">
        <ele>1366.2</ele>
        <time>2024-07-10T05:18:15Z</time>
      </trkpt>
      <trkpt lat="47.13902" lon="9.32615">
        <ele>1365.9</ele>
        <time>2024-07-10T05:18:16Z</time>
      </trkpt>
      <trkpt lat="47.139" lon="9.32612">
        <ele>1366</ele>
        <time>2024-07-10T05:18:17Z</time>
      </trkpt>
      <trkpt lat="47.13899" lon="9.3261">
        <ele>1365.6</ele>
        <time>2024-07-10T05:18:18Z</time>
      </trkpt>
      <trkpt lat="47.13899" lon="9.32606">
        <ele>1363.9</ele>
        <time>2024-07-10T05:18:19Z</time>
      </trkpt>
      <trkpt lat="47.13899" lon="9.32604">
        <ele>1362.4</ele>
        <time>2024-07-10T05:18:20Z</time>
      </trkpt>
      <trkpt lat="47.13899" lon="9.32601">
        <ele>1361.9</ele>
        <time>2024-07-10T05:18:21Z</time>
      </trkpt>
      <trkpt lat="47.13899" lon="9.326">
        <ele>1361.5</ele>
        <time>2024-07-10T05:18:22Z</time>
      </trkpt>
      <trkpt lat="47.13899" lon="9.32598">
        <ele>1361.2</ele>
        <time>2024-07-10T05:18:23Z</time>
      </trkpt>
      <trkpt lat="47.13898" lon="9.32596">
        <ele>1360.9</ele>
        <time>2024-07-10T05:18:24Z</time>
      </trkpt>
      <trkpt lat="47.13899" lon="9.32594">
        <ele>1360</ele>
        <time>2024-07-10T05:18:25Z</time>
      </trkpt>
      <trkpt lat="47.13898" lon="9.32592">
        <ele>1359.9</ele>
        <time>2024-07-10T05:18:26Z</time>
      </trkpt>
      <trkpt lat="47.13898" lon="9.3259">
        <ele>1360.3</ele>
        <time>2024-07-10T05:18:27Z</time>
      </trkpt>
      <trkpt lat="47.13898" lon="9.32588">
        <ele>1360.5</ele>
        <time>2024-07-10T05:18:28Z</time>
      </trkpt>
      <trkpt lat="47.13898" lon="9.32585">
        <ele>1359.9</ele>
        <time>2024-07-10T05:18:29Z</time>
      </trkpt>
      <trkpt lat="47.13897" lon="9.32584">
        <ele>1359.8</ele>
        <time>2024-07-10T05:18:30Z</time>
      </trkpt>
      <trkpt lat="47.13897" lon="9.32581">
        <ele>1359.8</ele>
        <time>2024-07-10T05:18:32Z</time>
      </trkpt>
      <trkpt lat="47.13896" lon="9.3258">
        <ele>1359.9</ele>
        <time>2024-07-10T05:18:33Z</time>
      </trkpt>
      <trkpt lat="47.13895" lon="9.32578">
        <ele>1359.8</ele>
        <time>2024-07-10T05:18:34Z</time>
      </trkpt>
      <trkpt lat="47.13894" lon="9.32577">
        <ele>1359.8</ele>
        <time>2024-07-10T05:18:35Z</time>
      </trkpt>
      <trkpt lat="47.13892" lon="9.32575">
        <ele>1359.6</ele>
        <time>2024-07-10T05:18:36Z</time>
      </trkpt>
      <trkpt lat="47.13891" lon="9.32574">
        <ele>1359.3</ele>
        <time>2024-07-10T05:18:37Z</time>
      </trkpt>
      <trkpt lat="47.1389" lon="9.32573">
        <ele>1358.9</ele>
        <time>2024-07-10T05:18:38Z</time>
      </trkpt>
      <trkpt lat="47.13889" lon="9.32572">
        <ele>1358.6</ele>
        <time>2024-07-10T05:18:39Z</time>
      </trkpt>
      <trkpt lat="47.13887" lon="9.32571">
        <ele>1358.7</ele>
        <time>2024-07-10T05:18:40Z</time>
      </trkpt>
      <trkpt lat="47.13887" lon="9.3257">
        <ele>1358.4</ele>
        <time>2024-07-10T05:18:41Z</time>
      </trkpt>
      <trkpt lat="47.13886" lon="9.32569">
        <ele>1358.4</ele>
        <time>2024-07-10T05:18:42Z</time>
      </trkpt>
      <trkpt lat="47.13884" lon="9.32568">
        <ele>1358.9</ele>
        <time>2024-07-10T05:18:43Z</time>
      </trkpt>
      <trkpt lat="47.13883" lon="9.32566">
        <ele>1359.5</ele>
        <time>2024-07-10T05:18:44Z</time>
      </trkpt>
      <trkpt lat="47.13881" lon="9.32565">
        <ele>1359.4</ele>
        <time>2024-07-10T05:18:45Z</time>
      </trkpt>
      <trkpt lat="47.13879" lon="9.32562">
        <ele>1359.2</ele>
        <time>2024-07-10T05:18:46Z</time>
      </trkpt>
      <trkpt lat="47.13878" lon="9.32561">
        <ele>1359.8</ele>
        <time>2024-07-10T05:18:47Z</time>
      </trkpt>
      <trkpt lat="47.13876" lon="9.32559">
        <ele>1359.5</ele>
        <time>2024-07-10T05:18:48Z</time>
      </trkpt>
      <trkpt lat="47.13875" lon="9.32557">
        <ele>1359.5</ele>
        <time>2024-07-10T05:18:49Z</time>
      </trkpt>
      <trkpt lat="47.13874" lon="9.32555">
        <ele>1359.8</ele>
        <time>2024-07-10T05:18:50Z</time>
      </trkpt>
      <trkpt lat="47.13873" lon="9.32553">
        <ele>1360.2</ele>
        <time>2024-07-10T05:18:51Z</time>
      </trkpt>
      <trkpt lat="47.13873" lon="9.32551">
        <ele>1360</ele>
        <time>2024-07-10T05:18:52Z</time>
      </trkpt>
      <trkpt lat="47.13872" lon="9.32548">
        <ele>1360.1</ele>
        <time>2024-07-10T05:18:53Z</time>
      </trkpt>
      <trkpt lat="47.13872" lon="9.32546">
        <ele>1360.1</ele>
        <time>2024-07-10T05:18:54Z</time>
      </trkpt>
      <trkpt lat="47.13871" lon="9.32544">
        <ele>1360.3</ele>
        <time>2024-07-10T05:18:55Z</time>
      </trkpt>
      <trkpt lat="47.13871" lon="9.32542">
        <ele>1360.7</ele>
        <time>2024-07-10T05:18:56Z</time>
      </trkpt>
      <trkpt lat="47.1387" lon="9.32541">
        <ele>1361.1</ele>
        <time>2024-07-10T05:18:57Z</time>
      </trkpt>
      <trkpt lat="47.1387" lon="9.3254">
        <ele>1361.5</ele>
        <time>2024-07-10T05:18:58Z</time>
      </trkpt>
      <trkpt lat="47.13869" lon="9.32538">
        <ele>1361.8</ele>
        <time>2024-07-10T05:18:59Z</time>
      </trkpt>
      <trkpt lat="47.13868" lon="9.32537">
        <ele>1362.1</ele>
        <time>2024-07-10T05:19:00Z</time>
      </trkpt>
      <trkpt lat="47.13866" lon="9.32536">
        <ele>1362</ele>
        <time>2024-07-10T05:19:01Z</time>
      </trkpt>
      <trkpt lat="47.13866" lon="9.32535">
        <ele>1361.8</ele>
        <time>2024-07-10T05:19:02Z</time>
      </trkpt>
      <trkpt lat="47.13864" lon="9.32534">
        <ele>1361.4</ele>
        <time>2024-07-10T05:19:03Z</time>
      </trkpt>
      <trkpt lat="47.13864" lon="9.32533">
        <ele>1361.1</ele>
        <time>2024-07-10T05:19:04Z</time>
      </trkpt>
      <trkpt lat="47.13863" lon="9.32531">
        <ele>1360.8</ele>
        <time>2024-07-10T05:19:05Z</time>
      </trkpt>
      <trkpt lat="47.13862" lon="9.3253">
        <ele>1360.3</ele>
        <time>2024-07-10T05:19:06Z</time>
      </trkpt>
      <trkpt lat="47.13861" lon="9.32529">
        <ele>1360.1</ele>
        <time>2024-07-10T05:19:07Z</time>
      </trkpt>
      <trkpt lat="47.1386" lon="9.32528">
        <ele>1360.2</ele>
        <time>2024-07-10T05:19:08Z</time>
      </trkpt>
      <trkpt lat="47.1386" lon="9.32526">
        <ele>1360</ele>
        <time>2024-07-10T05:19:09Z</time>
      </trkpt>
      <trkpt lat="47.1386" lon="9.32524">
        <ele>1360.2</ele>
        <time>2024-07-10T05:19:10Z</time>
      </trkpt>
      <trkpt lat="47.13859" lon="9.32521">
        <ele>1360.4</ele>
        <time>2024-07-10T05:19:11Z</time>
      </trkpt>
      <trkpt lat="47.13859" lon="9.32519">
        <ele>1360.6</ele>
        <time>2024-07-10T05:19:12Z</time>
      </trkpt>
      <trkpt lat="47.13858" lon="9.32517">
        <ele>1360.7</ele>
        <time>2024-07-10T05:19:13Z</time>
      </trkpt>
      <trkpt lat="47.13858" lon="9.32515">
        <ele>1360.7</ele>
        <time>2024-07-10T05:19:14Z</time>
      </trkpt>
      <trkpt lat="47.13858" lon="9.32513">
        <ele>1360.7</ele>
        <time>2024-07-10T05:19:15Z</time>
      </trkpt>
      <trkpt lat="47.13858" lon="9.32511">
        <ele>1360.5</ele>
        <time>2024-07-10T05:19:16Z</time>
      </trkpt>
      <trkpt lat="47.13858" lon="9.3251">
        <ele>1360.3</ele>
        <time>2024-07-10T05:19:17Z</time>
      </trkpt>
      <trkpt lat="47.13858" lon="9.32508">
        <ele>1360.1</ele>
        <time>2024-07-10T05:19:18Z</time>
      </trkpt>
      <trkpt lat="47.13858" lon="9.32506">
        <ele>1360</ele>
        <time>2024-07-10T05:19:19Z</time>
      </trkpt>
      <trkpt lat="47.13859" lon="9.32504">
        <ele>1359.8</ele>
        <time>2024-07-10T05:19:20Z</time>
      </trkpt>
      <trkpt lat="47.1386" lon="9.32502">
        <ele>1359.6</ele>
        <time>2024-07-10T05:19:21Z</time>
      </trkpt>
      <trkpt lat="47.13861" lon="9.32499">
        <ele>1359.4</ele>
        <time>2024-07-10T05:19:22Z</time>
      </trkpt>
      <trkpt lat="47.13862" lon="9.32498">
        <ele>1359.2</ele>
        <time>2024-07-10T05:19:23Z</time>
      </trkpt>
      <trkpt lat="47.13863" lon="9.32496">
        <ele>1358.9</ele>
        <time>2024-07-10T05:19:24Z</time>
      </trkpt>
      <trkpt lat="47.13864" lon="9.32494">
        <ele>1358.4</ele>
        <time>2024-07-10T05:19:25Z</time>
      </trkpt>
      <trkpt lat="47.13865" lon="9.32492">
        <ele>1358.4</ele>
        <time>2024-07-10T05:19:26Z</time>
      </trkpt>
      <trkpt lat="47.13866" lon="9.32491">
        <ele>1358.2</ele>
        <time>2024-07-10T05:19:27Z</time>
      </trkpt>
      <trkpt lat="47.13866" lon="9.32489">
        <ele>1358.8</ele>
        <time>2024-07-10T05:19:29Z</time>
      </trkpt>
      <trkpt lat="47.13867" lon="9.32486">
        <ele>1359.6</ele>
        <time>2024-07-10T05:19:31Z</time>
      </trkpt>
      <trkpt lat="47.13868" lon="9.32485">
        <ele>1359.5</ele>
        <time>2024-07-10T05:19:32Z</time>
      </trkpt>
      <trkpt lat="47.13869" lon="9.32484">
        <ele>1359.7</ele>
        <time>2024-07-10T05:19:33Z</time>
      </trkpt>
      <trkpt lat="47.1387" lon="9.32482">
        <ele>1360.7</ele>
        <time>2024-07-10T05:19:35Z</time>
      </trkpt>
      <trkpt lat="47.1387" lon="9.3248">
        <ele>1361.1</ele>
        <time>2024-07-10T05:19:36Z</time>
      </trkpt>
      <trkpt lat="47.13871" lon="9.32478">
        <ele>1361.6</ele>
        <time>2024-07-10T05:19:37Z</time>
      </trkpt>
      <trkpt lat="47.13871" lon="9.32477">
        <ele>1361.8</ele>
        <time>2024-07-10T05:19:38Z</time>
      </trkpt>
      <trkpt lat="47.13872" lon="9.32475">
        <ele>1362.2</ele>
        <time>2024-07-10T05:19:39Z</time>
      </trkpt>
      <trkpt lat="47.13873" lon="9.32474">
        <ele>1362.3</ele>
        <time>2024-07-10T05:19:40Z</time>
      </trkpt>
      <trkpt lat="47.13873" lon="9.32472">
        <ele>1361.9</ele>
        <time>2024-07-10T05:19:41Z</time>
      </trkpt>
      <trkpt lat="47.13873" lon="9.3247">
        <ele>1362</ele>
        <time>2024-07-10T05:19:42Z</time>
      </trkpt>
      <trkpt lat="47.13874" lon="9.32469">
        <ele>1362</ele>
        <time>2024-07-10T05:19:43Z</time>
      </trkpt>
      <trkpt lat="47.13874" lon="9.32467">
        <ele>1362</ele>
        <time>2024-07-10T05:19:44Z</time>
      </trkpt>
      <trkpt lat="47.13874" lon="9.32464">
        <ele>1362.2</ele>
        <time>2024-07-10T05:19:46Z</time>
      </trkpt>
      <trkpt lat="47.13874" lon="9.32462">
        <ele>1362.3</ele>
        <time>2024-07-10T05:19:47Z</time>
      </trkpt>
      <trkpt lat="47.13874" lon="9.32461">
        <ele>1362.3</ele>
        <time>2024-07-10T05:19:48Z</time>
      </trkpt>
      <trkpt lat="47.13874" lon="9.32459">
        <ele>1362.5</ele>
        <time>2024-07-10T05:19:49Z</time>
      </trkpt>
      <trkpt lat="47.13874" lon="9.32457">
        <ele>1362.4</ele>
        <time>2024-07-10T05:19:50Z</time>
      </trkpt>
      <trkpt lat="47.13875" lon="9.32455">
        <ele>1362.3</ele>
        <time>2024-07-10T05:19:51Z</time>
      </trkpt>
      <trkpt lat="47.13875" lon="9.32453">
        <ele>1362.2</ele>
        <time>2024-07-10T05:19:52Z</time>
      </trkpt>
      <trkpt lat="47.13875" lon="9.32451">
        <ele>1362</ele>
        <time>2024-07-10T05:19:53Z</time>
      </trkpt>
      <trkpt lat="47.13875" lon="9.3245">
        <ele>1361.9</ele>
        <time>2024-07-10T05:19:54Z</time>
      </trkpt>
      <trkpt lat="47.13876" lon="9.32448">
        <ele>1362</ele>
        <time>2024-07-10T05:19:55Z</time>
      </trkpt>
      <trkpt lat="47.13876" lon="9.32447">
        <ele>1362.5</ele>
        <time>2024-07-10T05:19:56Z</time>
      </trkpt>
      <trkpt lat="47.13876" lon="9.32445">
        <ele>1362.8</ele>
        <time>2024-07-10T05:19:57Z</time>
      </trkpt>
      <trkpt lat="47.13877" lon="9.32443">
        <ele>1363.3</ele>
        <time>2024-07-10T05:19:58Z</time>
      </trkpt>
      <trkpt lat="47.13877" lon="9.32441">
        <ele>1363.6</ele>
        <time>2024-07-10T05:19:59Z</time>
      </trkpt>
      <trkpt lat="47.13878" lon="9.3244">
        <ele>1364</ele>
        <time>2024-07-10T05:20:00Z</time>
      </trkpt>
      <trkpt lat="47.13879" lon="9.32438">
        <ele>1364.6</ele>
        <time>2024-07-10T05:20:02Z</time>
      </trkpt>
      <trkpt lat="47.1388" lon="9.32436">
        <ele>1364.6</ele>
        <time>2024-07-10T05:20:04Z</time>
      </trkpt>
      <trkpt lat="47.1388" lon="9.32436">
        <ele>1364.7</ele>
        <time>2024-07-10T05:20:05Z</time>
      </trkpt>
      <trkpt lat="47.13881" lon="9.32434">
        <ele>1364.5</ele>
        <time>2024-07-10T05:20:06Z</time>
      </trkpt>
      <trkpt lat="47.13882" lon="9.32433">
        <ele>1364.4</ele>
        <time>2024-07-10T05:20:07Z</time>
      </trkpt>
      <trkpt lat="47.13884" lon="9.32432">
        <ele>1364.2</ele>
        <time>2024-07-10T05:20:09Z</time>
      </trkpt>
      <trkpt lat="47.13885" lon="9.3243">
        <ele>1365.3</ele>
        <time>2024-07-10T05:20:11Z</time>
      </trkpt>
      <trkpt lat="47.13885" lon="9.32428">
        <ele>1365.2</ele>
        <time>2024-07-10T05:20:13Z</time>
      </trkpt>
      <trkpt lat="47.13886" lon="9.32425">
        <ele>1364.6</ele>
        <time>2024-07-10T05:20:14Z</time>
      </trkpt>
      <trkpt lat="47.13887" lon="9.32424">
        <ele>1364.3</ele>
        <time>2024-07-10T05:20:15Z</time>
      </trkpt>
      <trkpt lat="47.13887" lon="9.32423">
        <ele>1363.9</ele>
        <time>2024-07-10T05:20:16Z</time>
      </trkpt>
      <trkpt lat="47.13888" lon="9.32421">
        <ele>1363.8</ele>
        <time>2024-07-10T05:20:17Z</time>
      </trkpt>
      <trkpt lat="47.13888" lon="9.3242">
        <ele>1363.6</ele>
        <time>2024-07-10T05:20:18Z</time>
      </trkpt>
      <trkpt lat="47.13889" lon="9.32418">
        <ele>1364.2</ele>
        <time>2024-07-10T05:20:19Z</time>
      </trkpt>
      <trkpt lat="47.13888" lon="9.32417">
        <ele>1365.3</ele>
        <time>2024-07-10T05:20:21Z</time>
      </trkpt>
      <trkpt lat="47.13888" lon="9.32415">
        <ele>1365</ele>
        <time>2024-07-10T05:20:22Z</time>
      </trkpt>
      <trkpt lat="47.13888" lon="9.32414">
        <ele>1365.1</ele>
        <time>2024-07-10T05:20:23Z</time>
      </trkpt>
      <trkpt lat="47.13888" lon="9.32412">
        <ele>1366.4</ele>
        <time>2024-07-10T05:20:24Z</time>
      </trkpt>
      <trkpt lat="47.13888" lon="9.3241">
        <ele>1367.1</ele>
        <time>2024-07-10T05:20:25Z</time>
      </trkpt>
      <trkpt lat="47.13887" lon="9.32408">
        <ele>1368.4</ele>
        <time>2024-07-10T05:20:26Z</time>
      </trkpt>
      <trkpt lat="47.13887" lon="9.32406">
        <ele>1368.7</ele>
        <time>2024-07-10T05:20:27Z</time>
      </trkpt>
      <trkpt lat="47.13888" lon="9.32404">
        <ele>1369.4</ele>
        <time>2024-07-10T05:20:28Z</time>
      </trkpt>
      <trkpt lat="47.13889" lon="9.32401">
        <ele>1371.4</ele>
        <time>2024-07-10T05:20:30Z</time>
      </trkpt>
      <trkpt lat="47.13889" lon="9.324">
        <ele>1372.4</ele>
        <time>2024-07-10T05:20:31Z</time>
      </trkpt>
      <trkpt lat="47.13891" lon="9.32397">
        <ele>1373.2</ele>
        <time>2024-07-10T05:20:34Z</time>
      </trkpt>
      <trkpt lat="47.13893" lon="9.32397">
        <ele>1373.2</ele>
        <time>2024-07-10T05:20:36Z</time>
      </trkpt>
      <trkpt lat="47.13894" lon="9.32396">
        <ele>1373.2</ele>
        <time>2024-07-10T05:20:37Z</time>
      </trkpt>
      <trkpt lat="47.13895" lon="9.32396">
        <ele>1373.6</ele>
        <time>2024-07-10T05:20:38Z</time>
      </trkpt>
      <trkpt lat="47.13897" lon="9.32397">
        <ele>1374.4</ele>
        <time>2024-07-10T05:20:39Z</time>
      </trkpt>
      <trkpt lat="47.13899" lon="9.32397">
        <ele>1375</ele>
        <time>2024-07-10T05:20:41Z</time>
      </trkpt>
      <trkpt lat="47.13901" lon="9.32395">
        <ele>1375.1</ele>
        <time>2024-07-10T05:20:44Z</time>
      </trkpt>
      <trkpt lat="47.13902" lon="9.32394">
        <ele>1375</ele>
        <time>2024-07-10T05:20:45Z</time>
      </trkpt>
      <trkpt lat="47.13903" lon="9.32393">
        <ele>1374.7</ele>
        <time>2024-07-10T05:20:46Z</time>
      </trkpt>
      <trkpt lat="47.13904" lon="9.32393">
        <ele>1374.8</ele>
        <time>2024-07-10T05:20:47Z</time>
      </trkpt>
      <trkpt lat="47.13905" lon="9.32392">
        <ele>1375</ele>
        <time>2024-07-10T05:20:48Z</time>
      </trkpt>
      <trkpt lat="47.13907" lon="9.32389">
        <ele>1375.4</ele>
        <time>2024-07-10T05:20:51Z</time>
      </trkpt>
      <trkpt lat="47.13908" lon="9.32388">
        <ele>1375</ele>
        <time>2024-07-10T05:20:52Z</time>
      </trkpt>
      <trkpt lat="47.13909" lon="9.32387">
        <ele>1374.8</ele>
        <time>2024-07-10T05:20:53Z</time>
      </trkpt>
      <trkpt lat="47.13911" lon="9.32385">
        <ele>1374.8</ele>
        <time>2024-07-10T05:20:55Z</time>
      </trkpt>
      <trkpt lat="47.13912" lon="9.32385">
        <ele>1374.9</ele>
        <time>2024-07-10T05:20:56Z</time>
      </trkpt>
      <trkpt lat="47.13913" lon="9.32384">
        <ele>1374.8</ele>
        <time>2024-07-10T05:20:58Z</time>
      </trkpt>
      <trkpt lat="47.13914" lon="9.32382">
        <ele>1374.9</ele>
        <time>2024-07-10T05:20:59Z</time>
      </trkpt>
      <trkpt lat="47.13915" lon="9.32382">
        <ele>1375.5</ele>
        <time>2024-07-10T05:21:01Z</time>
      </trkpt>
      <trkpt lat="47.13916" lon="9.32381">
        <ele>1375.6</ele>
        <time>2024-07-10T05:21:02Z</time>
      </trkpt>
      <trkpt lat="47.13917" lon="9.32381">
        <ele>1375.8</ele>
        <time>2024-07-10T05:21:03Z</time>
      </trkpt>
      <trkpt lat="47.13919" lon="9.3238">
        <ele>1376.8</ele>
        <time>2024-07-10T05:21:05Z</time>
      </trkpt>
      <trkpt lat="47.13921" lon="9.3238">
        <ele>1377.3</ele>
        <time>2024-07-10T05:21:07Z</time>
      </trkpt>
      <trkpt lat="47.13922" lon="9.32379">
        <ele>1377.4</ele>
        <time>2024-07-10T05:21:08Z</time>
      </trkpt>
      <trkpt lat="47.13923" lon="9.32379">
        <ele>1377.6</ele>
        <time>2024-07-10T05:21:09Z</time>
      </trkpt>
      <trkpt lat="47.13924" lon="9.32378">
        <ele>1377.8</ele>
        <time>2024-07-10T05:21:10Z</time>
      </trkpt>
      <trkpt lat="47.13926" lon="9.32377">
        <ele>1378</ele>
        <time>2024-07-10T05:21:12Z</time>
      </trkpt>
      <trkpt lat="47.13927" lon="9.32377">
        <ele>1377.9</ele>
        <time>2024-07-10T05:21:14Z</time>
      </trkpt>
      <trkpt lat="47.13929" lon="9.32376">
        <ele>1378</ele>
        <time>2024-07-10T05:21:15Z</time>
      </trkpt>
      <trkpt lat="47.1393" lon="9.32376">
        <ele>1377.8</ele>
        <time>2024-07-10T05:21:16Z</time>
      </trkpt>
      <trkpt lat="47.13931" lon="9.32375">
        <ele>1378</ele>
        <time>2024-07-10T05:21:17Z</time>
      </trkpt>
      <trkpt lat="47.13932" lon="9.32374">
        <ele>1378</ele>
        <time>2024-07-10T05:21:18Z</time>
      </trkpt>
      <trkpt lat="47.13933" lon="9.32373">
        <ele>1378.4</ele>
        <time>2024-07-10T05:21:19Z</time>
      </trkpt>
      <trkpt lat="47.13935" lon="9.32372">
        <ele>1378.6</ele>
        <time>2024-07-10T05:21:20Z</time>
      </trkpt>
      <trkpt lat="47.13936" lon="9.3237">
        <ele>1378.8</ele>
        <time>2024-07-10T05:21:21Z</time>
      </trkpt>
      <trkpt lat="47.13937" lon="9.3237">
        <ele>1379.2</ele>
        <time>2024-07-10T05:21:22Z</time>
      </trkpt>
      <trkpt lat="47.13938" lon="9.32369">
        <ele>1379.3</ele>
        <time>2024-07-10T05:21:23Z</time>
      </trkpt>
      <trkpt lat="47.1394" lon="9.3237">
        <ele>1379.1</ele>
        <time>2024-07-10T05:21:24Z</time>
      </trkpt>
      <trkpt lat="47.13941" lon="9.3237">
        <ele>1378.8</ele>
        <time>2024-07-10T05:21:25Z</time>
      </trkpt>
      <trkpt lat="47.13942" lon="9.32372">
        <ele>1378.8</ele>
        <time>2024-07-10T05:21:26Z</time>
      </trkpt>
      <trkpt lat="47.13943" lon="9.32371">
        <ele>1378.9</ele>
        <time>2024-07-10T05:21:27Z</time>
      </trkpt>
      <trkpt lat="47.13944" lon="9.32371">
        <ele>1379</ele>
        <time>2024-07-10T05:21:28Z</time>
      </trkpt>
      <trkpt lat="47.13945" lon="9.3237">
        <ele>1378.6</ele>
        <time>2024-07-10T05:21:29Z</time>
      </trkpt>
      <trkpt lat="47.13946" lon="9.3237">
        <ele>1378.7</ele>
        <time>2024-07-10T05:21:30Z</time>
      </trkpt>
      <trkpt lat="47.13948" lon="9.32369">
        <ele>1378.5</ele>
        <time>2024-07-10T05:21:31Z</time>
      </trkpt>
      <trkpt lat="47.13949" lon="9.32368">
        <ele>1378.4</ele>
        <time>2024-07-10T05:21:32Z</time>
      </trkpt>
      <trkpt lat="47.13949" lon="9.32367">
        <ele>1379.5</ele>
        <time>2024-07-10T05:21:33Z</time>
      </trkpt>
      <trkpt lat="47.1395" lon="9.32365">
        <ele>1379.8</ele>
        <time>2024-07-10T05:21:34Z</time>
      </trkpt>
      <trkpt lat="47.13951" lon="9.32365">
        <ele>1379.6</ele>
        <time>2024-07-10T05:21:35Z</time>
      </trkpt>
      <trkpt lat="47.13952" lon="9.32364">
        <ele>1379.5</ele>
        <time>2024-07-10T05:21:36Z</time>
      </trkpt>
      <trkpt lat="47.13953" lon="9.32363">
        <ele>1379.5</ele>
        <time>2024-07-10T05:21:37Z</time>
      </trkpt>
      <trkpt lat="47.13954" lon="9.32362">
        <ele>1379.4</ele>
        <time>2024-07-10T05:21:38Z</time>
      </trkpt>
      <trkpt lat="47.13955" lon="9.32361">
        <ele>1379.3</ele>
        <time>2024-07-10T05:21:39Z</time>
      </trkpt>
      <trkpt lat="47.13955" lon="9.3236">
        <ele>1379.3</ele>
        <time>2024-07-10T05:21:40Z</time>
      </trkpt>
      <trkpt lat="47.13956" lon="9.32359">
        <ele>1379.3</ele>
        <time>2024-07-10T05:21:41Z</time>
      </trkpt>
      <trkpt lat="47.13957" lon="9.32358">
        <ele>1379.1</ele>
        <time>2024-07-10T05:21:42Z</time>
      </trkpt>
      <trkpt lat="47.13958" lon="9.32357">
        <ele>1379.1</ele>
        <time>2024-07-10T05:21:43Z</time>
      </trkpt>
      <trkpt lat="47.1396" lon="9.32357">
        <ele>1379</ele>
        <time>2024-07-10T05:21:44Z</time>
      </trkpt>
      <trkpt lat="47.13961" lon="9.32356">
        <ele>1379.4</ele>
        <time>2024-07-10T05:21:45Z</time>
      </trkpt>
      <trkpt lat="47.13962" lon="9.32356">
        <ele>1379.2</ele>
        <time>2024-07-10T05:21:46Z</time>
      </trkpt>
      <trkpt lat="47.13962" lon="9.32355">
        <ele>1379.1</ele>
        <time>2024-07-10T05:21:47Z</time>
      </trkpt>
      <trkpt lat="47.13963" lon="9.32354">
        <ele>1379.1</ele>
        <time>2024-07-10T05:21:48Z</time>
      </trkpt>
      <trkpt lat="47.13964" lon="9.32353">
        <ele>1379.2</ele>
        <time>2024-07-10T05:21:49Z</time>
      </trkpt>
      <trkpt lat="47.13966" lon="9.32352">
        <ele>1379.4</ele>
        <time>2024-07-10T05:21:50Z</time>
      </trkpt>
      <trkpt lat="47.13966" lon="9.3235">
        <ele>1379.7</ele>
        <time>2024-07-10T05:21:51Z</time>
      </trkpt>
      <trkpt lat="47.13967" lon="9.32348">
        <ele>1379.9</ele>
        <time>2024-07-10T05:21:52Z</time>
      </trkpt>
      <trkpt lat="47.13968" lon="9.32347">
        <ele>1380</ele>
        <time>2024-07-10T05:21:53Z</time>
      </trkpt>
      <trkpt lat="47.13968" lon="9.32344">
        <ele>1380.3</ele>
        <time>2024-07-10T05:21:54Z</time>
      </trkpt>
      <trkpt lat="47.13968" lon="9.32342">
        <ele>1380.4</ele>
        <time>2024-07-10T05:21:55Z</time>
      </trkpt>
      <trkpt lat="47.13968" lon="9.32339">
        <ele>1380.7</ele>
        <time>2024-07-10T05:21:56Z</time>
      </trkpt>
      <trkpt lat="47.13968" lon="9.32338">
        <ele>1380.7</ele>
        <time>2024-07-10T05:21:57Z</time>
      </trkpt>
      <trkpt lat="47.13968" lon="9.32336">
        <ele>1381</ele>
        <time>2024-07-10T05:21:58Z</time>
      </trkpt>
      <trkpt lat="47.13967" lon="9.32333">
        <ele>1381.2</ele>
        <time>2024-07-10T05:21:59Z</time>
      </trkpt>
      <trkpt lat="47.13966" lon="9.32331">
        <ele>1381.6</ele>
        <time>2024-07-10T05:22:01Z</time>
      </trkpt>
      <trkpt lat="47.13965" lon="9.32329">
        <ele>1381.8</ele>
        <time>2024-07-10T05:22:02Z</time>
      </trkpt>
      <trkpt lat="47.13966" lon="9.32328">
        <ele>1382</ele>
        <time>2024-07-10T05:22:04Z</time>
      </trkpt>
      <trkpt lat="47.13965" lon="9.32327">
        <ele>1381.2</ele>
        <time>2024-07-10T05:22:13Z</time>
      </trkpt>
      <trkpt lat="47.13966" lon="9.32325">
        <ele>1382.5</ele>
        <time>2024-07-10T05:22:22Z</time>
      </trkpt>
      <trkpt lat="47.13967" lon="9.32323">
        <ele>1382.4</ele>
        <time>2024-07-10T05:22:25Z</time>
      </trkpt>
      <trkpt lat="47.13968" lon="9.32323">
        <ele>1382.7</ele>
        <time>2024-07-10T05:22:26Z</time>
      </trkpt>
      <trkpt lat="47.13969" lon="9.32321">
        <ele>1383.1</ele>
        <time>2024-07-10T05:22:29Z</time>
      </trkpt>
      <trkpt lat="47.1397" lon="9.32321">
        <ele>1382.8</ele>
        <time>2024-07-10T05:22:31Z</time>
      </trkpt>
      <trkpt lat="47.13971" lon="9.3232">
        <ele>1382.4</ele>
        <time>2024-07-10T05:22:32Z</time>
      </trkpt>
      <trkpt lat="47.13972" lon="9.32318">
        <ele>1382</ele>
        <time>2024-07-10T05:22:34Z</time>
      </trkpt>
      <trkpt lat="47.13972" lon="9.32316">
        <ele>1382.4</ele>
        <time>2024-07-10T05:22:36Z</time>
      </trkpt>
      <trkpt lat="47.13971" lon="9.32315">
        <ele>1382.4</ele>
        <time>2024-07-10T05:22:37Z</time>
      </trkpt>
      <trkpt lat="47.1397" lon="9.32314">
        <ele>1382.4</ele>
        <time>2024-07-10T05:22:38Z</time>
      </trkpt>
      <trkpt lat="47.13969" lon="9.32313">
        <ele>1382.4</ele>
        <time>2024-07-10T05:22:39Z</time>
      </trkpt>
      <trkpt lat="47.13969" lon="9.32312">
        <ele>1382.3</ele>
        <time>2024-07-10T05:22:40Z</time>
      </trkpt>
      <trkpt lat="47.13968" lon="9.3231">
        <ele>1381.9</ele>
        <time>2024-07-10T05:22:42Z</time>
      </trkpt>
      <trkpt lat="47.13967" lon="9.32309">
        <ele>1381.5</ele>
        <time>2024-07-10T05:22:44Z</time>
      </trkpt>
      <trkpt lat="47.13966" lon="9.32308">
        <ele>1381.1</ele>
        <time>2024-07-10T05:22:46Z</time>
      </trkpt>
      <trkpt lat="47.13965" lon="9.32307">
        <ele>1381.3</ele>
        <time>2024-07-10T05:22:47Z</time>
      </trkpt>
      <trkpt lat="47.13963" lon="9.32306">
        <ele>1382</ele>
        <time>2024-07-10T05:22:49Z</time>
      </trkpt>
      <trkpt lat="47.13963" lon="9.32304">
        <ele>1382.7</ele>
        <time>2024-07-10T05:22:52Z</time>
      </trkpt>
      <trkpt lat="47.13964" lon="9.32303">
        <ele>1380.1</ele>
        <time>2024-07-10T05:23:19Z</time>
      </trkpt>
      <trkpt lat="47.13963" lon="9.32302">
        <ele>1380.5</ele>
        <time>2024-07-10T05:23:21Z</time>
      </trkpt>
      <trkpt lat="47.13962" lon="9.32302">
        <ele>1380.6</ele>
        <time>2024-07-10T05:23:23Z</time>
      </trkpt>
      <trkpt lat="47.13962" lon="9.323">
        <ele>1381</ele>
        <time>2024-07-10T05:23:29Z</time>
      </trkpt>
      <trkpt lat="47.13961" lon="9.32298">
        <ele>1380.9</ele>
        <time>2024-07-10T05:23:30Z</time>
      </trkpt>
      <trkpt lat="47.1396" lon="9.32296">
        <ele>1380.8</ele>
        <time>2024-07-10T05:23:31Z</time>
      </trkpt>
      <trkpt lat="47.1396" lon="9.32293">
        <ele>1380.6</ele>
        <time>2024-07-10T05:23:32Z</time>
      </trkpt>
      <trkpt lat="47.13959" lon="9.32291">
        <ele>1380.9</ele>
        <time>2024-07-10T05:23:33Z</time>
      </trkpt>
      <trkpt lat="47.13959" lon="9.32289">
        <ele>1381.1</ele>
        <time>2024-07-10T05:23:34Z</time>
      </trkpt>
      <trkpt lat="47.13958" lon="9.32287">
        <ele>1381</ele>
        <time>2024-07-10T05:23:35Z</time>
      </trkpt>
      <trkpt lat="47.13957" lon="9.32285">
        <ele>1381.5</ele>
        <time>2024-07-10T05:23:36Z</time>
      </trkpt>
      <trkpt lat="47.13957" lon="9.32283">
        <ele>1381.7</ele>
        <time>2024-07-10T05:23:37Z</time>
      </trkpt>
      <trkpt lat="47.13956" lon="9.32282">
        <ele>1381.7</ele>
        <time>2024-07-10T05:23:38Z</time>
      </trkpt>
      <trkpt lat="47.13956" lon="9.3228">
        <ele>1381.3</ele>
        <time>2024-07-10T05:23:39Z</time>
      </trkpt>
      <trkpt lat="47.13956" lon="9.32278">
        <ele>1381.6</ele>
        <time>2024-07-10T05:23:40Z</time>
      </trkpt>
      <trkpt lat="47.13955" lon="9.32276">
        <ele>1381.8</ele>
        <time>2024-07-10T05:23:41Z</time>
      </trkpt>
      <trkpt lat="47.13955" lon="9.32274">
        <ele>1381.8</ele>
        <time>2024-07-10T05:23:42Z</time>
      </trkpt>
      <trkpt lat="47.13955" lon="9.32272">
        <ele>1381.8</ele>
        <time>2024-07-10T05:23:43Z</time>
      </trkpt>
      <trkpt lat="47.13954" lon="9.32269">
        <ele>1381.5</ele>
        <time>2024-07-10T05:23:44Z</time>
      </trkpt>
      <trkpt lat="47.13954" lon="9.32267">
        <ele>1382</ele>
        <time>2024-07-10T05:23:45Z</time>
      </trkpt>
      <trkpt lat="47.13954" lon="9.32266">
        <ele>1381.8</ele>
        <time>2024-07-10T05:23:46Z</time>
      </trkpt>
      <trkpt lat="47.13953" lon="9.32264">
        <ele>1381.8</ele>
        <time>2024-07-10T05:23:47Z</time>
      </trkpt>
      <trkpt lat="47.13953" lon="9.32263">
        <ele>1382</ele>
        <time>2024-07-10T05:23:48Z</time>
      </trkpt>
      <trkpt lat="47.13953" lon="9.32262">
        <ele>1382.2</ele>
        <time>2024-07-10T05:23:49Z</time>
      </trkpt>
      <trkpt lat="47.13953" lon="9.3226">
        <ele>1382.2</ele>
        <time>2024-07-10T05:23:50Z</time>
      </trkpt>
      <trkpt lat="47.13952" lon="9.32258">
        <ele>1382.5</ele>
        <time>2024-07-10T05:23:51Z</time>
      </trkpt>
      <trkpt lat="47.13952" lon="9.32257">
        <ele>1382.4</ele>
        <time>2024-07-10T05:23:52Z</time>
      </trkpt>
      <trkpt lat="47.13952" lon="9.32255">
        <ele>1382.6</ele>
        <time>2024-07-10T05:23:53Z</time>
      </trkpt>
      <trkpt lat="47.13951" lon="9.32254">
        <ele>1382.6</ele>
        <time>2024-07-10T05:23:54Z</time>
      </trkpt>
      <trkpt lat="47.1395" lon="9.32252">
        <ele>1382.7</ele>
        <time>2024-07-10T05:23:55Z</time>
      </trkpt>
      <trkpt lat="47.1395" lon="9.32251">
        <ele>1382.6</ele>
        <time>2024-07-10T05:23:56Z</time>
      </trkpt>
      <trkpt lat="47.13949" lon="9.3225">
        <ele>1382.7</ele>
        <time>2024-07-10T05:23:57Z</time>
      </trkpt>
      <trkpt lat="47.13948" lon="9.32249">
        <ele>1382.5</ele>
        <time>2024-07-10T05:23:58Z</time>
      </trkpt>
      <trkpt lat="47.13947" lon="9.32248">
        <ele>1382.5</ele>
        <time>2024-07-10T05:23:59Z</time>
      </trkpt>
      <trkpt lat="47.13946" lon="9.32247">
        <ele>1383.3</ele>
        <time>2024-07-10T05:24:00Z</time>
      </trkpt>
      <trkpt lat="47.13945" lon="9.32246">
        <ele>1383.8</ele>
        <time>2024-07-10T05:24:01Z</time>
      </trkpt>
      <trkpt lat="47.13945" lon="9.32245">
        <ele>1384.2</ele>
        <time>2024-07-10T05:24:02Z</time>
      </trkpt>
      <trkpt lat="47.13944" lon="9.32243">
        <ele>1384.5</ele>
        <time>2024-07-10T05:24:03Z</time>
      </trkpt>
      <trkpt lat="47.13943" lon="9.32241">
        <ele>1384.8</ele>
        <time>2024-07-10T05:24:04Z</time>
      </trkpt>
      <trkpt lat="47.13942" lon="9.3224">
        <ele>1384.9</ele>
        <time>2024-07-10T05:24:05Z</time>
      </trkpt>
      <trkpt lat="47.13941" lon="9.32238">
        <ele>1385</ele>
        <time>2024-07-10T05:24:06Z</time>
      </trkpt>
      <trkpt lat="47.1394" lon="9.32236">
        <ele>1385.7</ele>
        <time>2024-07-10T05:24:07Z</time>
      </trkpt>
      <trkpt lat="47.1394" lon="9.32234">
        <ele>1386</ele>
        <time>2024-07-10T05:24:09Z</time>
      </trkpt>
      <trkpt lat="47.13941" lon="9.32235">
        <ele>1385.7</ele>
        <time>2024-07-10T05:24:12Z</time>
      </trkpt>
      <trkpt lat="47.13942" lon="9.32234">
        <ele>1385.2</ele>
        <time>2024-07-10T05:24:14Z</time>
      </trkpt>
      <trkpt lat="47.13942" lon="9.32232">
        <ele>1385.5</ele>
        <time>2024-07-10T05:24:16Z</time>
      </trkpt>
      <trkpt lat="47.13943" lon="9.3223">
        <ele>1385.4</ele>
        <time>2024-07-10T05:24:17Z</time>
      </trkpt>
      <trkpt lat="47.13943" lon="9.32228">
        <ele>1385.6</ele>
        <time>2024-07-10T05:24:18Z</time>
      </trkpt>
      <trkpt lat="47.13944" lon="9.32227">
        <ele>1386.1</ele>
        <time>2024-07-10T05:24:19Z</time>
      </trkpt>
      <trkpt lat="47.13944" lon="9.32225">
        <ele>1386.2</ele>
        <time>2024-07-10T05:24:20Z</time>
      </trkpt>
      <trkpt lat="47.13944" lon="9.32223">
        <ele>1386</ele>
        <time>2024-07-10T05:24:21Z</time>
      </trkpt>
      <trkpt lat="47.13945" lon="9.32221">
        <ele>1385.8</ele>
        <time>2024-07-10T05:24:22Z</time>
      </trkpt>
      <trkpt lat="47.13946" lon="9.3222">
        <ele>1385.5</ele>
        <time>2024-07-10T05:24:23Z</time>
      </trkpt>
      <trkpt lat="47.13947" lon="9.32218">
        <ele>1385.6</ele>
        <time>2024-07-10T05:24:25Z</time>
      </trkpt>
      <trkpt lat="47.13948" lon="9.32217">
        <ele>1385.7</ele>
        <time>2024-07-10T05:24:26Z</time>
      </trkpt>
      <trkpt lat="47.13949" lon="9.32216">
        <ele>1385.7</ele>
        <time>2024-07-10T05:24:27Z</time>
      </trkpt>
      <trkpt lat="47.1395" lon="9.32214">
        <ele>1385.8</ele>
        <time>2024-07-10T05:24:28Z</time>
      </trkpt>
      <trkpt lat="47.13951" lon="9.32212">
        <ele>1385.8</ele>
        <time>2024-07-10T05:24:29Z</time>
      </trkpt>
      <trkpt lat="47.13952" lon="9.32211">
        <ele>1386</ele>
        <time>2024-07-10T05:24:30Z</time>
      </trkpt>
      <trkpt lat="47.13953" lon="9.32211">
        <ele>1386.2</ele>
        <time>2024-07-10T05:24:31Z</time>
      </trkpt>
      <trkpt lat="47.13954" lon="9.3221">
        <ele>1386.5</ele>
        <time>2024-07-10T05:24:33Z</time>
      </trkpt>
      <trkpt lat="47.13956" lon="9.3221">
        <ele>1386.4</ele>
        <time>2024-07-10T05:24:36Z</time>
      </trkpt>
      <trkpt lat="47.13957" lon="9.32209">
        <ele>1386.4</ele>
        <time>2024-07-10T05:24:38Z</time>
      </trkpt>
      <trkpt lat="47.13958" lon="9.32209">
        <ele>1386.2</ele>
        <time>2024-07-10T05:24:39Z</time>
      </trkpt>
      <trkpt lat="47.13959" lon="9.32208">
        <ele>1386</ele>
        <time>2024-07-10T05:24:40Z</time>
      </trkpt>
      <trkpt lat="47.1396" lon="9.32208">
        <ele>1386</ele>
        <time>2024-07-10T05:24:41Z</time>
      </trkpt>
      <trkpt lat="47.13961" lon="9.32208">
        <ele>1385.7</ele>
        <time>2024-07-10T05:24:42Z</time>
      </trkpt>
      <trkpt lat="47.13963" lon="9.32207">
        <ele>1385.6</ele>
        <time>2024-07-10T05:24:43Z</time>
      </trkpt>
      <trkpt lat="47.13964" lon="9.32207">
        <ele>1385.5</ele>
        <time>2024-07-10T05:24:44Z</time>
      </trkpt>
      <trkpt lat="47.13966" lon="9.32206">
        <ele>1385.6</ele>
        <time>2024-07-10T05:24:45Z</time>
      </trkpt>
      <trkpt lat="47.13967" lon="9.32206">
        <ele>1385.5</ele>
        <time>2024-07-10T05:24:46Z</time>
      </trkpt>
      <trkpt lat="47.13969" lon="9.32205">
        <ele>1385.5</ele>
        <time>2024-07-10T05:24:48Z</time>
      </trkpt>
      <trkpt lat="47.1397" lon="9.32205">
        <ele>1385.5</ele>
        <time>2024-07-10T05:24:49Z</time>
      </trkpt>
      <trkpt lat="47.13972" lon="9.32204">
        <ele>1385.4</ele>
        <time>2024-07-10T05:24:50Z</time>
      </trkpt>
      <trkpt lat="47.13973" lon="9.32203">
        <ele>1385.2</ele>
        <time>2024-07-10T05:24:51Z</time>
      </trkpt>
      <trkpt lat="47.13974" lon="9.32202">
        <ele>1384.9</ele>
        <time>2024-07-10T05:24:52Z</time>
      </trkpt>
      <trkpt lat="47.13976" lon="9.32202">
        <ele>1384.8</ele>
        <time>2024-07-10T05:24:53Z</time>
      </trkpt>
      <trkpt lat="47.13977" lon="9.32201">
        <ele>1385.4</ele>
        <time>2024-07-10T05:24:54Z</time>
      </trkpt>
      <trkpt lat="47.13978" lon="9.322">
        <ele>1385.7</ele>
        <time>2024-07-10T05:24:55Z</time>
      </trkpt>
      <trkpt lat="47.13979" lon="9.32199">
        <ele>1386</ele>
        <time>2024-07-10T05:24:56Z</time>
      </trkpt>
      <trkpt lat="47.13981" lon="9.32198">
        <ele>1386.2</ele>
        <time>2024-07-10T05:24:57Z</time>
      </trkpt>
      <trkpt lat="47.13982" lon="9.32197">
        <ele>1386.4</ele>
        <time>2024-07-10T05:24:58Z</time>
      </trkpt>
      <trkpt lat="47.13984" lon="9.32196">
        <ele>1386.3</ele>
        <time>2024-07-10T05:24:59Z</time>
      </trkpt>
      <trkpt lat="47.13985" lon="9.32195">
        <ele>1386.5</ele>
        <time>2024-07-10T05:25:00Z</time>
      </trkpt>
      <trkpt lat="47.13987" lon="9.32194">
        <ele>1386.7</ele>
        <time>2024-07-10T05:25:01Z</time>
      </trkpt>
      <trkpt lat="47.13988" lon="9.32192">
        <ele>1386.6</ele>
        <time>2024-07-10T05:25:02Z</time>
      </trkpt>
      <trkpt lat="47.1399" lon="9.32191">
        <ele>1386.4</ele>
        <time>2024-07-10T05:25:03Z</time>
      </trkpt>
      <trkpt lat="47.13991" lon="9.3219">
        <ele>1386.4</ele>
        <time>2024-07-10T05:25:04Z</time>
      </trkpt>
      <trkpt lat="47.13992" lon="9.32189">
        <ele>1386.3</ele>
        <time>2024-07-10T05:25:05Z</time>
      </trkpt>
      <trkpt lat="47.13993" lon="9.32189">
        <ele>1386.2</ele>
        <time>2024-07-10T05:25:06Z</time>
      </trkpt>
      <trkpt lat="47.13995" lon="9.32188">
        <ele>1386.3</ele>
        <time>2024-07-10T05:25:07Z</time>
      </trkpt>
      <trkpt lat="47.13997" lon="9.32187">
        <ele>1386</ele>
        <time>2024-07-10T05:25:08Z</time>
      </trkpt>
      <trkpt lat="47.13998" lon="9.32187">
        <ele>1385.8</ele>
        <time>2024-07-10T05:25:09Z</time>
      </trkpt>
      <trkpt lat="47.13999" lon="9.32186">
        <ele>1385.6</ele>
        <time>2024-07-10T05:25:10Z</time>
      </trkpt>
      <trkpt lat="47.14001" lon="9.32185">
        <ele>1385.4</ele>
        <time>2024-07-10T05:25:11Z</time>
      </trkpt>
      <trkpt lat="47.14002" lon="9.32185">
        <ele>1385.3</ele>
        <time>2024-07-10T05:25:12Z</time>
      </trkpt>
      <trkpt lat="47.14004" lon="9.32184">
        <ele>1385</ele>
        <time>2024-07-10T05:25:13Z</time>
      </trkpt>
      <trkpt lat="47.14005" lon="9.32184">
        <ele>1384.8</ele>
        <time>2024-07-10T05:25:14Z</time>
      </trkpt>
      <trkpt lat="47.14006" lon="9.32183">
        <ele>1384.1</ele>
        <time>2024-07-10T05:25:15Z</time>
      </trkpt>
      <trkpt lat="47.14008" lon="9.32183">
        <ele>1384.1</ele>
        <time>2024-07-10T05:25:16Z</time>
      </trkpt>
      <trkpt lat="47.14009" lon="9.32182">
        <ele>1384</ele>
        <time>2024-07-10T05:25:17Z</time>
      </trkpt>
      <trkpt lat="47.1401" lon="9.32181">
        <ele>1384.2</ele>
        <time>2024-07-10T05:25:18Z</time>
      </trkpt>
      <trkpt lat="47.14011" lon="9.3218">
        <ele>1384.2</ele>
        <time>2024-07-10T05:25:19Z</time>
      </trkpt>
      <trkpt lat="47.14013" lon="9.32178">
        <ele>1384</ele>
        <time>2024-07-10T05:25:20Z</time>
      </trkpt>
      <trkpt lat="47.14014" lon="9.32176">
        <ele>1383.9</ele>
        <time>2024-07-10T05:25:21Z</time>
      </trkpt>
      <trkpt lat="47.14015" lon="9.32175">
        <ele>1383.8</ele>
        <time>2024-07-10T05:25:22Z</time>
      </trkpt>
      <trkpt lat="47.14016" lon="9.32174">
        <ele>1383.6</ele>
        <time>2024-07-10T05:25:23Z</time>
      </trkpt>
      <trkpt lat="47.14017" lon="9.32173">
        <ele>1383.6</ele>
        <time>2024-07-10T05:25:24Z</time>
      </trkpt>
      <trkpt lat="47.14018" lon="9.32171">
        <ele>1383.7</ele>
        <time>2024-07-10T05:25:26Z</time>
      </trkpt>
      <trkpt lat="47.1402" lon="9.3217">
        <ele>1383.9</ele>
        <time>2024-07-10T05:25:27Z</time>
      </trkpt>
      <trkpt lat="47.14021" lon="9.32169">
        <ele>1384.1</ele>
        <time>2024-07-10T05:25:28Z</time>
      </trkpt>
      <trkpt lat="47.14022" lon="9.32169">
        <ele>1384</ele>
        <time>2024-07-10T05:25:29Z</time>
      </trkpt>
      <trkpt lat="47.14023" lon="9.32167">
        <ele>1383.8</ele>
        <time>2024-07-10T05:25:31Z</time>
      </trkpt>
      <trkpt lat="47.14022" lon="9.32166">
        <ele>1383.7</ele>
        <time>2024-07-10T05:25:34Z</time>
      </trkpt>
      <trkpt lat="47.14022" lon="9.32165">
        <ele>1383.5</ele>
        <time>2024-07-10T05:25:37Z</time>
      </trkpt>
      <trkpt lat="47.14021" lon="9.32163">
        <ele>1382.7</ele>
        <time>2024-07-10T05:25:40Z</time>
      </trkpt>
      <trkpt lat="47.14026" lon="9.32157">
        <ele>1385.1</ele>
        <time>2024-07-10T05:26:28Z</time>
      </trkpt>
      <trkpt lat="47.14027" lon="9.32156">
        <ele>1385</ele>
        <time>2024-07-10T05:26:29Z</time>
      </trkpt>
      <trkpt lat="47.14027" lon="9.32153">
        <ele>1385.1</ele>
        <time>2024-07-10T05:26:31Z</time>
      </trkpt>
      <trkpt lat="47.14028" lon="9.32152">
        <ele>1384.9</ele>
        <time>2024-07-10T05:26:32Z</time>
      </trkpt>
      <trkpt lat="47.14029" lon="9.32151">
        <ele>1384.7</ele>
        <time>2024-07-10T05:26:33Z</time>
      </trkpt>
      <trkpt lat="47.14029" lon="9.32149">
        <ele>1384.6</ele>
        <time>2024-07-10T05:26:34Z</time>
      </trkpt>
      <trkpt lat="47.1403" lon="9.32147">
        <ele>1384.5</ele>
        <time>2024-07-10T05:26:35Z</time>
      </trkpt>
      <trkpt lat="47.1403" lon="9.32146">
        <ele>1384.3</ele>
        <time>2024-07-10T05:26:36Z</time>
      </trkpt>
      <trkpt lat="47.14031" lon="9.32145">
        <ele>1384.3</ele>
        <time>2024-07-10T05:26:37Z</time>
      </trkpt>
      <trkpt lat="47.14032" lon="9.32143">
        <ele>1384.1</ele>
        <time>2024-07-10T05:26:38Z</time>
      </trkpt>
      <trkpt lat="47.14033" lon="9.32142">
        <ele>1383.8</ele>
        <time>2024-07-10T05:26:39Z</time>
      </trkpt>
      <trkpt lat="47.14034" lon="9.3214">
        <ele>1383.9</ele>
        <time>2024-07-10T05:26:40Z</time>
      </trkpt>
      <trkpt lat="47.14035" lon="9.32139">
        <ele>1383.8</ele>
        <time>2024-07-10T05:26:41Z</time>
      </trkpt>
      <trkpt lat="47.14036" lon="9.32137">
        <ele>1383.9</ele>
        <time>2024-07-10T05:26:42Z</time>
      </trkpt>
      <trkpt lat="47.14037" lon="9.32136">
        <ele>1383.9</ele>
        <time>2024-07-10T05:26:43Z</time>
      </trkpt>
      <trkpt lat="47.14038" lon="9.32135">
        <ele>1383.9</ele>
        <time>2024-07-10T05:26:44Z</time>
      </trkpt>
      <trkpt lat="47.14039" lon="9.32134">
        <ele>1383.9</ele>
        <time>2024-07-10T05:26:46Z</time>
      </trkpt>
      <trkpt lat="47.1404" lon="9.32132">
        <ele>1383.5</ele>
        <time>2024-07-10T05:26:47Z</time>
      </trkpt>
      <trkpt lat="47.14041" lon="9.32132">
        <ele>1383.1</ele>
        <time>2024-07-10T05:26:48Z</time>
      </trkpt>
      <trkpt lat="47.14041" lon="9.3213">
        <ele>1383.4</ele>
        <time>2024-07-10T05:26:50Z</time>
      </trkpt>
      <trkpt lat="47.14041" lon="9.32129">
        <ele>1382.9</ele>
        <time>2024-07-10T05:26:53Z</time>
      </trkpt>
      <trkpt lat="47.14041" lon="9.32128">
        <ele>1382.7</ele>
        <time>2024-07-10T05:26:57Z</time>
      </trkpt>
      <trkpt lat="47.14041" lon="9.32126">
        <ele>1386.1</ele>
        <time>2024-07-10T05:27:14Z</time>
      </trkpt>
      <trkpt lat="47.14042" lon="9.32124">
        <ele>1386.1</ele>
        <time>2024-07-10T05:27:16Z</time>
      </trkpt>
      <trkpt lat="47.14043" lon="9.32123">
        <ele>1386.1</ele>
        <time>2024-07-10T05:27:17Z</time>
      </trkpt>
      <trkpt lat="47.14043" lon="9.32122">
        <ele>1386.1</ele>
        <time>2024-07-10T05:27:18Z</time>
      </trkpt>
      <trkpt lat="47.14045" lon="9.32121">
        <ele>1386</ele>
        <time>2024-07-10T05:27:19Z</time>
      </trkpt>
      <trkpt lat="47.14046" lon="9.3212">
        <ele>1386</ele>
        <time>2024-07-10T05:27:20Z</time>
      </trkpt>
      <trkpt lat="47.14047" lon="9.32118">
        <ele>1386.1</ele>
        <time>2024-07-10T05:27:21Z</time>
      </trkpt>
      <trkpt lat="47.14047" lon="9.32117">
        <ele>1386.2</ele>
        <time>2024-07-10T05:27:22Z</time>
      </trkpt>
      <trkpt lat="47.14048" lon="9.32116">
        <ele>1386.6</ele>
        <time>2024-07-10T05:27:23Z</time>
      </trkpt>
      <trkpt lat="47.14049" lon="9.32114">
        <ele>1387.2</ele>
        <time>2024-07-10T05:27:24Z</time>
      </trkpt>
      <trkpt lat="47.1405" lon="9.32112">
        <ele>1387.4</ele>
        <time>2024-07-10T05:27:25Z</time>
      </trkpt>
      <trkpt lat="47.1405" lon="9.3211">
        <ele>1387.4</ele>
        <time>2024-07-10T05:27:26Z</time>
      </trkpt>
      <trkpt lat="47.14051" lon="9.32108">
        <ele>1387.2</ele>
        <time>2024-07-10T05:27:27Z</time>
      </trkpt>
      <trkpt lat="47.14052" lon="9.32106">
        <ele>1387.1</ele>
        <time>2024-07-10T05:27:28Z</time>
      </trkpt>
      <trkpt lat="47.14052" lon="9.32104">
        <ele>1387.2</ele>
        <time>2024-07-10T05:27:29Z</time>
      </trkpt>
      <trkpt lat="47.14053" lon="9.32102">
        <ele>1387.5</ele>
        <time>2024-07-10T05:27:31Z</time>
      </trkpt>
      <trkpt lat="47.14054" lon="9.32101">
        <ele>1387.7</ele>
        <time>2024-07-10T05:27:32Z</time>
      </trkpt>
      <trkpt lat="47.14055" lon="9.32099">
        <ele>1387.6</ele>
        <time>2024-07-10T05:27:33Z</time>
      </trkpt>
      <trkpt lat="47.14056" lon="9.32097">
        <ele>1387.2</ele>
        <time>2024-07-10T05:27:34Z</time>
      </trkpt>
      <trkpt lat="47.14057" lon="9.32095">
        <ele>1386.8</ele>
        <time>2024-07-10T05:27:35Z</time>
      </trkpt>
      <trkpt lat="47.14057" lon="9.32093">
        <ele>1386.5</ele>
        <time>2024-07-10T05:27:36Z</time>
      </trkpt>
      <trkpt lat="47.14058" lon="9.3209">
        <ele>1386.4</ele>
        <time>2024-07-10T05:27:37Z</time>
      </trkpt>
      <trkpt lat="47.14059" lon="9.32088">
        <ele>1386.2</ele>
        <time>2024-07-10T05:27:38Z</time>
      </trkpt>
      <trkpt lat="47.14059" lon="9.32086">
        <ele>1385.9</ele>
        <time>2024-07-10T05:27:40Z</time>
      </trkpt>
      <trkpt lat="47.14059" lon="9.32084">
        <ele>1385.9</ele>
        <time>2024-07-10T05:27:41Z</time>
      </trkpt>
      <trkpt lat="47.14059" lon="9.32082">
        <ele>1386.4</ele>
        <time>2024-07-10T05:27:42Z</time>
      </trkpt>
      <trkpt lat="47.1406" lon="9.3208">
        <ele>1386.8</ele>
        <time>2024-07-10T05:27:43Z</time>
      </trkpt>
      <trkpt lat="47.1406" lon="9.32078">
        <ele>1387.2</ele>
        <time>2024-07-10T05:27:44Z</time>
      </trkpt>
      <trkpt lat="47.1406" lon="9.32076">
        <ele>1387.8</ele>
        <time>2024-07-10T05:27:45Z</time>
      </trkpt>
      <trkpt lat="47.1406" lon="9.32074">
        <ele>1387.9</ele>
        <time>2024-07-10T05:27:46Z</time>
      </trkpt>
      <trkpt lat="47.14061" lon="9.32072">
        <ele>1387.6</ele>
        <time>2024-07-10T05:27:47Z</time>
      </trkpt>
      <trkpt lat="47.14061" lon="9.32071">
        <ele>1387.9</ele>
        <time>2024-07-10T05:27:48Z</time>
      </trkpt>
      <trkpt lat="47.14062" lon="9.32069">
        <ele>1388.3</ele>
        <time>2024-07-10T05:27:49Z</time>
      </trkpt>
      <trkpt lat="47.14063" lon="9.32067">
        <ele>1388.4</ele>
        <time>2024-07-10T05:27:50Z</time>
      </trkpt>
      <trkpt lat="47.14063" lon="9.32065">
        <ele>1388.5</ele>
        <time>2024-07-10T05:27:51Z</time>
      </trkpt>
      <trkpt lat="47.14064" lon="9.32063">
        <ele>1388.7</ele>
        <time>2024-07-10T05:27:52Z</time>
      </trkpt>
      <trkpt lat="47.14064" lon="9.32061">
        <ele>1389.1</ele>
        <time>2024-07-10T05:27:53Z</time>
      </trkpt>
      <trkpt lat="47.14064" lon="9.32059">
        <ele>1389.7</ele>
        <time>2024-07-10T05:27:54Z</time>
      </trkpt>
      <trkpt lat="47.14064" lon="9.32057">
        <ele>1390.2</ele>
        <time>2024-07-10T05:27:55Z</time>
      </trkpt>
      <trkpt lat="47.14064" lon="9.32055">
        <ele>1390.2</ele>
        <time>2024-07-10T05:27:56Z</time>
      </trkpt>
      <trkpt lat="47.14065" lon="9.32053">
        <ele>1390.3</ele>
        <time>2024-07-10T05:27:57Z</time>
      </trkpt>
      <trkpt lat="47.14065" lon="9.32051">
        <ele>1390.6</ele>
        <time>2024-07-10T05:27:58Z</time>
      </trkpt>
      <trkpt lat="47.14065" lon="9.32048">
        <ele>1390.4</ele>
        <time>2024-07-10T05:27:59Z</time>
      </trkpt>
      <trkpt lat="47.14065" lon="9.32045">
        <ele>1390.3</ele>
        <time>2024-07-10T05:28:00Z</time>
      </trkpt>
      <trkpt lat="47.14066" lon="9.32043">
        <ele>1390.4</ele>
        <time>2024-07-10T05:28:01Z</time>
      </trkpt>
      <trkpt lat="47.14067" lon="9.3204">
        <ele>1390.4</ele>
        <time>2024-07-10T05:28:03Z</time>
      </trkpt>
      <trkpt lat="47.14067" lon="9.32039">
        <ele>1390.4</ele>
        <time>2024-07-10T05:28:04Z</time>
      </trkpt>
      <trkpt lat="47.14069" lon="9.32038">
        <ele>1390.2</ele>
        <time>2024-07-10T05:28:06Z</time>
      </trkpt>
      <trkpt lat="47.1407" lon="9.32037">
        <ele>1390.1</ele>
        <time>2024-07-10T05:28:07Z</time>
      </trkpt>
      <trkpt lat="47.14071" lon="9.32036">
        <ele>1390.2</ele>
        <time>2024-07-10T05:28:08Z</time>
      </trkpt>
      <trkpt lat="47.14072" lon="9.32036">
        <ele>1390.4</ele>
        <time>2024-07-10T05:28:09Z</time>
      </trkpt>
      <trkpt lat="47.14074" lon="9.32035">
        <ele>1390.6</ele>
        <time>2024-07-10T05:28:11Z</time>
      </trkpt>
      <trkpt lat="47.14075" lon="9.32034">
        <ele>1390.7</ele>
        <time>2024-07-10T05:28:12Z</time>
      </trkpt>
      <trkpt lat="47.14076" lon="9.32034">
        <ele>1390.9</ele>
        <time>2024-07-10T05:28:13Z</time>
      </trkpt>
      <trkpt lat="47.14077" lon="9.32033">
        <ele>1390.8</ele>
        <time>2024-07-10T05:28:14Z</time>
      </trkpt>
      <trkpt lat="47.14078" lon="9.32033">
        <ele>1390.8</ele>
        <time>2024-07-10T05:28:15Z</time>
      </trkpt>
      <trkpt lat="47.14079" lon="9.32032">
        <ele>1390.8</ele>
        <time>2024-07-10T05:28:16Z</time>
      </trkpt>
      <trkpt lat="47.1408" lon="9.32031">
        <ele>1390.8</ele>
        <time>2024-07-10T05:28:17Z</time>
      </trkpt>
      <trkpt lat="47.14081" lon="9.32031">
        <ele>1390.7</ele>
        <time>2024-07-10T05:28:18Z</time>
      </trkpt>
      <trkpt lat="47.14082" lon="9.3203">
        <ele>1390.7</ele>
        <time>2024-07-10T05:28:19Z</time>
      </trkpt>
      <trkpt lat="47.14083" lon="9.32029">
        <ele>1390.7</ele>
        <time>2024-07-10T05:28:20Z</time>
      </trkpt>
      <trkpt lat="47.14084" lon="9.32029">
        <ele>1390.7</ele>
        <time>2024-07-10T05:28:21Z</time>
      </trkpt>
      <trkpt lat="47.14086" lon="9.32029">
        <ele>1390.2</ele>
        <time>2024-07-10T05:28:22Z</time>
      </trkpt>
      <trkpt lat="47.14087" lon="9.32028">
        <ele>1389.3</ele>
        <time>2024-07-10T05:28:23Z</time>
      </trkpt>
      <trkpt lat="47.14089" lon="9.32028">
        <ele>1388</ele>
        <time>2024-07-10T05:28:24Z</time>
      </trkpt>
      <trkpt lat="47.1409" lon="9.32027">
        <ele>1387.5</ele>
        <time>2024-07-10T05:28:25Z</time>
      </trkpt>
      <trkpt lat="47.14091" lon="9.32027">
        <ele>1387.3</ele>
        <time>2024-07-10T05:28:26Z</time>
      </trkpt>
      <trkpt lat="47.14093" lon="9.32026">
        <ele>1386.9</ele>
        <time>2024-07-10T05:28:27Z</time>
      </trkpt>
      <trkpt lat="47.14094" lon="9.32026">
        <ele>1386.5</ele>
        <time>2024-07-10T05:28:28Z</time>
      </trkpt>
      <trkpt lat="47.14095" lon="9.32025">
        <ele>1386.3</ele>
        <time>2024-07-10T05:28:29Z</time>
      </trkpt>
      <trkpt lat="47.14096" lon="9.32025">
        <ele>1386</ele>
        <time>2024-07-10T05:28:30Z</time>
      </trkpt>
      <trkpt lat="47.14097" lon="9.32024">
        <ele>1385.8</ele>
        <time>2024-07-10T05:28:31Z</time>
      </trkpt>
      <trkpt lat="47.14099" lon="9.32023">
        <ele>1385.6</ele>
        <time>2024-07-10T05:28:32Z</time>
      </trkpt>
      <trkpt lat="47.141" lon="9.32021">
        <ele>1385.5</ele>
        <time>2024-07-10T05:28:33Z</time>
      </trkpt>
      <trkpt lat="47.14101" lon="9.3202">
        <ele>1385.5</ele>
        <time>2024-07-10T05:28:34Z</time>
      </trkpt>
      <trkpt lat="47.14101" lon="9.32019">
        <ele>1385.5</ele>
        <time>2024-07-10T05:28:35Z</time>
      </trkpt>
      <trkpt lat="47.14102" lon="9.32018">
        <ele>1385.5</ele>
        <time>2024-07-10T05:28:36Z</time>
      </trkpt>
      <trkpt lat="47.14103" lon="9.32017">
        <ele>1385.6</ele>
        <time>2024-07-10T05:28:37Z</time>
      </trkpt>
      <trkpt lat="47.14105" lon="9.32016">
        <ele>1385.6</ele>
        <time>2024-07-10T05:28:39Z</time>
      </trkpt>
      <trkpt lat="47.14106" lon="9.32014">
        <ele>1385.7</ele>
        <time>2024-07-10T05:28:40Z</time>
      </trkpt>
      <trkpt lat="47.14108" lon="9.32013">
        <ele>1385.4</ele>
        <time>2024-07-10T05:28:41Z</time>
      </trkpt>
      <trkpt lat="47.14109" lon="9.32013">
        <ele>1384.6</ele>
        <time>2024-07-10T05:28:42Z</time>
      </trkpt>
      <trkpt lat="47.1411" lon="9.32012">
        <ele>1383.8</ele>
        <time>2024-07-10T05:28:44Z</time>
      </trkpt>
      <trkpt lat="47.14111" lon="9.32011">
        <ele>1383.6</ele>
        <time>2024-07-10T05:28:45Z</time>
      </trkpt>
      <trkpt lat="47.14113" lon="9.3201">
        <ele>1383.5</ele>
        <time>2024-07-10T05:28:46Z</time>
      </trkpt>
      <trkpt lat="47.14114" lon="9.32008">
        <ele>1383.3</ele>
        <time>2024-07-10T05:28:47Z</time>
      </trkpt>
      <trkpt lat="47.14116" lon="9.32007">
        <ele>1383.2</ele>
        <time>2024-07-10T05:28:48Z</time>
      </trkpt>
      <trkpt lat="47.14118" lon="9.32006">
        <ele>1382.5</ele>
        <time>2024-07-10T05:28:49Z</time>
      </trkpt>
      <trkpt lat="47.14119" lon="9.32005">
        <ele>1382.4</ele>
        <time>2024-07-10T05:28:50Z</time>
      </trkpt>
      <trkpt lat="47.14121" lon="9.32005">
        <ele>1382.6</ele>
        <time>2024-07-10T05:28:51Z</time>
      </trkpt>
      <trkpt lat="47.14122" lon="9.32004">
        <ele>1382.8</ele>
        <time>2024-07-10T05:28:52Z</time>
      </trkpt>
      <trkpt lat="47.14123" lon="9.32003">
        <ele>1382.8</ele>
        <time>2024-07-10T05:28:53Z</time>
      </trkpt>
      <trkpt lat="47.14124" lon="9.32001">
        <ele>1384.8</ele>
        <time>2024-07-10T05:28:54Z</time>
      </trkpt>
      <trkpt lat="47.14125" lon="9.32">
        <ele>1385.7</ele>
        <time>2024-07-10T05:28:55Z</time>
      </trkpt>
      <trkpt lat="47.14126" lon="9.31999">
        <ele>1385.8</ele>
        <time>2024-07-10T05:28:56Z</time>
      </trkpt>
      <trkpt lat="47.14127" lon="9.31998">
        <ele>1385.5</ele>
        <time>2024-07-10T05:28:57Z</time>
      </trkpt>
      <trkpt lat="47.14128" lon="9.31997">
        <ele>1385.3</ele>
        <time>2024-07-10T05:28:58Z</time>
      </trkpt>
      <trkpt lat="47.14129" lon="9.31995">
        <ele>1385.9</ele>
        <time>2024-07-10T05:28:59Z</time>
      </trkpt>
      <trkpt lat="47.14129" lon="9.31993">
        <ele>1385.9</ele>
        <time>2024-07-10T05:29:00Z</time>
      </trkpt>
      <trkpt lat="47.1413" lon="9.31991">
        <ele>1385.9</ele>
        <time>2024-07-10T05:29:01Z</time>
      </trkpt>
      <trkpt lat="47.14131" lon="9.3199">
        <ele>1385.7</ele>
        <time>2024-07-10T05:29:02Z</time>
      </trkpt>
      <trkpt lat="47.14132" lon="9.31989">
        <ele>1385.3</ele>
        <time>2024-07-10T05:29:03Z</time>
      </trkpt>
      <trkpt lat="47.14132" lon="9.31987">
        <ele>1385.1</ele>
        <time>2024-07-10T05:29:04Z</time>
      </trkpt>
      <trkpt lat="47.14133" lon="9.31985">
        <ele>1384.2</ele>
        <time>2024-07-10T05:29:06Z</time>
      </trkpt>
      <trkpt lat="47.14134" lon="9.31984">
        <ele>1383.8</ele>
        <time>2024-07-10T05:29:07Z</time>
      </trkpt>
      <trkpt lat="47.14135" lon="9.31982">
        <ele>1383.7</ele>
        <time>2024-07-10T05:29:08Z</time>
      </trkpt>
      <trkpt lat="47.14136" lon="9.3198">
        <ele>1383.8</ele>
        <time>2024-07-10T05:29:09Z</time>
      </trkpt>
      <trkpt lat="47.14136" lon="9.31979">
        <ele>1383.6</ele>
        <time>2024-07-10T05:29:10Z</time>
      </trkpt>
      <trkpt lat="47.14137" lon="9.31978">
        <ele>1383.5</ele>
        <time>2024-07-10T05:29:11Z</time>
      </trkpt>
      <trkpt lat="47.14138" lon="9.31977">
        <ele>1383</ele>
        <time>2024-07-10T05:29:12Z</time>
      </trkpt>
      <trkpt lat="47.1414" lon="9.31975">
        <ele>1383.1</ele>
        <time>2024-07-10T05:29:14Z</time>
      </trkpt>
      <trkpt lat="47.1414" lon="9.31974">
        <ele>1383.6</ele>
        <time>2024-07-10T05:29:15Z</time>
      </trkpt>
      <trkpt lat="47.14141" lon="9.31972">
        <ele>1384.3</ele>
        <time>2024-07-10T05:29:16Z</time>
      </trkpt>
      <trkpt lat="47.14142" lon="9.3197">
        <ele>1384.7</ele>
        <time>2024-07-10T05:29:17Z</time>
      </trkpt>
      <trkpt lat="47.14143" lon="9.31968">
        <ele>1384.8</ele>
        <time>2024-07-10T05:29:18Z</time>
      </trkpt>
      <trkpt lat="47.14144" lon="9.31966">
        <ele>1384.6</ele>
        <time>2024-07-10T05:29:19Z</time>
      </trkpt>
      <trkpt lat="47.14146" lon="9.31964">
        <ele>1384.4</ele>
        <time>2024-07-10T05:29:20Z</time>
      </trkpt>
      <trkpt lat="47.14147" lon="9.31963">
        <ele>1384.4</ele>
        <time>2024-07-10T05:29:21Z</time>
      </trkpt>
      <trkpt lat="47.14148" lon="9.31962">
        <ele>1384.3</ele>
        <time>2024-07-10T05:29:22Z</time>
      </trkpt>
      <trkpt lat="47.14149" lon="9.3196">
        <ele>1384.8</ele>
        <time>2024-07-10T05:29:23Z</time>
      </trkpt>
      <trkpt lat="47.1415" lon="9.31959">
        <ele>1385</ele>
        <time>2024-07-10T05:29:24Z</time>
      </trkpt>
      <trkpt lat="47.14151" lon="9.31958">
        <ele>1385.3</ele>
        <time>2024-07-10T05:29:25Z</time>
      </trkpt>
      <trkpt lat="47.14153" lon="9.31956">
        <ele>1385.5</ele>
        <time>2024-07-10T05:29:26Z</time>
      </trkpt>
      <trkpt lat="47.14154" lon="9.31955">
        <ele>1385.5</ele>
        <time>2024-07-10T05:29:27Z</time>
      </trkpt>
      <trkpt lat="47.14154" lon="9.31955">
        <ele>1385.5</ele>
        <time>2024-07-10T05:29:28Z</time>
      </trkpt>
      <trkpt lat="47.14155" lon="9.31954">
        <ele>1385.4</ele>
        <time>2024-07-10T05:29:29Z</time>
      </trkpt>
      <trkpt lat="47.14156" lon="9.31952">
        <ele>1385.3</ele>
        <time>2024-07-10T05:29:31Z</time>
      </trkpt>
      <trkpt lat="47.14158" lon="9.3195">
        <ele>1384.6</ele>
        <time>2024-07-10T05:29:33Z</time>
      </trkpt>
      <trkpt lat="47.14159" lon="9.3195">
        <ele>1384.2</ele>
        <time>2024-07-10T05:29:34Z</time>
      </trkpt>
      <trkpt lat="47.14159" lon="9.31949">
        <ele>1383.5</ele>
        <time>2024-07-10T05:29:35Z</time>
      </trkpt>
      <trkpt lat="47.1416" lon="9.31947">
        <ele>1383</ele>
        <time>2024-07-10T05:29:36Z</time>
      </trkpt>
      <trkpt lat="47.14161" lon="9.31945">
        <ele>1382.3</ele>
        <time>2024-07-10T05:29:37Z</time>
      </trkpt>
      <trkpt lat="47.14162" lon="9.31944">
        <ele>1381.6</ele>
        <time>2024-07-10T05:29:39Z</time>
      </trkpt>
      <trkpt lat="47.14163" lon="9.31943">
        <ele>1381.4</ele>
        <time>2024-07-10T05:29:40Z</time>
      </trkpt>
      <trkpt lat="47.14165" lon="9.31941">
        <ele>1381.3</ele>
        <time>2024-07-10T05:29:41Z</time>
      </trkpt>
      <trkpt lat="47.14166" lon="9.31939">
        <ele>1381.4</ele>
        <time>2024-07-10T05:29:42Z</time>
      </trkpt>
      <trkpt lat="47.14167" lon="9.31937">
        <ele>1381.5</ele>
        <time>2024-07-10T05:29:43Z</time>
      </trkpt>
      <trkpt lat="47.14168" lon="9.31935">
        <ele>1381.7</ele>
        <time>2024-07-10T05:29:44Z</time>
      </trkpt>
      <trkpt lat="47.14169" lon="9.31933">
        <ele>1381.4</ele>
        <time>2024-07-10T05:29:45Z</time>
      </trkpt>
      <trkpt lat="47.14168" lon="9.31929">
        <ele>1381</ele>
        <time>2024-07-10T05:29:47Z</time>
      </trkpt>
      <trkpt lat="47.14169" lon="9.31926">
        <ele>1380.8</ele>
        <time>2024-07-10T05:29:48Z</time>
      </trkpt>
      <trkpt lat="47.14169" lon="9.31924">
        <ele>1380.6</ele>
        <time>2024-07-10T05:29:49Z</time>
      </trkpt>
      <trkpt lat="47.14169" lon="9.31923">
        <ele>1380.1</ele>
        <time>2024-07-10T05:29:50Z</time>
      </trkpt>
      <trkpt lat="47.14168" lon="9.31919">
        <ele>1380.7</ele>
        <time>2024-07-10T05:29:52Z</time>
      </trkpt>
      <trkpt lat="47.14167" lon="9.31916">
        <ele>1381.1</ele>
        <time>2024-07-10T05:29:53Z</time>
      </trkpt>
      <trkpt lat="47.14167" lon="9.31913">
        <ele>1380.8</ele>
        <time>2024-07-10T05:29:54Z</time>
      </trkpt>
      <trkpt lat="47.14167" lon="9.3191">
        <ele>1380.3</ele>
        <time>2024-07-10T05:29:55Z</time>
      </trkpt>
      <trkpt lat="47.14166" lon="9.31907">
        <ele>1380.4</ele>
        <time>2024-07-10T05:29:56Z</time>
      </trkpt>
      <trkpt lat="47.14166" lon="9.31904">
        <ele>1380.7</ele>
        <time>2024-07-10T05:29:57Z</time>
      </trkpt>
      <trkpt lat="47.14166" lon="9.31901">
        <ele>1380.4</ele>
        <time>2024-07-10T05:29:58Z</time>
      </trkpt>
      <trkpt lat="47.14166" lon="9.31898">
        <ele>1380.5</ele>
        <time>2024-07-10T05:29:59Z</time>
      </trkpt>
      <trkpt lat="47.14166" lon="9.31895">
        <ele>1380.8</ele>
        <time>2024-07-10T05:30:00Z</time>
      </trkpt>
      <trkpt lat="47.14166" lon="9.31892">
        <ele>1381</ele>
        <time>2024-07-10T05:30:01Z</time>
      </trkpt>
      <trkpt lat="47.14167" lon="9.31889">
        <ele>1381.1</ele>
        <time>2024-07-10T05:30:02Z</time>
      </trkpt>
      <trkpt lat="47.14168" lon="9.31887">
        <ele>1381.1</ele>
        <time>2024-07-10T05:30:03Z</time>
      </trkpt>
      <trkpt lat="47.14169" lon="9.31886">
        <ele>1381</ele>
        <time>2024-07-10T05:30:04Z</time>
      </trkpt>
      <trkpt lat="47.14169" lon="9.31884">
        <ele>1381.2</ele>
        <time>2024-07-10T05:30:05Z</time>
      </trkpt>
      <trkpt lat="47.1417" lon="9.31883">
        <ele>1381.4</ele>
        <time>2024-07-10T05:30:06Z</time>
      </trkpt>
      <trkpt lat="47.1417" lon="9.31881">
        <ele>1381.6</ele>
        <time>2024-07-10T05:30:07Z</time>
      </trkpt>
      <trkpt lat="47.1417" lon="9.31879">
        <ele>1381.8</ele>
        <time>2024-07-10T05:30:08Z</time>
      </trkpt>
      <trkpt lat="47.1417" lon="9.31877">
        <ele>1382.2</ele>
        <time>2024-07-10T05:30:09Z</time>
      </trkpt>
      <trkpt lat="47.14171" lon="9.31875">
        <ele>1382.1</ele>
        <time>2024-07-10T05:30:10Z</time>
      </trkpt>
      <trkpt lat="47.14172" lon="9.31872">
        <ele>1382.2</ele>
        <time>2024-07-10T05:30:11Z</time>
      </trkpt>
      <trkpt lat="47.14172" lon="9.31871">
        <ele>1382.7</ele>
        <time>2024-07-10T05:30:12Z</time>
      </trkpt>
      <trkpt lat="47.14173" lon="9.31869">
        <ele>1383.3</ele>
        <time>2024-07-10T05:30:13Z</time>
      </trkpt>
      <trkpt lat="47.14174" lon="9.31868">
        <ele>1383.5</ele>
        <time>2024-07-10T05:30:14Z</time>
      </trkpt>
      <trkpt lat="47.14174" lon="9.31866">
        <ele>1384.6</ele>
        <time>2024-07-10T05:30:15Z</time>
      </trkpt>
      <trkpt lat="47.14175" lon="9.31864">
        <ele>1384.9</ele>
        <time>2024-07-10T05:30:16Z</time>
      </trkpt>
      <trkpt lat="47.14175" lon="9.31862">
        <ele>1385.3</ele>
        <time>2024-07-10T05:30:17Z</time>
      </trkpt>
      <trkpt lat="47.14176" lon="9.3186">
        <ele>1385.4</ele>
        <time>2024-07-10T05:30:18Z</time>
      </trkpt>
      <trkpt lat="47.14176" lon="9.31859">
        <ele>1385.4</ele>
        <time>2024-07-10T05:30:19Z</time>
      </trkpt>
      <trkpt lat="47.14177" lon="9.31856">
        <ele>1384.9</ele>
        <time>2024-07-10T05:30:20Z</time>
      </trkpt>
      <trkpt lat="47.14178" lon="9.31854">
        <ele>1384.8</ele>
        <time>2024-07-10T05:30:21Z</time>
      </trkpt>
      <trkpt lat="47.14179" lon="9.31852">
        <ele>1384.9</ele>
        <time>2024-07-10T05:30:22Z</time>
      </trkpt>
      <trkpt lat="47.14179" lon="9.3185">
        <ele>1385</ele>
        <time>2024-07-10T05:30:23Z</time>
      </trkpt>
      <trkpt lat="47.1418" lon="9.31848">
        <ele>1385</ele>
        <time>2024-07-10T05:30:24Z</time>
      </trkpt>
      <trkpt lat="47.1418" lon="9.31845">
        <ele>1385.5</ele>
        <time>2024-07-10T05:30:25Z</time>
      </trkpt>
      <trkpt lat="47.14181" lon="9.31843">
        <ele>1385.7</ele>
        <time>2024-07-10T05:30:26Z</time>
      </trkpt>
      <trkpt lat="47.1418" lon="9.3184">
        <ele>1385.9</ele>
        <time>2024-07-10T05:30:27Z</time>
      </trkpt>
      <trkpt lat="47.1418" lon="9.31837">
        <ele>1386.2</ele>
        <time>2024-07-10T05:30:28Z</time>
      </trkpt>
      <trkpt lat="47.1418" lon="9.31835">
        <ele>1386.1</ele>
        <time>2024-07-10T05:30:29Z</time>
      </trkpt>
      <trkpt lat="47.1418" lon="9.31833">
        <ele>1386.3</ele>
        <time>2024-07-10T05:30:30Z</time>
      </trkpt>
      <trkpt lat="47.1418" lon="9.31831">
        <ele>1386.6</ele>
        <time>2024-07-10T05:30:31Z</time>
      </trkpt>
      <trkpt lat="47.14179" lon="9.31829">
        <ele>1386.5</ele>
        <time>2024-07-10T05:30:32Z</time>
      </trkpt>
      <trkpt lat="47.14179" lon="9.31827">
        <ele>1386.7</ele>
        <time>2024-07-10T05:30:33Z</time>
      </trkpt>
      <trkpt lat="47.14179" lon="9.31825">
        <ele>1386.6</ele>
        <time>2024-07-10T05:30:34Z</time>
      </trkpt>
      <trkpt lat="47.14179" lon="9.31822">
        <ele>1386.6</ele>
        <time>2024-07-10T05:30:35Z</time>
      </trkpt>
      <trkpt lat="47.14178" lon="9.3182">
        <ele>1387.9</ele>
        <time>2024-07-10T05:30:36Z</time>
      </trkpt>
      <trkpt lat="47.14177" lon="9.31818">
        <ele>1388.7</ele>
        <time>2024-07-10T05:30:37Z</time>
      </trkpt>
      <trkpt lat="47.14177" lon="9.31816">
        <ele>1388.8</ele>
        <time>2024-07-10T05:30:38Z</time>
      </trkpt>
      <trkpt lat="47.14176" lon="9.31814">
        <ele>1389.9</ele>
        <time>2024-07-10T05:30:39Z</time>
      </trkpt>
      <trkpt lat="47.14176" lon="9.31812">
        <ele>1390.6</ele>
        <time>2024-07-10T05:30:40Z</time>
      </trkpt>
      <trkpt lat="47.14176" lon="9.3181">
        <ele>1391.4</ele>
        <time>2024-07-10T05:30:41Z</time>
      </trkpt>
      <trkpt lat="47.14176" lon="9.31808">
        <ele>1391.6</ele>
        <time>2024-07-10T05:30:42Z</time>
      </trkpt>
      <trkpt lat="47.14177" lon="9.31806">
        <ele>1392</ele>
        <time>2024-07-10T05:30:43Z</time>
      </trkpt>
      <trkpt lat="47.14178" lon="9.31804">
        <ele>1392.3</ele>
        <time>2024-07-10T05:30:44Z</time>
      </trkpt>
      <trkpt lat="47.14178" lon="9.31802">
        <ele>1392.4</ele>
        <time>2024-07-10T05:30:45Z</time>
      </trkpt>
      <trkpt lat="47.14179" lon="9.31801">
        <ele>1392.4</ele>
        <time>2024-07-10T05:30:46Z</time>
      </trkpt>
      <trkpt lat="47.1418" lon="9.318">
        <ele>1392.5</ele>
        <time>2024-07-10T05:30:47Z</time>
      </trkpt>
      <trkpt lat="47.1418" lon="9.31798">
        <ele>1392.7</ele>
        <time>2024-07-10T05:30:48Z</time>
      </trkpt>
      <trkpt lat="47.14181" lon="9.31797">
        <ele>1393</ele>
        <time>2024-07-10T05:30:49Z</time>
      </trkpt>
      <trkpt lat="47.14181" lon="9.31795">
        <ele>1393.1</ele>
        <time>2024-07-10T05:30:50Z</time>
      </trkpt>
      <trkpt lat="47.14182" lon="9.31794">
        <ele>1393.2</ele>
        <time>2024-07-10T05:30:51Z</time>
      </trkpt>
      <trkpt lat="47.14183" lon="9.31792">
        <ele>1393.5</ele>
        <time>2024-07-10T05:30:52Z</time>
      </trkpt>
      <trkpt lat="47.14183" lon="9.3179">
        <ele>1393.7</ele>
        <time>2024-07-10T05:30:53Z</time>
      </trkpt>
      <trkpt lat="47.14184" lon="9.31788">
        <ele>1393.8</ele>
        <time>2024-07-10T05:30:54Z</time>
      </trkpt>
      <trkpt lat="47.14184" lon="9.31787">
        <ele>1394</ele>
        <time>2024-07-10T05:30:55Z</time>
      </trkpt>
      <trkpt lat="47.14184" lon="9.31785">
        <ele>1394.2</ele>
        <time>2024-07-10T05:30:56Z</time>
      </trkpt>
      <trkpt lat="47.14185" lon="9.31783">
        <ele>1394.4</ele>
        <time>2024-07-10T05:30:57Z</time>
      </trkpt>
      <trkpt lat="47.14186" lon="9.31782">
        <ele>1393.7</ele>
        <time>2024-07-10T05:30:58Z</time>
      </trkpt>
      <trkpt lat="47.14186" lon="9.3178">
        <ele>1393.2</ele>
        <time>2024-07-10T05:30:59Z</time>
      </trkpt>
      <trkpt lat="47.14187" lon="9.31779">
        <ele>1392.4</ele>
        <time>2024-07-10T05:31:00Z</time>
      </trkpt>
      <trkpt lat="47.14188" lon="9.31777">
        <ele>1392.4</ele>
        <time>2024-07-10T05:31:01Z</time>
      </trkpt>
      <trkpt lat="47.14188" lon="9.31776">
        <ele>1392.7</ele>
        <time>2024-07-10T05:31:02Z</time>
      </trkpt>
      <trkpt lat="47.14189" lon="9.31774">
        <ele>1392.8</ele>
        <time>2024-07-10T05:31:03Z</time>
      </trkpt>
      <trkpt lat="47.14189" lon="9.31772">
        <ele>1393.2</ele>
        <time>2024-07-10T05:31:04Z</time>
      </trkpt>
      <trkpt lat="47.1419" lon="9.3177">
        <ele>1393.6</ele>
        <time>2024-07-10T05:31:05Z</time>
      </trkpt>
      <trkpt lat="47.14191" lon="9.31768">
        <ele>1394</ele>
        <time>2024-07-10T05:31:06Z</time>
      </trkpt>
      <trkpt lat="47.14192" lon="9.31767">
        <ele>1394.3</ele>
        <time>2024-07-10T05:31:07Z</time>
      </trkpt>
      <trkpt lat="47.14192" lon="9.31766">
        <ele>1394.4</ele>
        <time>2024-07-10T05:31:08Z</time>
      </trkpt>
      <trkpt lat="47.14193" lon="9.31765">
        <ele>1394.6</ele>
        <time>2024-07-10T05:31:09Z</time>
      </trkpt>
      <trkpt lat="47.14193" lon="9.31763">
        <ele>1394.6</ele>
        <time>2024-07-10T05:31:10Z</time>
      </trkpt>
      <trkpt lat="47.14195" lon="9.31762">
        <ele>1394</ele>
        <time>2024-07-10T05:31:11Z</time>
      </trkpt>
      <trkpt lat="47.14197" lon="9.3176">
        <ele>1393.1</ele>
        <time>2024-07-10T05:31:12Z</time>
      </trkpt>
      <trkpt lat="47.142" lon="9.31759">
        <ele>1392.3</ele>
        <time>2024-07-10T05:31:13Z</time>
      </trkpt>
      <trkpt lat="47.14201" lon="9.31758">
        <ele>1392.2</ele>
        <time>2024-07-10T05:31:14Z</time>
      </trkpt>
      <trkpt lat="47.14203" lon="9.31758">
        <ele>1392.2</ele>
        <time>2024-07-10T05:31:15Z</time>
      </trkpt>
      <trkpt lat="47.14204" lon="9.31757">
        <ele>1392.4</ele>
        <time>2024-07-10T05:31:16Z</time>
      </trkpt>
      <trkpt lat="47.14205" lon="9.31757">
        <ele>1392.6</ele>
        <time>2024-07-10T05:31:17Z</time>
      </trkpt>
      <trkpt lat="47.14206" lon="9.31755">
        <ele>1392.8</ele>
        <time>2024-07-10T05:31:18Z</time>
      </trkpt>
      <trkpt lat="47.14207" lon="9.31755">
        <ele>1392.7</ele>
        <time>2024-07-10T05:31:19Z</time>
      </trkpt>
      <trkpt lat="47.14208" lon="9.31753">
        <ele>1392.6</ele>
        <time>2024-07-10T05:31:20Z</time>
      </trkpt>
      <trkpt lat="47.14209" lon="9.31752">
        <ele>1392.3</ele>
        <time>2024-07-10T05:31:21Z</time>
      </trkpt>
      <trkpt lat="47.1421" lon="9.31751">
        <ele>1392.2</ele>
        <time>2024-07-10T05:31:22Z</time>
      </trkpt>
      <trkpt lat="47.14212" lon="9.3175">
        <ele>1391.8</ele>
        <time>2024-07-10T05:31:24Z</time>
      </trkpt>
      <trkpt lat="47.14213" lon="9.31749">
        <ele>1391.8</ele>
        <time>2024-07-10T05:31:25Z</time>
      </trkpt>
      <trkpt lat="47.14214" lon="9.31748">
        <ele>1391.8</ele>
        <time>2024-07-10T05:31:26Z</time>
      </trkpt>
      <trkpt lat="47.14214" lon="9.31746">
        <ele>1391.8</ele>
        <time>2024-07-10T05:31:27Z</time>
      </trkpt>
      <trkpt lat="47.14215" lon="9.31744">
        <ele>1392</ele>
        <time>2024-07-10T05:31:28Z</time>
      </trkpt>
      <trkpt lat="47.14215" lon="9.31742">
        <ele>1392.2</ele>
        <time>2024-07-10T05:31:29Z</time>
      </trkpt>
      <trkpt lat="47.14215" lon="9.3174">
        <ele>1392.5</ele>
        <time>2024-07-10T05:31:30Z</time>
      </trkpt>
      <trkpt lat="47.14215" lon="9.31737">
        <ele>1393.4</ele>
        <time>2024-07-10T05:31:31Z</time>
      </trkpt>
      <trkpt lat="47.14215" lon="9.31735">
        <ele>1393.8</ele>
        <time>2024-07-10T05:31:32Z</time>
      </trkpt>
      <trkpt lat="47.14215" lon="9.31732">
        <ele>1394.1</ele>
        <time>2024-07-10T05:31:33Z</time>
      </trkpt>
      <trkpt lat="47.14214" lon="9.3173">
        <ele>1393.9</ele>
        <time>2024-07-10T05:31:34Z</time>
      </trkpt>
      <trkpt lat="47.14214" lon="9.31727">
        <ele>1394.1</ele>
        <time>2024-07-10T05:31:35Z</time>
      </trkpt>
      <trkpt lat="47.14213" lon="9.31724">
        <ele>1393.6</ele>
        <time>2024-07-10T05:31:36Z</time>
      </trkpt>
      <trkpt lat="47.14212" lon="9.31722">
        <ele>1393.4</ele>
        <time>2024-07-10T05:31:37Z</time>
      </trkpt>
      <trkpt lat="47.14212" lon="9.3172">
        <ele>1393.2</ele>
        <time>2024-07-10T05:31:38Z</time>
      </trkpt>
      <trkpt lat="47.14211" lon="9.31717">
        <ele>1393.3</ele>
        <time>2024-07-10T05:31:39Z</time>
      </trkpt>
      <trkpt lat="47.14211" lon="9.31715">
        <ele>1393.3</ele>
        <time>2024-07-10T05:31:40Z</time>
      </trkpt>
      <trkpt lat="47.14211" lon="9.31713">
        <ele>1393.2</ele>
        <time>2024-07-10T05:31:41Z</time>
      </trkpt>
      <trkpt lat="47.14211" lon="9.31711">
        <ele>1393</ele>
        <time>2024-07-10T05:31:42Z</time>
      </trkpt>
      <trkpt lat="47.14211" lon="9.31709">
        <ele>1392.7</ele>
        <time>2024-07-10T05:31:43Z</time>
      </trkpt>
      <trkpt lat="47.14211" lon="9.31707">
        <ele>1392</ele>
        <time>2024-07-10T05:31:44Z</time>
      </trkpt>
      <trkpt lat="47.14211" lon="9.31705">
        <ele>1391.9</ele>
        <time>2024-07-10T05:31:45Z</time>
      </trkpt>
      <trkpt lat="47.1421" lon="9.31703">
        <ele>1391.9</ele>
        <time>2024-07-10T05:31:46Z</time>
      </trkpt>
      <trkpt lat="47.1421" lon="9.31701">
        <ele>1392.3</ele>
        <time>2024-07-10T05:31:47Z</time>
      </trkpt>
      <trkpt lat="47.14209" lon="9.31698">
        <ele>1392.6</ele>
        <time>2024-07-10T05:31:48Z</time>
      </trkpt>
      <trkpt lat="47.14209" lon="9.31696">
        <ele>1393</ele>
        <time>2024-07-10T05:31:49Z</time>
      </trkpt>
      <trkpt lat="47.14209" lon="9.31694">
        <ele>1393</ele>
        <time>2024-07-10T05:31:50Z</time>
      </trkpt>
      <trkpt lat="47.14209" lon="9.31692">
        <ele>1393</ele>
        <time>2024-07-10T05:31:51Z</time>
      </trkpt>
      <trkpt lat="47.14209" lon="9.3169">
        <ele>1392.8</ele>
        <time>2024-07-10T05:31:52Z</time>
      </trkpt>
      <trkpt lat="47.14209" lon="9.31689">
        <ele>1393</ele>
        <time>2024-07-10T05:31:53Z</time>
      </trkpt>
      <trkpt lat="47.14209" lon="9.31687">
        <ele>1393</ele>
        <time>2024-07-10T05:31:54Z</time>
      </trkpt>
      <trkpt lat="47.14209" lon="9.31685">
        <ele>1393.1</ele>
        <time>2024-07-10T05:31:55Z</time>
      </trkpt>
      <trkpt lat="47.14209" lon="9.31683">
        <ele>1393.5</ele>
        <time>2024-07-10T05:31:56Z</time>
      </trkpt>
      <trkpt lat="47.14208" lon="9.31681">
        <ele>1393.5</ele>
        <time>2024-07-10T05:31:57Z</time>
      </trkpt>
      <trkpt lat="47.14208" lon="9.31679">
        <ele>1393.4</ele>
        <time>2024-07-10T05:31:58Z</time>
      </trkpt>
      <trkpt lat="47.14208" lon="9.31678">
        <ele>1393.1</ele>
        <time>2024-07-10T05:31:59Z</time>
      </trkpt>
      <trkpt lat="47.14208" lon="9.31676">
        <ele>1393.3</ele>
        <time>2024-07-10T05:32:00Z</time>
      </trkpt>
      <trkpt lat="47.14207" lon="9.31675">
        <ele>1393.3</ele>
        <time>2024-07-10T05:32:01Z</time>
      </trkpt>
      <trkpt lat="47.14207" lon="9.31672">
        <ele>1393.1</ele>
        <time>2024-07-10T05:32:02Z</time>
      </trkpt>
      <trkpt lat="47.14207" lon="9.31671">
        <ele>1392.9</ele>
        <time>2024-07-10T05:32:03Z</time>
      </trkpt>
      <trkpt lat="47.14207" lon="9.31669">
        <ele>1393.2</ele>
        <time>2024-07-10T05:32:04Z</time>
      </trkpt>
      <trkpt lat="47.14206" lon="9.31667">
        <ele>1393.7</ele>
        <time>2024-07-10T05:32:07Z</time>
      </trkpt>
      <trkpt lat="47.14206" lon="9.31666">
        <ele>1394.2</ele>
        <time>2024-07-10T05:32:09Z</time>
      </trkpt>
      <trkpt lat="47.14205" lon="9.31665">
        <ele>1394.5</ele>
        <time>2024-07-10T05:32:11Z</time>
      </trkpt>
      <trkpt lat="47.14205" lon="9.31664">
        <ele>1394.7</ele>
        <time>2024-07-10T05:32:13Z</time>
      </trkpt>
      <trkpt lat="47.14205" lon="9.31662">
        <ele>1394.9</ele>
        <time>2024-07-10T05:32:14Z</time>
      </trkpt>
      <trkpt lat="47.14205" lon="9.3166">
        <ele>1395</ele>
        <time>2024-07-10T05:32:15Z</time>
      </trkpt>
      <trkpt lat="47.14205" lon="9.31658">
        <ele>1395</ele>
        <time>2024-07-10T05:32:16Z</time>
      </trkpt>
      <trkpt lat="47.14205" lon="9.31656">
        <ele>1395</ele>
        <time>2024-07-10T05:32:17Z</time>
      </trkpt>
      <trkpt lat="47.14205" lon="9.31655">
        <ele>1395.1</ele>
        <time>2024-07-10T05:32:18Z</time>
      </trkpt>
      <trkpt lat="47.14206" lon="9.31653">
        <ele>1395.1</ele>
        <time>2024-07-10T05:32:19Z</time>
      </trkpt>
      <trkpt lat="47.14206" lon="9.31651">
        <ele>1395</ele>
        <time>2024-07-10T05:32:20Z</time>
      </trkpt>
      <trkpt lat="47.14206" lon="9.31648">
        <ele>1395.1</ele>
        <time>2024-07-10T05:32:22Z</time>
      </trkpt>
      <trkpt lat="47.14206" lon="9.31646">
        <ele>1395.2</ele>
        <time>2024-07-10T05:32:23Z</time>
      </trkpt>
      <trkpt lat="47.14206" lon="9.31645">
        <ele>1395.4</ele>
        <time>2024-07-10T05:32:24Z</time>
      </trkpt>
      <trkpt lat="47.14206" lon="9.31643">
        <ele>1395.4</ele>
        <time>2024-07-10T05:32:25Z</time>
      </trkpt>
      <trkpt lat="47.14206" lon="9.31641">
        <ele>1395</ele>
        <time>2024-07-10T05:32:26Z</time>
      </trkpt>
      <trkpt lat="47.14207" lon="9.31639">
        <ele>1394.3</ele>
        <time>2024-07-10T05:32:27Z</time>
      </trkpt>
      <trkpt lat="47.14208" lon="9.31637">
        <ele>1394.5</ele>
        <time>2024-07-10T05:32:28Z</time>
      </trkpt>
      <trkpt lat="47.14208" lon="9.31635">
        <ele>1394.5</ele>
        <time>2024-07-10T05:32:30Z</time>
      </trkpt>
      <trkpt lat="47.14208" lon="9.31633">
        <ele>1394.5</ele>
        <time>2024-07-10T05:32:31Z</time>
      </trkpt>
      <trkpt lat="47.14208" lon="9.31631">
        <ele>1394.6</ele>
        <time>2024-07-10T05:32:32Z</time>
      </trkpt>
      <trkpt lat="47.14208" lon="9.31627">
        <ele>1395</ele>
        <time>2024-07-10T05:32:34Z</time>
      </trkpt>
      <trkpt lat="47.14208" lon="9.31626">
        <ele>1395.1</ele>
        <time>2024-07-10T05:32:35Z</time>
      </trkpt>
      <trkpt lat="47.14208" lon="9.31623">
        <ele>1395.2</ele>
        <time>2024-07-10T05:32:36Z</time>
      </trkpt>
      <trkpt lat="47.14208" lon="9.3162">
        <ele>1396.2</ele>
        <time>2024-07-10T05:32:37Z</time>
      </trkpt>
      <trkpt lat="47.14206" lon="9.31616">
        <ele>1397.8</ele>
        <time>2024-07-10T05:32:38Z</time>
      </trkpt>
      <trkpt lat="47.14206" lon="9.31614">
        <ele>1398</ele>
        <time>2024-07-10T05:32:39Z</time>
      </trkpt>
      <trkpt lat="47.14205" lon="9.31611">
        <ele>1399.5</ele>
        <time>2024-07-10T05:32:40Z</time>
      </trkpt>
      <trkpt lat="47.14205" lon="9.31609">
        <ele>1399.6</ele>
        <time>2024-07-10T05:32:41Z</time>
      </trkpt>
      <trkpt lat="47.14203" lon="9.31606">
        <ele>1402</ele>
        <time>2024-07-10T05:32:42Z</time>
      </trkpt>
      <trkpt lat="47.14203" lon="9.31605">
        <ele>1402.2</ele>
        <time>2024-07-10T05:32:43Z</time>
      </trkpt>
      <trkpt lat="47.14202" lon="9.31603">
        <ele>1402.4</ele>
        <time>2024-07-10T05:32:44Z</time>
      </trkpt>
      <trkpt lat="47.14202" lon="9.31602">
        <ele>1402.6</ele>
        <time>2024-07-10T05:32:45Z</time>
      </trkpt>
      <trkpt lat="47.14202" lon="9.316">
        <ele>1402.8</ele>
        <time>2024-07-10T05:32:46Z</time>
      </trkpt>
      <trkpt lat="47.14201" lon="9.31599">
        <ele>1403</ele>
        <time>2024-07-10T05:32:48Z</time>
      </trkpt>
      <trkpt lat="47.14202" lon="9.31596">
        <ele>1403.2</ele>
        <time>2024-07-10T05:32:50Z</time>
      </trkpt>
      <trkpt lat="47.14202" lon="9.31594">
        <ele>1403.2</ele>
        <time>2024-07-10T05:32:51Z</time>
      </trkpt>
      <trkpt lat="47.14201" lon="9.31593">
        <ele>1403.2</ele>
        <time>2024-07-10T05:32:52Z</time>
      </trkpt>
      <trkpt lat="47.142" lon="9.3159">
        <ele>1403</ele>
        <time>2024-07-10T05:32:54Z</time>
      </trkpt>
      <trkpt lat="47.142" lon="9.31589">
        <ele>1402.9</ele>
        <time>2024-07-10T05:32:55Z</time>
      </trkpt>
      <trkpt lat="47.14199" lon="9.31585">
        <ele>1403.6</ele>
        <time>2024-07-10T05:32:56Z</time>
      </trkpt>
      <trkpt lat="47.14197" lon="9.31582">
        <ele>1405.1</ele>
        <time>2024-07-10T05:32:57Z</time>
      </trkpt>
      <trkpt lat="47.14197" lon="9.3158">
        <ele>1405</ele>
        <time>2024-07-10T05:32:58Z</time>
      </trkpt>
      <trkpt lat="47.14197" lon="9.31578">
        <ele>1405.1</ele>
        <time>2024-07-10T05:32:59Z</time>
      </trkpt>
      <trkpt lat="47.14196" lon="9.31576">
        <ele>1405.1</ele>
        <time>2024-07-10T05:33:00Z</time>
      </trkpt>
      <trkpt lat="47.14196" lon="9.31574">
        <ele>1405.3</ele>
        <time>2024-07-10T05:33:01Z</time>
      </trkpt>
      <trkpt lat="47.14195" lon="9.31571">
        <ele>1405.5</ele>
        <time>2024-07-10T05:33:02Z</time>
      </trkpt>
      <trkpt lat="47.14195" lon="9.3157">
        <ele>1405.6</ele>
        <time>2024-07-10T05:33:03Z</time>
      </trkpt>
      <trkpt lat="47.14194" lon="9.31569">
        <ele>1405.5</ele>
        <time>2024-07-10T05:33:04Z</time>
      </trkpt>
      <trkpt lat="47.14193" lon="9.31568">
        <ele>1405.5</ele>
        <time>2024-07-10T05:33:05Z</time>
      </trkpt>
      <trkpt lat="47.14193" lon="9.31567">
        <ele>1405.4</ele>
        <time>2024-07-10T05:33:06Z</time>
      </trkpt>
      <trkpt lat="47.14191" lon="9.31566">
        <ele>1406.2</ele>
        <time>2024-07-10T05:33:07Z</time>
      </trkpt>
      <trkpt lat="47.14191" lon="9.31565">
        <ele>1406.2</ele>
        <time>2024-07-10T05:33:08Z</time>
      </trkpt>
      <trkpt lat="47.1419" lon="9.31563">
        <ele>1406.2</ele>
        <time>2024-07-10T05:33:10Z</time>
      </trkpt>
      <trkpt lat="47.14189" lon="9.31561">
        <ele>1407.3</ele>
        <time>2024-07-10T05:33:11Z</time>
      </trkpt>
      <trkpt lat="47.14188" lon="9.31559">
        <ele>1407.4</ele>
        <time>2024-07-10T05:33:12Z</time>
      </trkpt>
      <trkpt lat="47.14188" lon="9.31558">
        <ele>1407.6</ele>
        <time>2024-07-10T05:33:13Z</time>
      </trkpt>
      <trkpt lat="47.14187" lon="9.31556">
        <ele>1407.7</ele>
        <time>2024-07-10T05:33:15Z</time>
      </trkpt>
      <trkpt lat="47.14186" lon="9.31554">
        <ele>1407.8</ele>
        <time>2024-07-10T05:33:16Z</time>
      </trkpt>
      <trkpt lat="47.14185" lon="9.3155">
        <ele>1408.6</ele>
        <time>2024-07-10T05:33:17Z</time>
      </trkpt>
      <trkpt lat="47.14185" lon="9.31548">
        <ele>1409.4</ele>
        <time>2024-07-10T05:33:18Z</time>
      </trkpt>
      <trkpt lat="47.14184" lon="9.31547">
        <ele>1410.2</ele>
        <time>2024-07-10T05:33:19Z</time>
      </trkpt>
      <trkpt lat="47.14183" lon="9.31545">
        <ele>1409.9</ele>
        <time>2024-07-10T05:33:21Z</time>
      </trkpt>
      <trkpt lat="47.14183" lon="9.31542">
        <ele>1409.1</ele>
        <time>2024-07-10T05:33:23Z</time>
      </trkpt>
      <trkpt lat="47.14183" lon="9.3154">
        <ele>1409.4</ele>
        <time>2024-07-10T05:33:25Z</time>
      </trkpt>
      <trkpt lat="47.14183" lon="9.31538">
        <ele>1409.5</ele>
        <time>2024-07-10T05:33:26Z</time>
      </trkpt>
      <trkpt lat="47.14183" lon="9.31536">
        <ele>1409.4</ele>
        <time>2024-07-10T05:33:27Z</time>
      </trkpt>
      <trkpt lat="47.14182" lon="9.31535">
        <ele>1409</ele>
        <time>2024-07-10T05:33:28Z</time>
      </trkpt>
      <trkpt lat="47.14182" lon="9.31533">
        <ele>1408.8</ele>
        <time>2024-07-10T05:33:29Z</time>
      </trkpt>
      <trkpt lat="47.14182" lon="9.31531">
        <ele>1408.3</ele>
        <time>2024-07-10T05:33:31Z</time>
      </trkpt>
      <trkpt lat="47.14181" lon="9.31529">
        <ele>1408</ele>
        <time>2024-07-10T05:33:32Z</time>
      </trkpt>
      <trkpt lat="47.1418" lon="9.31528">
        <ele>1407.7</ele>
        <time>2024-07-10T05:33:33Z</time>
      </trkpt>
      <trkpt lat="47.1418" lon="9.31526">
        <ele>1407.4</ele>
        <time>2024-07-10T05:33:34Z</time>
      </trkpt>
      <trkpt lat="47.1418" lon="9.31525">
        <ele>1407.2</ele>
        <time>2024-07-10T05:33:35Z</time>
      </trkpt>
      <trkpt lat="47.1418" lon="9.31523">
        <ele>1407.1</ele>
        <time>2024-07-10T05:33:36Z</time>
      </trkpt>
      <trkpt lat="47.1418" lon="9.31522">
        <ele>1406.8</ele>
        <time>2024-07-10T05:33:37Z</time>
      </trkpt>
      <trkpt lat="47.1418" lon="9.3152">
        <ele>1406.7</ele>
        <time>2024-07-10T05:33:38Z</time>
      </trkpt>
      <trkpt lat="47.14178" lon="9.31518">
        <ele>1405.7</ele>
        <time>2024-07-10T05:33:40Z</time>
      </trkpt>
      <trkpt lat="47.14178" lon="9.31516">
        <ele>1405.7</ele>
        <time>2024-07-10T05:33:41Z</time>
      </trkpt>
      <trkpt lat="47.14177" lon="9.31514">
        <ele>1405.8</ele>
        <time>2024-07-10T05:33:42Z</time>
      </trkpt>
      <trkpt lat="47.14176" lon="9.31514">
        <ele>1405.4</ele>
        <time>2024-07-10T05:33:43Z</time>
      </trkpt>
      <trkpt lat="47.14175" lon="9.31513">
        <ele>1405.1</ele>
        <time>2024-07-10T05:33:44Z</time>
      </trkpt>
      <trkpt lat="47.14174" lon="9.31513">
        <ele>1405</ele>
        <time>2024-07-10T05:33:45Z</time>
      </trkpt>
      <trkpt lat="47.14174" lon="9.31511">
        <ele>1404.6</ele>
        <time>2024-07-10T05:33:47Z</time>
      </trkpt>
      <trkpt lat="47.14174" lon="9.31508">
        <ele>1405.4</ele>
        <time>2024-07-10T05:33:49Z</time>
      </trkpt>
      <trkpt lat="47.14174" lon="9.31506">
        <ele>1405.3</ele>
        <time>2024-07-10T05:33:50Z</time>
      </trkpt>
      <trkpt lat="47.14175" lon="9.31505">
        <ele>1405.5</ele>
        <time>2024-07-10T05:33:52Z</time>
      </trkpt>
      <trkpt lat="47.14174" lon="9.31503">
        <ele>1405.5</ele>
        <time>2024-07-10T05:33:53Z</time>
      </trkpt>
      <trkpt lat="47.14174" lon="9.31501">
        <ele>1406.5</ele>
        <time>2024-07-10T05:33:54Z</time>
      </trkpt>
      <trkpt lat="47.14175" lon="9.31498">
        <ele>1406.8</ele>
        <time>2024-07-10T05:33:56Z</time>
      </trkpt>
      <trkpt lat="47.14175" lon="9.31496">
        <ele>1407</ele>
        <time>2024-07-10T05:33:58Z</time>
      </trkpt>
      <trkpt lat="47.14175" lon="9.31495">
        <ele>1407</ele>
        <time>2024-07-10T05:33:59Z</time>
      </trkpt>
      <trkpt lat="47.14175" lon="9.31493">
        <ele>1407.1</ele>
        <time>2024-07-10T05:34:00Z</time>
      </trkpt>
      <trkpt lat="47.14174" lon="9.31491">
        <ele>1407.6</ele>
        <time>2024-07-10T05:34:01Z</time>
      </trkpt>
      <trkpt lat="47.14174" lon="9.31488">
        <ele>1407.9</ele>
        <time>2024-07-10T05:34:02Z</time>
      </trkpt>
      <trkpt lat="47.14173" lon="9.31485">
        <ele>1407.7</ele>
        <time>2024-07-10T05:34:04Z</time>
      </trkpt>
      <trkpt lat="47.14172" lon="9.31484">
        <ele>1407.7</ele>
        <time>2024-07-10T05:34:05Z</time>
      </trkpt>
      <trkpt lat="47.14171" lon="9.31483">
        <ele>1407.7</ele>
        <time>2024-07-10T05:34:06Z</time>
      </trkpt>
      <trkpt lat="47.1417" lon="9.31481">
        <ele>1408.1</ele>
        <time>2024-07-10T05:34:08Z</time>
      </trkpt>
      <trkpt lat="47.14169" lon="9.31481">
        <ele>1407.8</ele>
        <time>2024-07-10T05:34:09Z</time>
      </trkpt>
      <trkpt lat="47.14168" lon="9.3148">
        <ele>1407.2</ele>
        <time>2024-07-10T05:34:10Z</time>
      </trkpt>
      <trkpt lat="47.14166" lon="9.31479">
        <ele>1407.7</ele>
        <time>2024-07-10T05:34:12Z</time>
      </trkpt>
      <trkpt lat="47.14165" lon="9.31478">
        <ele>1407.6</ele>
        <time>2024-07-10T05:34:13Z</time>
      </trkpt>
      <trkpt lat="47.14164" lon="9.31477">
        <ele>1407.7</ele>
        <time>2024-07-10T05:34:14Z</time>
      </trkpt>
      <trkpt lat="47.14163" lon="9.31477">
        <ele>1407.4</ele>
        <time>2024-07-10T05:34:15Z</time>
      </trkpt>
      <trkpt lat="47.14162" lon="9.31476">
        <ele>1407.5</ele>
        <time>2024-07-10T05:34:16Z</time>
      </trkpt>
      <trkpt lat="47.14161" lon="9.31476">
        <ele>1407.6</ele>
        <time>2024-07-10T05:34:17Z</time>
      </trkpt>
      <trkpt lat="47.14159" lon="9.31475">
        <ele>1408.1</ele>
        <time>2024-07-10T05:34:18Z</time>
      </trkpt>
      <trkpt lat="47.14158" lon="9.31474">
        <ele>1408</ele>
        <time>2024-07-10T05:34:20Z</time>
      </trkpt>
      <trkpt lat="47.14158" lon="9.31472">
        <ele>1408.1</ele>
        <time>2024-07-10T05:34:22Z</time>
      </trkpt>
      <trkpt lat="47.14156" lon="9.3147">
        <ele>1408.2</ele>
        <time>2024-07-10T05:34:24Z</time>
      </trkpt>
      <trkpt lat="47.14156" lon="9.31469">
        <ele>1408.1</ele>
        <time>2024-07-10T05:34:25Z</time>
      </trkpt>
      <trkpt lat="47.14155" lon="9.31467">
        <ele>1408.3</ele>
        <time>2024-07-10T05:34:26Z</time>
      </trkpt>
      <trkpt lat="47.14155" lon="9.31466">
        <ele>1408.7</ele>
        <time>2024-07-10T05:34:27Z</time>
      </trkpt>
      <trkpt lat="47.14155" lon="9.31464">
        <ele>1409.3</ele>
        <time>2024-07-10T05:34:28Z</time>
      </trkpt>
      <trkpt lat="47.14155" lon="9.31462">
        <ele>1409.7</ele>
        <time>2024-07-10T05:34:29Z</time>
      </trkpt>
      <trkpt lat="47.14156" lon="9.3146">
        <ele>1409.9</ele>
        <time>2024-07-10T05:34:31Z</time>
      </trkpt>
      <trkpt lat="47.14156" lon="9.31458">
        <ele>1410.1</ele>
        <time>2024-07-10T05:34:33Z</time>
      </trkpt>
      <trkpt lat="47.14156" lon="9.31455">
        <ele>1410.8</ele>
        <time>2024-07-10T05:34:35Z</time>
      </trkpt>
      <trkpt lat="47.14157" lon="9.31453">
        <ele>1411.1</ele>
        <time>2024-07-10T05:34:36Z</time>
      </trkpt>
      <trkpt lat="47.14157" lon="9.31451">
        <ele>1411.7</ele>
        <time>2024-07-10T05:34:37Z</time>
      </trkpt>
      <trkpt lat="47.14157" lon="9.3145">
        <ele>1411.8</ele>
        <time>2024-07-10T05:34:38Z</time>
      </trkpt>
      <trkpt lat="47.14157" lon="9.31448">
        <ele>1411.9</ele>
        <time>2024-07-10T05:34:39Z</time>
      </trkpt>
      <trkpt lat="47.14157" lon="9.31447">
        <ele>1412.1</ele>
        <time>2024-07-10T05:34:40Z</time>
      </trkpt>
      <trkpt lat="47.14157" lon="9.31445">
        <ele>1412.3</ele>
        <time>2024-07-10T05:34:41Z</time>
      </trkpt>
      <trkpt lat="47.14157" lon="9.31443">
        <ele>1412.6</ele>
        <time>2024-07-10T05:34:42Z</time>
      </trkpt>
      <trkpt lat="47.14157" lon="9.3144">
        <ele>1413.2</ele>
        <time>2024-07-10T05:34:44Z</time>
      </trkpt>
      <trkpt lat="47.14157" lon="9.31439">
        <ele>1413.3</ele>
        <time>2024-07-10T05:34:45Z</time>
      </trkpt>
      <trkpt lat="47.14157" lon="9.31436">
        <ele>1413.4</ele>
        <time>2024-07-10T05:34:47Z</time>
      </trkpt>
      <trkpt lat="47.14157" lon="9.31434">
        <ele>1413.7</ele>
        <time>2024-07-10T05:34:49Z</time>
      </trkpt>
      <trkpt lat="47.14156" lon="9.31433">
        <ele>1414</ele>
        <time>2024-07-10T05:34:50Z</time>
      </trkpt>
      <trkpt lat="47.14155" lon="9.31432">
        <ele>1414.1</ele>
        <time>2024-07-10T05:34:51Z</time>
      </trkpt>
      <trkpt lat="47.14154" lon="9.3143">
        <ele>1414.5</ele>
        <time>2024-07-10T05:34:52Z</time>
      </trkpt>
      <trkpt lat="47.14154" lon="9.31429">
        <ele>1415</ele>
        <time>2024-07-10T05:34:53Z</time>
      </trkpt>
      <trkpt lat="47.14154" lon="9.31428">
        <ele>1415.2</ele>
        <time>2024-07-10T05:34:54Z</time>
      </trkpt>
      <trkpt lat="47.14153" lon="9.31426">
        <ele>1415.6</ele>
        <time>2024-07-10T05:34:55Z</time>
      </trkpt>
      <trkpt lat="47.14152" lon="9.31424">
        <ele>1416.1</ele>
        <time>2024-07-10T05:34:56Z</time>
      </trkpt>
      <trkpt lat="47.14152" lon="9.31423">
        <ele>1416.6</ele>
        <time>2024-07-10T05:34:57Z</time>
      </trkpt>
      <trkpt lat="47.14151" lon="9.31421">
        <ele>1417.1</ele>
        <time>2024-07-10T05:34:58Z</time>
      </trkpt>
      <trkpt lat="47.14152" lon="9.31419">
        <ele>1417.8</ele>
        <time>2024-07-10T05:34:59Z</time>
      </trkpt>
      <trkpt lat="47.14151" lon="9.31417">
        <ele>1418.1</ele>
        <time>2024-07-10T05:35:00Z</time>
      </trkpt>
      <trkpt lat="47.1415" lon="9.31415">
        <ele>1418.3</ele>
        <time>2024-07-10T05:35:01Z</time>
      </trkpt>
      <trkpt lat="47.14148" lon="9.31414">
        <ele>1418.3</ele>
        <time>2024-07-10T05:35:02Z</time>
      </trkpt>
      <trkpt lat="47.14147" lon="9.31413">
        <ele>1418.3</ele>
        <time>2024-07-10T05:35:03Z</time>
      </trkpt>
      <trkpt lat="47.14146" lon="9.31412">
        <ele>1418.4</ele>
        <time>2024-07-10T05:35:04Z</time>
      </trkpt>
      <trkpt lat="47.14146" lon="9.31411">
        <ele>1418.7</ele>
        <time>2024-07-10T05:35:05Z</time>
      </trkpt>
      <trkpt lat="47.14145" lon="9.31409">
        <ele>1418.6</ele>
        <time>2024-07-10T05:35:06Z</time>
      </trkpt>
      <trkpt lat="47.14145" lon="9.31408">
        <ele>1418.7</ele>
        <time>2024-07-10T05:35:07Z</time>
      </trkpt>
      <trkpt lat="47.14144" lon="9.31407">
        <ele>1418.9</ele>
        <time>2024-07-10T05:35:08Z</time>
      </trkpt>
      <trkpt lat="47.14143" lon="9.31405">
        <ele>1418.9</ele>
        <time>2024-07-10T05:35:09Z</time>
      </trkpt>
      <trkpt lat="47.14143" lon="9.31404">
        <ele>1419</ele>
        <time>2024-07-10T05:35:10Z</time>
      </trkpt>
      <trkpt lat="47.14142" lon="9.31403">
        <ele>1419.2</ele>
        <time>2024-07-10T05:35:11Z</time>
      </trkpt>
      <trkpt lat="47.14142" lon="9.31402">
        <ele>1419.2</ele>
        <time>2024-07-10T05:35:12Z</time>
      </trkpt>
      <trkpt lat="47.14141" lon="9.314">
        <ele>1419.2</ele>
        <time>2024-07-10T05:35:13Z</time>
      </trkpt>
      <trkpt lat="47.1414" lon="9.31399">
        <ele>1419</ele>
        <time>2024-07-10T05:35:14Z</time>
      </trkpt>
      <trkpt lat="47.14139" lon="9.31397">
        <ele>1419.3</ele>
        <time>2024-07-10T05:35:15Z</time>
      </trkpt>
      <trkpt lat="47.14138" lon="9.31395">
        <ele>1419.4</ele>
        <time>2024-07-10T05:35:16Z</time>
      </trkpt>
      <trkpt lat="47.14138" lon="9.31394">
        <ele>1419.5</ele>
        <time>2024-07-10T05:35:17Z</time>
      </trkpt>
      <trkpt lat="47.14137" lon="9.31392">
        <ele>1419.6</ele>
        <time>2024-07-10T05:35:18Z</time>
      </trkpt>
      <trkpt lat="47.14137" lon="9.31391">
        <ele>1419.2</ele>
        <time>2024-07-10T05:35:19Z</time>
      </trkpt>
      <trkpt lat="47.14137" lon="9.31389">
        <ele>1419.4</ele>
        <time>2024-07-10T05:35:20Z</time>
      </trkpt>
      <trkpt lat="47.14136" lon="9.31387">
        <ele>1419.6</ele>
        <time>2024-07-10T05:35:21Z</time>
      </trkpt>
      <trkpt lat="47.14136" lon="9.31386">
        <ele>1419.8</ele>
        <time>2024-07-10T05:35:22Z</time>
      </trkpt>
      <trkpt lat="47.14135" lon="9.31384">
        <ele>1420</ele>
        <time>2024-07-10T05:35:23Z</time>
      </trkpt>
      <trkpt lat="47.14135" lon="9.31382">
        <ele>1420.1</ele>
        <time>2024-07-10T05:35:24Z</time>
      </trkpt>
      <trkpt lat="47.14134" lon="9.3138">
        <ele>1420.8</ele>
        <time>2024-07-10T05:35:25Z</time>
      </trkpt>
      <trkpt lat="47.14133" lon="9.31379">
        <ele>1421</ele>
        <time>2024-07-10T05:35:26Z</time>
      </trkpt>
      <trkpt lat="47.14133" lon="9.31378">
        <ele>1421.5</ele>
        <time>2024-07-10T05:35:27Z</time>
      </trkpt>
      <trkpt lat="47.14133" lon="9.31376">
        <ele>1421.8</ele>
        <time>2024-07-10T05:35:28Z</time>
      </trkpt>
      <trkpt lat="47.14133" lon="9.31375">
        <ele>1422</ele>
        <time>2024-07-10T05:35:29Z</time>
      </trkpt>
      <trkpt lat="47.14132" lon="9.31373">
        <ele>1422</ele>
        <time>2024-07-10T05:35:30Z</time>
      </trkpt>
      <trkpt lat="47.14132" lon="9.3137">
        <ele>1422.4</ele>
        <time>2024-07-10T05:35:31Z</time>
      </trkpt>
      <trkpt lat="47.14132" lon="9.31369">
        <ele>1422.7</ele>
        <time>2024-07-10T05:35:32Z</time>
      </trkpt>
      <trkpt lat="47.14132" lon="9.31367">
        <ele>1422.8</ele>
        <time>2024-07-10T05:35:33Z</time>
      </trkpt>
      <trkpt lat="47.14132" lon="9.31365">
        <ele>1423.1</ele>
        <time>2024-07-10T05:35:34Z</time>
      </trkpt>
      <trkpt lat="47.14132" lon="9.31363">
        <ele>1422.9</ele>
        <time>2024-07-10T05:35:35Z</time>
      </trkpt>
      <trkpt lat="47.14132" lon="9.31361">
        <ele>1423</ele>
        <time>2024-07-10T05:35:36Z</time>
      </trkpt>
      <trkpt lat="47.14133" lon="9.31359">
        <ele>1422.8</ele>
        <time>2024-07-10T05:35:37Z</time>
      </trkpt>
      <trkpt lat="47.14133" lon="9.31358">
        <ele>1422.8</ele>
        <time>2024-07-10T05:35:38Z</time>
      </trkpt>
      <trkpt lat="47.14133" lon="9.31356">
        <ele>1422.6</ele>
        <time>2024-07-10T05:35:39Z</time>
      </trkpt>
      <trkpt lat="47.14134" lon="9.31355">
        <ele>1422.4</ele>
        <time>2024-07-10T05:35:40Z</time>
      </trkpt>
      <trkpt lat="47.14135" lon="9.31354">
        <ele>1422.3</ele>
        <time>2024-07-10T05:35:41Z</time>
      </trkpt>
      <trkpt lat="47.14136" lon="9.31353">
        <ele>1422.1</ele>
        <time>2024-07-10T05:35:42Z</time>
      </trkpt>
      <trkpt lat="47.14136" lon="9.31353">
        <ele>1422</ele>
        <time>2024-07-10T05:35:43Z</time>
      </trkpt>
      <trkpt lat="47.14138" lon="9.31352">
        <ele>1421.6</ele>
        <time>2024-07-10T05:35:44Z</time>
      </trkpt>
      <trkpt lat="47.14139" lon="9.31351">
        <ele>1421.4</ele>
        <time>2024-07-10T05:35:45Z</time>
      </trkpt>
      <trkpt lat="47.1414" lon="9.3135">
        <ele>1421.3</ele>
        <time>2024-07-10T05:35:46Z</time>
      </trkpt>
      <trkpt lat="47.14141" lon="9.31349">
        <ele>1421.5</ele>
        <time>2024-07-10T05:35:48Z</time>
      </trkpt>
      <trkpt lat="47.14142" lon="9.31349">
        <ele>1421.7</ele>
        <time>2024-07-10T05:35:49Z</time>
      </trkpt>
      <trkpt lat="47.14143" lon="9.31348">
        <ele>1421.7</ele>
        <time>2024-07-10T05:35:50Z</time>
      </trkpt>
      <trkpt lat="47.14145" lon="9.31347">
        <ele>1421.9</ele>
        <time>2024-07-10T05:35:51Z</time>
      </trkpt>
      <trkpt lat="47.14146" lon="9.31346">
        <ele>1422.4</ele>
        <time>2024-07-10T05:35:52Z</time>
      </trkpt>
      <trkpt lat="47.14147" lon="9.31346">
        <ele>1422.6</ele>
        <time>2024-07-10T05:35:53Z</time>
      </trkpt>
      <trkpt lat="47.14148" lon="9.31344">
        <ele>1422.7</ele>
        <time>2024-07-10T05:35:54Z</time>
      </trkpt>
      <trkpt lat="47.14149" lon="9.31344">
        <ele>1422.8</ele>
        <time>2024-07-10T05:35:55Z</time>
      </trkpt>
      <trkpt lat="47.1415" lon="9.31343">
        <ele>1423.1</ele>
        <time>2024-07-10T05:35:56Z</time>
      </trkpt>
      <trkpt lat="47.14152" lon="9.31343">
        <ele>1422.6</ele>
        <time>2024-07-10T05:35:57Z</time>
      </trkpt>
      <trkpt lat="47.14153" lon="9.31342">
        <ele>1423</ele>
        <time>2024-07-10T05:35:58Z</time>
      </trkpt>
      <trkpt lat="47.14154" lon="9.31342">
        <ele>1422.9</ele>
        <time>2024-07-10T05:35:59Z</time>
      </trkpt>
      <trkpt lat="47.14155" lon="9.31341">
        <ele>1422.6</ele>
        <time>2024-07-10T05:36:00Z</time>
      </trkpt>
      <trkpt lat="47.14156" lon="9.31341">
        <ele>1422.7</ele>
        <time>2024-07-10T05:36:01Z</time>
      </trkpt>
      <trkpt lat="47.14157" lon="9.3134">
        <ele>1422.7</ele>
        <time>2024-07-10T05:36:02Z</time>
      </trkpt>
      <trkpt lat="47.14158" lon="9.3134">
        <ele>1422.7</ele>
        <time>2024-07-10T05:36:03Z</time>
      </trkpt>
      <trkpt lat="47.14159" lon="9.31339">
        <ele>1422.2</ele>
        <time>2024-07-10T05:36:04Z</time>
      </trkpt>
      <trkpt lat="47.1416" lon="9.31338">
        <ele>1422.1</ele>
        <time>2024-07-10T05:36:05Z</time>
      </trkpt>
      <trkpt lat="47.14161" lon="9.31338">
        <ele>1422.2</ele>
        <time>2024-07-10T05:36:06Z</time>
      </trkpt>
      <trkpt lat="47.14163" lon="9.31337">
        <ele>1422.3</ele>
        <time>2024-07-10T05:36:08Z</time>
      </trkpt>
      <trkpt lat="47.14165" lon="9.31337">
        <ele>1422.6</ele>
        <time>2024-07-10T05:36:09Z</time>
      </trkpt>
      <trkpt lat="47.14166" lon="9.31336">
        <ele>1422.8</ele>
        <time>2024-07-10T05:36:10Z</time>
      </trkpt>
      <trkpt lat="47.14167" lon="9.31336">
        <ele>1423</ele>
        <time>2024-07-10T05:36:11Z</time>
      </trkpt>
      <trkpt lat="47.14168" lon="9.31335">
        <ele>1423.2</ele>
        <time>2024-07-10T05:36:12Z</time>
      </trkpt>
      <trkpt lat="47.1417" lon="9.31334">
        <ele>1423.4</ele>
        <time>2024-07-10T05:36:13Z</time>
      </trkpt>
      <trkpt lat="47.14171" lon="9.31334">
        <ele>1423.8</ele>
        <time>2024-07-10T05:36:14Z</time>
      </trkpt>
      <trkpt lat="47.14172" lon="9.31334">
        <ele>1424</ele>
        <time>2024-07-10T05:36:15Z</time>
      </trkpt>
      <trkpt lat="47.14174" lon="9.31334">
        <ele>1424.2</ele>
        <time>2024-07-10T05:36:17Z</time>
      </trkpt>
      <trkpt lat="47.14175" lon="9.31333">
        <ele>1424.3</ele>
        <time>2024-07-10T05:36:19Z</time>
      </trkpt>
      <trkpt lat="47.14176" lon="9.31332">
        <ele>1424.4</ele>
        <time>2024-07-10T05:36:20Z</time>
      </trkpt>
      <trkpt lat="47.14178" lon="9.31332">
        <ele>1424.5</ele>
        <time>2024-07-10T05:36:21Z</time>
      </trkpt>
      <trkpt lat="47.14179" lon="9.31332">
        <ele>1424.7</ele>
        <time>2024-07-10T05:36:22Z</time>
      </trkpt>
      <trkpt lat="47.14181" lon="9.31332">
        <ele>1424.9</ele>
        <time>2024-07-10T05:36:23Z</time>
      </trkpt>
      <trkpt lat="47.14182" lon="9.31332">
        <ele>1425.2</ele>
        <time>2024-07-10T05:36:24Z</time>
      </trkpt>
      <trkpt lat="47.14184" lon="9.31331">
        <ele>1425.5</ele>
        <time>2024-07-10T05:36:25Z</time>
      </trkpt>
      <trkpt lat="47.14185" lon="9.3133">
        <ele>1425.7</ele>
        <time>2024-07-10T05:36:26Z</time>
      </trkpt>
      <trkpt lat="47.14186" lon="9.3133">
        <ele>1425.8</ele>
        <time>2024-07-10T05:36:27Z</time>
      </trkpt>
      <trkpt lat="47.14187" lon="9.3133">
        <ele>1426</ele>
        <time>2024-07-10T05:36:28Z</time>
      </trkpt>
      <trkpt lat="47.14188" lon="9.3133">
        <ele>1426.3</ele>
        <time>2024-07-10T05:36:29Z</time>
      </trkpt>
      <trkpt lat="47.1419" lon="9.31329">
        <ele>1426.5</ele>
        <time>2024-07-10T05:36:30Z</time>
      </trkpt>
      <trkpt lat="47.14191" lon="9.31329">
        <ele>1427.1</ele>
        <time>2024-07-10T05:36:32Z</time>
      </trkpt>
      <trkpt lat="47.14192" lon="9.31329">
        <ele>1427.4</ele>
        <time>2024-07-10T05:36:33Z</time>
      </trkpt>
      <trkpt lat="47.14193" lon="9.31329">
        <ele>1428.1</ele>
        <time>2024-07-10T05:36:34Z</time>
      </trkpt>
      <trkpt lat="47.14194" lon="9.31329">
        <ele>1428.2</ele>
        <time>2024-07-10T05:36:35Z</time>
      </trkpt>
      <trkpt lat="47.14196" lon="9.31329">
        <ele>1428.8</ele>
        <time>2024-07-10T05:36:37Z</time>
      </trkpt>
      <trkpt lat="47.14197" lon="9.31329">
        <ele>1429.1</ele>
        <time>2024-07-10T05:36:38Z</time>
      </trkpt>
      <trkpt lat="47.14198" lon="9.31328">
        <ele>1429.7</ele>
        <time>2024-07-10T05:36:39Z</time>
      </trkpt>
      <trkpt lat="47.142" lon="9.31328">
        <ele>1430.3</ele>
        <time>2024-07-10T05:36:40Z</time>
      </trkpt>
      <trkpt lat="47.14201" lon="9.31327">
        <ele>1430.7</ele>
        <time>2024-07-10T05:36:41Z</time>
      </trkpt>
      <trkpt lat="47.14202" lon="9.31327">
        <ele>1431.2</ele>
        <time>2024-07-10T05:36:42Z</time>
      </trkpt>
      <trkpt lat="47.14203" lon="9.31327">
        <ele>1431.7</ele>
        <time>2024-07-10T05:36:43Z</time>
      </trkpt>
      <trkpt lat="47.14204" lon="9.31327">
        <ele>1432.2</ele>
        <time>2024-07-10T05:36:44Z</time>
      </trkpt>
      <trkpt lat="47.14205" lon="9.31326">
        <ele>1433.1</ele>
        <time>2024-07-10T05:36:46Z</time>
      </trkpt>
      <trkpt lat="47.14206" lon="9.31325">
        <ele>1433.5</ele>
        <time>2024-07-10T05:36:47Z</time>
      </trkpt>
      <trkpt lat="47.14207" lon="9.31325">
        <ele>1434.1</ele>
        <time>2024-07-10T05:36:48Z</time>
      </trkpt>
      <trkpt lat="47.14208" lon="9.31324">
        <ele>1434.8</ele>
        <time>2024-07-10T05:36:50Z</time>
      </trkpt>
      <trkpt lat="47.1421" lon="9.31322">
        <ele>1435.5</ele>
        <time>2024-07-10T05:36:52Z</time>
      </trkpt>
      <trkpt lat="47.14211" lon="9.31322">
        <ele>1435.8</ele>
        <time>2024-07-10T05:36:53Z</time>
      </trkpt>
      <trkpt lat="47.14211" lon="9.31321">
        <ele>1436.1</ele>
        <time>2024-07-10T05:36:54Z</time>
      </trkpt>
      <trkpt lat="47.14212" lon="9.3132">
        <ele>1436.5</ele>
        <time>2024-07-10T05:36:55Z</time>
      </trkpt>
      <trkpt lat="47.14214" lon="9.31319">
        <ele>1436.8</ele>
        <time>2024-07-10T05:36:56Z</time>
      </trkpt>
      <trkpt lat="47.14215" lon="9.31318">
        <ele>1437.1</ele>
        <time>2024-07-10T05:36:57Z</time>
      </trkpt>
      <trkpt lat="47.14215" lon="9.31317">
        <ele>1437.5</ele>
        <time>2024-07-10T05:36:58Z</time>
      </trkpt>
      <trkpt lat="47.14216" lon="9.31316">
        <ele>1438</ele>
        <time>2024-07-10T05:36:59Z</time>
      </trkpt>
      <trkpt lat="47.14217" lon="9.31315">
        <ele>1438.4</ele>
        <time>2024-07-10T05:37:00Z</time>
      </trkpt>
      <trkpt lat="47.14218" lon="9.31314">
        <ele>1438.7</ele>
        <time>2024-07-10T05:37:01Z</time>
      </trkpt>
      <trkpt lat="47.14219" lon="9.31313">
        <ele>1439</ele>
        <time>2024-07-10T05:37:02Z</time>
      </trkpt>
      <trkpt lat="47.1422" lon="9.31313">
        <ele>1439.3</ele>
        <time>2024-07-10T05:37:03Z</time>
      </trkpt>
      <trkpt lat="47.14221" lon="9.31312">
        <ele>1439.6</ele>
        <time>2024-07-10T05:37:04Z</time>
      </trkpt>
      <trkpt lat="47.14223" lon="9.31311">
        <ele>1439.7</ele>
        <time>2024-07-10T05:37:05Z</time>
      </trkpt>
      <trkpt lat="47.14224" lon="9.3131">
        <ele>1439.8</ele>
        <time>2024-07-10T05:37:06Z</time>
      </trkpt>
      <trkpt lat="47.14226" lon="9.31309">
        <ele>1439.9</ele>
        <time>2024-07-10T05:37:07Z</time>
      </trkpt>
      <trkpt lat="47.14227" lon="9.31308">
        <ele>1440.1</ele>
        <time>2024-07-10T05:37:08Z</time>
      </trkpt>
      <trkpt lat="47.14228" lon="9.31307">
        <ele>1440.5</ele>
        <time>2024-07-10T05:37:09Z</time>
      </trkpt>
      <trkpt lat="47.14229" lon="9.31306">
        <ele>1440.6</ele>
        <time>2024-07-10T05:37:10Z</time>
      </trkpt>
      <trkpt lat="47.14229" lon="9.31305">
        <ele>1441</ele>
        <time>2024-07-10T05:37:11Z</time>
      </trkpt>
      <trkpt lat="47.1423" lon="9.31303">
        <ele>1441.1</ele>
        <time>2024-07-10T05:37:12Z</time>
      </trkpt>
      <trkpt lat="47.14231" lon="9.31302">
        <ele>1441.4</ele>
        <time>2024-07-10T05:37:13Z</time>
      </trkpt>
      <trkpt lat="47.14231" lon="9.31301">
        <ele>1441.6</ele>
        <time>2024-07-10T05:37:14Z</time>
      </trkpt>
      <trkpt lat="47.14232" lon="9.313">
        <ele>1441.8</ele>
        <time>2024-07-10T05:37:15Z</time>
      </trkpt>
      <trkpt lat="47.14233" lon="9.31299">
        <ele>1442</ele>
        <time>2024-07-10T05:37:16Z</time>
      </trkpt>
      <trkpt lat="47.14234" lon="9.31298">
        <ele>1442.2</ele>
        <time>2024-07-10T05:37:17Z</time>
      </trkpt>
      <trkpt lat="47.14234" lon="9.31297">
        <ele>1442.3</ele>
        <time>2024-07-10T05:37:18Z</time>
      </trkpt>
      <trkpt lat="47.14235" lon="9.31296">
        <ele>1442.5</ele>
        <time>2024-07-10T05:37:19Z</time>
      </trkpt>
      <trkpt lat="47.14236" lon="9.31294">
        <ele>1442.5</ele>
        <time>2024-07-10T05:37:20Z</time>
      </trkpt>
      <trkpt lat="47.14237" lon="9.31293">
        <ele>1442.2</ele>
        <time>2024-07-10T05:37:21Z</time>
      </trkpt>
      <trkpt lat="47.14238" lon="9.31292">
        <ele>1442.1</ele>
        <time>2024-07-10T05:37:22Z</time>
      </trkpt>
      <trkpt lat="47.14239" lon="9.31291">
        <ele>1442.4</ele>
        <time>2024-07-10T05:37:23Z</time>
      </trkpt>
      <trkpt lat="47.1424" lon="9.31291">
        <ele>1442.6</ele>
        <time>2024-07-10T05:37:24Z</time>
      </trkpt>
      <trkpt lat="47.14241" lon="9.31289">
        <ele>1442.9</ele>
        <time>2024-07-10T05:37:25Z</time>
      </trkpt>
      <trkpt lat="47.14242" lon="9.31288">
        <ele>1442.8</ele>
        <time>2024-07-10T05:37:26Z</time>
      </trkpt>
      <trkpt lat="47.14244" lon="9.31287">
        <ele>1442.6</ele>
        <time>2024-07-10T05:37:27Z</time>
      </trkpt>
      <trkpt lat="47.14245" lon="9.31286">
        <ele>1443</ele>
        <time>2024-07-10T05:37:28Z</time>
      </trkpt>
      <trkpt lat="47.14246" lon="9.31286">
        <ele>1443.5</ele>
        <time>2024-07-10T05:37:29Z</time>
      </trkpt>
      <trkpt lat="47.14247" lon="9.31285">
        <ele>1443.9</ele>
        <time>2024-07-10T05:37:30Z</time>
      </trkpt>
      <trkpt lat="47.14248" lon="9.31283">
        <ele>1445.2</ele>
        <time>2024-07-10T05:37:32Z</time>
      </trkpt>
      <trkpt lat="47.14249" lon="9.31283">
        <ele>1445.3</ele>
        <time>2024-07-10T05:37:33Z</time>
      </trkpt>
      <trkpt lat="47.1425" lon="9.31282">
        <ele>1445.4</ele>
        <time>2024-07-10T05:37:34Z</time>
      </trkpt>
      <trkpt lat="47.14251" lon="9.31281">
        <ele>1445.8</ele>
        <time>2024-07-10T05:37:36Z</time>
      </trkpt>
      <trkpt lat="47.14252" lon="9.3128">
        <ele>1446.3</ele>
        <time>2024-07-10T05:37:38Z</time>
      </trkpt>
      <trkpt lat="47.14253" lon="9.31279">
        <ele>1447</ele>
        <time>2024-07-10T05:37:40Z</time>
      </trkpt>
      <trkpt lat="47.14255" lon="9.31279">
        <ele>1447.3</ele>
        <time>2024-07-10T05:37:41Z</time>
      </trkpt>
      <trkpt lat="47.14255" lon="9.31278">
        <ele>1447.7</ele>
        <time>2024-07-10T05:37:42Z</time>
      </trkpt>
      <trkpt lat="47.14257" lon="9.31277">
        <ele>1448</ele>
        <time>2024-07-10T05:37:43Z</time>
      </trkpt>
      <trkpt lat="47.14258" lon="9.31276">
        <ele>1448.8</ele>
        <time>2024-07-10T05:37:44Z</time>
      </trkpt>
      <trkpt lat="47.14258" lon="9.31275">
        <ele>1449.1</ele>
        <time>2024-07-10T05:37:45Z</time>
      </trkpt>
      <trkpt lat="47.14259" lon="9.31273">
        <ele>1449.3</ele>
        <time>2024-07-10T05:37:47Z</time>
      </trkpt>
      <trkpt lat="47.1426" lon="9.31273">
        <ele>1449.4</ele>
        <time>2024-07-10T05:37:48Z</time>
      </trkpt>
      <trkpt lat="47.14261" lon="9.31272">
        <ele>1449.6</ele>
        <time>2024-07-10T05:37:49Z</time>
      </trkpt>
      <trkpt lat="47.14262" lon="9.31272">
        <ele>1449.8</ele>
        <time>2024-07-10T05:37:50Z</time>
      </trkpt>
      <trkpt lat="47.14263" lon="9.31271">
        <ele>1450</ele>
        <time>2024-07-10T05:37:51Z</time>
      </trkpt>
      <trkpt lat="47.14264" lon="9.31271">
        <ele>1450.3</ele>
        <time>2024-07-10T05:37:52Z</time>
      </trkpt>
      <trkpt lat="47.14267" lon="9.31271">
        <ele>1450</ele>
        <time>2024-07-10T05:37:53Z</time>
      </trkpt>
      <trkpt lat="47.14268" lon="9.31271">
        <ele>1449.2</ele>
        <time>2024-07-10T05:37:54Z</time>
      </trkpt>
      <trkpt lat="47.1427" lon="9.31271">
        <ele>1449</ele>
        <time>2024-07-10T05:37:55Z</time>
      </trkpt>
      <trkpt lat="47.14271" lon="9.31272">
        <ele>1449.3</ele>
        <time>2024-07-10T05:37:56Z</time>
      </trkpt>
      <trkpt lat="47.14272" lon="9.31272">
        <ele>1449.6</ele>
        <time>2024-07-10T05:37:57Z</time>
      </trkpt>
      <trkpt lat="47.14273" lon="9.31271">
        <ele>1449.7</ele>
        <time>2024-07-10T05:37:58Z</time>
      </trkpt>
      <trkpt lat="47.14275" lon="9.31271">
        <ele>1448.8</ele>
        <time>2024-07-10T05:37:59Z</time>
      </trkpt>
      <trkpt lat="47.14277" lon="9.31271">
        <ele>1448.5</ele>
        <time>2024-07-10T05:38:00Z</time>
      </trkpt>
      <trkpt lat="47.14279" lon="9.31272">
        <ele>1447.7</ele>
        <time>2024-07-10T05:38:01Z</time>
      </trkpt>
      <trkpt lat="47.1428" lon="9.31271">
        <ele>1447.6</ele>
        <time>2024-07-10T05:38:02Z</time>
      </trkpt>
      <trkpt lat="47.14282" lon="9.3127">
        <ele>1447.9</ele>
        <time>2024-07-10T05:38:04Z</time>
      </trkpt>
      <trkpt lat="47.14283" lon="9.3127">
        <ele>1447.9</ele>
        <time>2024-07-10T05:38:05Z</time>
      </trkpt>
      <trkpt lat="47.14284" lon="9.3127">
        <ele>1447.9</ele>
        <time>2024-07-10T05:38:06Z</time>
      </trkpt>
      <trkpt lat="47.14285" lon="9.31269">
        <ele>1448</ele>
        <time>2024-07-10T05:38:07Z</time>
      </trkpt>
      <trkpt lat="47.14287" lon="9.31269">
        <ele>1447.8</ele>
        <time>2024-07-10T05:38:08Z</time>
      </trkpt>
      <trkpt lat="47.14288" lon="9.31269">
        <ele>1447.6</ele>
        <time>2024-07-10T05:38:09Z</time>
      </trkpt>
      <trkpt lat="47.14289" lon="9.31269">
        <ele>1447.4</ele>
        <time>2024-07-10T05:38:10Z</time>
      </trkpt>
      <trkpt lat="47.1429" lon="9.31268">
        <ele>1447.3</ele>
        <time>2024-07-10T05:38:12Z</time>
      </trkpt>
      <trkpt lat="47.14292" lon="9.31268">
        <ele>1447.5</ele>
        <time>2024-07-10T05:38:13Z</time>
      </trkpt>
      <trkpt lat="47.14293" lon="9.31267">
        <ele>1447.4</ele>
        <time>2024-07-10T05:38:14Z</time>
      </trkpt>
      <trkpt lat="47.14294" lon="9.31267">
        <ele>1447.3</ele>
        <time>2024-07-10T05:38:15Z</time>
      </trkpt>
      <trkpt lat="47.14296" lon="9.31267">
        <ele>1447.1</ele>
        <time>2024-07-10T05:38:16Z</time>
      </trkpt>
      <trkpt lat="47.14297" lon="9.31267">
        <ele>1447.5</ele>
        <time>2024-07-10T05:38:18Z</time>
      </trkpt>
      <trkpt lat="47.14298" lon="9.31267">
        <ele>1447.7</ele>
        <time>2024-07-10T05:38:19Z</time>
      </trkpt>
      <trkpt lat="47.14299" lon="9.31267">
        <ele>1448.1</ele>
        <time>2024-07-10T05:38:20Z</time>
      </trkpt>
      <trkpt lat="47.14301" lon="9.31267">
        <ele>1448.5</ele>
        <time>2024-07-10T05:38:22Z</time>
      </trkpt>
      <trkpt lat="47.14303" lon="9.31267">
        <ele>1448.7</ele>
        <time>2024-07-10T05:38:24Z</time>
      </trkpt>
      <trkpt lat="47.14304" lon="9.31267">
        <ele>1448.9</ele>
        <time>2024-07-10T05:38:25Z</time>
      </trkpt>
      <trkpt lat="47.14305" lon="9.31267">
        <ele>1449</ele>
        <time>2024-07-10T05:38:26Z</time>
      </trkpt>
      <trkpt lat="47.14306" lon="9.31268">
        <ele>1448.9</ele>
        <time>2024-07-10T05:38:27Z</time>
      </trkpt>
      <trkpt lat="47.14308" lon="9.31268">
        <ele>1449</ele>
        <time>2024-07-10T05:38:29Z</time>
      </trkpt>
      <trkpt lat="47.14309" lon="9.31268">
        <ele>1449.3</ele>
        <time>2024-07-10T05:38:31Z</time>
      </trkpt>
      <trkpt lat="47.1431" lon="9.31267">
        <ele>1449.4</ele>
        <time>2024-07-10T05:38:32Z</time>
      </trkpt>
      <trkpt lat="47.14312" lon="9.31267">
        <ele>1449.5</ele>
        <time>2024-07-10T05:38:33Z</time>
      </trkpt>
      <trkpt lat="47.14313" lon="9.31267">
        <ele>1449.7</ele>
        <time>2024-07-10T05:38:34Z</time>
      </trkpt>
      <trkpt lat="47.14314" lon="9.31267">
        <ele>1449.9</ele>
        <time>2024-07-10T05:38:35Z</time>
      </trkpt>
      <trkpt lat="47.14315" lon="9.31267">
        <ele>1450</ele>
        <time>2024-07-10T05:38:36Z</time>
      </trkpt>
      <trkpt lat="47.14316" lon="9.31267">
        <ele>1450.2</ele>
        <time>2024-07-10T05:38:37Z</time>
      </trkpt>
      <trkpt lat="47.14319" lon="9.31268">
        <ele>1449.5</ele>
        <time>2024-07-10T05:38:38Z</time>
      </trkpt>
      <trkpt lat="47.1432" lon="9.31268">
        <ele>1449.8</ele>
        <time>2024-07-10T05:38:39Z</time>
      </trkpt>
      <trkpt lat="47.14321" lon="9.31268">
        <ele>1450</ele>
        <time>2024-07-10T05:38:40Z</time>
      </trkpt>
      <trkpt lat="47.14323" lon="9.31269">
        <ele>1450.1</ele>
        <time>2024-07-10T05:38:41Z</time>
      </trkpt>
      <trkpt lat="47.14324" lon="9.31268">
        <ele>1450.2</ele>
        <time>2024-07-10T05:38:42Z</time>
      </trkpt>
      <trkpt lat="47.14325" lon="9.31267">
        <ele>1450.6</ele>
        <time>2024-07-10T05:38:44Z</time>
      </trkpt>
      <trkpt lat="47.14326" lon="9.31266">
        <ele>1451.3</ele>
        <time>2024-07-10T05:38:46Z</time>
      </trkpt>
      <trkpt lat="47.14327" lon="9.31266">
        <ele>1451.5</ele>
        <time>2024-07-10T05:38:47Z</time>
      </trkpt>
      <trkpt lat="47.14328" lon="9.31265">
        <ele>1451.7</ele>
        <time>2024-07-10T05:38:48Z</time>
      </trkpt>
      <trkpt lat="47.14329" lon="9.31264">
        <ele>1451.9</ele>
        <time>2024-07-10T05:38:49Z</time>
      </trkpt>
      <trkpt lat="47.14329" lon="9.31263">
        <ele>1451.9</ele>
        <time>2024-07-10T05:38:50Z</time>
      </trkpt>
      <trkpt lat="47.1433" lon="9.31261">
        <ele>1452.2</ele>
        <time>2024-07-10T05:38:51Z</time>
      </trkpt>
      <trkpt lat="47.14331" lon="9.3126">
        <ele>1452.5</ele>
        <time>2024-07-10T05:38:52Z</time>
      </trkpt>
      <trkpt lat="47.14331" lon="9.31259">
        <ele>1452.8</ele>
        <time>2024-07-10T05:38:53Z</time>
      </trkpt>
      <trkpt lat="47.14333" lon="9.31258">
        <ele>1452.9</ele>
        <time>2024-07-10T05:38:54Z</time>
      </trkpt>
      <trkpt lat="47.14333" lon="9.31256">
        <ele>1453.2</ele>
        <time>2024-07-10T05:38:55Z</time>
      </trkpt>
      <trkpt lat="47.14335" lon="9.31255">
        <ele>1453.7</ele>
        <time>2024-07-10T05:38:57Z</time>
      </trkpt>
      <trkpt lat="47.14336" lon="9.31254">
        <ele>1453.8</ele>
        <time>2024-07-10T05:38:58Z</time>
      </trkpt>
      <trkpt lat="47.14337" lon="9.31253">
        <ele>1454</ele>
        <time>2024-07-10T05:38:59Z</time>
      </trkpt>
      <trkpt lat="47.14337" lon="9.31252">
        <ele>1454.1</ele>
        <time>2024-07-10T05:39:00Z</time>
      </trkpt>
      <trkpt lat="47.1434" lon="9.31248">
        <ele>1455.2</ele>
        <time>2024-07-10T05:39:03Z</time>
      </trkpt>
      <trkpt lat="47.14341" lon="9.31247">
        <ele>1455.2</ele>
        <time>2024-07-10T05:39:04Z</time>
      </trkpt>
      <trkpt lat="47.14342" lon="9.31247">
        <ele>1455.4</ele>
        <time>2024-07-10T05:39:05Z</time>
      </trkpt>
      <trkpt lat="47.14343" lon="9.31246">
        <ele>1455.6</ele>
        <time>2024-07-10T05:39:06Z</time>
      </trkpt>
      <trkpt lat="47.14344" lon="9.31245">
        <ele>1455.8</ele>
        <time>2024-07-10T05:39:07Z</time>
      </trkpt>
      <trkpt lat="47.14346" lon="9.31244">
        <ele>1456.4</ele>
        <time>2024-07-10T05:39:09Z</time>
      </trkpt>
      <trkpt lat="47.14347" lon="9.31243">
        <ele>1456.7</ele>
        <time>2024-07-10T05:39:10Z</time>
      </trkpt>
      <trkpt lat="47.14348" lon="9.31243">
        <ele>1457.1</ele>
        <time>2024-07-10T05:39:12Z</time>
      </trkpt>
      <trkpt lat="47.14349" lon="9.31241">
        <ele>1457.6</ele>
        <time>2024-07-10T05:39:14Z</time>
      </trkpt>
      <trkpt lat="47.1435" lon="9.3124">
        <ele>1458</ele>
        <time>2024-07-10T05:39:15Z</time>
      </trkpt>
      <trkpt lat="47.14352" lon="9.3124">
        <ele>1458.6</ele>
        <time>2024-07-10T05:39:17Z</time>
      </trkpt>
      <trkpt lat="47.14353" lon="9.31239">
        <ele>1458.8</ele>
        <time>2024-07-10T05:39:18Z</time>
      </trkpt>
      <trkpt lat="47.14355" lon="9.31239">
        <ele>1458.9</ele>
        <time>2024-07-10T05:39:20Z</time>
      </trkpt>
      <trkpt lat="47.14356" lon="9.31239">
        <ele>1459.1</ele>
        <time>2024-07-10T05:39:21Z</time>
      </trkpt>
      <trkpt lat="47.14357" lon="9.31238">
        <ele>1459.2</ele>
        <time>2024-07-10T05:39:22Z</time>
      </trkpt>
      <trkpt lat="47.14358" lon="9.31238">
        <ele>1459.4</ele>
        <time>2024-07-10T05:39:24Z</time>
      </trkpt>
      <trkpt lat="47.14359" lon="9.31238">
        <ele>1459.3</ele>
        <time>2024-07-10T05:39:25Z</time>
      </trkpt>
      <trkpt lat="47.14361" lon="9.31238">
        <ele>1458.8</ele>
        <time>2024-07-10T05:39:26Z</time>
      </trkpt>
      <trkpt lat="47.14362" lon="9.31238">
        <ele>1459.2</ele>
        <time>2024-07-10T05:39:28Z</time>
      </trkpt>
      <trkpt lat="47.14363" lon="9.31238">
        <ele>1459.4</ele>
        <time>2024-07-10T05:39:29Z</time>
      </trkpt>
      <trkpt lat="47.14365" lon="9.31238">
        <ele>1459.8</ele>
        <time>2024-07-10T05:39:31Z</time>
      </trkpt>
      <trkpt lat="47.14367" lon="9.31239">
        <ele>1460.1</ele>
        <time>2024-07-10T05:39:32Z</time>
      </trkpt>
      <trkpt lat="47.14368" lon="9.31239">
        <ele>1460.4</ele>
        <time>2024-07-10T05:39:33Z</time>
      </trkpt>
      <trkpt lat="47.1437" lon="9.31239">
        <ele>1461</ele>
        <time>2024-07-10T05:39:35Z</time>
      </trkpt>
      <trkpt lat="47.14371" lon="9.31239">
        <ele>1461.2</ele>
        <time>2024-07-10T05:39:37Z</time>
      </trkpt>
      <trkpt lat="47.14373" lon="9.31239">
        <ele>1461.1</ele>
        <time>2024-07-10T05:39:39Z</time>
      </trkpt>
      <trkpt lat="47.14374" lon="9.31239">
        <ele>1461.3</ele>
        <time>2024-07-10T05:39:40Z</time>
      </trkpt>
      <trkpt lat="47.14375" lon="9.31238">
        <ele>1460.7</ele>
        <time>2024-07-10T05:39:41Z</time>
      </trkpt>
      <trkpt lat="47.14377" lon="9.31237">
        <ele>1460.2</ele>
        <time>2024-07-10T05:39:42Z</time>
      </trkpt>
      <trkpt lat="47.14378" lon="9.31237">
        <ele>1460.2</ele>
        <time>2024-07-10T05:39:44Z</time>
      </trkpt>
      <trkpt lat="47.14379" lon="9.31237">
        <ele>1459.9</ele>
        <time>2024-07-10T05:39:45Z</time>
      </trkpt>
      <trkpt lat="47.1438" lon="9.31237">
        <ele>1459.8</ele>
        <time>2024-07-10T05:39:46Z</time>
      </trkpt>
      <trkpt lat="47.14382" lon="9.31236">
        <ele>1460</ele>
        <time>2024-07-10T05:39:48Z</time>
      </trkpt>
      <trkpt lat="47.14383" lon="9.31236">
        <ele>1460</ele>
        <time>2024-07-10T05:39:49Z</time>
      </trkpt>
      <trkpt lat="47.14384" lon="9.31235">
        <ele>1460.1</ele>
        <time>2024-07-10T05:39:50Z</time>
      </trkpt>
      <trkpt lat="47.14385" lon="9.31234">
        <ele>1460.4</ele>
        <time>2024-07-10T05:39:51Z</time>
      </trkpt>
      <trkpt lat="47.14387" lon="9.31233">
        <ele>1460.6</ele>
        <time>2024-07-10T05:39:52Z</time>
      </trkpt>
      <trkpt lat="47.14388" lon="9.31233">
        <ele>1460.8</ele>
        <time>2024-07-10T05:39:53Z</time>
      </trkpt>
      <trkpt lat="47.14389" lon="9.31233">
        <ele>1461</ele>
        <time>2024-07-10T05:39:55Z</time>
      </trkpt>
      <trkpt lat="47.14391" lon="9.31232">
        <ele>1461.9</ele>
        <time>2024-07-10T05:39:57Z</time>
      </trkpt>
      <trkpt lat="47.14392" lon="9.31232">
        <ele>1462.3</ele>
        <time>2024-07-10T05:39:58Z</time>
      </trkpt>
      <trkpt lat="47.14393" lon="9.31231">
        <ele>1462.7</ele>
        <time>2024-07-10T05:39:59Z</time>
      </trkpt>
      <trkpt lat="47.14394" lon="9.31232">
        <ele>1462.8</ele>
        <time>2024-07-10T05:40:00Z</time>
      </trkpt>
      <trkpt lat="47.14396" lon="9.31233">
        <ele>1462.2</ele>
        <time>2024-07-10T05:40:01Z</time>
      </trkpt>
      <trkpt lat="47.14397" lon="9.31234">
        <ele>1462.3</ele>
        <time>2024-07-10T05:40:02Z</time>
      </trkpt>
      <trkpt lat="47.14398" lon="9.31235">
        <ele>1462.3</ele>
        <time>2024-07-10T05:40:03Z</time>
      </trkpt>
      <trkpt lat="47.14399" lon="9.31234">
        <ele>1462.3</ele>
        <time>2024-07-10T05:40:04Z</time>
      </trkpt>
      <trkpt lat="47.144" lon="9.31234">
        <ele>1462.3</ele>
        <time>2024-07-10T05:40:05Z</time>
      </trkpt>
      <trkpt lat="47.14401" lon="9.31234">
        <ele>1462.3</ele>
        <time>2024-07-10T05:40:06Z</time>
      </trkpt>
      <trkpt lat="47.14403" lon="9.31234">
        <ele>1462.2</ele>
        <time>2024-07-10T05:40:07Z</time>
      </trkpt>
      <trkpt lat="47.14404" lon="9.31234">
        <ele>1462.6</ele>
        <time>2024-07-10T05:40:08Z</time>
      </trkpt>
      <trkpt lat="47.14405" lon="9.31234">
        <ele>1462.6</ele>
        <time>2024-07-10T05:40:09Z</time>
      </trkpt>
      <trkpt lat="47.14407" lon="9.31234">
        <ele>1462.7</ele>
        <time>2024-07-10T05:40:10Z</time>
      </trkpt>
      <trkpt lat="47.14407" lon="9.31233">
        <ele>1462.5</ele>
        <time>2024-07-10T05:40:11Z</time>
      </trkpt>
      <trkpt lat="47.14408" lon="9.31232">
        <ele>1462.5</ele>
        <time>2024-07-10T05:40:12Z</time>
      </trkpt>
      <trkpt lat="47.14409" lon="9.3123">
        <ele>1462.6</ele>
        <time>2024-07-10T05:40:13Z</time>
      </trkpt>
      <trkpt lat="47.1441" lon="9.31228">
        <ele>1463.4</ele>
        <time>2024-07-10T05:40:15Z</time>
      </trkpt>
      <trkpt lat="47.14411" lon="9.31226">
        <ele>1463.8</ele>
        <time>2024-07-10T05:40:16Z</time>
      </trkpt>
      <trkpt lat="47.14411" lon="9.31224">
        <ele>1464.1</ele>
        <time>2024-07-10T05:40:17Z</time>
      </trkpt>
      <trkpt lat="47.14411" lon="9.31223">
        <ele>1464.5</ele>
        <time>2024-07-10T05:40:18Z</time>
      </trkpt>
      <trkpt lat="47.14412" lon="9.31221">
        <ele>1464.7</ele>
        <time>2024-07-10T05:40:19Z</time>
      </trkpt>
      <trkpt lat="47.14412" lon="9.31219">
        <ele>1465.2</ele>
        <time>2024-07-10T05:40:20Z</time>
      </trkpt>
      <trkpt lat="47.14413" lon="9.31218">
        <ele>1465.3</ele>
        <time>2024-07-10T05:40:21Z</time>
      </trkpt>
      <trkpt lat="47.14413" lon="9.31217">
        <ele>1465.3</ele>
        <time>2024-07-10T05:40:22Z</time>
      </trkpt>
      <trkpt lat="47.14413" lon="9.31214">
        <ele>1466</ele>
        <time>2024-07-10T05:40:24Z</time>
      </trkpt>
      <trkpt lat="47.14413" lon="9.31211">
        <ele>1466.6</ele>
        <time>2024-07-10T05:40:25Z</time>
      </trkpt>
      <trkpt lat="47.14413" lon="9.3121">
        <ele>1466.9</ele>
        <time>2024-07-10T05:40:26Z</time>
      </trkpt>
      <trkpt lat="47.14413" lon="9.31208">
        <ele>1467.2</ele>
        <time>2024-07-10T05:40:27Z</time>
      </trkpt>
      <trkpt lat="47.14413" lon="9.31206">
        <ele>1467.7</ele>
        <time>2024-07-10T05:40:28Z</time>
      </trkpt>
      <trkpt lat="47.14414" lon="9.31204">
        <ele>1467.7</ele>
        <time>2024-07-10T05:40:29Z</time>
      </trkpt>
      <trkpt lat="47.14414" lon="9.31202">
        <ele>1468.3</ele>
        <time>2024-07-10T05:40:31Z</time>
      </trkpt>
      <trkpt lat="47.14414" lon="9.312">
        <ele>1468.4</ele>
        <time>2024-07-10T05:40:32Z</time>
      </trkpt>
      <trkpt lat="47.14415" lon="9.31199">
        <ele>1468.4</ele>
        <time>2024-07-10T05:40:33Z</time>
      </trkpt>
      <trkpt lat="47.14415" lon="9.31197">
        <ele>1468.8</ele>
        <time>2024-07-10T05:40:34Z</time>
      </trkpt>
      <trkpt lat="47.14416" lon="9.31195">
        <ele>1469</ele>
        <time>2024-07-10T05:40:35Z</time>
      </trkpt>
      <trkpt lat="47.14416" lon="9.31193">
        <ele>1469.4</ele>
        <time>2024-07-10T05:40:36Z</time>
      </trkpt>
      <trkpt lat="47.14417" lon="9.3119">
        <ele>1469.7</ele>
        <time>2024-07-10T05:40:37Z</time>
      </trkpt>
      <trkpt lat="47.14417" lon="9.31189">
        <ele>1470.1</ele>
        <time>2024-07-10T05:40:38Z</time>
      </trkpt>
      <trkpt lat="47.14417" lon="9.31187">
        <ele>1470.4</ele>
        <time>2024-07-10T05:40:39Z</time>
      </trkpt>
      <trkpt lat="47.14417" lon="9.31186">
        <ele>1470.9</ele>
        <time>2024-07-10T05:40:40Z</time>
      </trkpt>
      <trkpt lat="47.14418" lon="9.31184">
        <ele>1471.2</ele>
        <time>2024-07-10T05:40:41Z</time>
      </trkpt>
      <trkpt lat="47.14418" lon="9.31182">
        <ele>1472</ele>
        <time>2024-07-10T05:40:43Z</time>
      </trkpt>
      <trkpt lat="47.14418" lon="9.31179">
        <ele>1472.1</ele>
        <time>2024-07-10T05:40:45Z</time>
      </trkpt>
      <trkpt lat="47.14418" lon="9.31177">
        <ele>1472.4</ele>
        <time>2024-07-10T05:40:47Z</time>
      </trkpt>
      <trkpt lat="47.14418" lon="9.31176">
        <ele>1472.7</ele>
        <time>2024-07-10T05:40:48Z</time>
      </trkpt>
      <trkpt lat="47.14419" lon="9.31174">
        <ele>1472.8</ele>
        <time>2024-07-10T05:40:49Z</time>
      </trkpt>
      <trkpt lat="47.1442" lon="9.31173">
        <ele>1473.1</ele>
        <time>2024-07-10T05:40:50Z</time>
      </trkpt>
      <trkpt lat="47.14421" lon="9.3117">
        <ele>1473.2</ele>
        <time>2024-07-10T05:40:52Z</time>
      </trkpt>
      <trkpt lat="47.14421" lon="9.31169">
        <ele>1473.2</ele>
        <time>2024-07-10T05:40:53Z</time>
      </trkpt>
      <trkpt lat="47.14422" lon="9.31167">
        <ele>1473.3</ele>
        <time>2024-07-10T05:40:54Z</time>
      </trkpt>
      <trkpt lat="47.14422" lon="9.31164">
        <ele>1473.5</ele>
        <time>2024-07-10T05:40:56Z</time>
      </trkpt>
      <trkpt lat="47.14422" lon="9.31163">
        <ele>1473.5</ele>
        <time>2024-07-10T05:40:57Z</time>
      </trkpt>
      <trkpt lat="47.14422" lon="9.31161">
        <ele>1473.5</ele>
        <time>2024-07-10T05:40:58Z</time>
      </trkpt>
      <trkpt lat="47.14421" lon="9.3116">
        <ele>1473.5</ele>
        <time>2024-07-10T05:40:59Z</time>
      </trkpt>
      <trkpt lat="47.14421" lon="9.31158">
        <ele>1473.4</ele>
        <time>2024-07-10T05:41:00Z</time>
      </trkpt>
      <trkpt lat="47.14421" lon="9.31156">
        <ele>1473.5</ele>
        <time>2024-07-10T05:41:01Z</time>
      </trkpt>
      <trkpt lat="47.14421" lon="9.31155">
        <ele>1473.3</ele>
        <time>2024-07-10T05:41:02Z</time>
      </trkpt>
      <trkpt lat="47.1442" lon="9.31153">
        <ele>1473.2</ele>
        <time>2024-07-10T05:41:03Z</time>
      </trkpt>
      <trkpt lat="47.1442" lon="9.31151">
        <ele>1473.2</ele>
        <time>2024-07-10T05:41:04Z</time>
      </trkpt>
      <trkpt lat="47.1442" lon="9.3115">
        <ele>1473.3</ele>
        <time>2024-07-10T05:41:05Z</time>
      </trkpt>
      <trkpt lat="47.1442" lon="9.31148">
        <ele>1473.1</ele>
        <time>2024-07-10T05:41:06Z</time>
      </trkpt>
      <trkpt lat="47.14419" lon="9.31145">
        <ele>1473.1</ele>
        <time>2024-07-10T05:41:08Z</time>
      </trkpt>
      <trkpt lat="47.14419" lon="9.31143">
        <ele>1472.9</ele>
        <time>2024-07-10T05:41:09Z</time>
      </trkpt>
      <trkpt lat="47.14419" lon="9.31142">
        <ele>1473</ele>
        <time>2024-07-10T05:41:10Z</time>
      </trkpt>
      <trkpt lat="47.14419" lon="9.3114">
        <ele>1473.2</ele>
        <time>2024-07-10T05:41:11Z</time>
      </trkpt>
      <trkpt lat="47.14419" lon="9.31138">
        <ele>1473.6</ele>
        <time>2024-07-10T05:41:13Z</time>
      </trkpt>
      <trkpt lat="47.14418" lon="9.31136">
        <ele>1474</ele>
        <time>2024-07-10T05:41:14Z</time>
      </trkpt>
      <trkpt lat="47.14418" lon="9.31134">
        <ele>1474.9</ele>
        <time>2024-07-10T05:41:16Z</time>
      </trkpt>
      <trkpt lat="47.14418" lon="9.31132">
        <ele>1475.2</ele>
        <time>2024-07-10T05:41:17Z</time>
      </trkpt>
      <trkpt lat="47.14418" lon="9.3113">
        <ele>1475.6</ele>
        <time>2024-07-10T05:41:18Z</time>
      </trkpt>
      <trkpt lat="47.14418" lon="9.31129">
        <ele>1475.9</ele>
        <time>2024-07-10T05:41:19Z</time>
      </trkpt>
      <trkpt lat="47.14418" lon="9.31127">
        <ele>1476.1</ele>
        <time>2024-07-10T05:41:20Z</time>
      </trkpt>
      <trkpt lat="47.14419" lon="9.31126">
        <ele>1476.4</ele>
        <time>2024-07-10T05:41:21Z</time>
      </trkpt>
      <trkpt lat="47.14419" lon="9.31124">
        <ele>1476.8</ele>
        <time>2024-07-10T05:41:22Z</time>
      </trkpt>
      <trkpt lat="47.1442" lon="9.31122">
        <ele>1477.1</ele>
        <time>2024-07-10T05:41:23Z</time>
      </trkpt>
      <trkpt lat="47.1442" lon="9.3112">
        <ele>1477.5</ele>
        <time>2024-07-10T05:41:24Z</time>
      </trkpt>
      <trkpt lat="47.1442" lon="9.31119">
        <ele>1477.9</ele>
        <time>2024-07-10T05:41:25Z</time>
      </trkpt>
      <trkpt lat="47.1442" lon="9.31117">
        <ele>1478.2</ele>
        <time>2024-07-10T05:41:26Z</time>
      </trkpt>
      <trkpt lat="47.1442" lon="9.31115">
        <ele>1478</ele>
        <time>2024-07-10T05:41:27Z</time>
      </trkpt>
      <trkpt lat="47.1442" lon="9.31113">
        <ele>1478.3</ele>
        <time>2024-07-10T05:41:28Z</time>
      </trkpt>
      <trkpt lat="47.14421" lon="9.31112">
        <ele>1478.5</ele>
        <time>2024-07-10T05:41:29Z</time>
      </trkpt>
      <trkpt lat="47.14421" lon="9.3111">
        <ele>1478.7</ele>
        <time>2024-07-10T05:41:30Z</time>
      </trkpt>
      <trkpt lat="47.14422" lon="9.31109">
        <ele>1478.8</ele>
        <time>2024-07-10T05:41:31Z</time>
      </trkpt>
      <trkpt lat="47.14422" lon="9.31107">
        <ele>1478.7</ele>
        <time>2024-07-10T05:41:32Z</time>
      </trkpt>
      <trkpt lat="47.14423" lon="9.31106">
        <ele>1478.9</ele>
        <time>2024-07-10T05:41:33Z</time>
      </trkpt>
      <trkpt lat="47.14423" lon="9.31104">
        <ele>1478.5</ele>
        <time>2024-07-10T05:41:34Z</time>
      </trkpt>
      <trkpt lat="47.14423" lon="9.31102">
        <ele>1478.8</ele>
        <time>2024-07-10T05:41:35Z</time>
      </trkpt>
      <trkpt lat="47.14423" lon="9.31101">
        <ele>1478.9</ele>
        <time>2024-07-10T05:41:36Z</time>
      </trkpt>
      <trkpt lat="47.14422" lon="9.31099">
        <ele>1479.1</ele>
        <time>2024-07-10T05:41:38Z</time>
      </trkpt>
      <trkpt lat="47.14424" lon="9.31102">
        <ele>1479.3</ele>
        <time>2024-07-10T05:41:42Z</time>
      </trkpt>
      <trkpt lat="47.14426" lon="9.31102">
        <ele>1480.1</ele>
        <time>2024-07-10T05:41:44Z</time>
      </trkpt>
      <trkpt lat="47.14427" lon="9.31102">
        <ele>1480.3</ele>
        <time>2024-07-10T05:41:45Z</time>
      </trkpt>
      <trkpt lat="47.14428" lon="9.31102">
        <ele>1480.7</ele>
        <time>2024-07-10T05:41:47Z</time>
      </trkpt>
      <trkpt lat="47.14427" lon="9.31101">
        <ele>1481</ele>
        <time>2024-07-10T05:41:50Z</time>
      </trkpt>
      <trkpt lat="47.14428" lon="9.31102">
        <ele>1481.6</ele>
        <time>2024-07-10T05:41:53Z</time>
      </trkpt>
      <trkpt lat="47.14429" lon="9.31104">
        <ele>1481.6</ele>
        <time>2024-07-10T05:41:56Z</time>
      </trkpt>
      <trkpt lat="47.14434" lon="9.31106">
        <ele>1480.7</ele>
        <time>2024-07-10T05:42:06Z</time>
      </trkpt>
      <trkpt lat="47.14435" lon="9.31106">
        <ele>1480.4</ele>
        <time>2024-07-10T05:42:07Z</time>
      </trkpt>
      <trkpt lat="47.14436" lon="9.31107">
        <ele>1480.3</ele>
        <time>2024-07-10T05:42:08Z</time>
      </trkpt>
      <trkpt lat="47.14437" lon="9.31106">
        <ele>1480.2</ele>
        <time>2024-07-10T05:42:09Z</time>
      </trkpt>
      <trkpt lat="47.14439" lon="9.31106">
        <ele>1480.2</ele>
        <time>2024-07-10T05:42:10Z</time>
      </trkpt>
      <trkpt lat="47.14441" lon="9.31106">
        <ele>1480.2</ele>
        <time>2024-07-10T05:42:12Z</time>
      </trkpt>
      <trkpt lat="47.14441" lon="9.31105">
        <ele>1479.9</ele>
        <time>2024-07-10T05:42:13Z</time>
      </trkpt>
      <trkpt lat="47.14442" lon="9.31104">
        <ele>1479.9</ele>
        <time>2024-07-10T05:42:14Z</time>
      </trkpt>
      <trkpt lat="47.14444" lon="9.31103">
        <ele>1479.9</ele>
        <time>2024-07-10T05:42:16Z</time>
      </trkpt>
      <trkpt lat="47.14444" lon="9.31102">
        <ele>1480</ele>
        <time>2024-07-10T05:42:17Z</time>
      </trkpt>
      <trkpt lat="47.14446" lon="9.31101">
        <ele>1480.2</ele>
        <time>2024-07-10T05:42:19Z</time>
      </trkpt>
      <trkpt lat="47.14446" lon="9.311">
        <ele>1480.3</ele>
        <time>2024-07-10T05:42:20Z</time>
      </trkpt>
      <trkpt lat="47.14448" lon="9.31099">
        <ele>1480.5</ele>
        <time>2024-07-10T05:42:22Z</time>
      </trkpt>
      <trkpt lat="47.14449" lon="9.31097">
        <ele>1480.6</ele>
        <time>2024-07-10T05:42:23Z</time>
      </trkpt>
      <trkpt lat="47.14451" lon="9.31097">
        <ele>1480.6</ele>
        <time>2024-07-10T05:42:25Z</time>
      </trkpt>
      <trkpt lat="47.14452" lon="9.31097">
        <ele>1481.1</ele>
        <time>2024-07-10T05:42:27Z</time>
      </trkpt>
      <trkpt lat="47.14453" lon="9.31097">
        <ele>1481.4</ele>
        <time>2024-07-10T05:42:28Z</time>
      </trkpt>
      <trkpt lat="47.14454" lon="9.31096">
        <ele>1482</ele>
        <time>2024-07-10T05:42:30Z</time>
      </trkpt>
      <trkpt lat="47.14455" lon="9.31095">
        <ele>1482.4</ele>
        <time>2024-07-10T05:42:31Z</time>
      </trkpt>
      <trkpt lat="47.14456" lon="9.31094">
        <ele>1484.5</ele>
        <time>2024-07-10T05:42:32Z</time>
      </trkpt>
      <trkpt lat="47.14456" lon="9.31093">
        <ele>1491</ele>
        <time>2024-07-10T05:42:35Z</time>
      </trkpt>
      <trkpt lat="47.14457" lon="9.31094">
        <ele>1492.8</ele>
        <time>2024-07-10T05:42:37Z</time>
      </trkpt>
      <trkpt lat="47.14458" lon="9.31093">
        <ele>1493.3</ele>
        <time>2024-07-10T05:42:39Z</time>
      </trkpt>
      <trkpt lat="47.1446" lon="9.31093">
        <ele>1493.6</ele>
        <time>2024-07-10T05:42:41Z</time>
      </trkpt>
      <trkpt lat="47.14461" lon="9.31093">
        <ele>1493.7</ele>
        <time>2024-07-10T05:42:43Z</time>
      </trkpt>
      <trkpt lat="47.14461" lon="9.31091">
        <ele>1493.6</ele>
        <time>2024-07-10T05:42:45Z</time>
      </trkpt>
      <trkpt lat="47.14461" lon="9.31089">
        <ele>1493</ele>
        <time>2024-07-10T05:42:47Z</time>
      </trkpt>
      <trkpt lat="47.14459" lon="9.31088">
        <ele>1491.9</ele>
        <time>2024-07-10T05:42:48Z</time>
      </trkpt>
      <trkpt lat="47.14458" lon="9.31087">
        <ele>1490.9</ele>
        <time>2024-07-10T05:42:49Z</time>
      </trkpt>
      <trkpt lat="47.14458" lon="9.31086">
        <ele>1490.8</ele>
        <time>2024-07-10T05:42:50Z</time>
      </trkpt>
      <trkpt lat="47.14456" lon="9.31083">
        <ele>1490.5</ele>
        <time>2024-07-10T05:42:52Z</time>
      </trkpt>
      <trkpt lat="47.14455" lon="9.31081">
        <ele>1490.7</ele>
        <time>2024-07-10T05:42:54Z</time>
      </trkpt>
      <trkpt lat="47.14455" lon="9.3108">
        <ele>1490.8</ele>
        <time>2024-07-10T05:42:56Z</time>
      </trkpt>
      <trkpt lat="47.14455" lon="9.31077">
        <ele>1491.2</ele>
        <time>2024-07-10T05:42:58Z</time>
      </trkpt>
      <trkpt lat="47.14455" lon="9.31076">
        <ele>1491.3</ele>
        <time>2024-07-10T05:43:01Z</time>
      </trkpt>
      <trkpt lat="47.14457" lon="9.31076">
        <ele>1491.3</ele>
        <time>2024-07-10T05:43:02Z</time>
      </trkpt>
      <trkpt lat="47.14458" lon="9.31077">
        <ele>1491.1</ele>
        <time>2024-07-10T05:43:03Z</time>
      </trkpt>
      <trkpt lat="47.14459" lon="9.31078">
        <ele>1491.1</ele>
        <time>2024-07-10T05:43:05Z</time>
      </trkpt>
      <trkpt lat="47.1446" lon="9.31079">
        <ele>1491.3</ele>
        <time>2024-07-10T05:43:07Z</time>
      </trkpt>
      <trkpt lat="47.14461" lon="9.31079">
        <ele>1491.3</ele>
        <time>2024-07-10T05:43:08Z</time>
      </trkpt>
      <trkpt lat="47.14462" lon="9.31079">
        <ele>1491.3</ele>
        <time>2024-07-10T05:43:09Z</time>
      </trkpt>
      <trkpt lat="47.14463" lon="9.31079">
        <ele>1491.6</ele>
        <time>2024-07-10T05:43:11Z</time>
      </trkpt>
      <trkpt lat="47.14464" lon="9.31078">
        <ele>1492.7</ele>
        <time>2024-07-10T05:43:14Z</time>
      </trkpt>
      <trkpt lat="47.14465" lon="9.31076">
        <ele>1494.5</ele>
        <time>2024-07-10T05:43:17Z</time>
      </trkpt>
      <trkpt lat="47.14466" lon="9.31076">
        <ele>1495.5</ele>
        <time>2024-07-10T05:43:20Z</time>
      </trkpt>
      <trkpt lat="47.14467" lon="9.31075">
        <ele>1495.9</ele>
        <time>2024-07-10T05:43:21Z</time>
      </trkpt>
      <trkpt lat="47.14469" lon="9.31072">
        <ele>1497.1</ele>
        <time>2024-07-10T05:43:23Z</time>
      </trkpt>
      <trkpt lat="47.14469" lon="9.31071">
        <ele>1497.6</ele>
        <time>2024-07-10T05:43:24Z</time>
      </trkpt>
      <trkpt lat="47.14469" lon="9.31068">
        <ele>1498</ele>
        <time>2024-07-10T05:43:26Z</time>
      </trkpt>
      <trkpt lat="47.1447" lon="9.31066">
        <ele>1498.7</ele>
        <time>2024-07-10T05:43:28Z</time>
      </trkpt>
      <trkpt lat="47.14471" lon="9.31063">
        <ele>1499.1</ele>
        <time>2024-07-10T05:43:30Z</time>
      </trkpt>
      <trkpt lat="47.14472" lon="9.31061">
        <ele>1499.6</ele>
        <time>2024-07-10T05:43:32Z</time>
      </trkpt>
      <trkpt lat="47.14473" lon="9.3106">
        <ele>1500.8</ele>
        <time>2024-07-10T05:43:34Z</time>
      </trkpt>
      <trkpt lat="47.14473" lon="9.31058">
        <ele>1501.4</ele>
        <time>2024-07-10T05:43:36Z</time>
      </trkpt>
      <trkpt lat="47.14475" lon="9.31059">
        <ele>1501.6</ele>
        <time>2024-07-10T05:43:40Z</time>
      </trkpt>
      <trkpt lat="47.14477" lon="9.31058">
        <ele>1501.6</ele>
        <time>2024-07-10T05:43:42Z</time>
      </trkpt>
      <trkpt lat="47.14478" lon="9.31058">
        <ele>1501.8</ele>
        <time>2024-07-10T05:43:43Z</time>
      </trkpt>
      <trkpt lat="47.14479" lon="9.31057">
        <ele>1502.5</ele>
        <time>2024-07-10T05:43:46Z</time>
      </trkpt>
      <trkpt lat="47.1448" lon="9.31057">
        <ele>1503.8</ele>
        <time>2024-07-10T05:43:50Z</time>
      </trkpt>
      <trkpt lat="47.14481" lon="9.31057">
        <ele>1504.7</ele>
        <time>2024-07-10T05:43:53Z</time>
      </trkpt>
      <trkpt lat="47.14482" lon="9.31055">
        <ele>1505.9</ele>
        <time>2024-07-10T05:43:56Z</time>
      </trkpt>
      <trkpt lat="47.14483" lon="9.31054">
        <ele>1506.4</ele>
        <time>2024-07-10T05:43:57Z</time>
      </trkpt>
      <trkpt lat="47.14484" lon="9.31053">
        <ele>1507</ele>
        <time>2024-07-10T05:43:59Z</time>
      </trkpt>
      <trkpt lat="47.14486" lon="9.31053">
        <ele>1507.5</ele>
        <time>2024-07-10T05:44:01Z</time>
      </trkpt>
      <trkpt lat="47.14487" lon="9.31052">
        <ele>1507.7</ele>
        <time>2024-07-10T05:44:02Z</time>
      </trkpt>
      <trkpt lat="47.14488" lon="9.31051">
        <ele>1507.8</ele>
        <time>2024-07-10T05:44:03Z</time>
      </trkpt>
      <trkpt lat="47.14489" lon="9.31052">
        <ele>1507.9</ele>
        <time>2024-07-10T05:44:05Z</time>
      </trkpt>
      <trkpt lat="47.1449" lon="9.31053">
        <ele>1507.8</ele>
        <time>2024-07-10T05:44:06Z</time>
      </trkpt>
      <trkpt lat="47.14491" lon="9.31054">
        <ele>1507.8</ele>
        <time>2024-07-10T05:44:07Z</time>
      </trkpt>
      <trkpt lat="47.14493" lon="9.31056">
        <ele>1508.2</ele>
        <time>2024-07-10T05:44:08Z</time>
      </trkpt>
      <trkpt lat="47.14493" lon="9.31054">
        <ele>1508.4</ele>
        <time>2024-07-10T05:44:09Z</time>
      </trkpt>
      <trkpt lat="47.14494" lon="9.31054">
        <ele>1509.1</ele>
        <time>2024-07-10T05:44:10Z</time>
      </trkpt>
      <trkpt lat="47.14496" lon="9.31054">
        <ele>1509</ele>
        <time>2024-07-10T05:44:12Z</time>
      </trkpt>
      <trkpt lat="47.14497" lon="9.31055">
        <ele>1508.5</ele>
        <time>2024-07-10T05:44:14Z</time>
      </trkpt>
      <trkpt lat="47.14498" lon="9.31055">
        <ele>1508.4</ele>
        <time>2024-07-10T05:44:15Z</time>
      </trkpt>
      <trkpt lat="47.14499" lon="9.31057">
        <ele>1508</ele>
        <time>2024-07-10T05:44:16Z</time>
      </trkpt>
      <trkpt lat="47.14499" lon="9.31055">
        <ele>1507.9</ele>
        <time>2024-07-10T05:44:19Z</time>
      </trkpt>
      <trkpt lat="47.14499" lon="9.31053">
        <ele>1506.7</ele>
        <time>2024-07-10T05:44:22Z</time>
      </trkpt>
      <trkpt lat="47.14498" lon="9.31052">
        <ele>1506.5</ele>
        <time>2024-07-10T05:44:24Z</time>
      </trkpt>
      <trkpt lat="47.14498" lon="9.3105">
        <ele>1506.8</ele>
        <time>2024-07-10T05:44:26Z</time>
      </trkpt>
      <trkpt lat="47.14499" lon="9.31049">
        <ele>1506.9</ele>
        <time>2024-07-10T05:44:28Z</time>
      </trkpt>
      <trkpt lat="47.145" lon="9.31049">
        <ele>1506.8</ele>
        <time>2024-07-10T05:44:30Z</time>
      </trkpt>
      <trkpt lat="47.145" lon="9.31047">
        <ele>1507</ele>
        <time>2024-07-10T05:44:32Z</time>
      </trkpt>
      <trkpt lat="47.145" lon="9.31045">
        <ele>1507.8</ele>
        <time>2024-07-10T05:44:34Z</time>
      </trkpt>
      <trkpt lat="47.145" lon="9.31044">
        <ele>1509.3</ele>
        <time>2024-07-10T05:44:37Z</time>
      </trkpt>
      <trkpt lat="47.145" lon="9.31042">
        <ele>1510.2</ele>
        <time>2024-07-10T05:44:38Z</time>
      </trkpt>
      <trkpt lat="47.14501" lon="9.31041">
        <ele>1511.7</ele>
        <time>2024-07-10T05:44:40Z</time>
      </trkpt>
      <trkpt lat="47.14503" lon="9.31042">
        <ele>1512.8</ele>
        <time>2024-07-10T05:44:42Z</time>
      </trkpt>
      <trkpt lat="47.14504" lon="9.31043">
        <ele>1513.1</ele>
        <time>2024-07-10T05:44:43Z</time>
      </trkpt>
      <trkpt lat="47.14505" lon="9.3104">
        <ele>1514.2</ele>
        <time>2024-07-10T05:44:45Z</time>
      </trkpt>
      <trkpt lat="47.14506" lon="9.3104">
        <ele>1514.3</ele>
        <time>2024-07-10T05:44:46Z</time>
      </trkpt>
      <trkpt lat="47.14508" lon="9.3104">
        <ele>1515.4</ele>
        <time>2024-07-10T05:44:49Z</time>
      </trkpt>
      <trkpt lat="47.14509" lon="9.3104">
        <ele>1516.4</ele>
        <time>2024-07-10T05:44:52Z</time>
      </trkpt>
      <trkpt lat="47.1451" lon="9.31041">
        <ele>1516.4</ele>
        <time>2024-07-10T05:44:54Z</time>
      </trkpt>
      <trkpt lat="47.14512" lon="9.31042">
        <ele>1516.6</ele>
        <time>2024-07-10T05:44:56Z</time>
      </trkpt>
      <trkpt lat="47.14513" lon="9.31043">
        <ele>1517</ele>
        <time>2024-07-10T05:44:57Z</time>
      </trkpt>
      <trkpt lat="47.14513" lon="9.31045">
        <ele>1517.8</ele>
        <time>2024-07-10T05:44:59Z</time>
      </trkpt>
      <trkpt lat="47.14514" lon="9.31045">
        <ele>1518.9</ele>
        <time>2024-07-10T05:45:01Z</time>
      </trkpt>
      <trkpt lat="47.14512" lon="9.31046">
        <ele>1519.8</ele>
        <time>2024-07-10T05:45:06Z</time>
      </trkpt>
      <trkpt lat="47.14512" lon="9.31048">
        <ele>1519.8</ele>
        <time>2024-07-10T05:45:07Z</time>
      </trkpt>
      <trkpt lat="47.14512" lon="9.3105">
        <ele>1519.3</ele>
        <time>2024-07-10T05:45:08Z</time>
      </trkpt>
      <trkpt lat="47.14512" lon="9.31053">
        <ele>1519.3</ele>
        <time>2024-07-10T05:45:09Z</time>
      </trkpt>
      <trkpt lat="47.14513" lon="9.31055">
        <ele>1519.3</ele>
        <time>2024-07-10T05:45:10Z</time>
      </trkpt>
      <trkpt lat="47.14513" lon="9.31057">
        <ele>1519.2</ele>
        <time>2024-07-10T05:45:11Z</time>
      </trkpt>
      <trkpt lat="47.14514" lon="9.31059">
        <ele>1518.9</ele>
        <time>2024-07-10T05:45:12Z</time>
      </trkpt>
      <trkpt lat="47.14515" lon="9.31062">
        <ele>1518.6</ele>
        <time>2024-07-10T05:45:13Z</time>
      </trkpt>
      <trkpt lat="47.14516" lon="9.31063">
        <ele>1518.6</ele>
        <time>2024-07-10T05:45:14Z</time>
      </trkpt>
      <trkpt lat="47.14517" lon="9.31065">
        <ele>1519.2</ele>
        <time>2024-07-10T05:45:15Z</time>
      </trkpt>
      <trkpt lat="47.14518" lon="9.31066">
        <ele>1519.7</ele>
        <time>2024-07-10T05:45:16Z</time>
      </trkpt>
      <trkpt lat="47.14518" lon="9.31067">
        <ele>1521.3</ele>
        <time>2024-07-10T05:45:18Z</time>
      </trkpt>
      <trkpt lat="47.14519" lon="9.31068">
        <ele>1521.6</ele>
        <time>2024-07-10T05:45:20Z</time>
      </trkpt>
      <trkpt lat="47.14519" lon="9.31069">
        <ele>1522.3</ele>
        <time>2024-07-10T05:45:23Z</time>
      </trkpt>
      <trkpt lat="47.14519" lon="9.31071">
        <ele>1522.5</ele>
        <time>2024-07-10T05:45:24Z</time>
      </trkpt>
      <trkpt lat="47.14519" lon="9.31069">
        <ele>1526.7</ele>
        <time>2024-07-10T05:45:34Z</time>
      </trkpt>
      <trkpt lat="47.14519" lon="9.31063">
        <ele>1527.9</ele>
        <time>2024-07-10T05:45:41Z</time>
      </trkpt>
      <trkpt lat="47.1452" lon="9.31062">
        <ele>1528.4</ele>
        <time>2024-07-10T05:45:43Z</time>
      </trkpt>
      <trkpt lat="47.14519" lon="9.31062">
        <ele>1530.3</ele>
        <time>2024-07-10T05:45:48Z</time>
      </trkpt>
      <trkpt lat="47.1452" lon="9.31062">
        <ele>1531.7</ele>
        <time>2024-07-10T05:45:52Z</time>
      </trkpt>
      <trkpt lat="47.14521" lon="9.31065">
        <ele>1532.5</ele>
        <time>2024-07-10T05:45:57Z</time>
      </trkpt>
      <trkpt lat="47.14521" lon="9.31066">
        <ele>1532.6</ele>
        <time>2024-07-10T05:45:58Z</time>
      </trkpt>
      <trkpt lat="47.14522" lon="9.31068">
        <ele>1533.3</ele>
        <time>2024-07-10T05:45:59Z</time>
      </trkpt>
      <trkpt lat="47.14522" lon="9.3107">
        <ele>1534.3</ele>
        <time>2024-07-10T05:46:01Z</time>
      </trkpt>
      <trkpt lat="47.14521" lon="9.31071">
        <ele>1536.9</ele>
        <time>2024-07-10T05:46:03Z</time>
      </trkpt>
      <trkpt lat="47.14521" lon="9.31074">
        <ele>1537.1</ele>
        <time>2024-07-10T05:46:04Z</time>
      </trkpt>
      <trkpt lat="47.14521" lon="9.31075">
        <ele>1537.9</ele>
        <time>2024-07-10T05:46:06Z</time>
      </trkpt>
      <trkpt lat="47.14521" lon="9.31077">
        <ele>1538.1</ele>
        <time>2024-07-10T05:46:08Z</time>
      </trkpt>
      <trkpt lat="47.1452" lon="9.31078">
        <ele>1538.5</ele>
        <time>2024-07-10T05:46:11Z</time>
      </trkpt>
      <trkpt lat="47.1452" lon="9.3108">
        <ele>1538.5</ele>
        <time>2024-07-10T05:46:13Z</time>
      </trkpt>
      <trkpt lat="47.1452" lon="9.31081">
        <ele>1538.1</ele>
        <time>2024-07-10T05:46:15Z</time>
      </trkpt>
      <trkpt lat="47.14521" lon="9.31082">
        <ele>1538</ele>
        <time>2024-07-10T05:46:16Z</time>
      </trkpt>
      <trkpt lat="47.14521" lon="9.31084">
        <ele>1537.9</ele>
        <time>2024-07-10T05:46:17Z</time>
      </trkpt>
      <trkpt lat="47.14522" lon="9.31084">
        <ele>1537.9</ele>
        <time>2024-07-10T05:46:18Z</time>
      </trkpt>
      <trkpt lat="47.14523" lon="9.31085">
        <ele>1538</ele>
        <time>2024-07-10T05:46:20Z</time>
      </trkpt>
      <trkpt lat="47.14524" lon="9.31085">
        <ele>1538</ele>
        <time>2024-07-10T05:46:22Z</time>
      </trkpt>
      <trkpt lat="47.14526" lon="9.31084">
        <ele>1537</ele>
        <time>2024-07-10T05:46:23Z</time>
      </trkpt>
      <trkpt lat="47.14527" lon="9.31084">
        <ele>1536.5</ele>
        <time>2024-07-10T05:46:25Z</time>
      </trkpt>
      <trkpt lat="47.14527" lon="9.31085">
        <ele>1536.2</ele>
        <time>2024-07-10T05:46:27Z</time>
      </trkpt>
      <trkpt lat="47.14527" lon="9.31088">
        <ele>1536.2</ele>
        <time>2024-07-10T05:46:30Z</time>
      </trkpt>
      <trkpt lat="47.14528" lon="9.3109">
        <ele>1535.6</ele>
        <time>2024-07-10T05:46:32Z</time>
      </trkpt>
      <trkpt lat="47.14529" lon="9.31091">
        <ele>1535.3</ele>
        <time>2024-07-10T05:46:33Z</time>
      </trkpt>
      <trkpt lat="47.14529" lon="9.31093">
        <ele>1535.2</ele>
        <time>2024-07-10T05:46:35Z</time>
      </trkpt>
      <trkpt lat="47.14527" lon="9.31095">
        <ele>1535.8</ele>
        <time>2024-07-10T05:46:37Z</time>
      </trkpt>
      <trkpt lat="47.14526" lon="9.31095">
        <ele>1536.3</ele>
        <time>2024-07-10T05:46:38Z</time>
      </trkpt>
      <trkpt lat="47.14524" lon="9.31095">
        <ele>1536.9</ele>
        <time>2024-07-10T05:46:39Z</time>
      </trkpt>
      <trkpt lat="47.14523" lon="9.31095">
        <ele>1538.1</ele>
        <time>2024-07-10T05:46:42Z</time>
      </trkpt>
      <trkpt lat="47.14522" lon="9.31096">
        <ele>1539</ele>
        <time>2024-07-10T05:46:45Z</time>
      </trkpt>
      <trkpt lat="47.14522" lon="9.31095">
        <ele>1540.8</ele>
        <time>2024-07-10T05:46:48Z</time>
      </trkpt>
      <trkpt lat="47.14521" lon="9.31094">
        <ele>1545.1</ele>
        <time>2024-07-10T05:47:18Z</time>
      </trkpt>
      <trkpt lat="47.14521" lon="9.31095">
        <ele>1545.2</ele>
        <time>2024-07-10T05:47:21Z</time>
      </trkpt>
      <trkpt lat="47.14522" lon="9.31097">
        <ele>1545.2</ele>
        <time>2024-07-10T05:47:24Z</time>
      </trkpt>
      <trkpt lat="47.14522" lon="9.31099">
        <ele>1545.1</ele>
        <time>2024-07-10T05:47:25Z</time>
      </trkpt>
      <trkpt lat="47.14521" lon="9.31099">
        <ele>1545.2</ele>
        <time>2024-07-10T05:47:26Z</time>
      </trkpt>
      <trkpt lat="47.1452" lon="9.311">
        <ele>1546.5</ele>
        <time>2024-07-10T05:47:31Z</time>
      </trkpt>
      <trkpt lat="47.14521" lon="9.311">
        <ele>1546.8</ele>
        <time>2024-07-10T05:47:36Z</time>
      </trkpt>
      <trkpt lat="47.14521" lon="9.31101">
        <ele>1546.8</ele>
        <time>2024-07-10T05:47:42Z</time>
      </trkpt>
      <trkpt lat="47.14522" lon="9.31103">
        <ele>1547.1</ele>
        <time>2024-07-10T05:47:44Z</time>
      </trkpt>
      <trkpt lat="47.14522" lon="9.31104">
        <ele>1547.1</ele>
        <time>2024-07-10T05:47:45Z</time>
      </trkpt>
      <trkpt lat="47.14523" lon="9.31106">
        <ele>1547.3</ele>
        <time>2024-07-10T05:47:47Z</time>
      </trkpt>
      <trkpt lat="47.14524" lon="9.31107">
        <ele>1547.2</ele>
        <time>2024-07-10T05:47:49Z</time>
      </trkpt>
      <trkpt lat="47.14524" lon="9.31109">
        <ele>1547</ele>
        <time>2024-07-10T05:47:51Z</time>
      </trkpt>
      <trkpt lat="47.14525" lon="9.3111">
        <ele>1547.1</ele>
        <time>2024-07-10T05:47:52Z</time>
      </trkpt>
      <trkpt lat="47.14524" lon="9.31112">
        <ele>1547.4</ele>
        <time>2024-07-10T05:47:53Z</time>
      </trkpt>
      <trkpt lat="47.14523" lon="9.31113">
        <ele>1548.4</ele>
        <time>2024-07-10T05:47:54Z</time>
      </trkpt>
      <trkpt lat="47.14523" lon="9.31115">
        <ele>1548.2</ele>
        <time>2024-07-10T05:47:56Z</time>
      </trkpt>
      <trkpt lat="47.14522" lon="9.31116">
        <ele>1548.1</ele>
        <time>2024-07-10T05:47:57Z</time>
      </trkpt>
      <trkpt lat="47.14522" lon="9.31117">
        <ele>1548</ele>
        <time>2024-07-10T05:48:00Z</time>
      </trkpt>
      <trkpt lat="47.14523" lon="9.31119">
        <ele>1548.5</ele>
        <time>2024-07-10T05:48:02Z</time>
      </trkpt>
      <trkpt lat="47.14523" lon="9.31121">
        <ele>1548.6</ele>
        <time>2024-07-10T05:48:05Z</time>
      </trkpt>
      <trkpt lat="47.14522" lon="9.31123">
        <ele>1548.7</ele>
        <time>2024-07-10T05:48:07Z</time>
      </trkpt>
      <trkpt lat="47.14522" lon="9.31124">
        <ele>1548.5</ele>
        <time>2024-07-10T05:48:09Z</time>
      </trkpt>
      <trkpt lat="47.14522" lon="9.31126">
        <ele>1548.9</ele>
        <time>2024-07-10T05:48:10Z</time>
      </trkpt>
      <trkpt lat="47.14522" lon="9.31127">
        <ele>1548.8</ele>
        <time>2024-07-10T05:48:14Z</time>
      </trkpt>
      <trkpt lat="47.14521" lon="9.3113">
        <ele>1549</ele>
        <time>2024-07-10T05:48:16Z</time>
      </trkpt>
      <trkpt lat="47.1452" lon="9.31132">
        <ele>1549.5</ele>
        <time>2024-07-10T05:48:17Z</time>
      </trkpt>
      <trkpt lat="47.14517" lon="9.31134">
        <ele>1551.8</ele>
        <time>2024-07-10T05:48:18Z</time>
      </trkpt>
      <trkpt lat="47.14516" lon="9.31135">
        <ele>1553</ele>
        <time>2024-07-10T05:48:19Z</time>
      </trkpt>
      <trkpt lat="47.14515" lon="9.31137">
        <ele>1553.2</ele>
        <time>2024-07-10T05:48:21Z</time>
      </trkpt>
      <trkpt lat="47.14515" lon="9.31139">
        <ele>1553.6</ele>
        <time>2024-07-10T05:48:23Z</time>
      </trkpt>
      <trkpt lat="47.14515" lon="9.31141">
        <ele>1555.8</ele>
        <time>2024-07-10T05:48:29Z</time>
      </trkpt>
      <trkpt lat="47.14515" lon="9.31142">
        <ele>1555.8</ele>
        <time>2024-07-10T05:48:32Z</time>
      </trkpt>
      <trkpt lat="47.14515" lon="9.31144">
        <ele>1556.1</ele>
        <time>2024-07-10T05:48:33Z</time>
      </trkpt>
      <trkpt lat="47.14515" lon="9.31145">
        <ele>1557.1</ele>
        <time>2024-07-10T05:48:36Z</time>
      </trkpt>
      <trkpt lat="47.14515" lon="9.31147">
        <ele>1557.3</ele>
        <time>2024-07-10T05:48:38Z</time>
      </trkpt>
      <trkpt lat="47.14516" lon="9.31148">
        <ele>1557</ele>
        <time>2024-07-10T05:48:40Z</time>
      </trkpt>
      <trkpt lat="47.14517" lon="9.31149">
        <ele>1556.7</ele>
        <time>2024-07-10T05:48:41Z</time>
      </trkpt>
      <trkpt lat="47.14517" lon="9.3115">
        <ele>1557.9</ele>
        <time>2024-07-10T05:48:42Z</time>
      </trkpt>
      <trkpt lat="47.14518" lon="9.31152">
        <ele>1558.2</ele>
        <time>2024-07-10T05:48:44Z</time>
      </trkpt>
      <trkpt lat="47.14518" lon="9.31153">
        <ele>1558.7</ele>
        <time>2024-07-10T05:48:46Z</time>
      </trkpt>
      <trkpt lat="47.14519" lon="9.31155">
        <ele>1558.8</ele>
        <time>2024-07-10T05:48:48Z</time>
      </trkpt>
      <trkpt lat="47.14518" lon="9.31158">
        <ele>1560</ele>
        <time>2024-07-10T05:48:50Z</time>
      </trkpt>
      <trkpt lat="47.14517" lon="9.31159">
        <ele>1561.1</ele>
        <time>2024-07-10T05:48:51Z</time>
      </trkpt>
      <trkpt lat="47.14516" lon="9.31161">
        <ele>1561.2</ele>
        <time>2024-07-10T05:48:52Z</time>
      </trkpt>
      <trkpt lat="47.14515" lon="9.31162">
        <ele>1561.5</ele>
        <time>2024-07-10T05:48:54Z</time>
      </trkpt>
      <trkpt lat="47.14514" lon="9.31164">
        <ele>1562.3</ele>
        <time>2024-07-10T05:48:56Z</time>
      </trkpt>
      <trkpt lat="47.14514" lon="9.31166">
        <ele>1562.8</ele>
        <time>2024-07-10T05:48:58Z</time>
      </trkpt>
      <trkpt lat="47.14514" lon="9.31168">
        <ele>1563</ele>
        <time>2024-07-10T05:49:00Z</time>
      </trkpt>
      <trkpt lat="47.14513" lon="9.31169">
        <ele>1563.1</ele>
        <time>2024-07-10T05:49:01Z</time>
      </trkpt>
      <trkpt lat="47.14513" lon="9.31171">
        <ele>1563.3</ele>
        <time>2024-07-10T05:49:02Z</time>
      </trkpt>
      <trkpt lat="47.14513" lon="9.31173">
        <ele>1562.8</ele>
        <time>2024-07-10T05:49:04Z</time>
      </trkpt>
      <trkpt lat="47.14514" lon="9.31174">
        <ele>1562.7</ele>
        <time>2024-07-10T05:49:06Z</time>
      </trkpt>
      <trkpt lat="47.14514" lon="9.31175">
        <ele>1561.9</ele>
        <time>2024-07-10T05:49:10Z</time>
      </trkpt>
      <trkpt lat="47.14515" lon="9.31177">
        <ele>1561.1</ele>
        <time>2024-07-10T05:49:14Z</time>
      </trkpt>
      <trkpt lat="47.14516" lon="9.31179">
        <ele>1560.4</ele>
        <time>2024-07-10T05:49:18Z</time>
      </trkpt>
      <trkpt lat="47.14516" lon="9.31181">
        <ele>1560.2</ele>
        <time>2024-07-10T05:49:21Z</time>
      </trkpt>
      <trkpt lat="47.14516" lon="9.31182">
        <ele>1560.4</ele>
        <time>2024-07-10T05:49:23Z</time>
      </trkpt>
      <trkpt lat="47.14516" lon="9.31185">
        <ele>1560.3</ele>
        <time>2024-07-10T05:49:25Z</time>
      </trkpt>
      <trkpt lat="47.14516" lon="9.31187">
        <ele>1560.3</ele>
        <time>2024-07-10T05:49:27Z</time>
      </trkpt>
      <trkpt lat="47.14516" lon="9.31188">
        <ele>1560.4</ele>
        <time>2024-07-10T05:49:28Z</time>
      </trkpt>
      <trkpt lat="47.14516" lon="9.31189">
        <ele>1560.7</ele>
        <time>2024-07-10T05:49:30Z</time>
      </trkpt>
      <trkpt lat="47.14517" lon="9.31191">
        <ele>1560.8</ele>
        <time>2024-07-10T05:49:33Z</time>
      </trkpt>
      <trkpt lat="47.14516" lon="9.31192">
        <ele>1561.3</ele>
        <time>2024-07-10T05:49:35Z</time>
      </trkpt>
      <trkpt lat="47.14515" lon="9.31194">
        <ele>1561.3</ele>
        <time>2024-07-10T05:49:37Z</time>
      </trkpt>
      <trkpt lat="47.14515" lon="9.31196">
        <ele>1561.5</ele>
        <time>2024-07-10T05:49:39Z</time>
      </trkpt>
      <trkpt lat="47.14515" lon="9.31199">
        <ele>1562.4</ele>
        <time>2024-07-10T05:49:41Z</time>
      </trkpt>
      <trkpt lat="47.14514" lon="9.312">
        <ele>1562.3</ele>
        <time>2024-07-10T05:49:42Z</time>
      </trkpt>
      <trkpt lat="47.14513" lon="9.31201">
        <ele>1562.2</ele>
        <time>2024-07-10T05:49:44Z</time>
      </trkpt>
      <trkpt lat="47.14513" lon="9.31203">
        <ele>1562.2</ele>
        <time>2024-07-10T05:49:45Z</time>
      </trkpt>
      <trkpt lat="47.14512" lon="9.31204">
        <ele>1562.4</ele>
        <time>2024-07-10T05:49:46Z</time>
      </trkpt>
      <trkpt lat="47.14511" lon="9.31207">
        <ele>1562.7</ele>
        <time>2024-07-10T05:49:48Z</time>
      </trkpt>
      <trkpt lat="47.1451" lon="9.31207">
        <ele>1563.5</ele>
        <time>2024-07-10T05:49:49Z</time>
      </trkpt>
      <trkpt lat="47.14511" lon="9.31209">
        <ele>1563.6</ele>
        <time>2024-07-10T05:49:51Z</time>
      </trkpt>
      <trkpt lat="47.14511" lon="9.31212">
        <ele>1563.9</ele>
        <time>2024-07-10T05:49:52Z</time>
      </trkpt>
      <trkpt lat="47.14511" lon="9.31213">
        <ele>1563.8</ele>
        <time>2024-07-10T05:49:53Z</time>
      </trkpt>
      <trkpt lat="47.14511" lon="9.31215">
        <ele>1563.5</ele>
        <time>2024-07-10T05:49:54Z</time>
      </trkpt>
      <trkpt lat="47.14511" lon="9.31216">
        <ele>1563.3</ele>
        <time>2024-07-10T05:49:55Z</time>
      </trkpt>
      <trkpt lat="47.14511" lon="9.31217">
        <ele>1563.1</ele>
        <time>2024-07-10T05:49:56Z</time>
      </trkpt>
      <trkpt lat="47.14511" lon="9.31219">
        <ele>1563.1</ele>
        <time>2024-07-10T05:49:58Z</time>
      </trkpt>
      <trkpt lat="47.14511" lon="9.31221">
        <ele>1563</ele>
        <time>2024-07-10T05:49:59Z</time>
      </trkpt>
      <trkpt lat="47.14512" lon="9.31222">
        <ele>1562.9</ele>
        <time>2024-07-10T05:50:00Z</time>
      </trkpt>
      <trkpt lat="47.14513" lon="9.31223">
        <ele>1562.8</ele>
        <time>2024-07-10T05:50:01Z</time>
      </trkpt>
      <trkpt lat="47.14513" lon="9.31224">
        <ele>1562.6</ele>
        <time>2024-07-10T05:50:02Z</time>
      </trkpt>
      <trkpt lat="47.14515" lon="9.31225">
        <ele>1562.5</ele>
        <time>2024-07-10T05:50:04Z</time>
      </trkpt>
      <trkpt lat="47.14516" lon="9.31226">
        <ele>1562.4</ele>
        <time>2024-07-10T05:50:05Z</time>
      </trkpt>
      <trkpt lat="47.14517" lon="9.31226">
        <ele>1562.3</ele>
        <time>2024-07-10T05:50:06Z</time>
      </trkpt>
      <trkpt lat="47.14517" lon="9.31227">
        <ele>1562.2</ele>
        <time>2024-07-10T05:50:07Z</time>
      </trkpt>
      <trkpt lat="47.14519" lon="9.31227">
        <ele>1561.9</ele>
        <time>2024-07-10T05:50:09Z</time>
      </trkpt>
      <trkpt lat="47.1452" lon="9.31227">
        <ele>1561.5</ele>
        <time>2024-07-10T05:50:11Z</time>
      </trkpt>
      <trkpt lat="47.14521" lon="9.31227">
        <ele>1561.1</ele>
        <time>2024-07-10T05:50:13Z</time>
      </trkpt>
      <trkpt lat="47.14522" lon="9.31228">
        <ele>1560.9</ele>
        <time>2024-07-10T05:50:15Z</time>
      </trkpt>
      <trkpt lat="47.14523" lon="9.31229">
        <ele>1561</ele>
        <time>2024-07-10T05:50:17Z</time>
      </trkpt>
      <trkpt lat="47.14523" lon="9.31231">
        <ele>1561.3</ele>
        <time>2024-07-10T05:50:18Z</time>
      </trkpt>
      <trkpt lat="47.14524" lon="9.31233">
        <ele>1561.3</ele>
        <time>2024-07-10T05:50:19Z</time>
      </trkpt>
      <trkpt lat="47.14525" lon="9.31234">
        <ele>1561.4</ele>
        <time>2024-07-10T05:50:20Z</time>
      </trkpt>
      <trkpt lat="47.14526" lon="9.31235">
        <ele>1561.5</ele>
        <time>2024-07-10T05:50:21Z</time>
      </trkpt>
      <trkpt lat="47.14526" lon="9.31236">
        <ele>1561.9</ele>
        <time>2024-07-10T05:50:22Z</time>
      </trkpt>
      <trkpt lat="47.14527" lon="9.31237">
        <ele>1562</ele>
        <time>2024-07-10T05:50:23Z</time>
      </trkpt>
      <trkpt lat="47.14528" lon="9.31238">
        <ele>1562.1</ele>
        <time>2024-07-10T05:50:25Z</time>
      </trkpt>
      <trkpt lat="47.1453" lon="9.31239">
        <ele>1562.1</ele>
        <time>2024-07-10T05:50:26Z</time>
      </trkpt>
      <trkpt lat="47.14531" lon="9.3124">
        <ele>1563.3</ele>
        <time>2024-07-10T05:50:28Z</time>
      </trkpt>
      <trkpt lat="47.14533" lon="9.31241">
        <ele>1563.7</ele>
        <time>2024-07-10T05:50:30Z</time>
      </trkpt>
      <trkpt lat="47.14534" lon="9.31241">
        <ele>1564</ele>
        <time>2024-07-10T05:50:32Z</time>
      </trkpt>
      <trkpt lat="47.14535" lon="9.3124">
        <ele>1564.8</ele>
        <time>2024-07-10T05:50:34Z</time>
      </trkpt>
      <trkpt lat="47.14536" lon="9.31239">
        <ele>1565.1</ele>
        <time>2024-07-10T05:50:36Z</time>
      </trkpt>
      <trkpt lat="47.14536" lon="9.31238">
        <ele>1565.4</ele>
        <time>2024-07-10T05:50:38Z</time>
      </trkpt>
      <trkpt lat="47.14537" lon="9.31238">
        <ele>1565.4</ele>
        <time>2024-07-10T05:50:41Z</time>
      </trkpt>
      <trkpt lat="47.14539" lon="9.31239">
        <ele>1565.1</ele>
        <time>2024-07-10T05:50:45Z</time>
      </trkpt>
      <trkpt lat="47.14539" lon="9.3124">
        <ele>1565.2</ele>
        <time>2024-07-10T05:50:47Z</time>
      </trkpt>
      <trkpt lat="47.14541" lon="9.31242">
        <ele>1565.8</ele>
        <time>2024-07-10T05:50:50Z</time>
      </trkpt>
      <trkpt lat="47.14542" lon="9.31242">
        <ele>1566.1</ele>
        <time>2024-07-10T05:50:52Z</time>
      </trkpt>
      <trkpt lat="47.14543" lon="9.31243">
        <ele>1566.1</ele>
        <time>2024-07-10T05:50:55Z</time>
      </trkpt>
      <trkpt lat="47.14543" lon="9.31244">
        <ele>1566.3</ele>
        <time>2024-07-10T05:50:57Z</time>
      </trkpt>
      <trkpt lat="47.14544" lon="9.31245">
        <ele>1567.6</ele>
        <time>2024-07-10T05:51:01Z</time>
      </trkpt>
      <trkpt lat="47.14545" lon="9.31245">
        <ele>1568.9</ele>
        <time>2024-07-10T05:51:03Z</time>
      </trkpt>
      <trkpt lat="47.14544" lon="9.31244">
        <ele>1571.4</ele>
        <time>2024-07-10T05:51:04Z</time>
      </trkpt>
      <trkpt lat="47.14545" lon="9.31244">
        <ele>1571.4</ele>
        <time>2024-07-10T05:51:06Z</time>
      </trkpt>
      <trkpt lat="47.14546" lon="9.31243">
        <ele>1571.5</ele>
        <time>2024-07-10T05:51:08Z</time>
      </trkpt>
      <trkpt lat="47.14546" lon="9.31241">
        <ele>1572.9</ele>
        <time>2024-07-10T05:51:10Z</time>
      </trkpt>
      <trkpt lat="47.14546" lon="9.31238">
        <ele>1573.8</ele>
        <time>2024-07-10T05:51:13Z</time>
      </trkpt>
      <trkpt lat="47.14547" lon="9.31237">
        <ele>1574.2</ele>
        <time>2024-07-10T05:51:15Z</time>
      </trkpt>
      <trkpt lat="47.14547" lon="9.31237">
        <ele>1574.2</ele>
        <time>2024-07-10T05:51:16Z</time>
      </trkpt>
      <trkpt lat="47.14548" lon="9.31237">
        <ele>1574.6</ele>
        <time>2024-07-10T05:51:18Z</time>
      </trkpt>
      <trkpt lat="47.1455" lon="9.31236">
        <ele>1574.6</ele>
        <time>2024-07-10T05:51:20Z</time>
      </trkpt>
      <trkpt lat="47.1455" lon="9.31234">
        <ele>1574.7</ele>
        <time>2024-07-10T05:51:23Z</time>
      </trkpt>
      <trkpt lat="47.1455" lon="9.31232">
        <ele>1574.4</ele>
        <time>2024-07-10T05:51:25Z</time>
      </trkpt>
      <trkpt lat="47.14551" lon="9.31232">
        <ele>1574.2</ele>
        <time>2024-07-10T05:51:26Z</time>
      </trkpt>
      <trkpt lat="47.14552" lon="9.31231">
        <ele>1574.1</ele>
        <time>2024-07-10T05:51:28Z</time>
      </trkpt>
      <trkpt lat="47.14553" lon="9.31232">
        <ele>1573.9</ele>
        <time>2024-07-10T05:51:29Z</time>
      </trkpt>
      <trkpt lat="47.14555" lon="9.31232">
        <ele>1573.8</ele>
        <time>2024-07-10T05:51:31Z</time>
      </trkpt>
      <trkpt lat="47.14556" lon="9.31233">
        <ele>1574.6</ele>
        <time>2024-07-10T05:51:33Z</time>
      </trkpt>
      <trkpt lat="47.14556" lon="9.31231">
        <ele>1574.5</ele>
        <time>2024-07-10T05:51:35Z</time>
      </trkpt>
      <trkpt lat="47.14558" lon="9.31231">
        <ele>1574.6</ele>
        <time>2024-07-10T05:51:38Z</time>
      </trkpt>
      <trkpt lat="47.14559" lon="9.31231">
        <ele>1574.5</ele>
        <time>2024-07-10T05:51:40Z</time>
      </trkpt>
      <trkpt lat="47.1456" lon="9.3123">
        <ele>1574.3</ele>
        <time>2024-07-10T05:51:42Z</time>
      </trkpt>
      <trkpt lat="47.1456" lon="9.31231">
        <ele>1574.2</ele>
        <time>2024-07-10T05:51:44Z</time>
      </trkpt>
      <trkpt lat="47.14561" lon="9.3123">
        <ele>1576.2</ele>
        <time>2024-07-10T05:51:50Z</time>
      </trkpt>
      <trkpt lat="47.14562" lon="9.31231">
        <ele>1577.6</ele>
        <time>2024-07-10T05:51:53Z</time>
      </trkpt>
      <trkpt lat="47.14557" lon="9.31232">
        <ele>1584.9</ele>
        <time>2024-07-10T05:51:57Z</time>
      </trkpt>
      <trkpt lat="47.14558" lon="9.31233">
        <ele>1585.6</ele>
        <time>2024-07-10T05:51:59Z</time>
      </trkpt>
      <trkpt lat="47.1456" lon="9.31234">
        <ele>1586.2</ele>
        <time>2024-07-10T05:52:01Z</time>
      </trkpt>
      <trkpt lat="47.14561" lon="9.31235">
        <ele>1586.8</ele>
        <time>2024-07-10T05:52:03Z</time>
      </trkpt>
      <trkpt lat="47.14562" lon="9.31235">
        <ele>1587.2</ele>
        <time>2024-07-10T05:52:04Z</time>
      </trkpt>
      <trkpt lat="47.14563" lon="9.31237">
        <ele>1588</ele>
        <time>2024-07-10T05:52:07Z</time>
      </trkpt>
      <trkpt lat="47.14563" lon="9.31239">
        <ele>1588.3</ele>
        <time>2024-07-10T05:52:09Z</time>
      </trkpt>
      <trkpt lat="47.14564" lon="9.3124">
        <ele>1588.8</ele>
        <time>2024-07-10T05:52:11Z</time>
      </trkpt>
      <trkpt lat="47.14564" lon="9.31235">
        <ele>1591.3</ele>
        <time>2024-07-10T05:52:18Z</time>
      </trkpt>
      <trkpt lat="47.14562" lon="9.31234">
        <ele>1594.4</ele>
        <time>2024-07-10T05:52:19Z</time>
      </trkpt>
      <trkpt lat="47.14562" lon="9.31232">
        <ele>1594.6</ele>
        <time>2024-07-10T05:52:20Z</time>
      </trkpt>
      <trkpt lat="47.14562" lon="9.3123">
        <ele>1595.2</ele>
        <time>2024-07-10T05:52:22Z</time>
      </trkpt>
      <trkpt lat="47.14563" lon="9.3123">
        <ele>1595.7</ele>
        <time>2024-07-10T05:52:24Z</time>
      </trkpt>
      <trkpt lat="47.14565" lon="9.31229">
        <ele>1596.7</ele>
        <time>2024-07-10T05:52:26Z</time>
      </trkpt>
      <trkpt lat="47.14566" lon="9.3123">
        <ele>1597.5</ele>
        <time>2024-07-10T05:52:27Z</time>
      </trkpt>
      <trkpt lat="47.14567" lon="9.31231">
        <ele>1598.1</ele>
        <time>2024-07-10T05:52:30Z</time>
      </trkpt>
      <trkpt lat="47.14568" lon="9.3123">
        <ele>1597.9</ele>
        <time>2024-07-10T05:52:33Z</time>
      </trkpt>
      <trkpt lat="47.1457" lon="9.31229">
        <ele>1598.6</ele>
        <time>2024-07-10T05:52:41Z</time>
      </trkpt>
      <trkpt lat="47.14572" lon="9.31228">
        <ele>1598.4</ele>
        <time>2024-07-10T05:52:43Z</time>
      </trkpt>
      <trkpt lat="47.14572" lon="9.31227">
        <ele>1599.2</ele>
        <time>2024-07-10T05:52:46Z</time>
      </trkpt>
      <trkpt lat="47.14572" lon="9.31225">
        <ele>1598.9</ele>
        <time>2024-07-10T05:52:48Z</time>
      </trkpt>
      <trkpt lat="47.14573" lon="9.31224">
        <ele>1599</ele>
        <time>2024-07-10T05:52:50Z</time>
      </trkpt>
      <trkpt lat="47.14574" lon="9.31223">
        <ele>1598.8</ele>
        <time>2024-07-10T05:52:52Z</time>
      </trkpt>
      <trkpt lat="47.14574" lon="9.31221">
        <ele>1598.7</ele>
        <time>2024-07-10T05:52:54Z</time>
      </trkpt>
      <trkpt lat="47.14573" lon="9.3122">
        <ele>1598.7</ele>
        <time>2024-07-10T05:52:55Z</time>
      </trkpt>
      <trkpt lat="47.14573" lon="9.31218">
        <ele>1598.9</ele>
        <time>2024-07-10T05:52:57Z</time>
      </trkpt>
      <trkpt lat="47.14572" lon="9.31216">
        <ele>1599.2</ele>
        <time>2024-07-10T05:52:58Z</time>
      </trkpt>
      <trkpt lat="47.14572" lon="9.31214">
        <ele>1599.4</ele>
        <time>2024-07-10T05:53:02Z</time>
      </trkpt>
      <trkpt lat="47.14573" lon="9.31213">
        <ele>1599.6</ele>
        <time>2024-07-10T05:53:05Z</time>
      </trkpt>
      <trkpt lat="47.14573" lon="9.31211">
        <ele>1603.8</ele>
        <time>2024-07-10T05:53:18Z</time>
      </trkpt>
      <trkpt lat="47.14572" lon="9.3121">
        <ele>1604.2</ele>
        <time>2024-07-10T05:53:19Z</time>
      </trkpt>
      <trkpt lat="47.14572" lon="9.31208">
        <ele>1604.7</ele>
        <time>2024-07-10T05:53:20Z</time>
      </trkpt>
      <trkpt lat="47.1457" lon="9.31206">
        <ele>1605.3</ele>
        <time>2024-07-10T05:53:22Z</time>
      </trkpt>
      <trkpt lat="47.14569" lon="9.312">
        <ele>1608.9</ele>
        <time>2024-07-10T05:53:35Z</time>
      </trkpt>
      <trkpt lat="47.1457" lon="9.312">
        <ele>1609</ele>
        <time>2024-07-10T05:53:37Z</time>
      </trkpt>
      <trkpt lat="47.14571" lon="9.312">
        <ele>1609</ele>
        <time>2024-07-10T05:53:38Z</time>
      </trkpt>
      <trkpt lat="47.14572" lon="9.31198">
        <ele>1609.2</ele>
        <time>2024-07-10T05:53:40Z</time>
      </trkpt>
      <trkpt lat="47.14572" lon="9.31197">
        <ele>1609.2</ele>
        <time>2024-07-10T05:53:42Z</time>
      </trkpt>
      <trkpt lat="47.14573" lon="9.31196">
        <ele>1609.2</ele>
        <time>2024-07-10T05:53:43Z</time>
      </trkpt>
      <trkpt lat="47.14574" lon="9.31196">
        <ele>1609.3</ele>
        <time>2024-07-10T05:53:45Z</time>
      </trkpt>
      <trkpt lat="47.14574" lon="9.31195">
        <ele>1610.5</ele>
        <time>2024-07-10T05:53:49Z</time>
      </trkpt>
      <trkpt lat="47.14575" lon="9.31194">
        <ele>1610.5</ele>
        <time>2024-07-10T05:53:50Z</time>
      </trkpt>
      <trkpt lat="47.14575" lon="9.31192">
        <ele>1610.9</ele>
        <time>2024-07-10T05:53:52Z</time>
      </trkpt>
      <trkpt lat="47.14575" lon="9.3119">
        <ele>1611.4</ele>
        <time>2024-07-10T05:53:54Z</time>
      </trkpt>
      <trkpt lat="47.14574" lon="9.31188">
        <ele>1612.1</ele>
        <time>2024-07-10T05:53:56Z</time>
      </trkpt>
      <trkpt lat="47.14574" lon="9.31186">
        <ele>1612.3</ele>
        <time>2024-07-10T05:53:57Z</time>
      </trkpt>
      <trkpt lat="47.14574" lon="9.31184">
        <ele>1612.4</ele>
        <time>2024-07-10T05:53:59Z</time>
      </trkpt>
      <trkpt lat="47.14573" lon="9.31183">
        <ele>1612.5</ele>
        <time>2024-07-10T05:54:00Z</time>
      </trkpt>
      <trkpt lat="47.14573" lon="9.31181">
        <ele>1612.8</ele>
        <time>2024-07-10T05:54:02Z</time>
      </trkpt>
      <trkpt lat="47.14572" lon="9.3118">
        <ele>1613.2</ele>
        <time>2024-07-10T05:54:04Z</time>
      </trkpt>
      <trkpt lat="47.14573" lon="9.31177">
        <ele>1612.7</ele>
        <time>2024-07-10T05:54:06Z</time>
      </trkpt>
      <trkpt lat="47.14573" lon="9.31176">
        <ele>1612.6</ele>
        <time>2024-07-10T05:54:08Z</time>
      </trkpt>
      <trkpt lat="47.14573" lon="9.31174">
        <ele>1612.8</ele>
        <time>2024-07-10T05:54:11Z</time>
      </trkpt>
      <trkpt lat="47.14574" lon="9.31176">
        <ele>1613.2</ele>
        <time>2024-07-10T05:54:13Z</time>
      </trkpt>
      <trkpt lat="47.14575" lon="9.31177">
        <ele>1614.4</ele>
        <time>2024-07-10T05:54:14Z</time>
      </trkpt>
      <trkpt lat="47.14576" lon="9.31178">
        <ele>1615.7</ele>
        <time>2024-07-10T05:54:15Z</time>
      </trkpt>
      <trkpt lat="47.14577" lon="9.31179">
        <ele>1616</ele>
        <time>2024-07-10T05:54:16Z</time>
      </trkpt>
      <trkpt lat="47.14577" lon="9.31178">
        <ele>1617.4</ele>
        <time>2024-07-10T05:54:20Z</time>
      </trkpt>
      <trkpt lat="47.14577" lon="9.31177">
        <ele>1617.6</ele>
        <time>2024-07-10T05:54:21Z</time>
      </trkpt>
      <trkpt lat="47.14577" lon="9.31175">
        <ele>1618.1</ele>
        <time>2024-07-10T05:54:23Z</time>
      </trkpt>
      <trkpt lat="47.14577" lon="9.31174">
        <ele>1618.2</ele>
        <time>2024-07-10T05:54:24Z</time>
      </trkpt>
      <trkpt lat="47.14578" lon="9.31172">
        <ele>1618.2</ele>
        <time>2024-07-10T05:54:25Z</time>
      </trkpt>
      <trkpt lat="47.14578" lon="9.31171">
        <ele>1618.1</ele>
        <time>2024-07-10T05:54:26Z</time>
      </trkpt>
      <trkpt lat="47.14578" lon="9.3117">
        <ele>1618.2</ele>
        <time>2024-07-10T05:54:27Z</time>
      </trkpt>
      <trkpt lat="47.14579" lon="9.31169">
        <ele>1617.3</ele>
        <time>2024-07-10T05:54:28Z</time>
      </trkpt>
      <trkpt lat="47.1458" lon="9.31167">
        <ele>1617.2</ele>
        <time>2024-07-10T05:54:29Z</time>
      </trkpt>
      <trkpt lat="47.1458" lon="9.31165">
        <ele>1617.3</ele>
        <time>2024-07-10T05:54:30Z</time>
      </trkpt>
      <trkpt lat="47.14581" lon="9.31164">
        <ele>1617</ele>
        <time>2024-07-10T05:54:31Z</time>
      </trkpt>
      <trkpt lat="47.14582" lon="9.31162">
        <ele>1616.6</ele>
        <time>2024-07-10T05:54:33Z</time>
      </trkpt>
      <trkpt lat="47.14583" lon="9.31162">
        <ele>1616.5</ele>
        <time>2024-07-10T05:54:35Z</time>
      </trkpt>
      <trkpt lat="47.14585" lon="9.31163">
        <ele>1617.1</ele>
        <time>2024-07-10T05:54:38Z</time>
      </trkpt>
      <trkpt lat="47.14585" lon="9.31164">
        <ele>1617.4</ele>
        <time>2024-07-10T05:54:40Z</time>
      </trkpt>
      <trkpt lat="47.14585" lon="9.31166">
        <ele>1618</ele>
        <time>2024-07-10T05:54:42Z</time>
      </trkpt>
      <trkpt lat="47.14585" lon="9.31167">
        <ele>1619</ele>
        <time>2024-07-10T05:54:44Z</time>
      </trkpt>
      <trkpt lat="47.14586" lon="9.31168">
        <ele>1619.5</ele>
        <time>2024-07-10T05:54:46Z</time>
      </trkpt>
      <trkpt lat="47.14585" lon="9.3117">
        <ele>1619.8</ele>
        <time>2024-07-10T05:54:47Z</time>
      </trkpt>
      <trkpt lat="47.14585" lon="9.31172">
        <ele>1620.3</ele>
        <time>2024-07-10T05:54:48Z</time>
      </trkpt>
      <trkpt lat="47.14586" lon="9.31174">
        <ele>1620.8</ele>
        <time>2024-07-10T05:54:50Z</time>
      </trkpt>
      <trkpt lat="47.14587" lon="9.31176">
        <ele>1621</ele>
        <time>2024-07-10T05:54:52Z</time>
      </trkpt>
      <trkpt lat="47.14588" lon="9.31177">
        <ele>1621</ele>
        <time>2024-07-10T05:54:54Z</time>
      </trkpt>
      <trkpt lat="47.14589" lon="9.31177">
        <ele>1620.7</ele>
        <time>2024-07-10T05:54:56Z</time>
      </trkpt>
      <trkpt lat="47.1459" lon="9.31178">
        <ele>1621.6</ele>
        <time>2024-07-10T05:54:58Z</time>
      </trkpt>
      <trkpt lat="47.14591" lon="9.31179">
        <ele>1622.1</ele>
        <time>2024-07-10T05:54:59Z</time>
      </trkpt>
      <trkpt lat="47.14592" lon="9.31181">
        <ele>1621.8</ele>
        <time>2024-07-10T05:55:02Z</time>
      </trkpt>
      <trkpt lat="47.14593" lon="9.31184">
        <ele>1621.8</ele>
        <time>2024-07-10T05:55:03Z</time>
      </trkpt>
      <trkpt lat="47.14594" lon="9.31184">
        <ele>1621.6</ele>
        <time>2024-07-10T05:55:04Z</time>
      </trkpt>
      <trkpt lat="47.14595" lon="9.31184">
        <ele>1621.2</ele>
        <time>2024-07-10T05:55:06Z</time>
      </trkpt>
      <trkpt lat="47.14597" lon="9.31182">
        <ele>1621.3</ele>
        <time>2024-07-10T05:55:08Z</time>
      </trkpt>
      <trkpt lat="47.14597" lon="9.31181">
        <ele>1621.2</ele>
        <time>2024-07-10T05:55:09Z</time>
      </trkpt>
      <trkpt lat="47.14598" lon="9.31181">
        <ele>1620.6</ele>
        <time>2024-07-10T05:55:11Z</time>
      </trkpt>
      <trkpt lat="47.14599" lon="9.31181">
        <ele>1620.8</ele>
        <time>2024-07-10T05:55:12Z</time>
      </trkpt>
      <trkpt lat="47.14601" lon="9.31182">
        <ele>1620.7</ele>
        <time>2024-07-10T05:55:13Z</time>
      </trkpt>
      <trkpt lat="47.14603" lon="9.31183">
        <ele>1620.9</ele>
        <time>2024-07-10T05:55:14Z</time>
      </trkpt>
      <trkpt lat="47.14604" lon="9.31184">
        <ele>1621.1</ele>
        <time>2024-07-10T05:55:15Z</time>
      </trkpt>
      <trkpt lat="47.14606" lon="9.31185">
        <ele>1620.9</ele>
        <time>2024-07-10T05:55:16Z</time>
      </trkpt>
      <trkpt lat="47.14607" lon="9.31185">
        <ele>1620.8</ele>
        <time>2024-07-10T05:55:17Z</time>
      </trkpt>
      <trkpt lat="47.14607" lon="9.31186">
        <ele>1620.6</ele>
        <time>2024-07-10T05:55:18Z</time>
      </trkpt>
      <trkpt lat="47.14608" lon="9.31187">
        <ele>1620.3</ele>
        <time>2024-07-10T05:55:19Z</time>
      </trkpt>
      <trkpt lat="47.14609" lon="9.31188">
        <ele>1620.3</ele>
        <time>2024-07-10T05:55:20Z</time>
      </trkpt>
      <trkpt lat="47.1461" lon="9.31188">
        <ele>1620.9</ele>
        <time>2024-07-10T05:55:23Z</time>
      </trkpt>
      <trkpt lat="47.14612" lon="9.31188">
        <ele>1620.9</ele>
        <time>2024-07-10T05:55:25Z</time>
      </trkpt>
      <trkpt lat="47.14613" lon="9.31188">
        <ele>1620.6</ele>
        <time>2024-07-10T05:55:27Z</time>
      </trkpt>
      <trkpt lat="47.14613" lon="9.31189">
        <ele>1622.3</ele>
        <time>2024-07-10T05:55:30Z</time>
      </trkpt>
      <trkpt lat="47.14614" lon="9.31191">
        <ele>1624.4</ele>
        <time>2024-07-10T05:55:33Z</time>
      </trkpt>
      <trkpt lat="47.14614" lon="9.3119">
        <ele>1624.3</ele>
        <time>2024-07-10T05:55:34Z</time>
      </trkpt>
      <trkpt lat="47.14616" lon="9.31191">
        <ele>1624.1</ele>
        <time>2024-07-10T05:55:36Z</time>
      </trkpt>
      <trkpt lat="47.14617" lon="9.31191">
        <ele>1624.1</ele>
        <time>2024-07-10T05:55:37Z</time>
      </trkpt>
      <trkpt lat="47.14618" lon="9.31193">
        <ele>1624.1</ele>
        <time>2024-07-10T05:55:39Z</time>
      </trkpt>
      <trkpt lat="47.1462" lon="9.31193">
        <ele>1624.1</ele>
        <time>2024-07-10T05:55:41Z</time>
      </trkpt>
      <trkpt lat="47.1462" lon="9.31194">
        <ele>1624</ele>
        <time>2024-07-10T05:55:43Z</time>
      </trkpt>
      <trkpt lat="47.14621" lon="9.31196">
        <ele>1626.1</ele>
        <time>2024-07-10T05:55:44Z</time>
      </trkpt>
      <trkpt lat="47.14621" lon="9.31197">
        <ele>1626.6</ele>
        <time>2024-07-10T05:55:45Z</time>
      </trkpt>
      <trkpt lat="47.14622" lon="9.31199">
        <ele>1627.6</ele>
        <time>2024-07-10T05:55:47Z</time>
      </trkpt>
      <trkpt lat="47.14623" lon="9.31198">
        <ele>1628.3</ele>
        <time>2024-07-10T05:55:50Z</time>
      </trkpt>
      <trkpt lat="47.14624" lon="9.31197">
        <ele>1628.8</ele>
        <time>2024-07-10T05:55:52Z</time>
      </trkpt>
      <trkpt lat="47.14623" lon="9.31199">
        <ele>1631.5</ele>
        <time>2024-07-10T05:55:53Z</time>
      </trkpt>
      <trkpt lat="47.14623" lon="9.31201">
        <ele>1632.6</ele>
        <time>2024-07-10T05:55:54Z</time>
      </trkpt>
      <trkpt lat="47.14624" lon="9.31203">
        <ele>1632.4</ele>
        <time>2024-07-10T05:55:56Z</time>
      </trkpt>
      <trkpt lat="47.14625" lon="9.31203">
        <ele>1634.1</ele>
        <time>2024-07-10T05:55:59Z</time>
      </trkpt>
      <trkpt lat="47.14626" lon="9.31204">
        <ele>1634</ele>
        <time>2024-07-10T05:56:01Z</time>
      </trkpt>
      <trkpt lat="47.14627" lon="9.31206">
        <ele>1633.7</ele>
        <time>2024-07-10T05:56:03Z</time>
      </trkpt>
      <trkpt lat="47.14628" lon="9.31206">
        <ele>1633.6</ele>
        <time>2024-07-10T05:56:04Z</time>
      </trkpt>
      <trkpt lat="47.14629" lon="9.31207">
        <ele>1633.7</ele>
        <time>2024-07-10T05:56:06Z</time>
      </trkpt>
      <trkpt lat="47.1463" lon="9.31209">
        <ele>1633.8</ele>
        <time>2024-07-10T05:56:07Z</time>
      </trkpt>
      <trkpt lat="47.14631" lon="9.3121">
        <ele>1633.9</ele>
        <time>2024-07-10T05:56:08Z</time>
      </trkpt>
      <trkpt lat="47.14631" lon="9.31211">
        <ele>1634</ele>
        <time>2024-07-10T05:56:09Z</time>
      </trkpt>
      <trkpt lat="47.14631" lon="9.31213">
        <ele>1634.4</ele>
        <time>2024-07-10T05:56:11Z</time>
      </trkpt>
      <trkpt lat="47.14633" lon="9.31214">
        <ele>1634.7</ele>
        <time>2024-07-10T05:56:13Z</time>
      </trkpt>
      <trkpt lat="47.14633" lon="9.31215">
        <ele>1634.9</ele>
        <time>2024-07-10T05:56:14Z</time>
      </trkpt>
      <trkpt lat="47.14634" lon="9.31217">
        <ele>1634.9</ele>
        <time>2024-07-10T05:56:15Z</time>
      </trkpt>
      <trkpt lat="47.14636" lon="9.31219">
        <ele>1635.1</ele>
        <time>2024-07-10T05:56:17Z</time>
      </trkpt>
      <trkpt lat="47.14637" lon="9.31221">
        <ele>1635.4</ele>
        <time>2024-07-10T05:56:18Z</time>
      </trkpt>
      <trkpt lat="47.14637" lon="9.31223">
        <ele>1636.6</ele>
        <time>2024-07-10T05:56:20Z</time>
      </trkpt>
      <trkpt lat="47.14637" lon="9.31224">
        <ele>1637</ele>
        <time>2024-07-10T05:56:21Z</time>
      </trkpt>
      <trkpt lat="47.14638" lon="9.31225">
        <ele>1637.3</ele>
        <time>2024-07-10T05:56:23Z</time>
      </trkpt>
      <trkpt lat="47.14638" lon="9.31226">
        <ele>1637.4</ele>
        <time>2024-07-10T05:56:24Z</time>
      </trkpt>
      <trkpt lat="47.14639" lon="9.31228">
        <ele>1637.8</ele>
        <time>2024-07-10T05:56:26Z</time>
      </trkpt>
      <trkpt lat="47.1464" lon="9.31229">
        <ele>1638</ele>
        <time>2024-07-10T05:56:28Z</time>
      </trkpt>
      <trkpt lat="47.14641" lon="9.31231">
        <ele>1638.3</ele>
        <time>2024-07-10T05:56:30Z</time>
      </trkpt>
      <trkpt lat="47.14643" lon="9.31232">
        <ele>1640</ele>
        <time>2024-07-10T05:56:33Z</time>
      </trkpt>
      <trkpt lat="47.14643" lon="9.31231">
        <ele>1640.2</ele>
        <time>2024-07-10T05:56:34Z</time>
      </trkpt>
      <trkpt lat="47.14644" lon="9.31231">
        <ele>1640</ele>
        <time>2024-07-10T05:56:36Z</time>
      </trkpt>
      <trkpt lat="47.14645" lon="9.31233">
        <ele>1639.5</ele>
        <time>2024-07-10T05:56:37Z</time>
      </trkpt>
      <trkpt lat="47.14647" lon="9.31233">
        <ele>1638.8</ele>
        <time>2024-07-10T05:56:40Z</time>
      </trkpt>
      <trkpt lat="47.14648" lon="9.31232">
        <ele>1639.2</ele>
        <time>2024-07-10T05:56:46Z</time>
      </trkpt>
      <trkpt lat="47.14647" lon="9.31229">
        <ele>1640.2</ele>
        <time>2024-07-10T05:56:52Z</time>
      </trkpt>
      <trkpt lat="47.14646" lon="9.3123">
        <ele>1641.1</ele>
        <time>2024-07-10T05:56:54Z</time>
      </trkpt>
      <trkpt lat="47.14645" lon="9.3123">
        <ele>1641.7</ele>
        <time>2024-07-10T05:56:56Z</time>
      </trkpt>
      <trkpt lat="47.14644" lon="9.31233">
        <ele>1644.2</ele>
        <time>2024-07-10T05:56:59Z</time>
      </trkpt>
      <trkpt lat="47.14645" lon="9.31234">
        <ele>1645.4</ele>
        <time>2024-07-10T05:57:00Z</time>
      </trkpt>
      <trkpt lat="47.14645" lon="9.31235">
        <ele>1645.9</ele>
        <time>2024-07-10T05:57:01Z</time>
      </trkpt>
      <trkpt lat="47.14646" lon="9.31236">
        <ele>1647.2</ele>
        <time>2024-07-10T05:57:02Z</time>
      </trkpt>
      <trkpt lat="47.14647" lon="9.31237">
        <ele>1647.7</ele>
        <time>2024-07-10T05:57:03Z</time>
      </trkpt>
      <trkpt lat="47.14648" lon="9.31236">
        <ele>1647.8</ele>
        <time>2024-07-10T05:57:08Z</time>
      </trkpt>
      <trkpt lat="47.14647" lon="9.31238">
        <ele>1648.5</ele>
        <time>2024-07-10T05:57:10Z</time>
      </trkpt>
      <trkpt lat="47.14647" lon="9.31239">
        <ele>1649.1</ele>
        <time>2024-07-10T05:57:11Z</time>
      </trkpt>
      <trkpt lat="47.14648" lon="9.31237">
        <ele>1648.9</ele>
        <time>2024-07-10T05:57:16Z</time>
      </trkpt>
      <trkpt lat="47.14647" lon="9.31236">
        <ele>1648.7</ele>
        <time>2024-07-10T05:57:19Z</time>
      </trkpt>
      <trkpt lat="47.14651" lon="9.3124">
        <ele>1643.7</ele>
        <time>2024-07-10T05:57:36Z</time>
      </trkpt>
      <trkpt lat="47.14652" lon="9.31242">
        <ele>1644.3</ele>
        <time>2024-07-10T05:57:38Z</time>
      </trkpt>
      <trkpt lat="47.14653" lon="9.31244">
        <ele>1644.7</ele>
        <time>2024-07-10T05:57:41Z</time>
      </trkpt>
      <trkpt lat="47.14654" lon="9.31245">
        <ele>1644.9</ele>
        <time>2024-07-10T05:57:44Z</time>
      </trkpt>
      <trkpt lat="47.14656" lon="9.31246">
        <ele>1645</ele>
        <time>2024-07-10T05:57:45Z</time>
      </trkpt>
      <trkpt lat="47.14656" lon="9.31248">
        <ele>1646.2</ele>
        <time>2024-07-10T05:57:47Z</time>
      </trkpt>
      <trkpt lat="47.14656" lon="9.31249">
        <ele>1646.6</ele>
        <time>2024-07-10T05:57:49Z</time>
      </trkpt>
      <trkpt lat="47.14655" lon="9.31251">
        <ele>1648.1</ele>
        <time>2024-07-10T05:57:50Z</time>
      </trkpt>
      <trkpt lat="47.14654" lon="9.31252">
        <ele>1648.4</ele>
        <time>2024-07-10T05:57:52Z</time>
      </trkpt>
      <trkpt lat="47.14654" lon="9.31255">
        <ele>1648.7</ele>
        <time>2024-07-10T05:57:54Z</time>
      </trkpt>
      <trkpt lat="47.14655" lon="9.31256">
        <ele>1648.6</ele>
        <time>2024-07-10T05:57:56Z</time>
      </trkpt>
      <trkpt lat="47.14656" lon="9.31258">
        <ele>1648.6</ele>
        <time>2024-07-10T05:57:58Z</time>
      </trkpt>
      <trkpt lat="47.14658" lon="9.31258">
        <ele>1648.5</ele>
        <time>2024-07-10T05:58:00Z</time>
      </trkpt>
      <trkpt lat="47.14659" lon="9.31257">
        <ele>1648.3</ele>
        <time>2024-07-10T05:58:02Z</time>
      </trkpt>
      <trkpt lat="47.14659" lon="9.31255">
        <ele>1649.8</ele>
        <time>2024-07-10T05:58:04Z</time>
      </trkpt>
      <trkpt lat="47.14659" lon="9.31253">
        <ele>1649.8</ele>
        <time>2024-07-10T05:58:05Z</time>
      </trkpt>
      <trkpt lat="47.1466" lon="9.31254">
        <ele>1650.5</ele>
        <time>2024-07-10T05:58:10Z</time>
      </trkpt>
      <trkpt lat="47.14661" lon="9.31256">
        <ele>1650.3</ele>
        <time>2024-07-10T05:58:11Z</time>
      </trkpt>
      <trkpt lat="47.14663" lon="9.31256">
        <ele>1649.9</ele>
        <time>2024-07-10T05:58:13Z</time>
      </trkpt>
      <trkpt lat="47.14664" lon="9.31255">
        <ele>1649.9</ele>
        <time>2024-07-10T05:58:16Z</time>
      </trkpt>
      <trkpt lat="47.14665" lon="9.31256">
        <ele>1649.8</ele>
        <time>2024-07-10T05:58:17Z</time>
      </trkpt>
      <trkpt lat="47.14666" lon="9.31257">
        <ele>1650.3</ele>
        <time>2024-07-10T05:58:18Z</time>
      </trkpt>
      <trkpt lat="47.14666" lon="9.31259">
        <ele>1651.2</ele>
        <time>2024-07-10T05:58:19Z</time>
      </trkpt>
      <trkpt lat="47.14667" lon="9.3126">
        <ele>1650.2</ele>
        <time>2024-07-10T05:58:20Z</time>
      </trkpt>
      <trkpt lat="47.14668" lon="9.31261">
        <ele>1649.2</ele>
        <time>2024-07-10T05:58:21Z</time>
      </trkpt>
      <trkpt lat="47.14669" lon="9.31262">
        <ele>1649.4</ele>
        <time>2024-07-10T05:58:23Z</time>
      </trkpt>
      <trkpt lat="47.1467" lon="9.31263">
        <ele>1650</ele>
        <time>2024-07-10T05:58:25Z</time>
      </trkpt>
      <trkpt lat="47.14672" lon="9.31265">
        <ele>1650.5</ele>
        <time>2024-07-10T05:58:27Z</time>
      </trkpt>
      <trkpt lat="47.14673" lon="9.31266">
        <ele>1650.3</ele>
        <time>2024-07-10T05:58:28Z</time>
      </trkpt>
      <trkpt lat="47.14674" lon="9.31268">
        <ele>1651.3</ele>
        <time>2024-07-10T05:58:30Z</time>
      </trkpt>
      <trkpt lat="47.14676" lon="9.31269">
        <ele>1651.7</ele>
        <time>2024-07-10T05:58:32Z</time>
      </trkpt>
      <trkpt lat="47.14677" lon="9.3127">
        <ele>1652.8</ele>
        <time>2024-07-10T05:58:35Z</time>
      </trkpt>
      <trkpt lat="47.14678" lon="9.31269">
        <ele>1652.1</ele>
        <time>2024-07-10T05:58:38Z</time>
      </trkpt>
      <trkpt lat="47.14679" lon="9.31269">
        <ele>1651.8</ele>
        <time>2024-07-10T05:58:40Z</time>
      </trkpt>
      <trkpt lat="47.1468" lon="9.31271">
        <ele>1651.6</ele>
        <time>2024-07-10T05:58:41Z</time>
      </trkpt>
      <trkpt lat="47.14681" lon="9.31272">
        <ele>1652.1</ele>
        <time>2024-07-10T05:58:43Z</time>
      </trkpt>
      <trkpt lat="47.14683" lon="9.31271">
        <ele>1652</ele>
        <time>2024-07-10T05:58:45Z</time>
      </trkpt>
      <trkpt lat="47.14684" lon="9.31272">
        <ele>1652.6</ele>
        <time>2024-07-10T05:58:48Z</time>
      </trkpt>
      <trkpt lat="47.14685" lon="9.31274">
        <ele>1652.5</ele>
        <time>2024-07-10T05:58:50Z</time>
      </trkpt>
      <trkpt lat="47.14686" lon="9.31274">
        <ele>1653.4</ele>
        <time>2024-07-10T05:58:53Z</time>
      </trkpt>
      <trkpt lat="47.14686" lon="9.31271">
        <ele>1654.8</ele>
        <time>2024-07-10T05:58:56Z</time>
      </trkpt>
      <trkpt lat="47.14686" lon="9.31269">
        <ele>1655.2</ele>
        <time>2024-07-10T05:58:57Z</time>
      </trkpt>
      <trkpt lat="47.14685" lon="9.31265">
        <ele>1656.4</ele>
        <time>2024-07-10T05:58:58Z</time>
      </trkpt>
      <trkpt lat="47.14685" lon="9.31262">
        <ele>1656.9</ele>
        <time>2024-07-10T05:58:59Z</time>
      </trkpt>
      <trkpt lat="47.14685" lon="9.31261">
        <ele>1657.2</ele>
        <time>2024-07-10T05:59:00Z</time>
      </trkpt>
      <trkpt lat="47.14685" lon="9.31258">
        <ele>1658.4</ele>
        <time>2024-07-10T05:59:02Z</time>
      </trkpt>
      <trkpt lat="47.14684" lon="9.31256">
        <ele>1659.3</ele>
        <time>2024-07-10T05:59:04Z</time>
      </trkpt>
      <trkpt lat="47.14684" lon="9.31253">
        <ele>1659.8</ele>
        <time>2024-07-10T05:59:06Z</time>
      </trkpt>
      <trkpt lat="47.14684" lon="9.31251">
        <ele>1660.1</ele>
        <time>2024-07-10T05:59:08Z</time>
      </trkpt>
      <trkpt lat="47.14685" lon="9.31251">
        <ele>1660.8</ele>
        <time>2024-07-10T05:59:10Z</time>
      </trkpt>
      <trkpt lat="47.14686" lon="9.31251">
        <ele>1661.6</ele>
        <time>2024-07-10T05:59:12Z</time>
      </trkpt>
      <trkpt lat="47.14688" lon="9.31251">
        <ele>1661.7</ele>
        <time>2024-07-10T05:59:13Z</time>
      </trkpt>
      <trkpt lat="47.14688" lon="9.31252">
        <ele>1662</ele>
        <time>2024-07-10T05:59:14Z</time>
      </trkpt>
      <trkpt lat="47.14689" lon="9.31254">
        <ele>1662</ele>
        <time>2024-07-10T05:59:15Z</time>
      </trkpt>
      <trkpt lat="47.1469" lon="9.31253">
        <ele>1661.7</ele>
        <time>2024-07-10T05:59:16Z</time>
      </trkpt>
      <trkpt lat="47.14691" lon="9.31255">
        <ele>1661.5</ele>
        <time>2024-07-10T05:59:17Z</time>
      </trkpt>
      <trkpt lat="47.14693" lon="9.31257">
        <ele>1661.2</ele>
        <time>2024-07-10T05:59:20Z</time>
      </trkpt>
      <trkpt lat="47.14694" lon="9.31259">
        <ele>1661.3</ele>
        <time>2024-07-10T05:59:22Z</time>
      </trkpt>
      <trkpt lat="47.14695" lon="9.31259">
        <ele>1661.3</ele>
        <time>2024-07-10T05:59:25Z</time>
      </trkpt>
      <trkpt lat="47.14696" lon="9.3126">
        <ele>1661.8</ele>
        <time>2024-07-10T05:59:27Z</time>
      </trkpt>
      <trkpt lat="47.14696" lon="9.31262">
        <ele>1662.6</ele>
        <time>2024-07-10T05:59:29Z</time>
      </trkpt>
      <trkpt lat="47.14697" lon="9.31261">
        <ele>1663.7</ele>
        <time>2024-07-10T05:59:33Z</time>
      </trkpt>
      <trkpt lat="47.14698" lon="9.31259">
        <ele>1664.2</ele>
        <time>2024-07-10T05:59:35Z</time>
      </trkpt>
      <trkpt lat="47.14697" lon="9.31257">
        <ele>1665.6</ele>
        <time>2024-07-10T05:59:37Z</time>
      </trkpt>
      <trkpt lat="47.14697" lon="9.31255">
        <ele>1666.4</ele>
        <time>2024-07-10T05:59:39Z</time>
      </trkpt>
      <trkpt lat="47.14697" lon="9.31254">
        <ele>1667.2</ele>
        <time>2024-07-10T05:59:41Z</time>
      </trkpt>
      <trkpt lat="47.14697" lon="9.31252">
        <ele>1668.4</ele>
        <time>2024-07-10T05:59:43Z</time>
      </trkpt>
      <trkpt lat="47.14697" lon="9.3125">
        <ele>1669.3</ele>
        <time>2024-07-10T05:59:45Z</time>
      </trkpt>
      <trkpt lat="47.14698" lon="9.31252">
        <ele>1670.4</ele>
        <time>2024-07-10T05:59:49Z</time>
      </trkpt>
      <trkpt lat="47.14699" lon="9.31254">
        <ele>1671.1</ele>
        <time>2024-07-10T05:59:51Z</time>
      </trkpt>
      <trkpt lat="47.147" lon="9.31253">
        <ele>1671.4</ele>
        <time>2024-07-10T05:59:52Z</time>
      </trkpt>
      <trkpt lat="47.14701" lon="9.31254">
        <ele>1671.8</ele>
        <time>2024-07-10T05:59:54Z</time>
      </trkpt>
      <trkpt lat="47.14702" lon="9.31255">
        <ele>1672.2</ele>
        <time>2024-07-10T05:59:55Z</time>
      </trkpt>
      <trkpt lat="47.14703" lon="9.31256">
        <ele>1672.5</ele>
        <time>2024-07-10T05:59:56Z</time>
      </trkpt>
      <trkpt lat="47.14703" lon="9.31258">
        <ele>1672.8</ele>
        <time>2024-07-10T05:59:57Z</time>
      </trkpt>
      <trkpt lat="47.14704" lon="9.31259">
        <ele>1673.1</ele>
        <time>2024-07-10T05:59:59Z</time>
      </trkpt>
      <trkpt lat="47.14705" lon="9.3126">
        <ele>1673.2</ele>
        <time>2024-07-10T06:00:00Z</time>
      </trkpt>
      <trkpt lat="47.14706" lon="9.31263">
        <ele>1674.1</ele>
        <time>2024-07-10T06:00:06Z</time>
      </trkpt>
      <trkpt lat="47.14707" lon="9.31264">
        <ele>1674.3</ele>
        <time>2024-07-10T06:00:07Z</time>
      </trkpt>
      <trkpt lat="47.14708" lon="9.31266">
        <ele>1674.5</ele>
        <time>2024-07-10T06:00:09Z</time>
      </trkpt>
      <trkpt lat="47.14709" lon="9.31267">
        <ele>1674.4</ele>
        <time>2024-07-10T06:00:10Z</time>
      </trkpt>
      <trkpt lat="47.1471" lon="9.31269">
        <ele>1674.7</ele>
        <time>2024-07-10T06:00:11Z</time>
      </trkpt>
      <trkpt lat="47.14711" lon="9.3127">
        <ele>1674.9</ele>
        <time>2024-07-10T06:00:12Z</time>
      </trkpt>
      <trkpt lat="47.14712" lon="9.31269">
        <ele>1674.9</ele>
        <time>2024-07-10T06:00:15Z</time>
      </trkpt>
      <trkpt lat="47.14712" lon="9.31268">
        <ele>1675.4</ele>
        <time>2024-07-10T06:00:18Z</time>
      </trkpt>
      <trkpt lat="47.14712" lon="9.31265">
        <ele>1676</ele>
        <time>2024-07-10T06:00:20Z</time>
      </trkpt>
      <trkpt lat="47.14712" lon="9.31264">
        <ele>1676.2</ele>
        <time>2024-07-10T06:00:21Z</time>
      </trkpt>
      <trkpt lat="47.14712" lon="9.31262">
        <ele>1676.5</ele>
        <time>2024-07-10T06:00:22Z</time>
      </trkpt>
      <trkpt lat="47.14712" lon="9.31261">
        <ele>1677.4</ele>
        <time>2024-07-10T06:00:24Z</time>
      </trkpt>
      <trkpt lat="47.14714" lon="9.3126">
        <ele>1677.9</ele>
        <time>2024-07-10T06:00:27Z</time>
      </trkpt>
      <trkpt lat="47.14714" lon="9.31257">
        <ele>1678.6</ele>
        <time>2024-07-10T06:00:30Z</time>
      </trkpt>
      <trkpt lat="47.14714" lon="9.31256">
        <ele>1679.1</ele>
        <time>2024-07-10T06:00:34Z</time>
      </trkpt>
      <trkpt lat="47.14716" lon="9.31253">
        <ele>1679.4</ele>
        <time>2024-07-10T06:00:38Z</time>
      </trkpt>
      <trkpt lat="47.14717" lon="9.31252">
        <ele>1679.8</ele>
        <time>2024-07-10T06:00:40Z</time>
      </trkpt>
      <trkpt lat="47.14717" lon="9.31251">
        <ele>1680.1</ele>
        <time>2024-07-10T06:00:42Z</time>
      </trkpt>
      <trkpt lat="47.14717" lon="9.31248">
        <ele>1680.6</ele>
        <time>2024-07-10T06:00:44Z</time>
      </trkpt>
      <trkpt lat="47.14717" lon="9.31247">
        <ele>1680.8</ele>
        <time>2024-07-10T06:00:46Z</time>
      </trkpt>
      <trkpt lat="47.14718" lon="9.31245">
        <ele>1681</ele>
        <time>2024-07-10T06:00:48Z</time>
      </trkpt>
      <trkpt lat="47.14718" lon="9.31243">
        <ele>1681.5</ele>
        <time>2024-07-10T06:00:49Z</time>
      </trkpt>
      <trkpt lat="47.14719" lon="9.31243">
        <ele>1682.6</ele>
        <time>2024-07-10T06:00:51Z</time>
      </trkpt>
      <trkpt lat="47.1472" lon="9.31241">
        <ele>1683.5</ele>
        <time>2024-07-10T06:00:53Z</time>
      </trkpt>
      <trkpt lat="47.1472" lon="9.3124">
        <ele>1684.7</ele>
        <time>2024-07-10T06:00:54Z</time>
      </trkpt>
      <trkpt lat="47.1472" lon="9.31237">
        <ele>1686</ele>
        <time>2024-07-10T06:00:57Z</time>
      </trkpt>
      <trkpt lat="47.1472" lon="9.31234">
        <ele>1686.6</ele>
        <time>2024-07-10T06:00:59Z</time>
      </trkpt>
      <trkpt lat="47.1472" lon="9.31233">
        <ele>1686.9</ele>
        <time>2024-07-10T06:01:00Z</time>
      </trkpt>
      <trkpt lat="47.1472" lon="9.3123">
        <ele>1687.9</ele>
        <time>2024-07-10T06:01:01Z</time>
      </trkpt>
      <trkpt lat="47.1472" lon="9.31228">
        <ele>1689.2</ele>
        <time>2024-07-10T06:01:02Z</time>
      </trkpt>
      <trkpt lat="47.1472" lon="9.31227">
        <ele>1689.3</ele>
        <time>2024-07-10T06:01:03Z</time>
      </trkpt>
      <trkpt lat="47.14721" lon="9.31226">
        <ele>1689.8</ele>
        <time>2024-07-10T06:01:05Z</time>
      </trkpt>
      <trkpt lat="47.14722" lon="9.31225">
        <ele>1690</ele>
        <time>2024-07-10T06:01:06Z</time>
      </trkpt>
      <trkpt lat="47.14723" lon="9.31225">
        <ele>1690.8</ele>
        <time>2024-07-10T06:01:09Z</time>
      </trkpt>
      <trkpt lat="47.14724" lon="9.31225">
        <ele>1691.2</ele>
        <time>2024-07-10T06:01:11Z</time>
      </trkpt>
      <trkpt lat="47.14725" lon="9.31226">
        <ele>1691.7</ele>
        <time>2024-07-10T06:01:13Z</time>
      </trkpt>
      <trkpt lat="47.14726" lon="9.31227">
        <ele>1692.4</ele>
        <time>2024-07-10T06:01:15Z</time>
      </trkpt>
      <trkpt lat="47.14727" lon="9.31228">
        <ele>1692.8</ele>
        <time>2024-07-10T06:01:16Z</time>
      </trkpt>
      <trkpt lat="47.14727" lon="9.3123">
        <ele>1693.1</ele>
        <time>2024-07-10T06:01:17Z</time>
      </trkpt>
      <trkpt lat="47.14728" lon="9.31231">
        <ele>1694.1</ele>
        <time>2024-07-10T06:01:19Z</time>
      </trkpt>
      <trkpt lat="47.1473" lon="9.31234">
        <ele>1695</ele>
        <time>2024-07-10T06:01:21Z</time>
      </trkpt>
      <trkpt lat="47.14729" lon="9.31235">
        <ele>1697.7</ele>
        <time>2024-07-10T06:01:22Z</time>
      </trkpt>
      <trkpt lat="47.14729" lon="9.31236">
        <ele>1698.8</ele>
        <time>2024-07-10T06:01:25Z</time>
      </trkpt>
      <trkpt lat="47.14729" lon="9.31237">
        <ele>1699.4</ele>
        <time>2024-07-10T06:01:26Z</time>
      </trkpt>
      <trkpt lat="47.1473" lon="9.31239">
        <ele>1700.7</ele>
        <time>2024-07-10T06:01:28Z</time>
      </trkpt>
      <trkpt lat="47.1473" lon="9.3124">
        <ele>1701.2</ele>
        <time>2024-07-10T06:01:29Z</time>
      </trkpt>
      <trkpt lat="47.14731" lon="9.31242">
        <ele>1702.2</ele>
        <time>2024-07-10T06:01:31Z</time>
      </trkpt>
      <trkpt lat="47.14732" lon="9.31243">
        <ele>1702.7</ele>
        <time>2024-07-10T06:01:33Z</time>
      </trkpt>
      <trkpt lat="47.14732" lon="9.31244">
        <ele>1703.1</ele>
        <time>2024-07-10T06:01:35Z</time>
      </trkpt>
      <trkpt lat="47.14734" lon="9.31243">
        <ele>1703.9</ele>
        <time>2024-07-10T06:01:38Z</time>
      </trkpt>
      <trkpt lat="47.14735" lon="9.31241">
        <ele>1703.8</ele>
        <time>2024-07-10T06:01:40Z</time>
      </trkpt>
      <trkpt lat="47.14736" lon="9.3124">
        <ele>1703.9</ele>
        <time>2024-07-10T06:01:42Z</time>
      </trkpt>
      <trkpt lat="47.14737" lon="9.31238">
        <ele>1704.1</ele>
        <time>2024-07-10T06:01:45Z</time>
      </trkpt>
      <trkpt lat="47.14737" lon="9.31237">
        <ele>1704.7</ele>
        <time>2024-07-10T06:01:47Z</time>
      </trkpt>
      <trkpt lat="47.14737" lon="9.31235">
        <ele>1705.2</ele>
        <time>2024-07-10T06:01:49Z</time>
      </trkpt>
      <trkpt lat="47.14736" lon="9.31234">
        <ele>1705.5</ele>
        <time>2024-07-10T06:01:50Z</time>
      </trkpt>
      <trkpt lat="47.14737" lon="9.31232">
        <ele>1705.7</ele>
        <time>2024-07-10T06:01:51Z</time>
      </trkpt>
      <trkpt lat="47.14737" lon="9.3123">
        <ele>1705.9</ele>
        <time>2024-07-10T06:01:53Z</time>
      </trkpt>
      <trkpt lat="47.14738" lon="9.31228">
        <ele>1706.2</ele>
        <time>2024-07-10T06:01:54Z</time>
      </trkpt>
      <trkpt lat="47.14738" lon="9.31229">
        <ele>1706.5</ele>
        <time>2024-07-10T06:01:56Z</time>
      </trkpt>
      <trkpt lat="47.14738" lon="9.31232">
        <ele>1707.3</ele>
        <time>2024-07-10T06:01:58Z</time>
      </trkpt>
      <trkpt lat="47.14739" lon="9.31233">
        <ele>1707.5</ele>
        <time>2024-07-10T06:02:00Z</time>
      </trkpt>
      <trkpt lat="47.1474" lon="9.31231">
        <ele>1708.7</ele>
        <time>2024-07-10T06:02:04Z</time>
      </trkpt>
      <trkpt lat="47.14741" lon="9.3123">
        <ele>1709</ele>
        <time>2024-07-10T06:02:05Z</time>
      </trkpt>
      <trkpt lat="47.14741" lon="9.31231">
        <ele>1709.8</ele>
        <time>2024-07-10T06:02:09Z</time>
      </trkpt>
      <trkpt lat="47.14743" lon="9.31233">
        <ele>1710.1</ele>
        <time>2024-07-10T06:02:11Z</time>
      </trkpt>
      <trkpt lat="47.14744" lon="9.31235">
        <ele>1710.2</ele>
        <time>2024-07-10T06:02:13Z</time>
      </trkpt>
      <trkpt lat="47.14744" lon="9.31236">
        <ele>1711.3</ele>
        <time>2024-07-10T06:02:14Z</time>
      </trkpt>
      <trkpt lat="47.14744" lon="9.31238">
        <ele>1713.5</ele>
        <time>2024-07-10T06:02:18Z</time>
      </trkpt>
      <trkpt lat="47.14744" lon="9.3124">
        <ele>1713.8</ele>
        <time>2024-07-10T06:02:19Z</time>
      </trkpt>
      <trkpt lat="47.14744" lon="9.31241">
        <ele>1714.2</ele>
        <time>2024-07-10T06:02:22Z</time>
      </trkpt>
      <trkpt lat="47.14745" lon="9.31242">
        <ele>1714.5</ele>
        <time>2024-07-10T06:02:23Z</time>
      </trkpt>
      <trkpt lat="47.14745" lon="9.31244">
        <ele>1715.1</ele>
        <time>2024-07-10T06:02:25Z</time>
      </trkpt>
      <trkpt lat="47.14745" lon="9.31246">
        <ele>1715.6</ele>
        <time>2024-07-10T06:02:27Z</time>
      </trkpt>
      <trkpt lat="47.14744" lon="9.31247">
        <ele>1716.6</ele>
        <time>2024-07-10T06:02:28Z</time>
      </trkpt>
      <trkpt lat="47.14743" lon="9.31249">
        <ele>1719.2</ele>
        <time>2024-07-10T06:02:31Z</time>
      </trkpt>
      <trkpt lat="47.14743" lon="9.31251">
        <ele>1719.7</ele>
        <time>2024-07-10T06:02:33Z</time>
      </trkpt>
      <trkpt lat="47.14744" lon="9.31252">
        <ele>1720.4</ele>
        <time>2024-07-10T06:02:35Z</time>
      </trkpt>
      <trkpt lat="47.14745" lon="9.31252">
        <ele>1720.4</ele>
        <time>2024-07-10T06:02:38Z</time>
      </trkpt>
      <trkpt lat="47.14746" lon="9.31253">
        <ele>1720.9</ele>
        <time>2024-07-10T06:02:39Z</time>
      </trkpt>
      <trkpt lat="47.14746" lon="9.31255">
        <ele>1721.3</ele>
        <time>2024-07-10T06:02:41Z</time>
      </trkpt>
      <trkpt lat="47.14746" lon="9.31257">
        <ele>1722.7</ele>
        <time>2024-07-10T06:02:42Z</time>
      </trkpt>
      <trkpt lat="47.14747" lon="9.31258">
        <ele>1723.1</ele>
        <time>2024-07-10T06:02:43Z</time>
      </trkpt>
      <trkpt lat="47.14747" lon="9.3126">
        <ele>1723.5</ele>
        <time>2024-07-10T06:02:44Z</time>
      </trkpt>
      <trkpt lat="47.14748" lon="9.31261">
        <ele>1726</ele>
        <time>2024-07-10T06:02:47Z</time>
      </trkpt>
      <trkpt lat="47.14748" lon="9.31262">
        <ele>1726.5</ele>
        <time>2024-07-10T06:02:49Z</time>
      </trkpt>
      <trkpt lat="47.14749" lon="9.31263">
        <ele>1726.5</ele>
        <time>2024-07-10T06:02:50Z</time>
      </trkpt>
      <trkpt lat="47.1475" lon="9.31264">
        <ele>1727.8</ele>
        <time>2024-07-10T06:02:52Z</time>
      </trkpt>
      <trkpt lat="47.14752" lon="9.31265">
        <ele>1728</ele>
        <time>2024-07-10T06:02:57Z</time>
      </trkpt>
      <trkpt lat="47.14753" lon="9.31266">
        <ele>1727.8</ele>
        <time>2024-07-10T06:02:58Z</time>
      </trkpt>
      <trkpt lat="47.14754" lon="9.31267">
        <ele>1727.6</ele>
        <time>2024-07-10T06:02:59Z</time>
      </trkpt>
      <trkpt lat="47.14755" lon="9.31268">
        <ele>1727.2</ele>
        <time>2024-07-10T06:03:01Z</time>
      </trkpt>
      <trkpt lat="47.14756" lon="9.31269">
        <ele>1727.2</ele>
        <time>2024-07-10T06:03:02Z</time>
      </trkpt>
      <trkpt lat="47.14757" lon="9.31271">
        <ele>1727.3</ele>
        <time>2024-07-10T06:03:04Z</time>
      </trkpt>
      <trkpt lat="47.14758" lon="9.31272">
        <ele>1727.8</ele>
        <time>2024-07-10T06:03:06Z</time>
      </trkpt>
      <trkpt lat="47.14759" lon="9.31275">
        <ele>1728.4</ele>
        <time>2024-07-10T06:03:08Z</time>
      </trkpt>
      <trkpt lat="47.14759" lon="9.31277">
        <ele>1729.2</ele>
        <time>2024-07-10T06:03:10Z</time>
      </trkpt>
      <trkpt lat="47.1476" lon="9.31278">
        <ele>1729.9</ele>
        <time>2024-07-10T06:03:12Z</time>
      </trkpt>
      <trkpt lat="47.1476" lon="9.3128">
        <ele>1730.6</ele>
        <time>2024-07-10T06:03:14Z</time>
      </trkpt>
      <trkpt lat="47.1476" lon="9.31281">
        <ele>1730.5</ele>
        <time>2024-07-10T06:03:16Z</time>
      </trkpt>
      <trkpt lat="47.14761" lon="9.31283">
        <ele>1732.4</ele>
        <time>2024-07-10T06:03:24Z</time>
      </trkpt>
      <trkpt lat="47.14762" lon="9.31284">
        <ele>1733</ele>
        <time>2024-07-10T06:03:26Z</time>
      </trkpt>
      <trkpt lat="47.14762" lon="9.31285">
        <ele>1733.3</ele>
        <time>2024-07-10T06:03:27Z</time>
      </trkpt>
      <trkpt lat="47.14762" lon="9.31287">
        <ele>1733.6</ele>
        <time>2024-07-10T06:03:28Z</time>
      </trkpt>
      <trkpt lat="47.14762" lon="9.31288">
        <ele>1734.1</ele>
        <time>2024-07-10T06:03:29Z</time>
      </trkpt>
      <trkpt lat="47.14763" lon="9.31289">
        <ele>1734.8</ele>
        <time>2024-07-10T06:03:31Z</time>
      </trkpt>
      <trkpt lat="47.14763" lon="9.31291">
        <ele>1735.4</ele>
        <time>2024-07-10T06:03:33Z</time>
      </trkpt>
      <trkpt lat="47.14763" lon="9.31292">
        <ele>1735.7</ele>
        <time>2024-07-10T06:03:34Z</time>
      </trkpt>
      <trkpt lat="47.14764" lon="9.31294">
        <ele>1736.4</ele>
        <time>2024-07-10T06:03:36Z</time>
      </trkpt>
      <trkpt lat="47.14765" lon="9.31296">
        <ele>1736.6</ele>
        <time>2024-07-10T06:03:37Z</time>
      </trkpt>
      <trkpt lat="47.14766" lon="9.31298">
        <ele>1737</ele>
        <time>2024-07-10T06:03:39Z</time>
      </trkpt>
      <trkpt lat="47.14765" lon="9.31299">
        <ele>1737.1</ele>
        <time>2024-07-10T06:03:41Z</time>
      </trkpt>
      <trkpt lat="47.14765" lon="9.313">
        <ele>1737.5</ele>
        <time>2024-07-10T06:03:43Z</time>
      </trkpt>
      <trkpt lat="47.14767" lon="9.31301">
        <ele>1738.2</ele>
        <time>2024-07-10T06:03:46Z</time>
      </trkpt>
      <trkpt lat="47.14769" lon="9.31301">
        <ele>1738.8</ele>
        <time>2024-07-10T06:03:48Z</time>
      </trkpt>
      <trkpt lat="47.14771" lon="9.31302">
        <ele>1739.3</ele>
        <time>2024-07-10T06:03:50Z</time>
      </trkpt>
      <trkpt lat="47.14771" lon="9.31301">
        <ele>1740.2</ele>
        <time>2024-07-10T06:03:52Z</time>
      </trkpt>
      <trkpt lat="47.14772" lon="9.313">
        <ele>1740.7</ele>
        <time>2024-07-10T06:03:54Z</time>
      </trkpt>
      <trkpt lat="47.14774" lon="9.313">
        <ele>1740.9</ele>
        <time>2024-07-10T06:03:56Z</time>
      </trkpt>
      <trkpt lat="47.14775" lon="9.313">
        <ele>1740.9</ele>
        <time>2024-07-10T06:03:58Z</time>
      </trkpt>
      <trkpt lat="47.14776" lon="9.313">
        <ele>1741.1</ele>
        <time>2024-07-10T06:03:59Z</time>
      </trkpt>
      <trkpt lat="47.14777" lon="9.313">
        <ele>1741.2</ele>
        <time>2024-07-10T06:04:01Z</time>
      </trkpt>
      <trkpt lat="47.14778" lon="9.31297">
        <ele>1741.5</ele>
        <time>2024-07-10T06:04:03Z</time>
      </trkpt>
      <trkpt lat="47.14779" lon="9.31296">
        <ele>1741.7</ele>
        <time>2024-07-10T06:04:04Z</time>
      </trkpt>
      <trkpt lat="47.14779" lon="9.31294">
        <ele>1742.1</ele>
        <time>2024-07-10T06:04:06Z</time>
      </trkpt>
      <trkpt lat="47.14779" lon="9.31293">
        <ele>1742.7</ele>
        <time>2024-07-10T06:04:09Z</time>
      </trkpt>
      <trkpt lat="47.14778" lon="9.31291">
        <ele>1742.8</ele>
        <time>2024-07-10T06:04:10Z</time>
      </trkpt>
      <trkpt lat="47.14779" lon="9.3129">
        <ele>1742.6</ele>
        <time>2024-07-10T06:04:12Z</time>
      </trkpt>
      <trkpt lat="47.14779" lon="9.31288">
        <ele>1742.8</ele>
        <time>2024-07-10T06:04:14Z</time>
      </trkpt>
      <trkpt lat="47.14779" lon="9.31285">
        <ele>1743.8</ele>
        <time>2024-07-10T06:04:17Z</time>
      </trkpt>
      <trkpt lat="47.14779" lon="9.31284">
        <ele>1744.2</ele>
        <time>2024-07-10T06:04:18Z</time>
      </trkpt>
      <trkpt lat="47.14778" lon="9.31283">
        <ele>1745.1</ele>
        <time>2024-07-10T06:04:21Z</time>
      </trkpt>
      <trkpt lat="47.14803" lon="9.31199">
        <ele>1772.5</ele>
        <time>2024-07-10T06:05:57Z</time>
      </trkpt>
      <trkpt lat="47.14805" lon="9.31198">
        <ele>1772</ele>
        <time>2024-07-10T06:05:59Z</time>
      </trkpt>
      <trkpt lat="47.14806" lon="9.31198">
        <ele>1771.8</ele>
        <time>2024-07-10T06:06:00Z</time>
      </trkpt>
      <trkpt lat="47.14807" lon="9.31197">
        <ele>1771.3</ele>
        <time>2024-07-10T06:06:02Z</time>
      </trkpt>
      <trkpt lat="47.14807" lon="9.31196">
        <ele>1771.2</ele>
        <time>2024-07-10T06:06:05Z</time>
      </trkpt>
      <trkpt lat="47.14808" lon="9.31196">
        <ele>1770.8</ele>
        <time>2024-07-10T06:06:07Z</time>
      </trkpt>
      <trkpt lat="47.1481" lon="9.31194">
        <ele>1770.5</ele>
        <time>2024-07-10T06:06:09Z</time>
      </trkpt>
      <trkpt lat="47.14811" lon="9.31193">
        <ele>1770.4</ele>
        <time>2024-07-10T06:06:10Z</time>
      </trkpt>
      <trkpt lat="47.14812" lon="9.31192">
        <ele>1770.6</ele>
        <time>2024-07-10T06:06:11Z</time>
      </trkpt>
      <trkpt lat="47.14812" lon="9.31191">
        <ele>1770.3</ele>
        <time>2024-07-10T06:06:12Z</time>
      </trkpt>
      <trkpt lat="47.14813" lon="9.3119">
        <ele>1771.5</ele>
        <time>2024-07-10T06:06:14Z</time>
      </trkpt>
      <trkpt lat="47.14814" lon="9.31187">
        <ele>1772</ele>
        <time>2024-07-10T06:06:16Z</time>
      </trkpt>
      <trkpt lat="47.14814" lon="9.31186">
        <ele>1772</ele>
        <time>2024-07-10T06:06:18Z</time>
      </trkpt>
      <trkpt lat="47.14814" lon="9.31184">
        <ele>1772.6</ele>
        <time>2024-07-10T06:06:19Z</time>
      </trkpt>
      <trkpt lat="47.14815" lon="9.31183">
        <ele>1772.9</ele>
        <time>2024-07-10T06:06:21Z</time>
      </trkpt>
      <trkpt lat="47.14816" lon="9.31181">
        <ele>1773.5</ele>
        <time>2024-07-10T06:06:23Z</time>
      </trkpt>
      <trkpt lat="47.14817" lon="9.3118">
        <ele>1773.7</ele>
        <time>2024-07-10T06:06:25Z</time>
      </trkpt>
      <trkpt lat="47.14818" lon="9.31179">
        <ele>1773.9</ele>
        <time>2024-07-10T06:06:27Z</time>
      </trkpt>
      <trkpt lat="47.14818" lon="9.31177">
        <ele>1775.2</ele>
        <time>2024-07-10T06:06:29Z</time>
      </trkpt>
      <trkpt lat="47.14819" lon="9.31175">
        <ele>1775</ele>
        <time>2024-07-10T06:06:31Z</time>
      </trkpt>
      <trkpt lat="47.14819" lon="9.31173">
        <ele>1776</ele>
        <time>2024-07-10T06:06:33Z</time>
      </trkpt>
      <trkpt lat="47.1482" lon="9.31172">
        <ele>1776.1</ele>
        <time>2024-07-10T06:06:35Z</time>
      </trkpt>
      <trkpt lat="47.1482" lon="9.31171">
        <ele>1776</ele>
        <time>2024-07-10T06:06:37Z</time>
      </trkpt>
      <trkpt lat="47.14822" lon="9.3117">
        <ele>1775.6</ele>
        <time>2024-07-10T06:06:39Z</time>
      </trkpt>
      <trkpt lat="47.14822" lon="9.31169">
        <ele>1776.2</ele>
        <time>2024-07-10T06:06:41Z</time>
      </trkpt>
      <trkpt lat="47.14822" lon="9.31167">
        <ele>1776.4</ele>
        <time>2024-07-10T06:06:42Z</time>
      </trkpt>
      <trkpt lat="47.14821" lon="9.31165">
        <ele>1776.5</ele>
        <time>2024-07-10T06:06:44Z</time>
      </trkpt>
      <trkpt lat="47.1482" lon="9.31163">
        <ele>1777.1</ele>
        <time>2024-07-10T06:06:45Z</time>
      </trkpt>
      <trkpt lat="47.14819" lon="9.31161">
        <ele>1777.7</ele>
        <time>2024-07-10T06:06:46Z</time>
      </trkpt>
      <trkpt lat="47.14819" lon="9.3116">
        <ele>1778.3</ele>
        <time>2024-07-10T06:06:48Z</time>
      </trkpt>
      <trkpt lat="47.14819" lon="9.31157">
        <ele>1778.7</ele>
        <time>2024-07-10T06:06:50Z</time>
      </trkpt>
      <trkpt lat="47.14818" lon="9.31155">
        <ele>1779.1</ele>
        <time>2024-07-10T06:06:52Z</time>
      </trkpt>
      <trkpt lat="47.14818" lon="9.31153">
        <ele>1779.1</ele>
        <time>2024-07-10T06:06:53Z</time>
      </trkpt>
      <trkpt lat="47.14818" lon="9.31152">
        <ele>1779.4</ele>
        <time>2024-07-10T06:06:55Z</time>
      </trkpt>
      <trkpt lat="47.14818" lon="9.3115">
        <ele>1780</ele>
        <time>2024-07-10T06:06:57Z</time>
      </trkpt>
      <trkpt lat="47.14817" lon="9.31147">
        <ele>1780.4</ele>
        <time>2024-07-10T06:06:59Z</time>
      </trkpt>
      <trkpt lat="47.14817" lon="9.31146">
        <ele>1780.6</ele>
        <time>2024-07-10T06:07:00Z</time>
      </trkpt>
      <trkpt lat="47.14816" lon="9.31145">
        <ele>1781.1</ele>
        <time>2024-07-10T06:07:01Z</time>
      </trkpt>
      <trkpt lat="47.14816" lon="9.31143">
        <ele>1781.1</ele>
        <time>2024-07-10T06:07:02Z</time>
      </trkpt>
      <trkpt lat="47.14815" lon="9.31141">
        <ele>1781</ele>
        <time>2024-07-10T06:07:03Z</time>
      </trkpt>
      <trkpt lat="47.14815" lon="9.3114">
        <ele>1780.8</ele>
        <time>2024-07-10T06:07:04Z</time>
      </trkpt>
      <trkpt lat="47.14814" lon="9.31138">
        <ele>1780.9</ele>
        <time>2024-07-10T06:07:06Z</time>
      </trkpt>
      <trkpt lat="47.14814" lon="9.31137">
        <ele>1781</ele>
        <time>2024-07-10T06:07:07Z</time>
      </trkpt>
      <trkpt lat="47.14813" lon="9.31134">
        <ele>1781.3</ele>
        <time>2024-07-10T06:07:08Z</time>
      </trkpt>
      <trkpt lat="47.14812" lon="9.31132">
        <ele>1782.5</ele>
        <time>2024-07-10T06:07:09Z</time>
      </trkpt>
      <trkpt lat="47.14812" lon="9.31131">
        <ele>1782.7</ele>
        <time>2024-07-10T06:07:10Z</time>
      </trkpt>
      <trkpt lat="47.14811" lon="9.31129">
        <ele>1783.5</ele>
        <time>2024-07-10T06:07:12Z</time>
      </trkpt>
      <trkpt lat="47.14811" lon="9.31126">
        <ele>1783.7</ele>
        <time>2024-07-10T06:07:14Z</time>
      </trkpt>
      <trkpt lat="47.14811" lon="9.31125">
        <ele>1784.3</ele>
        <time>2024-07-10T06:07:17Z</time>
      </trkpt>
      <trkpt lat="47.1481" lon="9.31124">
        <ele>1784.5</ele>
        <time>2024-07-10T06:07:18Z</time>
      </trkpt>
      <trkpt lat="47.14809" lon="9.31123">
        <ele>1784.2</ele>
        <time>2024-07-10T06:07:19Z</time>
      </trkpt>
      <trkpt lat="47.14808" lon="9.31122">
        <ele>1783.7</ele>
        <time>2024-07-10T06:07:21Z</time>
      </trkpt>
      <trkpt lat="47.14808" lon="9.3112">
        <ele>1782.8</ele>
        <time>2024-07-10T06:07:23Z</time>
      </trkpt>
      <trkpt lat="47.14807" lon="9.31118">
        <ele>1782</ele>
        <time>2024-07-10T06:07:25Z</time>
      </trkpt>
      <trkpt lat="47.14807" lon="9.31116">
        <ele>1781.9</ele>
        <time>2024-07-10T06:07:28Z</time>
      </trkpt>
      <trkpt lat="47.14808" lon="9.31115">
        <ele>1781.6</ele>
        <time>2024-07-10T06:07:31Z</time>
      </trkpt>
      <trkpt lat="47.14807" lon="9.31114">
        <ele>1782.7</ele>
        <time>2024-07-10T06:07:36Z</time>
      </trkpt>
      <trkpt lat="47.14807" lon="9.31115">
        <ele>1783.3</ele>
        <time>2024-07-10T06:07:42Z</time>
      </trkpt>
      <trkpt lat="47.14808" lon="9.3111">
        <ele>1780</ele>
        <time>2024-07-10T06:09:02Z</time>
      </trkpt>
      <trkpt lat="47.14807" lon="9.31114">
        <ele>1781.1</ele>
        <time>2024-07-10T06:09:37Z</time>
      </trkpt>
      <trkpt lat="47.14807" lon="9.31116">
        <ele>1781.3</ele>
        <time>2024-07-10T06:09:38Z</time>
      </trkpt>
      <trkpt lat="47.14807" lon="9.31118">
        <ele>1781.3</ele>
        <time>2024-07-10T06:09:40Z</time>
      </trkpt>
      <trkpt lat="47.14807" lon="9.31116">
        <ele>1781.8</ele>
        <time>2024-07-10T06:09:44Z</time>
      </trkpt>
      <trkpt lat="47.14806" lon="9.31114">
        <ele>1782.3</ele>
        <time>2024-07-10T06:09:46Z</time>
      </trkpt>
      <trkpt lat="47.14804" lon="9.31115">
        <ele>1782.4</ele>
        <time>2024-07-10T06:09:49Z</time>
      </trkpt>
      <trkpt lat="47.14803" lon="9.31115">
        <ele>1782.3</ele>
        <time>2024-07-10T06:09:50Z</time>
      </trkpt>
      <trkpt lat="47.14804" lon="9.31117">
        <ele>1782.6</ele>
        <time>2024-07-10T06:09:53Z</time>
      </trkpt>
      <trkpt lat="47.14805" lon="9.31116">
        <ele>1782.9</ele>
        <time>2024-07-10T06:09:55Z</time>
      </trkpt>
      <trkpt lat="47.14806" lon="9.31116">
        <ele>1783.5</ele>
        <time>2024-07-10T06:09:57Z</time>
      </trkpt>
      <trkpt lat="47.14803" lon="9.31118">
        <ele>1791</ele>
        <time>2024-07-10T06:09:58Z</time>
      </trkpt>
      <trkpt lat="47.14806" lon="9.31116">
        <ele>1790.9</ele>
        <time>2024-07-10T06:10:29Z</time>
      </trkpt>
      <trkpt lat="47.14807" lon="9.31114">
        <ele>1790.7</ele>
        <time>2024-07-10T06:10:56Z</time>
      </trkpt>
      <trkpt lat="47.14806" lon="9.31116">
        <ele>1790.7</ele>
        <time>2024-07-10T06:10:59Z</time>
      </trkpt>
      <trkpt lat="47.14808" lon="9.31117">
        <ele>1789.2</ele>
        <time>2024-07-10T06:11:05Z</time>
      </trkpt>
      <trkpt lat="47.1481" lon="9.31118">
        <ele>1788.7</ele>
        <time>2024-07-10T06:11:08Z</time>
      </trkpt>
      <trkpt lat="47.14811" lon="9.31117">
        <ele>1788.2</ele>
        <time>2024-07-10T06:11:10Z</time>
      </trkpt>
      <trkpt lat="47.14812" lon="9.31118">
        <ele>1788.3</ele>
        <time>2024-07-10T06:11:12Z</time>
      </trkpt>
      <trkpt lat="47.14814" lon="9.31118">
        <ele>1788.4</ele>
        <time>2024-07-10T06:11:14Z</time>
      </trkpt>
      <trkpt lat="47.14815" lon="9.31119">
        <ele>1788.3</ele>
        <time>2024-07-10T06:11:15Z</time>
      </trkpt>
      <trkpt lat="47.14816" lon="9.31119">
        <ele>1787.4</ele>
        <time>2024-07-10T06:11:16Z</time>
      </trkpt>
      <trkpt lat="47.14817" lon="9.3112">
        <ele>1786.9</ele>
        <time>2024-07-10T06:11:17Z</time>
      </trkpt>
      <trkpt lat="47.14819" lon="9.31121">
        <ele>1786.8</ele>
        <time>2024-07-10T06:11:19Z</time>
      </trkpt>
      <trkpt lat="47.1482" lon="9.31121">
        <ele>1786.6</ele>
        <time>2024-07-10T06:11:21Z</time>
      </trkpt>
      <trkpt lat="47.14821" lon="9.31122">
        <ele>1786.6</ele>
        <time>2024-07-10T06:11:22Z</time>
      </trkpt>
      <trkpt lat="47.14822" lon="9.31124">
        <ele>1786.5</ele>
        <time>2024-07-10T06:11:23Z</time>
      </trkpt>
      <trkpt lat="47.14823" lon="9.31126">
        <ele>1786.3</ele>
        <time>2024-07-10T06:11:26Z</time>
      </trkpt>
      <trkpt lat="47.14824" lon="9.31126">
        <ele>1786.3</ele>
        <time>2024-07-10T06:11:28Z</time>
      </trkpt>
      <trkpt lat="47.14824" lon="9.31128">
        <ele>1786.3</ele>
        <time>2024-07-10T06:11:29Z</time>
      </trkpt>
      <trkpt lat="47.14825" lon="9.31129">
        <ele>1786.1</ele>
        <time>2024-07-10T06:11:30Z</time>
      </trkpt>
      <trkpt lat="47.14826" lon="9.31129">
        <ele>1785.8</ele>
        <time>2024-07-10T06:11:31Z</time>
      </trkpt>
      <trkpt lat="47.14828" lon="9.31129">
        <ele>1784.9</ele>
        <time>2024-07-10T06:11:33Z</time>
      </trkpt>
      <trkpt lat="47.14829" lon="9.3113">
        <ele>1784.9</ele>
        <time>2024-07-10T06:11:35Z</time>
      </trkpt>
      <trkpt lat="47.14831" lon="9.31131">
        <ele>1784.9</ele>
        <time>2024-07-10T06:11:37Z</time>
      </trkpt>
      <trkpt lat="47.14832" lon="9.31132">
        <ele>1785.2</ele>
        <time>2024-07-10T06:11:38Z</time>
      </trkpt>
      <trkpt lat="47.14833" lon="9.31133">
        <ele>1785.4</ele>
        <time>2024-07-10T06:11:40Z</time>
      </trkpt>
      <trkpt lat="47.14834" lon="9.31135">
        <ele>1785.1</ele>
        <time>2024-07-10T06:11:42Z</time>
      </trkpt>
      <trkpt lat="47.14835" lon="9.31137">
        <ele>1786</ele>
        <time>2024-07-10T06:11:44Z</time>
      </trkpt>
      <trkpt lat="47.14836" lon="9.31139">
        <ele>1788.1</ele>
        <time>2024-07-10T06:11:46Z</time>
      </trkpt>
      <trkpt lat="47.14837" lon="9.3114">
        <ele>1790.1</ele>
        <time>2024-07-10T06:11:48Z</time>
      </trkpt>
      <trkpt lat="47.14838" lon="9.31141">
        <ele>1791.7</ele>
        <time>2024-07-10T06:11:50Z</time>
      </trkpt>
      <trkpt lat="47.14839" lon="9.31141">
        <ele>1792.6</ele>
        <time>2024-07-10T06:11:52Z</time>
      </trkpt>
      <trkpt lat="47.1484" lon="9.31141">
        <ele>1792.8</ele>
        <time>2024-07-10T06:11:54Z</time>
      </trkpt>
      <trkpt lat="47.14841" lon="9.31142">
        <ele>1793.8</ele>
        <time>2024-07-10T06:11:57Z</time>
      </trkpt>
      <trkpt lat="47.14841" lon="9.31144">
        <ele>1795.2</ele>
        <time>2024-07-10T06:12:01Z</time>
      </trkpt>
      <trkpt lat="47.14841" lon="9.31146">
        <ele>1796.3</ele>
        <time>2024-07-10T06:12:04Z</time>
      </trkpt>
      <trkpt lat="47.14841" lon="9.31148">
        <ele>1797</ele>
        <time>2024-07-10T06:12:06Z</time>
      </trkpt>
      <trkpt lat="47.14842" lon="9.31149">
        <ele>1797.5</ele>
        <time>2024-07-10T06:12:08Z</time>
      </trkpt>
      <trkpt lat="47.14843" lon="9.3115">
        <ele>1798</ele>
        <time>2024-07-10T06:12:10Z</time>
      </trkpt>
      <trkpt lat="47.14844" lon="9.31152">
        <ele>1798.5</ele>
        <time>2024-07-10T06:12:13Z</time>
      </trkpt>
      <trkpt lat="47.14845" lon="9.31152">
        <ele>1798.7</ele>
        <time>2024-07-10T06:12:16Z</time>
      </trkpt>
      <trkpt lat="47.14846" lon="9.31154">
        <ele>1799.4</ele>
        <time>2024-07-10T06:12:18Z</time>
      </trkpt>
      <trkpt lat="47.14846" lon="9.31156">
        <ele>1800.3</ele>
        <time>2024-07-10T06:12:20Z</time>
      </trkpt>
      <trkpt lat="47.14847" lon="9.31156">
        <ele>1800.3</ele>
        <time>2024-07-10T06:12:22Z</time>
      </trkpt>
      <trkpt lat="47.14848" lon="9.31157">
        <ele>1800</ele>
        <time>2024-07-10T06:12:24Z</time>
      </trkpt>
      <trkpt lat="47.14849" lon="9.31158">
        <ele>1799.3</ele>
        <time>2024-07-10T06:12:26Z</time>
      </trkpt>
      <trkpt lat="47.1485" lon="9.31159">
        <ele>1799.1</ele>
        <time>2024-07-10T06:12:28Z</time>
      </trkpt>
      <trkpt lat="47.14851" lon="9.31159">
        <ele>1799</ele>
        <time>2024-07-10T06:12:30Z</time>
      </trkpt>
      <trkpt lat="47.14852" lon="9.3116">
        <ele>1798.9</ele>
        <time>2024-07-10T06:12:31Z</time>
      </trkpt>
      <trkpt lat="47.14854" lon="9.31161">
        <ele>1799.3</ele>
        <time>2024-07-10T06:12:33Z</time>
      </trkpt>
      <trkpt lat="47.14855" lon="9.31163">
        <ele>1799.3</ele>
        <time>2024-07-10T06:12:34Z</time>
      </trkpt>
      <trkpt lat="47.14856" lon="9.31164">
        <ele>1799.3</ele>
        <time>2024-07-10T06:12:35Z</time>
      </trkpt>
      <trkpt lat="47.14857" lon="9.31166">
        <ele>1799.9</ele>
        <time>2024-07-10T06:12:37Z</time>
      </trkpt>
      <trkpt lat="47.14857" lon="9.31168">
        <ele>1800.3</ele>
        <time>2024-07-10T06:12:38Z</time>
      </trkpt>
      <trkpt lat="47.14857" lon="9.31169">
        <ele>1800.6</ele>
        <time>2024-07-10T06:12:39Z</time>
      </trkpt>
      <trkpt lat="47.14857" lon="9.3117">
        <ele>1800.7</ele>
        <time>2024-07-10T06:12:40Z</time>
      </trkpt>
      <trkpt lat="47.14858" lon="9.31172">
        <ele>1799.9</ele>
        <time>2024-07-10T06:12:41Z</time>
      </trkpt>
      <trkpt lat="47.14859" lon="9.31173">
        <ele>1800.4</ele>
        <time>2024-07-10T06:12:43Z</time>
      </trkpt>
      <trkpt lat="47.1486" lon="9.31174">
        <ele>1799.9</ele>
        <time>2024-07-10T06:12:44Z</time>
      </trkpt>
      <trkpt lat="47.1486" lon="9.31176">
        <ele>1800.3</ele>
        <time>2024-07-10T06:12:45Z</time>
      </trkpt>
      <trkpt lat="47.14861" lon="9.31177">
        <ele>1799.9</ele>
        <time>2024-07-10T06:12:46Z</time>
      </trkpt>
      <trkpt lat="47.14861" lon="9.31179">
        <ele>1799.7</ele>
        <time>2024-07-10T06:12:48Z</time>
      </trkpt>
      <trkpt lat="47.14861" lon="9.3118">
        <ele>1801</ele>
        <time>2024-07-10T06:12:53Z</time>
      </trkpt>
      <trkpt lat="47.1486" lon="9.31181">
        <ele>1802.2</ele>
        <time>2024-07-10T06:12:55Z</time>
      </trkpt>
      <trkpt lat="47.14861" lon="9.31183">
        <ele>1802.7</ele>
        <time>2024-07-10T06:12:58Z</time>
      </trkpt>
      <trkpt lat="47.14862" lon="9.31183">
        <ele>1803.6</ele>
        <time>2024-07-10T06:13:01Z</time>
      </trkpt>
      <trkpt lat="47.14863" lon="9.31185">
        <ele>1805.6</ele>
        <time>2024-07-10T06:13:05Z</time>
      </trkpt>
      <trkpt lat="47.14864" lon="9.31185">
        <ele>1806.2</ele>
        <time>2024-07-10T06:13:07Z</time>
      </trkpt>
      <trkpt lat="47.14865" lon="9.31186">
        <ele>1806.2</ele>
        <time>2024-07-10T06:13:08Z</time>
      </trkpt>
      <trkpt lat="47.14865" lon="9.31187">
        <ele>1806.3</ele>
        <time>2024-07-10T06:13:09Z</time>
      </trkpt>
      <trkpt lat="47.14866" lon="9.31188">
        <ele>1806.4</ele>
        <time>2024-07-10T06:13:10Z</time>
      </trkpt>
      <trkpt lat="47.14867" lon="9.31189">
        <ele>1808.1</ele>
        <time>2024-07-10T06:13:13Z</time>
      </trkpt>
      <trkpt lat="47.14868" lon="9.31191">
        <ele>1808.5</ele>
        <time>2024-07-10T06:13:15Z</time>
      </trkpt>
      <trkpt lat="47.14869" lon="9.31192">
        <ele>1809</ele>
        <time>2024-07-10T06:13:17Z</time>
      </trkpt>
      <trkpt lat="47.14869" lon="9.31195">
        <ele>1810.7</ele>
        <time>2024-07-10T06:13:22Z</time>
      </trkpt>
      <trkpt lat="47.14869" lon="9.31196">
        <ele>1812.3</ele>
        <time>2024-07-10T06:13:25Z</time>
      </trkpt>
      <trkpt lat="47.1487" lon="9.31197">
        <ele>1812.5</ele>
        <time>2024-07-10T06:13:27Z</time>
      </trkpt>
      <trkpt lat="47.1487" lon="9.312">
        <ele>1812.6</ele>
        <time>2024-07-10T06:13:29Z</time>
      </trkpt>
      <trkpt lat="47.1487" lon="9.31201">
        <ele>1812.5</ele>
        <time>2024-07-10T06:13:30Z</time>
      </trkpt>
      <trkpt lat="47.14871" lon="9.31203">
        <ele>1812.1</ele>
        <time>2024-07-10T06:13:31Z</time>
      </trkpt>
      <trkpt lat="47.14871" lon="9.31204">
        <ele>1812.3</ele>
        <time>2024-07-10T06:13:33Z</time>
      </trkpt>
      <trkpt lat="47.14872" lon="9.31206">
        <ele>1812.4</ele>
        <time>2024-07-10T06:13:35Z</time>
      </trkpt>
      <trkpt lat="47.14872" lon="9.31207">
        <ele>1813</ele>
        <time>2024-07-10T06:13:36Z</time>
      </trkpt>
      <trkpt lat="47.14872" lon="9.31209">
        <ele>1813.5</ele>
        <time>2024-07-10T06:13:38Z</time>
      </trkpt>
      <trkpt lat="47.14873" lon="9.31211">
        <ele>1813.6</ele>
        <time>2024-07-10T06:13:40Z</time>
      </trkpt>
      <trkpt lat="47.14873" lon="9.31213">
        <ele>1813.8</ele>
        <time>2024-07-10T06:13:41Z</time>
      </trkpt>
      <trkpt lat="47.14875" lon="9.31213">
        <ele>1814.1</ele>
        <time>2024-07-10T06:13:42Z</time>
      </trkpt>
      <trkpt lat="47.14875" lon="9.31214">
        <ele>1813.9</ele>
        <time>2024-07-10T06:13:43Z</time>
      </trkpt>
      <trkpt lat="47.14875" lon="9.31216">
        <ele>1814</ele>
        <time>2024-07-10T06:13:44Z</time>
      </trkpt>
      <trkpt lat="47.14876" lon="9.31218">
        <ele>1813.4</ele>
        <time>2024-07-10T06:13:46Z</time>
      </trkpt>
      <trkpt lat="47.14877" lon="9.31219">
        <ele>1813.1</ele>
        <time>2024-07-10T06:13:49Z</time>
      </trkpt>
      <trkpt lat="47.14878" lon="9.3122">
        <ele>1813.1</ele>
        <time>2024-07-10T06:13:50Z</time>
      </trkpt>
      <trkpt lat="47.14879" lon="9.31221">
        <ele>1812.1</ele>
        <time>2024-07-10T06:13:51Z</time>
      </trkpt>
      <trkpt lat="47.1488" lon="9.31222">
        <ele>1812</ele>
        <time>2024-07-10T06:13:54Z</time>
      </trkpt>
      <trkpt lat="47.14881" lon="9.31223">
        <ele>1812</ele>
        <time>2024-07-10T06:13:56Z</time>
      </trkpt>
      <trkpt lat="47.14882" lon="9.31224">
        <ele>1811.9</ele>
        <time>2024-07-10T06:13:57Z</time>
      </trkpt>
      <trkpt lat="47.14882" lon="9.31225">
        <ele>1811.9</ele>
        <time>2024-07-10T06:13:59Z</time>
      </trkpt>
      <trkpt lat="47.14883" lon="9.31227">
        <ele>1812.2</ele>
        <time>2024-07-10T06:14:01Z</time>
      </trkpt>
      <trkpt lat="47.14883" lon="9.31228">
        <ele>1812</ele>
        <time>2024-07-10T06:14:02Z</time>
      </trkpt>
      <trkpt lat="47.14885" lon="9.3123">
        <ele>1812.4</ele>
        <time>2024-07-10T06:14:04Z</time>
      </trkpt>
      <trkpt lat="47.14886" lon="9.31232">
        <ele>1812.6</ele>
        <time>2024-07-10T06:14:06Z</time>
      </trkpt>
      <trkpt lat="47.14886" lon="9.31233">
        <ele>1812.9</ele>
        <time>2024-07-10T06:14:07Z</time>
      </trkpt>
      <trkpt lat="47.14887" lon="9.31235">
        <ele>1814.4</ele>
        <time>2024-07-10T06:14:10Z</time>
      </trkpt>
      <trkpt lat="47.14888" lon="9.31237">
        <ele>1814.4</ele>
        <time>2024-07-10T06:14:12Z</time>
      </trkpt>
      <trkpt lat="47.14889" lon="9.31238">
        <ele>1814.2</ele>
        <time>2024-07-10T06:14:13Z</time>
      </trkpt>
      <trkpt lat="47.1489" lon="9.31239">
        <ele>1814.4</ele>
        <time>2024-07-10T06:14:15Z</time>
      </trkpt>
      <trkpt lat="47.14891" lon="9.31241">
        <ele>1814.4</ele>
        <time>2024-07-10T06:14:17Z</time>
      </trkpt>
      <trkpt lat="47.14892" lon="9.31242">
        <ele>1814.2</ele>
        <time>2024-07-10T06:14:19Z</time>
      </trkpt>
      <trkpt lat="47.14893" lon="9.31243">
        <ele>1814.4</ele>
        <time>2024-07-10T06:14:21Z</time>
      </trkpt>
      <trkpt lat="47.14894" lon="9.31244">
        <ele>1814.5</ele>
        <time>2024-07-10T06:14:23Z</time>
      </trkpt>
      <trkpt lat="47.14895" lon="9.31244">
        <ele>1814.6</ele>
        <time>2024-07-10T06:14:24Z</time>
      </trkpt>
      <trkpt lat="47.14896" lon="9.31244">
        <ele>1814.6</ele>
        <time>2024-07-10T06:14:25Z</time>
      </trkpt>
      <trkpt lat="47.14897" lon="9.31245">
        <ele>1814.9</ele>
        <time>2024-07-10T06:14:27Z</time>
      </trkpt>
      <trkpt lat="47.14898" lon="9.31246">
        <ele>1815.3</ele>
        <time>2024-07-10T06:14:29Z</time>
      </trkpt>
      <trkpt lat="47.14899" lon="9.31247">
        <ele>1815.6</ele>
        <time>2024-07-10T06:14:30Z</time>
      </trkpt>
      <trkpt lat="47.149" lon="9.31248">
        <ele>1815.8</ele>
        <time>2024-07-10T06:14:31Z</time>
      </trkpt>
      <trkpt lat="47.14901" lon="9.31249">
        <ele>1816.3</ele>
        <time>2024-07-10T06:14:32Z</time>
      </trkpt>
      <trkpt lat="47.14902" lon="9.31249">
        <ele>1816.4</ele>
        <time>2024-07-10T06:14:34Z</time>
      </trkpt>
      <trkpt lat="47.14903" lon="9.3125">
        <ele>1816.4</ele>
        <time>2024-07-10T06:14:35Z</time>
      </trkpt>
      <trkpt lat="47.14903" lon="9.31251">
        <ele>1816.7</ele>
        <time>2024-07-10T06:14:37Z</time>
      </trkpt>
      <trkpt lat="47.14903" lon="9.31253">
        <ele>1816.9</ele>
        <time>2024-07-10T06:14:39Z</time>
      </trkpt>
      <trkpt lat="47.14904" lon="9.31255">
        <ele>1816.9</ele>
        <time>2024-07-10T06:14:43Z</time>
      </trkpt>
      <trkpt lat="47.14905" lon="9.31256">
        <ele>1817.2</ele>
        <time>2024-07-10T06:14:45Z</time>
      </trkpt>
      <trkpt lat="47.14905" lon="9.31257">
        <ele>1817.2</ele>
        <time>2024-07-10T06:14:46Z</time>
      </trkpt>
      <trkpt lat="47.14905" lon="9.31259">
        <ele>1816.8</ele>
        <time>2024-07-10T06:14:48Z</time>
      </trkpt>
      <trkpt lat="47.14906" lon="9.31261">
        <ele>1816.3</ele>
        <time>2024-07-10T06:14:49Z</time>
      </trkpt>
      <trkpt lat="47.14906" lon="9.31263">
        <ele>1817.6</ele>
        <time>2024-07-10T06:14:51Z</time>
      </trkpt>
      <trkpt lat="47.14906" lon="9.31264">
        <ele>1818</ele>
        <time>2024-07-10T06:14:52Z</time>
      </trkpt>
      <trkpt lat="47.14905" lon="9.31266">
        <ele>1818.6</ele>
        <time>2024-07-10T06:14:54Z</time>
      </trkpt>
      <trkpt lat="47.14906" lon="9.31267">
        <ele>1820</ele>
        <time>2024-07-10T06:14:59Z</time>
      </trkpt>
      <trkpt lat="47.14907" lon="9.31268">
        <ele>1820.7</ele>
        <time>2024-07-10T06:15:01Z</time>
      </trkpt>
      <trkpt lat="47.14908" lon="9.31269">
        <ele>1821.2</ele>
        <time>2024-07-10T06:15:03Z</time>
      </trkpt>
      <trkpt lat="47.14909" lon="9.31271">
        <ele>1821.5</ele>
        <time>2024-07-10T06:15:05Z</time>
      </trkpt>
      <trkpt lat="47.14911" lon="9.31271">
        <ele>1821.8</ele>
        <time>2024-07-10T06:15:08Z</time>
      </trkpt>
      <trkpt lat="47.14912" lon="9.31271">
        <ele>1822.5</ele>
        <time>2024-07-10T06:15:10Z</time>
      </trkpt>
      <trkpt lat="47.14913" lon="9.31272">
        <ele>1823.1</ele>
        <time>2024-07-10T06:15:12Z</time>
      </trkpt>
      <trkpt lat="47.14913" lon="9.31274">
        <ele>1824.9</ele>
        <time>2024-07-10T06:15:17Z</time>
      </trkpt>
      <trkpt lat="47.14913" lon="9.31277">
        <ele>1825.7</ele>
        <time>2024-07-10T06:15:20Z</time>
      </trkpt>
      <trkpt lat="47.14914" lon="9.31278">
        <ele>1826.2</ele>
        <time>2024-07-10T06:15:22Z</time>
      </trkpt>
      <trkpt lat="47.14915" lon="9.3128">
        <ele>1826.3</ele>
        <time>2024-07-10T06:15:24Z</time>
      </trkpt>
      <trkpt lat="47.14916" lon="9.31282">
        <ele>1826.6</ele>
        <time>2024-07-10T06:15:26Z</time>
      </trkpt>
      <trkpt lat="47.14915" lon="9.31283">
        <ele>1828</ele>
        <time>2024-07-10T06:15:27Z</time>
      </trkpt>
      <trkpt lat="47.14915" lon="9.31284">
        <ele>1827.8</ele>
        <time>2024-07-10T06:15:29Z</time>
      </trkpt>
      <trkpt lat="47.14916" lon="9.31285">
        <ele>1827.7</ele>
        <time>2024-07-10T06:15:31Z</time>
      </trkpt>
      <trkpt lat="47.14915" lon="9.31286">
        <ele>1828.7</ele>
        <time>2024-07-10T06:15:34Z</time>
      </trkpt>
      <trkpt lat="47.14915" lon="9.31288">
        <ele>1829.5</ele>
        <time>2024-07-10T06:15:37Z</time>
      </trkpt>
      <trkpt lat="47.14915" lon="9.3129">
        <ele>1829.9</ele>
        <time>2024-07-10T06:15:39Z</time>
      </trkpt>
      <trkpt lat="47.14915" lon="9.31291">
        <ele>1830.7</ele>
        <time>2024-07-10T06:15:44Z</time>
      </trkpt>
      <trkpt lat="47.14916" lon="9.31291">
        <ele>1830</ele>
        <time>2024-07-10T06:15:46Z</time>
      </trkpt>
      <trkpt lat="47.14917" lon="9.31291">
        <ele>1829.6</ele>
        <time>2024-07-10T06:15:48Z</time>
      </trkpt>
      <trkpt lat="47.14919" lon="9.31292">
        <ele>1829.6</ele>
        <time>2024-07-10T06:15:51Z</time>
      </trkpt>
      <trkpt lat="47.1492" lon="9.31291">
        <ele>1829.9</ele>
        <time>2024-07-10T06:15:53Z</time>
      </trkpt>
      <trkpt lat="47.14921" lon="9.31292">
        <ele>1829.8</ele>
        <time>2024-07-10T06:15:54Z</time>
      </trkpt>
      <trkpt lat="47.14922" lon="9.31292">
        <ele>1829.8</ele>
        <time>2024-07-10T06:15:56Z</time>
      </trkpt>
      <trkpt lat="47.14922" lon="9.31294">
        <ele>1831</ele>
        <time>2024-07-10T06:16:02Z</time>
      </trkpt>
      <trkpt lat="47.14929" lon="9.31301">
        <ele>1832.6</ele>
        <time>2024-07-10T06:16:20Z</time>
      </trkpt>
      <trkpt lat="47.1493" lon="9.31303">
        <ele>1832.9</ele>
        <time>2024-07-10T06:16:27Z</time>
      </trkpt>
      <trkpt lat="47.14931" lon="9.31305">
        <ele>1832.7</ele>
        <time>2024-07-10T06:16:29Z</time>
      </trkpt>
      <trkpt lat="47.14932" lon="9.31306">
        <ele>1832.9</ele>
        <time>2024-07-10T06:16:32Z</time>
      </trkpt>
      <trkpt lat="47.14932" lon="9.31305">
        <ele>1833.1</ele>
        <time>2024-07-10T06:16:34Z</time>
      </trkpt>
      <trkpt lat="47.14933" lon="9.31304">
        <ele>1833.2</ele>
        <time>2024-07-10T06:16:41Z</time>
      </trkpt>
      <trkpt lat="47.14936" lon="9.31308">
        <ele>1833.6</ele>
        <time>2024-07-10T06:16:49Z</time>
      </trkpt>
      <trkpt lat="47.14935" lon="9.31308">
        <ele>1834.7</ele>
        <time>2024-07-10T06:16:51Z</time>
      </trkpt>
      <trkpt lat="47.14934" lon="9.31309">
        <ele>1835.7</ele>
        <time>2024-07-10T06:16:53Z</time>
      </trkpt>
      <trkpt lat="47.14934" lon="9.3131">
        <ele>1836.2</ele>
        <time>2024-07-10T06:16:54Z</time>
      </trkpt>
      <trkpt lat="47.14933" lon="9.31309">
        <ele>1837.3</ele>
        <time>2024-07-10T06:16:56Z</time>
      </trkpt>
      <trkpt lat="47.14932" lon="9.31309">
        <ele>1837.4</ele>
        <time>2024-07-10T06:16:58Z</time>
      </trkpt>
      <trkpt lat="47.14933" lon="9.31309">
        <ele>1837.3</ele>
        <time>2024-07-10T06:17:00Z</time>
      </trkpt>
      <trkpt lat="47.14934" lon="9.3131">
        <ele>1837.3</ele>
        <time>2024-07-10T06:17:02Z</time>
      </trkpt>
      <trkpt lat="47.14936" lon="9.3131">
        <ele>1837.5</ele>
        <time>2024-07-10T06:17:04Z</time>
      </trkpt>
      <trkpt lat="47.14936" lon="9.31311">
        <ele>1837.3</ele>
        <time>2024-07-10T06:17:06Z</time>
      </trkpt>
      <trkpt lat="47.14938" lon="9.31311">
        <ele>1837.1</ele>
        <time>2024-07-10T06:17:08Z</time>
      </trkpt>
      <trkpt lat="47.14939" lon="9.31311">
        <ele>1836.3</ele>
        <time>2024-07-10T06:17:10Z</time>
      </trkpt>
      <trkpt lat="47.14939" lon="9.31312">
        <ele>1836.1</ele>
        <time>2024-07-10T06:17:11Z</time>
      </trkpt>
      <trkpt lat="47.1494" lon="9.31313">
        <ele>1835.9</ele>
        <time>2024-07-10T06:17:12Z</time>
      </trkpt>
      <trkpt lat="47.14941" lon="9.31314">
        <ele>1835.6</ele>
        <time>2024-07-10T06:17:13Z</time>
      </trkpt>
      <trkpt lat="47.14941" lon="9.31316">
        <ele>1835.5</ele>
        <time>2024-07-10T06:17:14Z</time>
      </trkpt>
      <trkpt lat="47.14942" lon="9.31318">
        <ele>1835</ele>
        <time>2024-07-10T06:17:16Z</time>
      </trkpt>
      <trkpt lat="47.14942" lon="9.31319">
        <ele>1835.1</ele>
        <time>2024-07-10T06:17:17Z</time>
      </trkpt>
      <trkpt lat="47.14943" lon="9.31321">
        <ele>1835.3</ele>
        <time>2024-07-10T06:17:19Z</time>
      </trkpt>
      <trkpt lat="47.14943" lon="9.31322">
        <ele>1835.1</ele>
        <time>2024-07-10T06:17:20Z</time>
      </trkpt>
      <trkpt lat="47.14943" lon="9.31324">
        <ele>1834.7</ele>
        <time>2024-07-10T06:17:22Z</time>
      </trkpt>
      <trkpt lat="47.14943" lon="9.31323">
        <ele>1834.5</ele>
        <time>2024-07-10T06:17:26Z</time>
      </trkpt>
      <trkpt lat="47.14943" lon="9.31325">
        <ele>1838.3</ele>
        <time>2024-07-10T06:17:31Z</time>
      </trkpt>
      <trkpt lat="47.14943" lon="9.31326">
        <ele>1838.9</ele>
        <time>2024-07-10T06:17:32Z</time>
      </trkpt>
      <trkpt lat="47.14944" lon="9.31328">
        <ele>1839.5</ele>
        <time>2024-07-10T06:17:34Z</time>
      </trkpt>
      <trkpt lat="47.14944" lon="9.31329">
        <ele>1842.1</ele>
        <time>2024-07-10T06:17:40Z</time>
      </trkpt>
      <trkpt lat="47.14945" lon="9.3133">
        <ele>1842.9</ele>
        <time>2024-07-10T06:17:43Z</time>
      </trkpt>
      <trkpt lat="47.14946" lon="9.31332">
        <ele>1844.4</ele>
        <time>2024-07-10T06:17:45Z</time>
      </trkpt>
      <trkpt lat="47.14946" lon="9.31334">
        <ele>1845.3</ele>
        <time>2024-07-10T06:17:47Z</time>
      </trkpt>
      <trkpt lat="47.14946" lon="9.31335">
        <ele>1845.9</ele>
        <time>2024-07-10T06:17:49Z</time>
      </trkpt>
      <trkpt lat="47.14948" lon="9.31337">
        <ele>1846.4</ele>
        <time>2024-07-10T06:17:51Z</time>
      </trkpt>
      <trkpt lat="47.14949" lon="9.31337">
        <ele>1846.2</ele>
        <time>2024-07-10T06:17:53Z</time>
      </trkpt>
      <trkpt lat="47.1495" lon="9.31338">
        <ele>1846.1</ele>
        <time>2024-07-10T06:17:54Z</time>
      </trkpt>
      <trkpt lat="47.14951" lon="9.31339">
        <ele>1846</ele>
        <time>2024-07-10T06:17:55Z</time>
      </trkpt>
      <trkpt lat="47.14951" lon="9.3134">
        <ele>1845.7</ele>
        <time>2024-07-10T06:17:56Z</time>
      </trkpt>
      <trkpt lat="47.14952" lon="9.31341">
        <ele>1845.4</ele>
        <time>2024-07-10T06:17:57Z</time>
      </trkpt>
      <trkpt lat="47.14953" lon="9.31342">
        <ele>1845.5</ele>
        <time>2024-07-10T06:17:58Z</time>
      </trkpt>
      <trkpt lat="47.14954" lon="9.31343">
        <ele>1845</ele>
        <time>2024-07-10T06:18:00Z</time>
      </trkpt>
      <trkpt lat="47.14954" lon="9.31345">
        <ele>1845.5</ele>
        <time>2024-07-10T06:18:03Z</time>
      </trkpt>
      <trkpt lat="47.14954" lon="9.31346">
        <ele>1845.6</ele>
        <time>2024-07-10T06:18:05Z</time>
      </trkpt>
      <trkpt lat="47.14956" lon="9.31348">
        <ele>1845.9</ele>
        <time>2024-07-10T06:18:08Z</time>
      </trkpt>
      <trkpt lat="47.14957" lon="9.3135">
        <ele>1846.1</ele>
        <time>2024-07-10T06:18:10Z</time>
      </trkpt>
      <trkpt lat="47.14958" lon="9.31352">
        <ele>1846.6</ele>
        <time>2024-07-10T06:18:12Z</time>
      </trkpt>
      <trkpt lat="47.14959" lon="9.31354">
        <ele>1846.4</ele>
        <time>2024-07-10T06:18:13Z</time>
      </trkpt>
      <trkpt lat="47.14959" lon="9.31355">
        <ele>1846.5</ele>
        <time>2024-07-10T06:18:14Z</time>
      </trkpt>
      <trkpt lat="47.1496" lon="9.31357">
        <ele>1846.7</ele>
        <time>2024-07-10T06:18:15Z</time>
      </trkpt>
      <trkpt lat="47.14961" lon="9.31359">
        <ele>1846.6</ele>
        <time>2024-07-10T06:18:16Z</time>
      </trkpt>
      <trkpt lat="47.14961" lon="9.3136">
        <ele>1847.2</ele>
        <time>2024-07-10T06:18:18Z</time>
      </trkpt>
      <trkpt lat="47.14962" lon="9.31362">
        <ele>1847.8</ele>
        <time>2024-07-10T06:18:20Z</time>
      </trkpt>
      <trkpt lat="47.14962" lon="9.31363">
        <ele>1848.3</ele>
        <time>2024-07-10T06:18:22Z</time>
      </trkpt>
      <trkpt lat="47.14964" lon="9.31364">
        <ele>1850.3</ele>
        <time>2024-07-10T06:18:29Z</time>
      </trkpt>
      <trkpt lat="47.14965" lon="9.31366">
        <ele>1850.3</ele>
        <time>2024-07-10T06:18:31Z</time>
      </trkpt>
      <trkpt lat="47.14965" lon="9.31367">
        <ele>1850.2</ele>
        <time>2024-07-10T06:18:33Z</time>
      </trkpt>
      <trkpt lat="47.14966" lon="9.31368">
        <ele>1850.5</ele>
        <time>2024-07-10T06:18:35Z</time>
      </trkpt>
      <trkpt lat="47.14966" lon="9.3137">
        <ele>1850.8</ele>
        <time>2024-07-10T06:18:37Z</time>
      </trkpt>
      <trkpt lat="47.14966" lon="9.31372">
        <ele>1851.6</ele>
        <time>2024-07-10T06:18:39Z</time>
      </trkpt>
      <trkpt lat="47.14965" lon="9.31374">
        <ele>1852.1</ele>
        <time>2024-07-10T06:18:41Z</time>
      </trkpt>
      <trkpt lat="47.14967" lon="9.31375">
        <ele>1852.7</ele>
        <time>2024-07-10T06:18:45Z</time>
      </trkpt>
      <trkpt lat="47.14968" lon="9.31377">
        <ele>1852.8</ele>
        <time>2024-07-10T06:18:47Z</time>
      </trkpt>
      <trkpt lat="47.14968" lon="9.31378">
        <ele>1852.8</ele>
        <time>2024-07-10T06:18:48Z</time>
      </trkpt>
      <trkpt lat="47.1497" lon="9.31379">
        <ele>1852.8</ele>
        <time>2024-07-10T06:18:51Z</time>
      </trkpt>
      <trkpt lat="47.1497" lon="9.31378">
        <ele>1852.8</ele>
        <time>2024-07-10T06:18:54Z</time>
      </trkpt>
      <trkpt lat="47.14971" lon="9.31379">
        <ele>1852.9</ele>
        <time>2024-07-10T06:18:57Z</time>
      </trkpt>
      <trkpt lat="47.14971" lon="9.31381">
        <ele>1852.9</ele>
        <time>2024-07-10T06:18:59Z</time>
      </trkpt>
      <trkpt lat="47.14972" lon="9.31383">
        <ele>1852.9</ele>
        <time>2024-07-10T06:19:01Z</time>
      </trkpt>
      <trkpt lat="47.14973" lon="9.31385">
        <ele>1853</ele>
        <time>2024-07-10T06:19:02Z</time>
      </trkpt>
      <trkpt lat="47.14973" lon="9.31386">
        <ele>1853.2</ele>
        <time>2024-07-10T06:19:03Z</time>
      </trkpt>
      <trkpt lat="47.14974" lon="9.31387">
        <ele>1853.3</ele>
        <time>2024-07-10T06:19:05Z</time>
      </trkpt>
      <trkpt lat="47.14975" lon="9.31387">
        <ele>1853.5</ele>
        <time>2024-07-10T06:19:07Z</time>
      </trkpt>
      <trkpt lat="47.14976" lon="9.31387">
        <ele>1853.7</ele>
        <time>2024-07-10T06:19:09Z</time>
      </trkpt>
      <trkpt lat="47.14977" lon="9.31389">
        <ele>1853.8</ele>
        <time>2024-07-10T06:19:13Z</time>
      </trkpt>
      <trkpt lat="47.14978" lon="9.3139">
        <ele>1854</ele>
        <time>2024-07-10T06:19:16Z</time>
      </trkpt>
      <trkpt lat="47.14978" lon="9.31391">
        <ele>1854.5</ele>
        <time>2024-07-10T06:19:18Z</time>
      </trkpt>
      <trkpt lat="47.14978" lon="9.31393">
        <ele>1855.1</ele>
        <time>2024-07-10T06:19:20Z</time>
      </trkpt>
      <trkpt lat="47.14979" lon="9.31395">
        <ele>1855.1</ele>
        <time>2024-07-10T06:19:22Z</time>
      </trkpt>
      <trkpt lat="47.1498" lon="9.31396">
        <ele>1855.3</ele>
        <time>2024-07-10T06:19:24Z</time>
      </trkpt>
      <trkpt lat="47.14981" lon="9.31398">
        <ele>1856.2</ele>
        <time>2024-07-10T06:19:27Z</time>
      </trkpt>
      <trkpt lat="47.1498" lon="9.314">
        <ele>1857.1</ele>
        <time>2024-07-10T06:19:29Z</time>
      </trkpt>
      <trkpt lat="47.1498" lon="9.31402">
        <ele>1858</ele>
        <time>2024-07-10T06:19:33Z</time>
      </trkpt>
      <trkpt lat="47.14981" lon="9.31403">
        <ele>1859.3</ele>
        <time>2024-07-10T06:19:40Z</time>
      </trkpt>
      <trkpt lat="47.14982" lon="9.31403">
        <ele>1859</ele>
        <time>2024-07-10T06:19:41Z</time>
      </trkpt>
      <trkpt lat="47.14983" lon="9.314">
        <ele>1859.7</ele>
        <time>2024-07-10T06:19:43Z</time>
      </trkpt>
      <trkpt lat="47.14984" lon="9.314">
        <ele>1860.2</ele>
        <time>2024-07-10T06:19:46Z</time>
      </trkpt>
      <trkpt lat="47.14984" lon="9.31402">
        <ele>1860.7</ele>
        <time>2024-07-10T06:19:48Z</time>
      </trkpt>
      <trkpt lat="47.14985" lon="9.31402">
        <ele>1861.1</ele>
        <time>2024-07-10T06:19:50Z</time>
      </trkpt>
      <trkpt lat="47.14986" lon="9.31404">
        <ele>1862</ele>
        <time>2024-07-10T06:19:54Z</time>
      </trkpt>
      <trkpt lat="47.14986" lon="9.31406">
        <ele>1862.4</ele>
        <time>2024-07-10T06:19:56Z</time>
      </trkpt>
      <trkpt lat="47.14986" lon="9.31409">
        <ele>1862.9</ele>
        <time>2024-07-10T06:19:58Z</time>
      </trkpt>
      <trkpt lat="47.14986" lon="9.31411">
        <ele>1862.9</ele>
        <time>2024-07-10T06:19:59Z</time>
      </trkpt>
      <trkpt lat="47.14986" lon="9.31413">
        <ele>1863</ele>
        <time>2024-07-10T06:20:00Z</time>
      </trkpt>
      <trkpt lat="47.14991" lon="9.31405">
        <ele>1855.3</ele>
      </trkpt>
      <trkpt lat="47.15021" lon="9.31384">
        <ele>1884.6</ele>
      </trkpt>
      <trkpt lat="47.15057" lon="9.31377">
        <ele>1910.4</ele>
      </trkpt>
      <trkpt lat="47.15097" lon="9.31342">
        <ele>1945.6</ele>
      </trkpt>
      <trkpt lat="47.15129" lon="9.31333">
        <ele>1963</ele>
      </trkpt>
      <trkpt lat="47.15194" lon="9.31307">
        <ele>2003.4</ele>
      </trkpt>
      <trkpt lat="47.1525" lon="9.31286">
        <ele>2040</ele>
      </trkpt>
      <trkpt lat="47.15282" lon="9.31266">
        <ele>2063</ele>
      </trkpt>
      <trkpt lat="47.15289" lon="9.31269">
        <ele>2067.3</ele>
      </trkpt>
      <trkpt lat="47.15299" lon="9.31239">
        <ele>2082.4</ele>
      </trkpt>
      <trkpt lat="47.15321" lon="9.31246">
        <ele>2096</ele>
      </trkpt>
      <trkpt lat="47.15321" lon="9.31191">
        <ele>2117.3</ele>
      </trkpt>
      <trkpt lat="47.15338" lon="9.31199">
        <ele>2127</ele>
      </trkpt>
      <trkpt lat="47.15331" lon="9.31147">
        <ele>2140.4</ele>
      </trkpt>
      <trkpt lat="47.15331" lon="9.31144">
        <ele>2184.7</ele>
        <time>2024-07-10T06:55:43Z</time>
      </trkpt>
      <trkpt lat="47.15331" lon="9.31142">
        <ele>2185</ele>
        <time>2024-07-10T06:55:45Z</time>
      </trkpt>
      <trkpt lat="47.15331" lon="9.3114">
        <ele>2185.8</ele>
        <time>2024-07-10T06:55:47Z</time>
      </trkpt>
      <trkpt lat="47.1533" lon="9.3114">
        <ele>2186.1</ele>
        <time>2024-07-10T06:55:48Z</time>
      </trkpt>
      <trkpt lat="47.15329" lon="9.3114">
        <ele>2186.7</ele>
        <time>2024-07-10T06:55:49Z</time>
      </trkpt>
      <trkpt lat="47.15328" lon="9.31139">
        <ele>2187.6</ele>
        <time>2024-07-10T06:55:50Z</time>
      </trkpt>
      <trkpt lat="47.15327" lon="9.31139">
        <ele>2188.1</ele>
        <time>2024-07-10T06:55:51Z</time>
      </trkpt>
      <trkpt lat="47.15325" lon="9.31139">
        <ele>2188</ele>
        <time>2024-07-10T06:55:52Z</time>
      </trkpt>
      <trkpt lat="47.15324" lon="9.31137">
        <ele>2188.7</ele>
        <time>2024-07-10T06:55:54Z</time>
      </trkpt>
      <trkpt lat="47.15323" lon="9.31136">
        <ele>2189.3</ele>
        <time>2024-07-10T06:55:56Z</time>
      </trkpt>
      <trkpt lat="47.15322" lon="9.31136">
        <ele>2190.2</ele>
        <time>2024-07-10T06:55:58Z</time>
      </trkpt>
      <trkpt lat="47.15321" lon="9.31135">
        <ele>2191</ele>
        <time>2024-07-10T06:56:00Z</time>
      </trkpt>
      <trkpt lat="47.15319" lon="9.31134">
        <ele>2191.8</ele>
        <time>2024-07-10T06:56:02Z</time>
      </trkpt>
      <trkpt lat="47.15318" lon="9.31134">
        <ele>2192.5</ele>
        <time>2024-07-10T06:56:04Z</time>
      </trkpt>
      <trkpt lat="47.15317" lon="9.31133">
        <ele>2192.8</ele>
        <time>2024-07-10T06:56:06Z</time>
      </trkpt>
      <trkpt lat="47.15316" lon="9.31132">
        <ele>2191.8</ele>
        <time>2024-07-10T06:56:08Z</time>
      </trkpt>
      <trkpt lat="47.15315" lon="9.3113">
        <ele>2190.8</ele>
        <time>2024-07-10T06:56:11Z</time>
      </trkpt>
      <trkpt lat="47.15314" lon="9.3113">
        <ele>2190.9</ele>
        <time>2024-07-10T06:56:13Z</time>
      </trkpt>
      <trkpt lat="47.15312" lon="9.3113">
        <ele>2190.8</ele>
        <time>2024-07-10T06:56:15Z</time>
      </trkpt>
      <trkpt lat="47.15311" lon="9.31128">
        <ele>2190.9</ele>
        <time>2024-07-10T06:56:17Z</time>
      </trkpt>
      <trkpt lat="47.15311" lon="9.31126">
        <ele>2191.1</ele>
        <time>2024-07-10T06:56:18Z</time>
      </trkpt>
      <trkpt lat="47.1531" lon="9.31125">
        <ele>2191</ele>
        <time>2024-07-10T06:56:19Z</time>
      </trkpt>
      <trkpt lat="47.1531" lon="9.31124">
        <ele>2190.7</ele>
        <time>2024-07-10T06:56:20Z</time>
      </trkpt>
      <trkpt lat="47.1531" lon="9.31122">
        <ele>2191.1</ele>
        <time>2024-07-10T06:56:22Z</time>
      </trkpt>
      <trkpt lat="47.1531" lon="9.3112">
        <ele>2191.5</ele>
        <time>2024-07-10T06:56:24Z</time>
      </trkpt>
      <trkpt lat="47.15311" lon="9.31118">
        <ele>2191.4</ele>
        <time>2024-07-10T06:56:25Z</time>
      </trkpt>
      <trkpt lat="47.1531" lon="9.31116">
        <ele>2192.5</ele>
        <time>2024-07-10T06:56:27Z</time>
      </trkpt>
      <trkpt lat="47.1531" lon="9.31114">
        <ele>2192.9</ele>
        <time>2024-07-10T06:56:30Z</time>
      </trkpt>
      <trkpt lat="47.15309" lon="9.31111">
        <ele>2192.3</ele>
        <time>2024-07-10T06:56:32Z</time>
      </trkpt>
      <trkpt lat="47.15308" lon="9.31111">
        <ele>2192.4</ele>
        <time>2024-07-10T06:56:34Z</time>
      </trkpt>
      <trkpt lat="47.15307" lon="9.3111">
        <ele>2191.5</ele>
        <time>2024-07-10T06:56:37Z</time>
      </trkpt>
      <trkpt lat="47.15306" lon="9.31109">
        <ele>2191.2</ele>
        <time>2024-07-10T06:56:39Z</time>
      </trkpt>
      <trkpt lat="47.15305" lon="9.31108">
        <ele>2190.6</ele>
        <time>2024-07-10T06:56:40Z</time>
      </trkpt>
      <trkpt lat="47.15304" lon="9.31107">
        <ele>2189.7</ele>
        <time>2024-07-10T06:56:41Z</time>
      </trkpt>
      <trkpt lat="47.15303" lon="9.31107">
        <ele>2189.7</ele>
        <time>2024-07-10T06:56:42Z</time>
      </trkpt>
      <trkpt lat="47.15302" lon="9.31106">
        <ele>2189.6</ele>
        <time>2024-07-10T06:56:43Z</time>
      </trkpt>
      <trkpt lat="47.153" lon="9.31106">
        <ele>2190.4</ele>
        <time>2024-07-10T06:56:45Z</time>
      </trkpt>
      <trkpt lat="47.15299" lon="9.31104">
        <ele>2191</ele>
        <time>2024-07-10T06:56:48Z</time>
      </trkpt>
      <trkpt lat="47.15298" lon="9.31105">
        <ele>2191</ele>
        <time>2024-07-10T06:56:49Z</time>
      </trkpt>
      <trkpt lat="47.15297" lon="9.31104">
        <ele>2191.3</ele>
        <time>2024-07-10T06:56:51Z</time>
      </trkpt>
      <trkpt lat="47.15296" lon="9.31103">
        <ele>2191.3</ele>
        <time>2024-07-10T06:56:53Z</time>
      </trkpt>
      <trkpt lat="47.15295" lon="9.31101">
        <ele>2191.2</ele>
        <time>2024-07-10T06:56:55Z</time>
      </trkpt>
      <trkpt lat="47.15293" lon="9.311">
        <ele>2191.7</ele>
        <time>2024-07-10T06:56:57Z</time>
      </trkpt>
      <trkpt lat="47.15292" lon="9.311">
        <ele>2192.4</ele>
        <time>2024-07-10T06:56:58Z</time>
      </trkpt>
      <trkpt lat="47.15291" lon="9.31099">
        <ele>2192.5</ele>
        <time>2024-07-10T06:57:00Z</time>
      </trkpt>
      <trkpt lat="47.1529" lon="9.31098">
        <ele>2192.6</ele>
        <time>2024-07-10T06:57:02Z</time>
      </trkpt>
      <trkpt lat="47.15288" lon="9.31098">
        <ele>2192.7</ele>
        <time>2024-07-10T06:57:04Z</time>
      </trkpt>
      <trkpt lat="47.15287" lon="9.31098">
        <ele>2192.7</ele>
        <time>2024-07-10T06:57:06Z</time>
      </trkpt>
      <trkpt lat="47.15286" lon="9.31098">
        <ele>2193</ele>
        <time>2024-07-10T06:57:07Z</time>
      </trkpt>
      <trkpt lat="47.15284" lon="9.31098">
        <ele>2193.9</ele>
        <time>2024-07-10T06:57:09Z</time>
      </trkpt>
      <trkpt lat="47.15282" lon="9.31096">
        <ele>2194.1</ele>
        <time>2024-07-10T06:57:11Z</time>
      </trkpt>
      <trkpt lat="47.15281" lon="9.31095">
        <ele>2193.7</ele>
        <time>2024-07-10T06:57:13Z</time>
      </trkpt>
      <trkpt lat="47.1528" lon="9.31094">
        <ele>2193.5</ele>
        <time>2024-07-10T06:57:15Z</time>
      </trkpt>
      <trkpt lat="47.15279" lon="9.31093">
        <ele>2192.6</ele>
        <time>2024-07-10T06:57:16Z</time>
      </trkpt>
      <trkpt lat="47.15279" lon="9.31093">
        <ele>2192.3</ele>
        <time>2024-07-10T06:57:18Z</time>
      </trkpt>
      <trkpt lat="47.15277" lon="9.31092">
        <ele>2192.6</ele>
        <time>2024-07-10T06:57:20Z</time>
      </trkpt>
      <trkpt lat="47.15275" lon="9.31092">
        <ele>2192.8</ele>
        <time>2024-07-10T06:57:22Z</time>
      </trkpt>
      <trkpt lat="47.15274" lon="9.31093">
        <ele>2193.1</ele>
        <time>2024-07-10T06:57:24Z</time>
      </trkpt>
      <trkpt lat="47.15272" lon="9.31092">
        <ele>2193.7</ele>
        <time>2024-07-10T06:57:26Z</time>
      </trkpt>
      <trkpt lat="47.15271" lon="9.31092">
        <ele>2194</ele>
        <time>2024-07-10T06:57:27Z</time>
      </trkpt>
      <trkpt lat="47.15269" lon="9.31092">
        <ele>2194.2</ele>
        <time>2024-07-10T06:57:28Z</time>
      </trkpt>
      <trkpt lat="47.15268" lon="9.31092">
        <ele>2194.1</ele>
        <time>2024-07-10T06:57:29Z</time>
      </trkpt>
      <trkpt lat="47.15267" lon="9.31093">
        <ele>2194.9</ele>
        <time>2024-07-10T06:57:31Z</time>
      </trkpt>
      <trkpt lat="47.15266" lon="9.31093">
        <ele>2195.3</ele>
        <time>2024-07-10T06:57:32Z</time>
      </trkpt>
      <trkpt lat="47.15264" lon="9.31093">
        <ele>2195.7</ele>
        <time>2024-07-10T06:57:33Z</time>
      </trkpt>
      <trkpt lat="47.15263" lon="9.31093">
        <ele>2196</ele>
        <time>2024-07-10T06:57:34Z</time>
      </trkpt>
      <trkpt lat="47.15261" lon="9.31093">
        <ele>2196.5</ele>
        <time>2024-07-10T06:57:36Z</time>
      </trkpt>
      <trkpt lat="47.1526" lon="9.31092">
        <ele>2197.5</ele>
        <time>2024-07-10T06:57:38Z</time>
      </trkpt>
      <trkpt lat="47.15259" lon="9.31091">
        <ele>2198.2</ele>
        <time>2024-07-10T06:57:40Z</time>
      </trkpt>
      <trkpt lat="47.15258" lon="9.3109">
        <ele>2198.7</ele>
        <time>2024-07-10T06:57:42Z</time>
      </trkpt>
      <trkpt lat="47.15258" lon="9.31088">
        <ele>2198.9</ele>
        <time>2024-07-10T06:57:43Z</time>
      </trkpt>
      <trkpt lat="47.15256" lon="9.31087">
        <ele>2199</ele>
        <time>2024-07-10T06:57:44Z</time>
      </trkpt>
      <trkpt lat="47.15255" lon="9.31085">
        <ele>2198.5</ele>
        <time>2024-07-10T06:57:45Z</time>
      </trkpt>
      <trkpt lat="47.15254" lon="9.31084">
        <ele>2198.2</ele>
        <time>2024-07-10T06:57:46Z</time>
      </trkpt>
      <trkpt lat="47.15253" lon="9.31083">
        <ele>2197.8</ele>
        <time>2024-07-10T06:57:47Z</time>
      </trkpt>
      <trkpt lat="47.15252" lon="9.31082">
        <ele>2197</ele>
        <time>2024-07-10T06:57:49Z</time>
      </trkpt>
      <trkpt lat="47.15252" lon="9.31081">
        <ele>2196.7</ele>
        <time>2024-07-10T06:57:51Z</time>
      </trkpt>
      <trkpt lat="47.15251" lon="9.31079">
        <ele>2197.4</ele>
        <time>2024-07-10T06:57:54Z</time>
      </trkpt>
      <trkpt lat="47.15251" lon="9.31078">
        <ele>2198.1</ele>
        <time>2024-07-10T06:57:57Z</time>
      </trkpt>
      <trkpt lat="47.1525" lon="9.31077">
        <ele>2198.1</ele>
        <time>2024-07-10T06:58:00Z</time>
      </trkpt>
      <trkpt lat="47.15248" lon="9.31075">
        <ele>2198.7</ele>
        <time>2024-07-10T06:58:06Z</time>
      </trkpt>
      <trkpt lat="47.15247" lon="9.31074">
        <ele>2198.7</ele>
        <time>2024-07-10T06:58:07Z</time>
      </trkpt>
      <trkpt lat="47.15247" lon="9.31072">
        <ele>2199</ele>
        <time>2024-07-10T06:58:10Z</time>
      </trkpt>
      <trkpt lat="47.15245" lon="9.31072">
        <ele>2199.1</ele>
        <time>2024-07-10T06:58:12Z</time>
      </trkpt>
      <trkpt lat="47.15244" lon="9.31071">
        <ele>2199.3</ele>
        <time>2024-07-10T06:58:13Z</time>
      </trkpt>
      <trkpt lat="47.15243" lon="9.3107">
        <ele>2199.4</ele>
        <time>2024-07-10T06:58:15Z</time>
      </trkpt>
      <trkpt lat="47.15242" lon="9.31069">
        <ele>2199.4</ele>
        <time>2024-07-10T06:58:17Z</time>
      </trkpt>
      <trkpt lat="47.15241" lon="9.31068">
        <ele>2199.4</ele>
        <time>2024-07-10T06:58:19Z</time>
      </trkpt>
      <trkpt lat="47.1524" lon="9.31067">
        <ele>2199.6</ele>
        <time>2024-07-10T06:58:22Z</time>
      </trkpt>
      <trkpt lat="47.1524" lon="9.31065">
        <ele>2200.2</ele>
        <time>2024-07-10T06:58:25Z</time>
      </trkpt>
      <trkpt lat="47.1524" lon="9.31063">
        <ele>2200.9</ele>
        <time>2024-07-10T06:58:27Z</time>
      </trkpt>
      <trkpt lat="47.15239" lon="9.31062">
        <ele>2202.6</ele>
        <time>2024-07-10T06:58:29Z</time>
      </trkpt>
      <trkpt lat="47.15238" lon="9.31061">
        <ele>2203.3</ele>
        <time>2024-07-10T06:58:31Z</time>
      </trkpt>
      <trkpt lat="47.15237" lon="9.3106">
        <ele>2204.5</ele>
        <time>2024-07-10T06:58:34Z</time>
      </trkpt>
      <trkpt lat="47.15238" lon="9.3106">
        <ele>2204.8</ele>
        <time>2024-07-10T06:58:36Z</time>
      </trkpt>
      <trkpt lat="47.15239" lon="9.31059">
        <ele>2204.9</ele>
        <time>2024-07-10T06:58:38Z</time>
      </trkpt>
      <trkpt lat="47.1524" lon="9.31057">
        <ele>2205.4</ele>
        <time>2024-07-10T06:58:40Z</time>
      </trkpt>
      <trkpt lat="47.15241" lon="9.31056">
        <ele>2206</ele>
        <time>2024-07-10T06:58:43Z</time>
      </trkpt>
      <trkpt lat="47.15241" lon="9.31054">
        <ele>2206.6</ele>
        <time>2024-07-10T06:58:46Z</time>
      </trkpt>
      <trkpt lat="47.15242" lon="9.31052">
        <ele>2206.7</ele>
        <time>2024-07-10T06:58:49Z</time>
      </trkpt>
      <trkpt lat="47.15243" lon="9.3105">
        <ele>2207.3</ele>
        <time>2024-07-10T06:58:51Z</time>
      </trkpt>
      <trkpt lat="47.15243" lon="9.31049">
        <ele>2207.6</ele>
        <time>2024-07-10T06:58:52Z</time>
      </trkpt>
      <trkpt lat="47.15244" lon="9.31047">
        <ele>2207.8</ele>
        <time>2024-07-10T06:58:54Z</time>
      </trkpt>
      <trkpt lat="47.15245" lon="9.31047">
        <ele>2207.7</ele>
        <time>2024-07-10T06:58:56Z</time>
      </trkpt>
      <trkpt lat="47.15246" lon="9.31048">
        <ele>2208</ele>
        <time>2024-07-10T06:58:58Z</time>
      </trkpt>
      <trkpt lat="47.15248" lon="9.31047">
        <ele>2208.3</ele>
        <time>2024-07-10T06:59:00Z</time>
      </trkpt>
      <trkpt lat="47.15249" lon="9.31047">
        <ele>2208.4</ele>
        <time>2024-07-10T06:59:02Z</time>
      </trkpt>
      <trkpt lat="47.1525" lon="9.31048">
        <ele>2208.5</ele>
        <time>2024-07-10T06:59:04Z</time>
      </trkpt>
      <trkpt lat="47.15251" lon="9.31048">
        <ele>2208.8</ele>
        <time>2024-07-10T06:59:07Z</time>
      </trkpt>
      <trkpt lat="47.15251" lon="9.31048">
        <ele>2209.2</ele>
        <time>2024-07-10T06:59:10Z</time>
      </trkpt>
      <trkpt lat="47.15252" lon="9.31047">
        <ele>2209.7</ele>
        <time>2024-07-10T06:59:12Z</time>
      </trkpt>
      <trkpt lat="47.15254" lon="9.31047">
        <ele>2210.2</ele>
        <time>2024-07-10T06:59:14Z</time>
      </trkpt>
      <trkpt lat="47.15255" lon="9.31048">
        <ele>2210.9</ele>
        <time>2024-07-10T06:59:16Z</time>
      </trkpt>
      <trkpt lat="47.15256" lon="9.31049">
        <ele>2211.8</ele>
        <time>2024-07-10T06:59:18Z</time>
      </trkpt>
      <trkpt lat="47.15257" lon="9.31047">
        <ele>2212.8</ele>
        <time>2024-07-10T06:59:20Z</time>
      </trkpt>
      <trkpt lat="47.15257" lon="9.31045">
        <ele>2213.7</ele>
        <time>2024-07-10T06:59:22Z</time>
      </trkpt>
      <trkpt lat="47.15257" lon="9.31044">
        <ele>2214.3</ele>
        <time>2024-07-10T06:59:24Z</time>
      </trkpt>
      <trkpt lat="47.15257" lon="9.31043">
        <ele>2214.7</ele>
        <time>2024-07-10T06:59:25Z</time>
      </trkpt>
      <trkpt lat="47.15258" lon="9.31042">
        <ele>2215</ele>
        <time>2024-07-10T06:59:27Z</time>
      </trkpt>
      <trkpt lat="47.15259" lon="9.3104">
        <ele>2215.5</ele>
        <time>2024-07-10T06:59:29Z</time>
      </trkpt>
      <trkpt lat="47.1526" lon="9.31039">
        <ele>2215.7</ele>
        <time>2024-07-10T06:59:32Z</time>
      </trkpt>
      <trkpt lat="47.1526" lon="9.31038">
        <ele>2216.1</ele>
        <time>2024-07-10T06:59:34Z</time>
      </trkpt>
      <trkpt lat="47.1526" lon="9.31036">
        <ele>2216.5</ele>
        <time>2024-07-10T06:59:36Z</time>
      </trkpt>
      <trkpt lat="47.15261" lon="9.31035">
        <ele>2216.7</ele>
        <time>2024-07-10T06:59:38Z</time>
      </trkpt>
      <trkpt lat="47.15262" lon="9.31034">
        <ele>2216.9</ele>
        <time>2024-07-10T06:59:40Z</time>
      </trkpt>
      <trkpt lat="47.15264" lon="9.31032">
        <ele>2217.7</ele>
        <time>2024-07-10T06:59:42Z</time>
      </trkpt>
      <trkpt lat="47.15264" lon="9.31031">
        <ele>2218.2</ele>
        <time>2024-07-10T06:59:45Z</time>
      </trkpt>
      <trkpt lat="47.15265" lon="9.3103">
        <ele>2218.7</ele>
        <time>2024-07-10T06:59:48Z</time>
      </trkpt>
      <trkpt lat="47.15266" lon="9.3103">
        <ele>2219</ele>
        <time>2024-07-10T06:59:50Z</time>
      </trkpt>
      <trkpt lat="47.15268" lon="9.31029">
        <ele>2219.2</ele>
        <time>2024-07-10T06:59:52Z</time>
      </trkpt>
      <trkpt lat="47.15268" lon="9.31028">
        <ele>2220</ele>
        <time>2024-07-10T06:59:54Z</time>
      </trkpt>
      <trkpt lat="47.1527" lon="9.31027">
        <ele>2220.7</ele>
        <time>2024-07-10T06:59:56Z</time>
      </trkpt>
      <trkpt lat="47.15271" lon="9.31027">
        <ele>2221.4</ele>
        <time>2024-07-10T06:59:58Z</time>
      </trkpt>
      <trkpt lat="47.15272" lon="9.31028">
        <ele>2221.8</ele>
        <time>2024-07-10T06:59:59Z</time>
      </trkpt>
      <trkpt lat="47.15273" lon="9.31028">
        <ele>2222.1</ele>
        <time>2024-07-10T07:00:00Z</time>
      </trkpt>
      <trkpt lat="47.15275" lon="9.31029">
        <ele>2222.3</ele>
        <time>2024-07-10T07:00:02Z</time>
      </trkpt>
      <trkpt lat="47.15276" lon="9.31029">
        <ele>2222.5</ele>
        <time>2024-07-10T07:00:04Z</time>
      </trkpt>
      <trkpt lat="47.15277" lon="9.31029">
        <ele>2222.7</ele>
        <time>2024-07-10T07:00:06Z</time>
      </trkpt>
      <trkpt lat="47.15279" lon="9.31029">
        <ele>2222.9</ele>
        <time>2024-07-10T07:00:08Z</time>
      </trkpt>
      <trkpt lat="47.1528" lon="9.3103">
        <ele>2222.9</ele>
        <time>2024-07-10T07:00:10Z</time>
      </trkpt>
      <trkpt lat="47.15281" lon="9.31031">
        <ele>2223.1</ele>
        <time>2024-07-10T07:00:13Z</time>
      </trkpt>
      <trkpt lat="47.15282" lon="9.31031">
        <ele>2224.5</ele>
        <time>2024-07-10T07:00:19Z</time>
      </trkpt>
      <trkpt lat="47.15283" lon="9.31029">
        <ele>2224.4</ele>
        <time>2024-07-10T07:00:21Z</time>
      </trkpt>
      <trkpt lat="47.15283" lon="9.31027">
        <ele>2224.3</ele>
        <time>2024-07-10T07:00:24Z</time>
      </trkpt>
      <trkpt lat="47.15284" lon="9.31027">
        <ele>2224.5</ele>
        <time>2024-07-10T07:00:25Z</time>
      </trkpt>
      <trkpt lat="47.15285" lon="9.31025">
        <ele>2225.9</ele>
        <time>2024-07-10T07:00:31Z</time>
      </trkpt>
      <trkpt lat="47.15285" lon="9.31023">
        <ele>2226.4</ele>
        <time>2024-07-10T07:00:33Z</time>
      </trkpt>
      <trkpt lat="47.15286" lon="9.31022">
        <ele>2226.3</ele>
        <time>2024-07-10T07:00:34Z</time>
      </trkpt>
      <trkpt lat="47.15287" lon="9.3102">
        <ele>2226.5</ele>
        <time>2024-07-10T07:00:36Z</time>
      </trkpt>
      <trkpt lat="47.15287" lon="9.31019">
        <ele>2226.7</ele>
        <time>2024-07-10T07:00:37Z</time>
      </trkpt>
      <trkpt lat="47.15288" lon="9.31018">
        <ele>2227.8</ele>
        <time>2024-07-10T07:00:38Z</time>
      </trkpt>
      <trkpt lat="47.15289" lon="9.31016">
        <ele>2228.5</ele>
        <time>2024-07-10T07:00:39Z</time>
      </trkpt>
      <trkpt lat="47.1529" lon="9.31015">
        <ele>2228.9</ele>
        <time>2024-07-10T07:00:40Z</time>
      </trkpt>
      <trkpt lat="47.15291" lon="9.31014">
        <ele>2230.1</ele>
        <time>2024-07-10T07:00:42Z</time>
      </trkpt>
      <trkpt lat="47.15291" lon="9.31011">
        <ele>2231.6</ele>
        <time>2024-07-10T07:00:47Z</time>
      </trkpt>
      <trkpt lat="47.15291" lon="9.3101">
        <ele>2232.1</ele>
        <time>2024-07-10T07:00:48Z</time>
      </trkpt>
      <trkpt lat="47.15291" lon="9.31007">
        <ele>2233.3</ele>
        <time>2024-07-10T07:00:50Z</time>
      </trkpt>
      <trkpt lat="47.1529" lon="9.31006">
        <ele>2234.8</ele>
        <time>2024-07-10T07:00:52Z</time>
      </trkpt>
      <trkpt lat="47.15289" lon="9.31005">
        <ele>2235.4</ele>
        <time>2024-07-10T07:00:53Z</time>
      </trkpt>
      <trkpt lat="47.15289" lon="9.31004">
        <ele>2235.7</ele>
        <time>2024-07-10T07:00:54Z</time>
      </trkpt>
      <trkpt lat="47.15288" lon="9.31003">
        <ele>2236</ele>
        <time>2024-07-10T07:00:55Z</time>
      </trkpt>
      <trkpt lat="47.15288" lon="9.31001">
        <ele>2236.3</ele>
        <time>2024-07-10T07:00:56Z</time>
      </trkpt>
      <trkpt lat="47.15288" lon="9.31">
        <ele>2236.9</ele>
        <time>2024-07-10T07:00:57Z</time>
      </trkpt>
      <trkpt lat="47.15287" lon="9.30999">
        <ele>2237.7</ele>
        <time>2024-07-10T07:00:59Z</time>
      </trkpt>
      <trkpt lat="47.15287" lon="9.30997">
        <ele>2238.5</ele>
        <time>2024-07-10T07:01:01Z</time>
      </trkpt>
      <trkpt lat="47.15288" lon="9.30995">
        <ele>2239.4</ele>
        <time>2024-07-10T07:01:03Z</time>
      </trkpt>
      <trkpt lat="47.15289" lon="9.30994">
        <ele>2240.4</ele>
        <time>2024-07-10T07:01:05Z</time>
      </trkpt>
      <trkpt lat="47.1529" lon="9.30993">
        <ele>2241.1</ele>
        <time>2024-07-10T07:01:07Z</time>
      </trkpt>
      <trkpt lat="47.15291" lon="9.30992">
        <ele>2242.2</ele>
        <time>2024-07-10T07:01:11Z</time>
      </trkpt>
      <trkpt lat="47.15292" lon="9.30992">
        <ele>2242.7</ele>
        <time>2024-07-10T07:01:13Z</time>
      </trkpt>
      <trkpt lat="47.15293" lon="9.30991">
        <ele>2243.2</ele>
        <time>2024-07-10T07:01:15Z</time>
      </trkpt>
      <trkpt lat="47.15295" lon="9.30992">
        <ele>2243.7</ele>
        <time>2024-07-10T07:01:17Z</time>
      </trkpt>
      <trkpt lat="47.15295" lon="9.30993">
        <ele>2244.4</ele>
        <time>2024-07-10T07:01:20Z</time>
      </trkpt>
      <trkpt lat="47.15295" lon="9.30995">
        <ele>2244.4</ele>
        <time>2024-07-10T07:01:22Z</time>
      </trkpt>
      <trkpt lat="47.15296" lon="9.30996">
        <ele>2244.5</ele>
        <time>2024-07-10T07:01:23Z</time>
      </trkpt>
      <trkpt lat="47.15297" lon="9.30997">
        <ele>2244.4</ele>
        <time>2024-07-10T07:01:24Z</time>
      </trkpt>
      <trkpt lat="47.15298" lon="9.30997">
        <ele>2244.3</ele>
        <time>2024-07-10T07:01:27Z</time>
      </trkpt>
      <trkpt lat="47.153" lon="9.30998">
        <ele>2244.9</ele>
        <time>2024-07-10T07:01:29Z</time>
      </trkpt>
      <trkpt lat="47.15301" lon="9.30999">
        <ele>2244.9</ele>
        <time>2024-07-10T07:01:31Z</time>
      </trkpt>
      <trkpt lat="47.15302" lon="9.30999">
        <ele>2244.9</ele>
        <time>2024-07-10T07:01:32Z</time>
      </trkpt>
      <trkpt lat="47.15304" lon="9.30999">
        <ele>2245.1</ele>
        <time>2024-07-10T07:01:34Z</time>
      </trkpt>
      <trkpt lat="47.15305" lon="9.30999">
        <ele>2245</ele>
        <time>2024-07-10T07:01:36Z</time>
      </trkpt>
      <trkpt lat="47.15306" lon="9.30999">
        <ele>2244.8</ele>
        <time>2024-07-10T07:01:39Z</time>
      </trkpt>
      <trkpt lat="47.15307" lon="9.31">
        <ele>2246.8</ele>
        <time>2024-07-10T07:01:44Z</time>
      </trkpt>
      <trkpt lat="47.15307" lon="9.31001">
        <ele>2247</ele>
        <time>2024-07-10T07:01:45Z</time>
      </trkpt>
      <trkpt lat="47.15308" lon="9.31003">
        <ele>2247.4</ele>
        <time>2024-07-10T07:01:46Z</time>
      </trkpt>
      <trkpt lat="47.15308" lon="9.31004">
        <ele>2247.5</ele>
        <time>2024-07-10T07:01:47Z</time>
      </trkpt>
      <trkpt lat="47.15309" lon="9.31005">
        <ele>2247.8</ele>
        <time>2024-07-10T07:01:48Z</time>
      </trkpt>
      <trkpt lat="47.1531" lon="9.31006">
        <ele>2248</ele>
        <time>2024-07-10T07:01:49Z</time>
      </trkpt>
      <trkpt lat="47.15312" lon="9.31005">
        <ele>2247.8</ele>
        <time>2024-07-10T07:01:51Z</time>
      </trkpt>
      <trkpt lat="47.15313" lon="9.31007">
        <ele>2248.4</ele>
        <time>2024-07-10T07:01:53Z</time>
      </trkpt>
      <trkpt lat="47.15314" lon="9.31007">
        <ele>2248.9</ele>
        <time>2024-07-10T07:01:56Z</time>
      </trkpt>
      <trkpt lat="47.15314" lon="9.31005">
        <ele>2249.1</ele>
        <time>2024-07-10T07:02:00Z</time>
      </trkpt>
      <trkpt lat="47.15315" lon="9.31004">
        <ele>2249.6</ele>
        <time>2024-07-10T07:02:02Z</time>
      </trkpt>
      <trkpt lat="47.15317" lon="9.31003">
        <ele>2250.1</ele>
        <time>2024-07-10T07:02:05Z</time>
      </trkpt>
      <trkpt lat="47.15318" lon="9.31003">
        <ele>2250.3</ele>
        <time>2024-07-10T07:02:08Z</time>
      </trkpt>
      <trkpt lat="47.15319" lon="9.31002">
        <ele>2250.2</ele>
        <time>2024-07-10T07:02:10Z</time>
      </trkpt>
      <trkpt lat="47.15319" lon="9.31001">
        <ele>2250.3</ele>
        <time>2024-07-10T07:02:13Z</time>
      </trkpt>
      <trkpt lat="47.1532" lon="9.31">
        <ele>2250.5</ele>
        <time>2024-07-10T07:02:15Z</time>
      </trkpt>
      <trkpt lat="47.1532" lon="9.30998">
        <ele>2250.6</ele>
        <time>2024-07-10T07:02:16Z</time>
      </trkpt>
      <trkpt lat="47.1532" lon="9.30996">
        <ele>2250.7</ele>
        <time>2024-07-10T07:02:18Z</time>
      </trkpt>
      <trkpt lat="47.15321" lon="9.30995">
        <ele>2250.8</ele>
        <time>2024-07-10T07:02:20Z</time>
      </trkpt>
      <trkpt lat="47.15322" lon="9.30995">
        <ele>2250.9</ele>
        <time>2024-07-10T07:02:24Z</time>
      </trkpt>
      <trkpt lat="47.15323" lon="9.30996">
        <ele>2251.3</ele>
        <time>2024-07-10T07:02:26Z</time>
      </trkpt>
      <trkpt lat="47.15324" lon="9.30996">
        <ele>2251.4</ele>
        <time>2024-07-10T07:02:30Z</time>
      </trkpt>
      <trkpt lat="47.15325" lon="9.30996">
        <ele>2251.5</ele>
        <time>2024-07-10T07:02:34Z</time>
      </trkpt>
      <trkpt lat="47.15326" lon="9.30995">
        <ele>2252</ele>
        <time>2024-07-10T07:02:37Z</time>
      </trkpt>
      <trkpt lat="47.15325" lon="9.30995">
        <ele>2253.5</ele>
        <time>2024-07-10T07:02:41Z</time>
      </trkpt>
      <trkpt lat="47.15325" lon="9.30993">
        <ele>2254.6</ele>
        <time>2024-07-10T07:02:43Z</time>
      </trkpt>
      <trkpt lat="47.15326" lon="9.30992">
        <ele>2255.5</ele>
        <time>2024-07-10T07:02:45Z</time>
      </trkpt>
      <trkpt lat="47.15326" lon="9.3099">
        <ele>2256.5</ele>
        <time>2024-07-10T07:02:47Z</time>
      </trkpt>
      <trkpt lat="47.15326" lon="9.30988">
        <ele>2257.5</ele>
        <time>2024-07-10T07:02:49Z</time>
      </trkpt>
      <trkpt lat="47.15326" lon="9.30987">
        <ele>2258</ele>
        <time>2024-07-10T07:02:50Z</time>
      </trkpt>
      <trkpt lat="47.15326" lon="9.30985">
        <ele>2258.6</ele>
        <time>2024-07-10T07:02:53Z</time>
      </trkpt>
      <trkpt lat="47.15326" lon="9.30984">
        <ele>2258.9</ele>
        <time>2024-07-10T07:02:55Z</time>
      </trkpt>
      <trkpt lat="47.15326" lon="9.30983">
        <ele>2258.3</ele>
        <time>2024-07-10T07:02:58Z</time>
      </trkpt>
      <trkpt lat="47.15328" lon="9.30983">
        <ele>2258</ele>
        <time>2024-07-10T07:03:01Z</time>
      </trkpt>
      <trkpt lat="47.1533" lon="9.30982">
        <ele>2258.1</ele>
        <time>2024-07-10T07:03:03Z</time>
      </trkpt>
      <trkpt lat="47.15331" lon="9.30982">
        <ele>2258.2</ele>
        <time>2024-07-10T07:03:05Z</time>
      </trkpt>
      <trkpt lat="47.15332" lon="9.30982">
        <ele>2258.5</ele>
        <time>2024-07-10T07:03:07Z</time>
      </trkpt>
      <trkpt lat="47.15334" lon="9.30982">
        <ele>2259.5</ele>
        <time>2024-07-10T07:03:10Z</time>
      </trkpt>
      <trkpt lat="47.15336" lon="9.30982">
        <ele>2260.2</ele>
        <time>2024-07-10T07:03:13Z</time>
      </trkpt>
      <trkpt lat="47.15337" lon="9.30983">
        <ele>2260.4</ele>
        <time>2024-07-10T07:03:15Z</time>
      </trkpt>
      <trkpt lat="47.15338" lon="9.30983">
        <ele>2260.4</ele>
        <time>2024-07-10T07:03:17Z</time>
      </trkpt>
      <trkpt lat="47.15339" lon="9.30985">
        <ele>2261.1</ele>
        <time>2024-07-10T07:03:19Z</time>
      </trkpt>
      <trkpt lat="47.1534" lon="9.30986">
        <ele>2261.6</ele>
        <time>2024-07-10T07:03:22Z</time>
      </trkpt>
      <trkpt lat="47.1534" lon="9.30988">
        <ele>2262</ele>
        <time>2024-07-10T07:03:24Z</time>
      </trkpt>
      <trkpt lat="47.15341" lon="9.30989">
        <ele>2262</ele>
        <time>2024-07-10T07:03:26Z</time>
      </trkpt>
      <trkpt lat="47.15342" lon="9.3099">
        <ele>2262.4</ele>
        <time>2024-07-10T07:03:28Z</time>
      </trkpt>
      <trkpt lat="47.15343" lon="9.3099">
        <ele>2262.8</ele>
        <time>2024-07-10T07:03:31Z</time>
      </trkpt>
      <trkpt lat="47.15344" lon="9.30991">
        <ele>2263.7</ele>
        <time>2024-07-10T07:03:34Z</time>
      </trkpt>
      <trkpt lat="47.15345" lon="9.30993">
        <ele>2264</ele>
        <time>2024-07-10T07:03:36Z</time>
      </trkpt>
      <trkpt lat="47.15346" lon="9.30993">
        <ele>2264.5</ele>
        <time>2024-07-10T07:03:38Z</time>
      </trkpt>
      <trkpt lat="47.15347" lon="9.30994">
        <ele>2265.3</ele>
        <time>2024-07-10T07:03:40Z</time>
      </trkpt>
      <trkpt lat="47.15347" lon="9.30996">
        <ele>2265.4</ele>
        <time>2024-07-10T07:03:42Z</time>
      </trkpt>
      <trkpt lat="47.15348" lon="9.30997">
        <ele>2265.3</ele>
        <time>2024-07-10T07:03:45Z</time>
      </trkpt>
      <trkpt lat="47.15348" lon="9.30998">
        <ele>2265.9</ele>
        <time>2024-07-10T07:03:47Z</time>
      </trkpt>
      <trkpt lat="47.15349" lon="9.31">
        <ele>2267</ele>
        <time>2024-07-10T07:03:49Z</time>
      </trkpt>
      <trkpt lat="47.15349" lon="9.31001">
        <ele>2266.9</ele>
        <time>2024-07-10T07:03:50Z</time>
      </trkpt>
      <trkpt lat="47.1535" lon="9.31003">
        <ele>2267.3</ele>
        <time>2024-07-10T07:03:52Z</time>
      </trkpt>
      <trkpt lat="47.15351" lon="9.31003">
        <ele>2268.2</ele>
        <time>2024-07-10T07:03:55Z</time>
      </trkpt>
      <trkpt lat="47.15352" lon="9.31004">
        <ele>2268.9</ele>
        <time>2024-07-10T07:03:57Z</time>
      </trkpt>
      <trkpt lat="47.15353" lon="9.31004">
        <ele>2269.7</ele>
        <time>2024-07-10T07:04:01Z</time>
      </trkpt>
      <trkpt lat="47.15354" lon="9.31006">
        <ele>2270.4</ele>
        <time>2024-07-10T07:04:04Z</time>
      </trkpt>
      <trkpt lat="47.15354" lon="9.31008">
        <ele>2271.8</ele>
        <time>2024-07-10T07:04:06Z</time>
      </trkpt>
      <trkpt lat="47.15355" lon="9.31009">
        <ele>2273.4</ele>
        <time>2024-07-10T07:04:09Z</time>
      </trkpt>
      <trkpt lat="47.15355" lon="9.3101">
        <ele>2275.2</ele>
        <time>2024-07-10T07:04:12Z</time>
      </trkpt>
      <trkpt lat="47.15357" lon="9.31011">
        <ele>2276.6</ele>
        <time>2024-07-10T07:04:15Z</time>
      </trkpt>
      <trkpt lat="47.15358" lon="9.31011">
        <ele>2279.6</ele>
        <time>2024-07-10T07:04:23Z</time>
      </trkpt>
      <trkpt lat="47.15359" lon="9.31015">
        <ele>2280.9</ele>
        <time>2024-07-10T07:04:26Z</time>
      </trkpt>
      <trkpt lat="47.1536" lon="9.31016">
        <ele>2281.4</ele>
        <time>2024-07-10T07:04:28Z</time>
      </trkpt>
      <trkpt lat="47.1536" lon="9.31017">
        <ele>2281.6</ele>
        <time>2024-07-10T07:04:29Z</time>
      </trkpt>
      <trkpt lat="47.1536" lon="9.31018">
        <ele>2281.7</ele>
        <time>2024-07-10T07:04:30Z</time>
      </trkpt>
      <trkpt lat="47.15361" lon="9.3102">
        <ele>2281.9</ele>
        <time>2024-07-10T07:04:32Z</time>
      </trkpt>
      <trkpt lat="47.15362" lon="9.31022">
        <ele>2281.9</ele>
        <time>2024-07-10T07:04:34Z</time>
      </trkpt>
      <trkpt lat="47.15362" lon="9.31024">
        <ele>2282.1</ele>
        <time>2024-07-10T07:04:35Z</time>
      </trkpt>
      <trkpt lat="47.15363" lon="9.31025">
        <ele>2282.4</ele>
        <time>2024-07-10T07:04:36Z</time>
      </trkpt>
      <trkpt lat="47.15363" lon="9.31027">
        <ele>2282.4</ele>
        <time>2024-07-10T07:04:37Z</time>
      </trkpt>
      <trkpt lat="47.15364" lon="9.31028">
        <ele>2282.3</ele>
        <time>2024-07-10T07:04:38Z</time>
      </trkpt>
      <trkpt lat="47.15364" lon="9.3103">
        <ele>2282.4</ele>
        <time>2024-07-10T07:04:40Z</time>
      </trkpt>
      <trkpt lat="47.15365" lon="9.31031">
        <ele>2282</ele>
        <time>2024-07-10T07:04:42Z</time>
      </trkpt>
      <trkpt lat="47.15365" lon="9.31032">
        <ele>2281.8</ele>
        <time>2024-07-10T07:04:44Z</time>
      </trkpt>
      <trkpt lat="47.15367" lon="9.31034">
        <ele>2282</ele>
        <time>2024-07-10T07:04:46Z</time>
      </trkpt>
      <trkpt lat="47.15367" lon="9.31034">
        <ele>2281.9</ele>
        <time>2024-07-10T07:04:47Z</time>
      </trkpt>
      <trkpt lat="47.15368" lon="9.31035">
        <ele>2281.9</ele>
        <time>2024-07-10T07:04:49Z</time>
      </trkpt>
      <trkpt lat="47.15369" lon="9.31036">
        <ele>2281.8</ele>
        <time>2024-07-10T07:04:50Z</time>
      </trkpt>
      <trkpt lat="47.1537" lon="9.31037">
        <ele>2281.3</ele>
        <time>2024-07-10T07:04:52Z</time>
      </trkpt>
      <trkpt lat="47.15371" lon="9.31038">
        <ele>2281.5</ele>
        <time>2024-07-10T07:04:53Z</time>
      </trkpt>
      <trkpt lat="47.15371" lon="9.3104">
        <ele>2281.6</ele>
        <time>2024-07-10T07:04:54Z</time>
      </trkpt>
      <trkpt lat="47.15371" lon="9.31041">
        <ele>2282.1</ele>
        <time>2024-07-10T07:04:56Z</time>
      </trkpt>
      <trkpt lat="47.15372" lon="9.31041">
        <ele>2283</ele>
        <time>2024-07-10T07:04:58Z</time>
      </trkpt>
      <trkpt lat="47.15373" lon="9.31042">
        <ele>2284.3</ele>
        <time>2024-07-10T07:05:02Z</time>
      </trkpt>
      <trkpt lat="47.15375" lon="9.31044">
        <ele>2284.8</ele>
        <time>2024-07-10T07:05:04Z</time>
      </trkpt>
      <trkpt lat="47.15375" lon="9.31046">
        <ele>2285.2</ele>
        <time>2024-07-10T07:05:05Z</time>
      </trkpt>
      <trkpt lat="47.15376" lon="9.31046">
        <ele>2286.5</ele>
        <time>2024-07-10T07:05:08Z</time>
      </trkpt>
      <trkpt lat="47.15377" lon="9.31047">
        <ele>2287.1</ele>
        <time>2024-07-10T07:05:09Z</time>
      </trkpt>
      <trkpt lat="47.15378" lon="9.31047">
        <ele>2287.8</ele>
        <time>2024-07-10T07:05:10Z</time>
      </trkpt>
      <trkpt lat="47.15379" lon="9.31049">
        <ele>2290.2</ele>
        <time>2024-07-10T07:05:13Z</time>
      </trkpt>
      <trkpt lat="47.1538" lon="9.3105">
        <ele>2291.2</ele>
        <time>2024-07-10T07:05:15Z</time>
      </trkpt>
      <trkpt lat="47.1538" lon="9.31049">
        <ele>2291.2</ele>
        <time>2024-07-10T07:05:17Z</time>
      </trkpt>
      <trkpt lat="47.15381" lon="9.3105">
        <ele>2292.1</ele>
        <time>2024-07-10T07:05:19Z</time>
      </trkpt>
      <trkpt lat="47.15382" lon="9.3105">
        <ele>2292.3</ele>
        <time>2024-07-10T07:05:21Z</time>
      </trkpt>
      <trkpt lat="47.15383" lon="9.31051">
        <ele>2292.3</ele>
        <time>2024-07-10T07:05:23Z</time>
      </trkpt>
      <trkpt lat="47.15384" lon="9.31052">
        <ele>2292</ele>
        <time>2024-07-10T07:05:25Z</time>
      </trkpt>
      <trkpt lat="47.15385" lon="9.31052">
        <ele>2292.2</ele>
        <time>2024-07-10T07:05:28Z</time>
      </trkpt>
      <trkpt lat="47.15385" lon="9.31052">
        <ele>2292.4</ele>
        <time>2024-07-10T07:05:29Z</time>
      </trkpt>
      <trkpt lat="47.15386" lon="9.31053">
        <ele>2293</ele>
        <time>2024-07-10T07:05:32Z</time>
      </trkpt>
      <trkpt lat="47.15386" lon="9.31054">
        <ele>2295.1</ele>
        <time>2024-07-10T07:05:36Z</time>
      </trkpt>
      <trkpt lat="47.15386" lon="9.31056">
        <ele>2295.6</ele>
        <time>2024-07-10T07:05:38Z</time>
      </trkpt>
      <trkpt lat="47.15388" lon="9.31057">
        <ele>2296.8</ele>
        <time>2024-07-10T07:05:41Z</time>
      </trkpt>
      <trkpt lat="47.15389" lon="9.31058">
        <ele>2297.9</ele>
        <time>2024-07-10T07:05:44Z</time>
      </trkpt>
      <trkpt lat="47.1539" lon="9.31059">
        <ele>2298.4</ele>
        <time>2024-07-10T07:05:47Z</time>
      </trkpt>
      <trkpt lat="47.15391" lon="9.31059">
        <ele>2298.9</ele>
        <time>2024-07-10T07:05:50Z</time>
      </trkpt>
      <trkpt lat="47.15392" lon="9.31059">
        <ele>2299.2</ele>
        <time>2024-07-10T07:05:53Z</time>
      </trkpt>
      <trkpt lat="47.15393" lon="9.31058">
        <ele>2299.2</ele>
        <time>2024-07-10T07:05:56Z</time>
      </trkpt>
      <trkpt lat="47.15393" lon="9.31056">
        <ele>2300.6</ele>
        <time>2024-07-10T07:06:00Z</time>
      </trkpt>
      <trkpt lat="47.15394" lon="9.31055">
        <ele>2301.7</ele>
        <time>2024-07-10T07:06:02Z</time>
      </trkpt>
      <trkpt lat="47.15395" lon="9.31053">
        <ele>2303</ele>
        <time>2024-07-10T07:06:05Z</time>
      </trkpt>
      <trkpt lat="47.15396" lon="9.31052">
        <ele>2304.2</ele>
        <time>2024-07-10T07:06:08Z</time>
      </trkpt>
      <trkpt lat="47.15397" lon="9.3105">
        <ele>2304.3</ele>
        <time>2024-07-10T07:06:10Z</time>
      </trkpt>
      <trkpt lat="47.15398" lon="9.3105">
        <ele>2305.1</ele>
        <time>2024-07-10T07:06:13Z</time>
      </trkpt>
      <trkpt lat="47.15399" lon="9.3105">
        <ele>2305.4</ele>
        <time>2024-07-10T07:06:15Z</time>
      </trkpt>
      <trkpt lat="47.154" lon="9.31051">
        <ele>2305.6</ele>
        <time>2024-07-10T07:06:17Z</time>
      </trkpt>
      <trkpt lat="47.15401" lon="9.31053">
        <ele>2305.6</ele>
        <time>2024-07-10T07:06:19Z</time>
      </trkpt>
      <trkpt lat="47.15403" lon="9.31054">
        <ele>2306.1</ele>
        <time>2024-07-10T07:06:21Z</time>
      </trkpt>
      <trkpt lat="47.15404" lon="9.31054">
        <ele>2306.4</ele>
        <time>2024-07-10T07:06:22Z</time>
      </trkpt>
      <trkpt lat="47.15405" lon="9.31056">
        <ele>2306.4</ele>
        <time>2024-07-10T07:06:24Z</time>
      </trkpt>
      <trkpt lat="47.15406" lon="9.31056">
        <ele>2306.6</ele>
        <time>2024-07-10T07:06:26Z</time>
      </trkpt>
      <trkpt lat="47.15407" lon="9.31058">
        <ele>2306.9</ele>
        <time>2024-07-10T07:06:28Z</time>
      </trkpt>
      <trkpt lat="47.15408" lon="9.31059">
        <ele>2307.3</ele>
        <time>2024-07-10T07:06:29Z</time>
      </trkpt>
      <trkpt lat="47.15409" lon="9.3106">
        <ele>2307.8</ele>
        <time>2024-07-10T07:06:31Z</time>
      </trkpt>
      <trkpt lat="47.1541" lon="9.31061">
        <ele>2307.8</ele>
        <time>2024-07-10T07:06:32Z</time>
      </trkpt>
      <trkpt lat="47.1541" lon="9.31061">
        <ele>2307.8</ele>
        <time>2024-07-10T07:06:33Z</time>
      </trkpt>
      <trkpt lat="47.15411" lon="9.31063">
        <ele>2308.1</ele>
        <time>2024-07-10T07:06:35Z</time>
      </trkpt>
      <trkpt lat="47.15412" lon="9.31063">
        <ele>2308.2</ele>
        <time>2024-07-10T07:06:36Z</time>
      </trkpt>
      <trkpt lat="47.15413" lon="9.31063">
        <ele>2308.1</ele>
        <time>2024-07-10T07:06:38Z</time>
      </trkpt>
      <trkpt lat="47.15415" lon="9.31064">
        <ele>2308.4</ele>
        <time>2024-07-10T07:06:40Z</time>
      </trkpt>
      <trkpt lat="47.15416" lon="9.31063">
        <ele>2309</ele>
        <time>2024-07-10T07:06:43Z</time>
      </trkpt>
      <trkpt lat="47.15417" lon="9.31062">
        <ele>2309.5</ele>
        <time>2024-07-10T07:06:45Z</time>
      </trkpt>
      <trkpt lat="47.15417" lon="9.31064">
        <ele>2310</ele>
        <time>2024-07-10T07:06:47Z</time>
      </trkpt>
      <trkpt lat="47.15417" lon="9.31065">
        <ele>2310.2</ele>
        <time>2024-07-10T07:06:48Z</time>
      </trkpt>
      <trkpt lat="47.15418" lon="9.31066">
        <ele>2310.5</ele>
        <time>2024-07-10T07:06:50Z</time>
      </trkpt>
      <trkpt lat="47.15419" lon="9.31067">
        <ele>2310.6</ele>
        <time>2024-07-10T07:06:52Z</time>
      </trkpt>
      <trkpt lat="47.1542" lon="9.31068">
        <ele>2310.5</ele>
        <time>2024-07-10T07:06:54Z</time>
      </trkpt>
      <trkpt lat="47.15421" lon="9.31068">
        <ele>2311.3</ele>
        <time>2024-07-10T07:06:57Z</time>
      </trkpt>
      <trkpt lat="47.15421" lon="9.31069">
        <ele>2312</ele>
        <time>2024-07-10T07:07:00Z</time>
      </trkpt>
      <trkpt lat="47.15423" lon="9.31069">
        <ele>2312.1</ele>
        <time>2024-07-10T07:07:03Z</time>
      </trkpt>
      <trkpt lat="47.15424" lon="9.3107">
        <ele>2312.4</ele>
        <time>2024-07-10T07:07:05Z</time>
      </trkpt>
      <trkpt lat="47.15425" lon="9.31071">
        <ele>2312.5</ele>
        <time>2024-07-10T07:07:06Z</time>
      </trkpt>
      <trkpt lat="47.15426" lon="9.31071">
        <ele>2313</ele>
        <time>2024-07-10T07:07:07Z</time>
      </trkpt>
      <trkpt lat="47.15427" lon="9.31072">
        <ele>2313.5</ele>
        <time>2024-07-10T07:07:08Z</time>
      </trkpt>
      <trkpt lat="47.15427" lon="9.31074">
        <ele>2313.6</ele>
        <time>2024-07-10T07:07:09Z</time>
      </trkpt>
      <trkpt lat="47.15428" lon="9.31074">
        <ele>2314.1</ele>
        <time>2024-07-10T07:07:10Z</time>
      </trkpt>
      <trkpt lat="47.15429" lon="9.31075">
        <ele>2314.5</ele>
        <time>2024-07-10T07:07:11Z</time>
      </trkpt>
      <trkpt lat="47.1543" lon="9.31075">
        <ele>2314.9</ele>
        <time>2024-07-10T07:07:12Z</time>
      </trkpt>
      <trkpt lat="47.15431" lon="9.31077">
        <ele>2315.4</ele>
        <time>2024-07-10T07:07:13Z</time>
      </trkpt>
      <trkpt lat="47.15432" lon="9.31078">
        <ele>2316</ele>
        <time>2024-07-10T07:07:14Z</time>
      </trkpt>
      <trkpt lat="47.15434" lon="9.31078">
        <ele>2316.5</ele>
        <time>2024-07-10T07:07:16Z</time>
      </trkpt>
      <trkpt lat="47.15434" lon="9.31077">
        <ele>2316.7</ele>
        <time>2024-07-10T07:07:18Z</time>
      </trkpt>
      <trkpt lat="47.15436" lon="9.31079">
        <ele>2316.8</ele>
        <time>2024-07-10T07:07:20Z</time>
      </trkpt>
      <trkpt lat="47.15437" lon="9.3108">
        <ele>2317.1</ele>
        <time>2024-07-10T07:07:22Z</time>
      </trkpt>
      <trkpt lat="47.15438" lon="9.3108">
        <ele>2317.5</ele>
        <time>2024-07-10T07:07:23Z</time>
      </trkpt>
      <trkpt lat="47.15439" lon="9.31081">
        <ele>2317.4</ele>
        <time>2024-07-10T07:07:24Z</time>
      </trkpt>
      <trkpt lat="47.15439" lon="9.31081">
        <ele>2317.5</ele>
        <time>2024-07-10T07:07:27Z</time>
      </trkpt>
      <trkpt lat="47.15439" lon="9.3108">
        <ele>2317.7</ele>
        <time>2024-07-10T07:07:29Z</time>
      </trkpt>
      <trkpt lat="47.15438" lon="9.31079">
        <ele>2318.1</ele>
        <time>2024-07-10T07:07:31Z</time>
      </trkpt>
      <trkpt lat="47.15438" lon="9.31078">
        <ele>2318.2</ele>
        <time>2024-07-10T07:07:32Z</time>
      </trkpt>
      <trkpt lat="47.15437" lon="9.31076">
        <ele>2318.1</ele>
        <time>2024-07-10T07:07:34Z</time>
      </trkpt>
      <trkpt lat="47.15436" lon="9.31074">
        <ele>2317.9</ele>
        <time>2024-07-10T07:07:35Z</time>
      </trkpt>
      <trkpt lat="47.15436" lon="9.31073">
        <ele>2317.6</ele>
        <time>2024-07-10T07:07:37Z</time>
      </trkpt>
      <trkpt lat="47.15436" lon="9.31071">
        <ele>2317.1</ele>
        <time>2024-07-10T07:07:38Z</time>
      </trkpt>
      <trkpt lat="47.15435" lon="9.31069">
        <ele>2317.3</ele>
        <time>2024-07-10T07:07:40Z</time>
      </trkpt>
      <trkpt lat="47.15435" lon="9.31067">
        <ele>2318.2</ele>
        <time>2024-07-10T07:07:42Z</time>
      </trkpt>
      <trkpt lat="47.15436" lon="9.31065">
        <ele>2318.7</ele>
        <time>2024-07-10T07:07:44Z</time>
      </trkpt>
      <trkpt lat="47.15436" lon="9.31063">
        <ele>2318.9</ele>
        <time>2024-07-10T07:07:45Z</time>
      </trkpt>
      <trkpt lat="47.15435" lon="9.31062">
        <ele>2319.2</ele>
        <time>2024-07-10T07:07:46Z</time>
      </trkpt>
      <trkpt lat="47.15434" lon="9.31059">
        <ele>2320.1</ele>
        <time>2024-07-10T07:07:48Z</time>
      </trkpt>
      <trkpt lat="47.15434" lon="9.31058">
        <ele>2320.4</ele>
        <time>2024-07-10T07:07:49Z</time>
      </trkpt>
      <trkpt lat="47.15434" lon="9.31056">
        <ele>2321</ele>
        <time>2024-07-10T07:07:51Z</time>
      </trkpt>
      <trkpt lat="47.15433" lon="9.31054">
        <ele>2321.3</ele>
        <time>2024-07-10T07:07:53Z</time>
      </trkpt>
      <trkpt lat="47.15432" lon="9.31053">
        <ele>2321.4</ele>
        <time>2024-07-10T07:07:55Z</time>
      </trkpt>
      <trkpt lat="47.15432" lon="9.31052">
        <ele>2321.6</ele>
        <time>2024-07-10T07:07:56Z</time>
      </trkpt>
      <trkpt lat="47.15431" lon="9.3105">
        <ele>2321.7</ele>
        <time>2024-07-10T07:07:58Z</time>
      </trkpt>
      <trkpt lat="47.15431" lon="9.31047">
        <ele>2322</ele>
        <time>2024-07-10T07:08:00Z</time>
      </trkpt>
      <trkpt lat="47.15431" lon="9.31045">
        <ele>2322</ele>
        <time>2024-07-10T07:08:01Z</time>
      </trkpt>
      <trkpt lat="47.15431" lon="9.31044">
        <ele>2322.1</ele>
        <time>2024-07-10T07:08:02Z</time>
      </trkpt>
      <trkpt lat="47.15431" lon="9.31042">
        <ele>2322.1</ele>
        <time>2024-07-10T07:08:03Z</time>
      </trkpt>
      <trkpt lat="47.15431" lon="9.31041">
        <ele>2322.1</ele>
        <time>2024-07-10T07:08:04Z</time>
      </trkpt>
      <trkpt lat="47.15432" lon="9.31039">
        <ele>2322</ele>
        <time>2024-07-10T07:08:05Z</time>
      </trkpt>
      <trkpt lat="47.15432" lon="9.31038">
        <ele>2322.3</ele>
        <time>2024-07-10T07:08:07Z</time>
      </trkpt>
      <trkpt lat="47.15432" lon="9.31036">
        <ele>2322.7</ele>
        <time>2024-07-10T07:08:09Z</time>
      </trkpt>
      <trkpt lat="47.15432" lon="9.31034">
        <ele>2323.2</ele>
        <time>2024-07-10T07:08:11Z</time>
      </trkpt>
      <trkpt lat="47.15432" lon="9.31032">
        <ele>2323.7</ele>
        <time>2024-07-10T07:08:13Z</time>
      </trkpt>
      <trkpt lat="47.15432" lon="9.31031">
        <ele>2323.8</ele>
        <time>2024-07-10T07:08:15Z</time>
      </trkpt>
      <trkpt lat="47.15432" lon="9.31029">
        <ele>2324.2</ele>
        <time>2024-07-10T07:08:17Z</time>
      </trkpt>
      <trkpt lat="47.15433" lon="9.31027">
        <ele>2324.6</ele>
        <time>2024-07-10T07:08:19Z</time>
      </trkpt>
      <trkpt lat="47.15433" lon="9.31026">
        <ele>2324.7</ele>
        <time>2024-07-10T07:08:21Z</time>
      </trkpt>
      <trkpt lat="47.15433" lon="9.31024">
        <ele>2324.9</ele>
        <time>2024-07-10T07:08:22Z</time>
      </trkpt>
      <trkpt lat="47.15434" lon="9.31023">
        <ele>2324.9</ele>
        <time>2024-07-10T07:08:24Z</time>
      </trkpt>
      <trkpt lat="47.15434" lon="9.31021">
        <ele>2324.9</ele>
        <time>2024-07-10T07:08:25Z</time>
      </trkpt>
      <trkpt lat="47.15434" lon="9.3102">
        <ele>2325.1</ele>
        <time>2024-07-10T07:08:26Z</time>
      </trkpt>
      <trkpt lat="47.15435" lon="9.31017">
        <ele>2325.4</ele>
        <time>2024-07-10T07:08:28Z</time>
      </trkpt>
      <trkpt lat="47.15435" lon="9.31016">
        <ele>2325.5</ele>
        <time>2024-07-10T07:08:29Z</time>
      </trkpt>
      <trkpt lat="47.15434" lon="9.31014">
        <ele>2325.6</ele>
        <time>2024-07-10T07:08:30Z</time>
      </trkpt>
      <trkpt lat="47.15434" lon="9.31013">
        <ele>2325.9</ele>
        <time>2024-07-10T07:08:31Z</time>
      </trkpt>
      <trkpt lat="47.15434" lon="9.3101">
        <ele>2326.2</ele>
        <time>2024-07-10T07:08:33Z</time>
      </trkpt>
      <trkpt lat="47.15435" lon="9.31008">
        <ele>2326.6</ele>
        <time>2024-07-10T07:08:35Z</time>
      </trkpt>
      <trkpt lat="47.15435" lon="9.31007">
        <ele>2327.1</ele>
        <time>2024-07-10T07:08:37Z</time>
      </trkpt>
      <trkpt lat="47.15435" lon="9.31004">
        <ele>2327.4</ele>
        <time>2024-07-10T07:08:39Z</time>
      </trkpt>
      <trkpt lat="47.15435" lon="9.31003">
        <ele>2327.7</ele>
        <time>2024-07-10T07:08:40Z</time>
      </trkpt>
      <trkpt lat="47.15435" lon="9.31001">
        <ele>2328.1</ele>
        <time>2024-07-10T07:08:42Z</time>
      </trkpt>
      <trkpt lat="47.15435" lon="9.30999">
        <ele>2328.6</ele>
        <time>2024-07-10T07:08:44Z</time>
      </trkpt>
      <trkpt lat="47.15435" lon="9.30997">
        <ele>2328.7</ele>
        <time>2024-07-10T07:08:45Z</time>
      </trkpt>
      <trkpt lat="47.15436" lon="9.30996">
        <ele>2328.9</ele>
        <time>2024-07-10T07:08:46Z</time>
      </trkpt>
      <trkpt lat="47.15435" lon="9.30994">
        <ele>2328.9</ele>
        <time>2024-07-10T07:08:47Z</time>
      </trkpt>
      <trkpt lat="47.15435" lon="9.30992">
        <ele>2328.7</ele>
        <time>2024-07-10T07:08:48Z</time>
      </trkpt>
      <trkpt lat="47.15435" lon="9.30991">
        <ele>2328.6</ele>
        <time>2024-07-10T07:08:49Z</time>
      </trkpt>
      <trkpt lat="47.15435" lon="9.30988">
        <ele>2328.4</ele>
        <time>2024-07-10T07:08:51Z</time>
      </trkpt>
      <trkpt lat="47.15434" lon="9.30985">
        <ele>2328.4</ele>
        <time>2024-07-10T07:08:53Z</time>
      </trkpt>
      <trkpt lat="47.15434" lon="9.30983">
        <ele>2328.3</ele>
        <time>2024-07-10T07:08:54Z</time>
      </trkpt>
      <trkpt lat="47.15434" lon="9.30982">
        <ele>2328.2</ele>
        <time>2024-07-10T07:08:55Z</time>
      </trkpt>
      <trkpt lat="47.15434" lon="9.3098">
        <ele>2328.2</ele>
        <time>2024-07-10T07:08:56Z</time>
      </trkpt>
      <trkpt lat="47.15434" lon="9.30979">
        <ele>2328.4</ele>
        <time>2024-07-10T07:08:57Z</time>
      </trkpt>
      <trkpt lat="47.15435" lon="9.30977">
        <ele>2328.9</ele>
        <time>2024-07-10T07:08:58Z</time>
      </trkpt>
      <trkpt lat="47.15435" lon="9.30974">
        <ele>2329.5</ele>
        <time>2024-07-10T07:09:00Z</time>
      </trkpt>
      <trkpt lat="47.15435" lon="9.30972">
        <ele>2330.2</ele>
        <time>2024-07-10T07:09:02Z</time>
      </trkpt>
      <trkpt lat="47.15434" lon="9.30971">
        <ele>2330.8</ele>
        <time>2024-07-10T07:09:04Z</time>
      </trkpt>
      <trkpt lat="47.15433" lon="9.3097">
        <ele>2331.2</ele>
        <time>2024-07-10T07:09:06Z</time>
      </trkpt>
      <trkpt lat="47.15433" lon="9.30968">
        <ele>2332</ele>
        <time>2024-07-10T07:09:08Z</time>
      </trkpt>
      <trkpt lat="47.15432" lon="9.30966">
        <ele>2332.6</ele>
        <time>2024-07-10T07:09:10Z</time>
      </trkpt>
      <trkpt lat="47.15432" lon="9.30964">
        <ele>2333.7</ele>
        <time>2024-07-10T07:09:15Z</time>
      </trkpt>
      <trkpt lat="47.15432" lon="9.30962">
        <ele>2334.1</ele>
        <time>2024-07-10T07:09:16Z</time>
      </trkpt>
      <trkpt lat="47.15433" lon="9.3096">
        <ele>2334.1</ele>
        <time>2024-07-10T07:09:18Z</time>
      </trkpt>
      <trkpt lat="47.15433" lon="9.30958">
        <ele>2334.4</ele>
        <time>2024-07-10T07:09:19Z</time>
      </trkpt>
      <trkpt lat="47.15432" lon="9.30957">
        <ele>2334.8</ele>
        <time>2024-07-10T07:09:20Z</time>
      </trkpt>
      <trkpt lat="47.15432" lon="9.30955">
        <ele>2335.1</ele>
        <time>2024-07-10T07:09:21Z</time>
      </trkpt>
      <trkpt lat="47.15431" lon="9.30953">
        <ele>2335.6</ele>
        <time>2024-07-10T07:09:23Z</time>
      </trkpt>
      <trkpt lat="47.15432" lon="9.30952">
        <ele>2335.4</ele>
        <time>2024-07-10T07:09:25Z</time>
      </trkpt>
      <trkpt lat="47.15432" lon="9.3095">
        <ele>2335</ele>
        <time>2024-07-10T07:09:26Z</time>
      </trkpt>
      <trkpt lat="47.15433" lon="9.30948">
        <ele>2334.9</ele>
        <time>2024-07-10T07:09:28Z</time>
      </trkpt>
      <trkpt lat="47.15433" lon="9.30947">
        <ele>2335.1</ele>
        <time>2024-07-10T07:09:30Z</time>
      </trkpt>
      <trkpt lat="47.15433" lon="9.30946">
        <ele>2334.5</ele>
        <time>2024-07-10T07:09:32Z</time>
      </trkpt>
      <trkpt lat="47.15433" lon="9.30944">
        <ele>2334.2</ele>
        <time>2024-07-10T07:09:34Z</time>
      </trkpt>
      <trkpt lat="47.15433" lon="9.30943">
        <ele>2334.1</ele>
        <time>2024-07-10T07:09:35Z</time>
      </trkpt>
      <trkpt lat="47.15434" lon="9.30941">
        <ele>2334.3</ele>
        <time>2024-07-10T07:09:36Z</time>
      </trkpt>
      <trkpt lat="47.15434" lon="9.3094">
        <ele>2334.3</ele>
        <time>2024-07-10T07:09:37Z</time>
      </trkpt>
      <trkpt lat="47.15434" lon="9.30938">
        <ele>2334.6</ele>
        <time>2024-07-10T07:09:38Z</time>
      </trkpt>
      <trkpt lat="47.15433" lon="9.30937">
        <ele>2335</ele>
        <time>2024-07-10T07:09:39Z</time>
      </trkpt>
      <trkpt lat="47.15433" lon="9.30935">
        <ele>2335.4</ele>
        <time>2024-07-10T07:09:40Z</time>
      </trkpt>
      <trkpt lat="47.15433" lon="9.30934">
        <ele>2335.5</ele>
        <time>2024-07-10T07:09:41Z</time>
      </trkpt>
      <trkpt lat="47.15434" lon="9.30931">
        <ele>2335.6</ele>
        <time>2024-07-10T07:09:43Z</time>
      </trkpt>
      <trkpt lat="47.15434" lon="9.3093">
        <ele>2335.9</ele>
        <time>2024-07-10T07:09:44Z</time>
      </trkpt>
      <trkpt lat="47.15434" lon="9.30928">
        <ele>2335.9</ele>
        <time>2024-07-10T07:09:45Z</time>
      </trkpt>
      <trkpt lat="47.15435" lon="9.30926">
        <ele>2336</ele>
        <time>2024-07-10T07:09:46Z</time>
      </trkpt>
      <trkpt lat="47.15434" lon="9.30925">
        <ele>2336.1</ele>
        <time>2024-07-10T07:09:47Z</time>
      </trkpt>
      <trkpt lat="47.15434" lon="9.30923">
        <ele>2336.3</ele>
        <time>2024-07-10T07:09:49Z</time>
      </trkpt>
      <trkpt lat="47.15433" lon="9.30922">
        <ele>2336.2</ele>
        <time>2024-07-10T07:09:50Z</time>
      </trkpt>
      <trkpt lat="47.15432" lon="9.30921">
        <ele>2335.9</ele>
        <time>2024-07-10T07:09:52Z</time>
      </trkpt>
      <trkpt lat="47.15432" lon="9.30919">
        <ele>2335.7</ele>
        <time>2024-07-10T07:09:54Z</time>
      </trkpt>
      <trkpt lat="47.15432" lon="9.30917">
        <ele>2335.7</ele>
        <time>2024-07-10T07:09:56Z</time>
      </trkpt>
      <trkpt lat="47.15433" lon="9.30916">
        <ele>2335.3</ele>
        <time>2024-07-10T07:09:58Z</time>
      </trkpt>
      <trkpt lat="47.15435" lon="9.30914">
        <ele>2335</ele>
        <time>2024-07-10T07:10:00Z</time>
      </trkpt>
      <trkpt lat="47.15435" lon="9.30913">
        <ele>2334.9</ele>
        <time>2024-07-10T07:10:01Z</time>
      </trkpt>
      <trkpt lat="47.15436" lon="9.30911">
        <ele>2334.7</ele>
        <time>2024-07-10T07:10:03Z</time>
      </trkpt>
      <trkpt lat="47.15437" lon="9.3091">
        <ele>2334.5</ele>
        <time>2024-07-10T07:10:05Z</time>
      </trkpt>
      <trkpt lat="47.15437" lon="9.30908">
        <ele>2334.5</ele>
        <time>2024-07-10T07:10:07Z</time>
      </trkpt>
      <trkpt lat="47.15437" lon="9.30906">
        <ele>2334.8</ele>
        <time>2024-07-10T07:10:09Z</time>
      </trkpt>
      <trkpt lat="47.15437" lon="9.30903">
        <ele>2335.1</ele>
        <time>2024-07-10T07:10:11Z</time>
      </trkpt>
      <trkpt lat="47.15437" lon="9.30902">
        <ele>2335.6</ele>
        <time>2024-07-10T07:10:12Z</time>
      </trkpt>
      <trkpt lat="47.15437" lon="9.309">
        <ele>2336.1</ele>
        <time>2024-07-10T07:10:14Z</time>
      </trkpt>
      <trkpt lat="47.15437" lon="9.30898">
        <ele>2336.6</ele>
        <time>2024-07-10T07:10:16Z</time>
      </trkpt>
      <trkpt lat="47.15438" lon="9.30896">
        <ele>2337.3</ele>
        <time>2024-07-10T07:10:18Z</time>
      </trkpt>
      <trkpt lat="47.15439" lon="9.30895">
        <ele>2338.1</ele>
        <time>2024-07-10T07:10:19Z</time>
      </trkpt>
      <trkpt lat="47.1544" lon="9.30894">
        <ele>2339.5</ele>
        <time>2024-07-10T07:10:21Z</time>
      </trkpt>
      <trkpt lat="47.1544" lon="9.30892">
        <ele>2340.8</ele>
        <time>2024-07-10T07:10:23Z</time>
      </trkpt>
      <trkpt lat="47.1544" lon="9.3089">
        <ele>2341.8</ele>
        <time>2024-07-10T07:10:25Z</time>
      </trkpt>
      <trkpt lat="47.1544" lon="9.30888">
        <ele>2342.1</ele>
        <time>2024-07-10T07:10:27Z</time>
      </trkpt>
      <trkpt lat="47.1544" lon="9.30886">
        <ele>2342.4</ele>
        <time>2024-07-10T07:10:29Z</time>
      </trkpt>
      <trkpt lat="47.1544" lon="9.30883">
        <ele>2342.6</ele>
        <time>2024-07-10T07:10:31Z</time>
      </trkpt>
      <trkpt lat="47.15441" lon="9.30882">
        <ele>2342.8</ele>
        <time>2024-07-10T07:10:32Z</time>
      </trkpt>
      <trkpt lat="47.15441" lon="9.3088">
        <ele>2343.1</ele>
        <time>2024-07-10T07:10:33Z</time>
      </trkpt>
      <trkpt lat="47.15447" lon="9.30811">
        <ele>2348.8</ele>
        <time>2024-07-10T07:11:55Z</time>
      </trkpt>
      <trkpt lat="47.15447" lon="9.3081">
        <ele>2348.5</ele>
        <time>2024-07-10T07:11:56Z</time>
      </trkpt>
      <trkpt lat="47.15448" lon="9.30808">
        <ele>2348</ele>
        <time>2024-07-10T07:11:57Z</time>
      </trkpt>
      <trkpt lat="47.15448" lon="9.30807">
        <ele>2347.6</ele>
        <time>2024-07-10T07:11:58Z</time>
      </trkpt>
      <trkpt lat="47.15448" lon="9.30805">
        <ele>2347.8</ele>
        <time>2024-07-10T07:11:59Z</time>
      </trkpt>
      <trkpt lat="47.15448" lon="9.30803">
        <ele>2347.9</ele>
        <time>2024-07-10T07:12:00Z</time>
      </trkpt>
      <trkpt lat="47.15448" lon="9.30801">
        <ele>2346.9</ele>
        <time>2024-07-10T07:12:02Z</time>
      </trkpt>
      <trkpt lat="47.15448" lon="9.30799">
        <ele>2346.5</ele>
        <time>2024-07-10T07:12:03Z</time>
      </trkpt>
      <trkpt lat="47.15448" lon="9.30797">
        <ele>2346.2</ele>
        <time>2024-07-10T07:12:04Z</time>
      </trkpt>
      <trkpt lat="47.15448" lon="9.30795">
        <ele>2345.9</ele>
        <time>2024-07-10T07:12:05Z</time>
      </trkpt>
      <trkpt lat="47.15447" lon="9.30793">
        <ele>2345.9</ele>
        <time>2024-07-10T07:12:06Z</time>
      </trkpt>
      <trkpt lat="47.15447" lon="9.30792">
        <ele>2346.1</ele>
        <time>2024-07-10T07:12:07Z</time>
      </trkpt>
      <trkpt lat="47.15447" lon="9.3079">
        <ele>2346</ele>
        <time>2024-07-10T07:12:08Z</time>
      </trkpt>
      <trkpt lat="47.15447" lon="9.30788">
        <ele>2346.3</ele>
        <time>2024-07-10T07:12:09Z</time>
      </trkpt>
      <trkpt lat="47.15446" lon="9.30787">
        <ele>2346.7</ele>
        <time>2024-07-10T07:12:10Z</time>
      </trkpt>
      <trkpt lat="47.15446" lon="9.30785">
        <ele>2346.9</ele>
        <time>2024-07-10T07:12:11Z</time>
      </trkpt>
      <trkpt lat="47.15446" lon="9.30783">
        <ele>2347</ele>
        <time>2024-07-10T07:12:12Z</time>
      </trkpt>
      <trkpt lat="47.15446" lon="9.30782">
        <ele>2347.3</ele>
        <time>2024-07-10T07:12:13Z</time>
      </trkpt>
      <trkpt lat="47.15446" lon="9.3078">
        <ele>2347</ele>
        <time>2024-07-10T07:12:14Z</time>
      </trkpt>
      <trkpt lat="47.15446" lon="9.30778">
        <ele>2347.4</ele>
        <time>2024-07-10T07:12:16Z</time>
      </trkpt>
      <trkpt lat="47.15446" lon="9.30776">
        <ele>2347.8</ele>
        <time>2024-07-10T07:12:17Z</time>
      </trkpt>
      <trkpt lat="47.15446" lon="9.30774">
        <ele>2348.2</ele>
        <time>2024-07-10T07:12:18Z</time>
      </trkpt>
      <trkpt lat="47.15446" lon="9.30773">
        <ele>2348.2</ele>
        <time>2024-07-10T07:12:19Z</time>
      </trkpt>
      <trkpt lat="47.15446" lon="9.30769">
        <ele>2348.3</ele>
        <time>2024-07-10T07:12:21Z</time>
      </trkpt>
      <trkpt lat="47.15446" lon="9.30765">
        <ele>2348.3</ele>
        <time>2024-07-10T07:12:23Z</time>
      </trkpt>
      <trkpt lat="47.15446" lon="9.30763">
        <ele>2348.3</ele>
        <time>2024-07-10T07:12:24Z</time>
      </trkpt>
      <trkpt lat="47.15446" lon="9.30759">
        <ele>2348.7</ele>
        <time>2024-07-10T07:12:26Z</time>
      </trkpt>
      <trkpt lat="47.15446" lon="9.30756">
        <ele>2349.3</ele>
        <time>2024-07-10T07:12:28Z</time>
      </trkpt>
      <trkpt lat="47.15446" lon="9.30753">
        <ele>2349.3</ele>
        <time>2024-07-10T07:12:30Z</time>
      </trkpt>
      <trkpt lat="47.15446" lon="9.30752">
        <ele>2349.2</ele>
        <time>2024-07-10T07:12:31Z</time>
      </trkpt>
      <trkpt lat="47.15446" lon="9.3075">
        <ele>2349.7</ele>
        <time>2024-07-10T07:12:32Z</time>
      </trkpt>
      <trkpt lat="47.15446" lon="9.30748">
        <ele>2350</ele>
        <time>2024-07-10T07:12:34Z</time>
      </trkpt>
      <trkpt lat="47.15446" lon="9.30746">
        <ele>2350.4</ele>
        <time>2024-07-10T07:12:35Z</time>
      </trkpt>
      <trkpt lat="47.15446" lon="9.30745">
        <ele>2350.4</ele>
        <time>2024-07-10T07:12:36Z</time>
      </trkpt>
      <trkpt lat="47.15446" lon="9.30743">
        <ele>2350.4</ele>
        <time>2024-07-10T07:12:37Z</time>
      </trkpt>
      <trkpt lat="47.15446" lon="9.30742">
        <ele>2350.6</ele>
        <time>2024-07-10T07:12:38Z</time>
      </trkpt>
      <trkpt lat="47.15446" lon="9.30739">
        <ele>2350.7</ele>
        <time>2024-07-10T07:12:40Z</time>
      </trkpt>
      <trkpt lat="47.15446" lon="9.30737">
        <ele>2350.8</ele>
        <time>2024-07-10T07:12:41Z</time>
      </trkpt>
      <trkpt lat="47.15446" lon="9.30736">
        <ele>2350.9</ele>
        <time>2024-07-10T07:12:42Z</time>
      </trkpt>
      <trkpt lat="47.15446" lon="9.30734">
        <ele>2350.5</ele>
        <time>2024-07-10T07:12:43Z</time>
      </trkpt>
      <trkpt lat="47.15447" lon="9.30732">
        <ele>2350.1</ele>
        <time>2024-07-10T07:12:44Z</time>
      </trkpt>
      <trkpt lat="47.15447" lon="9.30731">
        <ele>2349.5</ele>
        <time>2024-07-10T07:12:45Z</time>
      </trkpt>
      <trkpt lat="47.15447" lon="9.30729">
        <ele>2348.9</ele>
        <time>2024-07-10T07:12:46Z</time>
      </trkpt>
      <trkpt lat="47.15448" lon="9.30728">
        <ele>2348.9</ele>
        <time>2024-07-10T07:12:47Z</time>
      </trkpt>
      <trkpt lat="47.15448" lon="9.30726">
        <ele>2348.8</ele>
        <time>2024-07-10T07:12:48Z</time>
      </trkpt>
      <trkpt lat="47.15449" lon="9.30725">
        <ele>2348.8</ele>
        <time>2024-07-10T07:12:49Z</time>
      </trkpt>
      <trkpt lat="47.15449" lon="9.30723">
        <ele>2348.7</ele>
        <time>2024-07-10T07:12:50Z</time>
      </trkpt>
      <trkpt lat="47.1545" lon="9.30722">
        <ele>2348.8</ele>
        <time>2024-07-10T07:12:51Z</time>
      </trkpt>
      <trkpt lat="47.1545" lon="9.3072">
        <ele>2348.8</ele>
        <time>2024-07-10T07:12:52Z</time>
      </trkpt>
      <trkpt lat="47.15451" lon="9.30719">
        <ele>2348.5</ele>
        <time>2024-07-10T07:12:53Z</time>
      </trkpt>
      <trkpt lat="47.15452" lon="9.30717">
        <ele>2348.6</ele>
        <time>2024-07-10T07:12:54Z</time>
      </trkpt>
      <trkpt lat="47.15452" lon="9.30716">
        <ele>2348.6</ele>
        <time>2024-07-10T07:12:55Z</time>
      </trkpt>
      <trkpt lat="47.15452" lon="9.30714">
        <ele>2349</ele>
        <time>2024-07-10T07:12:56Z</time>
      </trkpt>
      <trkpt lat="47.15453" lon="9.30713">
        <ele>2349.4</ele>
        <time>2024-07-10T07:12:57Z</time>
      </trkpt>
      <trkpt lat="47.15453" lon="9.30711">
        <ele>2349.4</ele>
        <time>2024-07-10T07:12:58Z</time>
      </trkpt>
      <trkpt lat="47.15454" lon="9.3071">
        <ele>2349.3</ele>
        <time>2024-07-10T07:12:59Z</time>
      </trkpt>
      <trkpt lat="47.15454" lon="9.30708">
        <ele>2349.2</ele>
        <time>2024-07-10T07:13:00Z</time>
      </trkpt>
      <trkpt lat="47.15454" lon="9.30706">
        <ele>2349.1</ele>
        <time>2024-07-10T07:13:01Z</time>
      </trkpt>
      <trkpt lat="47.15455" lon="9.30704">
        <ele>2349.4</ele>
        <time>2024-07-10T07:13:02Z</time>
      </trkpt>
      <trkpt lat="47.15455" lon="9.30703">
        <ele>2349.6</ele>
        <time>2024-07-10T07:13:03Z</time>
      </trkpt>
      <trkpt lat="47.15455" lon="9.30701">
        <ele>2349.7</ele>
        <time>2024-07-10T07:13:04Z</time>
      </trkpt>
      <trkpt lat="47.15455" lon="9.30699">
        <ele>2349.6</ele>
        <time>2024-07-10T07:13:05Z</time>
      </trkpt>
      <trkpt lat="47.15456" lon="9.30696">
        <ele>2349.4</ele>
        <time>2024-07-10T07:13:07Z</time>
      </trkpt>
      <trkpt lat="47.15456" lon="9.30695">
        <ele>2349.6</ele>
        <time>2024-07-10T07:13:08Z</time>
      </trkpt>
      <trkpt lat="47.15456" lon="9.30693">
        <ele>2349.9</ele>
        <time>2024-07-10T07:13:09Z</time>
      </trkpt>
      <trkpt lat="47.15455" lon="9.3069">
        <ele>2349.5</ele>
        <time>2024-07-10T07:13:11Z</time>
      </trkpt>
      <trkpt lat="47.15455" lon="9.30688">
        <ele>2349.4</ele>
        <time>2024-07-10T07:13:12Z</time>
      </trkpt>
      <trkpt lat="47.15455" lon="9.30687">
        <ele>2349.3</ele>
        <time>2024-07-10T07:13:13Z</time>
      </trkpt>
      <trkpt lat="47.15455" lon="9.30685">
        <ele>2349.1</ele>
        <time>2024-07-10T07:13:14Z</time>
      </trkpt>
      <trkpt lat="47.15454" lon="9.30684">
        <ele>2349.1</ele>
        <time>2024-07-10T07:13:15Z</time>
      </trkpt>
      <trkpt lat="47.15453" lon="9.30682">
        <ele>2349.1</ele>
        <time>2024-07-10T07:13:16Z</time>
      </trkpt>
      <trkpt lat="47.15453" lon="9.30681">
        <ele>2349.1</ele>
        <time>2024-07-10T07:13:17Z</time>
      </trkpt>
      <trkpt lat="47.15452" lon="9.30679">
        <ele>2349.1</ele>
        <time>2024-07-10T07:13:18Z</time>
      </trkpt>
      <trkpt lat="47.15451" lon="9.30678">
        <ele>2349</ele>
        <time>2024-07-10T07:13:19Z</time>
      </trkpt>
      <trkpt lat="47.15451" lon="9.30677">
        <ele>2349</ele>
        <time>2024-07-10T07:13:20Z</time>
      </trkpt>
      <trkpt lat="47.1545" lon="9.30675">
        <ele>2349.9</ele>
        <time>2024-07-10T07:13:22Z</time>
      </trkpt>
      <trkpt lat="47.15448" lon="9.30672">
        <ele>2350</ele>
        <time>2024-07-10T07:13:24Z</time>
      </trkpt>
      <trkpt lat="47.15448" lon="9.30671">
        <ele>2350.1</ele>
        <time>2024-07-10T07:13:25Z</time>
      </trkpt>
      <trkpt lat="47.15445" lon="9.30668">
        <ele>2350.5</ele>
        <time>2024-07-10T07:13:28Z</time>
      </trkpt>
      <trkpt lat="47.15444" lon="9.30668">
        <ele>2350</ele>
        <time>2024-07-10T07:13:29Z</time>
      </trkpt>
      <trkpt lat="47.15443" lon="9.30667">
        <ele>2349.9</ele>
        <time>2024-07-10T07:13:30Z</time>
      </trkpt>
      <trkpt lat="47.15443" lon="9.30664">
        <ele>2349.7</ele>
        <time>2024-07-10T07:13:32Z</time>
      </trkpt>
      <trkpt lat="47.15442" lon="9.30663">
        <ele>2349.9</ele>
        <time>2024-07-10T07:13:34Z</time>
      </trkpt>
      <trkpt lat="47.15442" lon="9.30661">
        <ele>2350</ele>
        <time>2024-07-10T07:13:35Z</time>
      </trkpt>
      <trkpt lat="47.15441" lon="9.30659">
        <ele>2350.5</ele>
        <time>2024-07-10T07:13:37Z</time>
      </trkpt>
      <trkpt lat="47.15441" lon="9.30657">
        <ele>2351.2</ele>
        <time>2024-07-10T07:13:38Z</time>
      </trkpt>
      <trkpt lat="47.1544" lon="9.30654">
        <ele>2351.5</ele>
        <time>2024-07-10T07:13:40Z</time>
      </trkpt>
      <trkpt lat="47.15439" lon="9.30652">
        <ele>2352.1</ele>
        <time>2024-07-10T07:13:41Z</time>
      </trkpt>
      <trkpt lat="47.15439" lon="9.30651">
        <ele>2352</ele>
        <time>2024-07-10T07:13:42Z</time>
      </trkpt>
      <trkpt lat="47.15438" lon="9.30649">
        <ele>2352</ele>
        <time>2024-07-10T07:13:43Z</time>
      </trkpt>
      <trkpt lat="47.15437" lon="9.30648">
        <ele>2352.1</ele>
        <time>2024-07-10T07:13:44Z</time>
      </trkpt>
      <trkpt lat="47.15436" lon="9.30646">
        <ele>2352.2</ele>
        <time>2024-07-10T07:13:45Z</time>
      </trkpt>
      <trkpt lat="47.15435" lon="9.30644">
        <ele>2352.7</ele>
        <time>2024-07-10T07:13:47Z</time>
      </trkpt>
      <trkpt lat="47.15435" lon="9.30642">
        <ele>2353.1</ele>
        <time>2024-07-10T07:13:48Z</time>
      </trkpt>
      <trkpt lat="47.15433" lon="9.3064">
        <ele>2354.3</ele>
        <time>2024-07-10T07:13:50Z</time>
      </trkpt>
      <trkpt lat="47.15432" lon="9.30638">
        <ele>2353.3</ele>
        <time>2024-07-10T07:13:52Z</time>
      </trkpt>
      <trkpt lat="47.15431" lon="9.30637">
        <ele>2353.4</ele>
        <time>2024-07-10T07:13:53Z</time>
      </trkpt>
      <trkpt lat="47.15431" lon="9.30635">
        <ele>2353.2</ele>
        <time>2024-07-10T07:13:54Z</time>
      </trkpt>
      <trkpt lat="47.1543" lon="9.30634">
        <ele>2353.3</ele>
        <time>2024-07-10T07:13:55Z</time>
      </trkpt>
      <trkpt lat="47.15429" lon="9.30632">
        <ele>2353.2</ele>
        <time>2024-07-10T07:13:56Z</time>
      </trkpt>
      <trkpt lat="47.15429" lon="9.30631">
        <ele>2353.2</ele>
        <time>2024-07-10T07:13:57Z</time>
      </trkpt>
      <trkpt lat="47.15427" lon="9.3063">
        <ele>2353.1</ele>
        <time>2024-07-10T07:13:58Z</time>
      </trkpt>
      <trkpt lat="47.15426" lon="9.3063">
        <ele>2353.6</ele>
        <time>2024-07-10T07:13:59Z</time>
      </trkpt>
      <trkpt lat="47.15425" lon="9.30629">
        <ele>2353.4</ele>
        <time>2024-07-10T07:14:01Z</time>
      </trkpt>
      <trkpt lat="47.15424" lon="9.30627">
        <ele>2353.4</ele>
        <time>2024-07-10T07:14:03Z</time>
      </trkpt>
      <trkpt lat="47.15423" lon="9.30625">
        <ele>2353.6</ele>
        <time>2024-07-10T07:14:04Z</time>
      </trkpt>
      <trkpt lat="47.15422" lon="9.30624">
        <ele>2353.8</ele>
        <time>2024-07-10T07:14:05Z</time>
      </trkpt>
      <trkpt lat="47.15421" lon="9.30624">
        <ele>2353.8</ele>
        <time>2024-07-10T07:14:06Z</time>
      </trkpt>
      <trkpt lat="47.1542" lon="9.30623">
        <ele>2353.6</ele>
        <time>2024-07-10T07:14:07Z</time>
      </trkpt>
      <trkpt lat="47.15419" lon="9.30622">
        <ele>2353.5</ele>
        <time>2024-07-10T07:14:09Z</time>
      </trkpt>
      <trkpt lat="47.15417" lon="9.30622">
        <ele>2354.1</ele>
        <time>2024-07-10T07:14:11Z</time>
      </trkpt>
      <trkpt lat="47.15417" lon="9.3062">
        <ele>2353.7</ele>
        <time>2024-07-10T07:14:13Z</time>
      </trkpt>
      <trkpt lat="47.15416" lon="9.30619">
        <ele>2353.5</ele>
        <time>2024-07-10T07:14:14Z</time>
      </trkpt>
      <trkpt lat="47.15415" lon="9.30618">
        <ele>2353.6</ele>
        <time>2024-07-10T07:14:15Z</time>
      </trkpt>
      <trkpt lat="47.15415" lon="9.30617">
        <ele>2353.1</ele>
        <time>2024-07-10T07:14:16Z</time>
      </trkpt>
      <trkpt lat="47.15414" lon="9.30616">
        <ele>2353</ele>
        <time>2024-07-10T07:14:17Z</time>
      </trkpt>
      <trkpt lat="47.15412" lon="9.30615">
        <ele>2354.2</ele>
        <time>2024-07-10T07:14:19Z</time>
      </trkpt>
      <trkpt lat="47.15411" lon="9.30614">
        <ele>2354.7</ele>
        <time>2024-07-10T07:14:20Z</time>
      </trkpt>
      <trkpt lat="47.1541" lon="9.30613">
        <ele>2354.6</ele>
        <time>2024-07-10T07:14:22Z</time>
      </trkpt>
      <trkpt lat="47.15409" lon="9.30611">
        <ele>2354.8</ele>
        <time>2024-07-10T07:14:23Z</time>
      </trkpt>
      <trkpt lat="47.15408" lon="9.3061">
        <ele>2355</ele>
        <time>2024-07-10T07:14:24Z</time>
      </trkpt>
      <trkpt lat="47.15408" lon="9.30609">
        <ele>2355.2</ele>
        <time>2024-07-10T07:14:25Z</time>
      </trkpt>
      <trkpt lat="47.15408" lon="9.30607">
        <ele>2355.2</ele>
        <time>2024-07-10T07:14:26Z</time>
      </trkpt>
      <trkpt lat="47.15407" lon="9.30606">
        <ele>2355.7</ele>
        <time>2024-07-10T07:14:27Z</time>
      </trkpt>
      <trkpt lat="47.15405" lon="9.30604">
        <ele>2355.8</ele>
        <time>2024-07-10T07:14:29Z</time>
      </trkpt>
      <trkpt lat="47.15404" lon="9.30602">
        <ele>2355.7</ele>
        <time>2024-07-10T07:14:30Z</time>
      </trkpt>
      <trkpt lat="47.15403" lon="9.30601">
        <ele>2356</ele>
        <time>2024-07-10T07:14:31Z</time>
      </trkpt>
      <trkpt lat="47.15402" lon="9.306">
        <ele>2356.1</ele>
        <time>2024-07-10T07:14:32Z</time>
      </trkpt>
      <trkpt lat="47.15402" lon="9.30599">
        <ele>2356.1</ele>
        <time>2024-07-10T07:14:33Z</time>
      </trkpt>
      <trkpt lat="47.15401" lon="9.30597">
        <ele>2356.2</ele>
        <time>2024-07-10T07:14:34Z</time>
      </trkpt>
      <trkpt lat="47.154" lon="9.30595">
        <ele>2356.3</ele>
        <time>2024-07-10T07:14:35Z</time>
      </trkpt>
      <trkpt lat="47.15399" lon="9.30594">
        <ele>2356.9</ele>
        <time>2024-07-10T07:14:36Z</time>
      </trkpt>
      <trkpt lat="47.15398" lon="9.30592">
        <ele>2357.3</ele>
        <time>2024-07-10T07:14:38Z</time>
      </trkpt>
      <trkpt lat="47.15398" lon="9.30591">
        <ele>2357.1</ele>
        <time>2024-07-10T07:14:39Z</time>
      </trkpt>
      <trkpt lat="47.15397" lon="9.3059">
        <ele>2357.1</ele>
        <time>2024-07-10T07:14:40Z</time>
      </trkpt>
      <trkpt lat="47.15396" lon="9.30589">
        <ele>2357</ele>
        <time>2024-07-10T07:14:41Z</time>
      </trkpt>
      <trkpt lat="47.15395" lon="9.30587">
        <ele>2356.3</ele>
        <time>2024-07-10T07:14:43Z</time>
      </trkpt>
      <trkpt lat="47.15395" lon="9.30586">
        <ele>2356</ele>
        <time>2024-07-10T07:14:44Z</time>
      </trkpt>
      <trkpt lat="47.15394" lon="9.30585">
        <ele>2355.8</ele>
        <time>2024-07-10T07:14:46Z</time>
      </trkpt>
      <trkpt lat="47.15393" lon="9.30582">
        <ele>2356.2</ele>
        <time>2024-07-10T07:14:48Z</time>
      </trkpt>
      <trkpt lat="47.15392" lon="9.30581">
        <ele>2356.4</ele>
        <time>2024-07-10T07:14:49Z</time>
      </trkpt>
      <trkpt lat="47.15391" lon="9.3058">
        <ele>2356.2</ele>
        <time>2024-07-10T07:14:50Z</time>
      </trkpt>
      <trkpt lat="47.1539" lon="9.30577">
        <ele>2356</ele>
        <time>2024-07-10T07:14:52Z</time>
      </trkpt>
      <trkpt lat="47.1539" lon="9.30576">
        <ele>2356.3</ele>
        <time>2024-07-10T07:14:53Z</time>
      </trkpt>
      <trkpt lat="47.15389" lon="9.30574">
        <ele>2356.7</ele>
        <time>2024-07-10T07:14:54Z</time>
      </trkpt>
      <trkpt lat="47.15388" lon="9.30572">
        <ele>2356.8</ele>
        <time>2024-07-10T07:14:56Z</time>
      </trkpt>
      <trkpt lat="47.15388" lon="9.3057">
        <ele>2356.9</ele>
        <time>2024-07-10T07:14:57Z</time>
      </trkpt>
      <trkpt lat="47.15387" lon="9.30569">
        <ele>2357.1</ele>
        <time>2024-07-10T07:14:58Z</time>
      </trkpt>
      <trkpt lat="47.15386" lon="9.30567">
        <ele>2357.2</ele>
        <time>2024-07-10T07:14:59Z</time>
      </trkpt>
      <trkpt lat="47.15386" lon="9.30566">
        <ele>2356.7</ele>
        <time>2024-07-10T07:15:00Z</time>
      </trkpt>
      <trkpt lat="47.15385" lon="9.30564">
        <ele>2356.8</ele>
        <time>2024-07-10T07:15:01Z</time>
      </trkpt>
      <trkpt lat="47.15384" lon="9.30562">
        <ele>2357</ele>
        <time>2024-07-10T07:15:02Z</time>
      </trkpt>
      <trkpt lat="47.15383" lon="9.3056">
        <ele>2357</ele>
        <time>2024-07-10T07:15:03Z</time>
      </trkpt>
      <trkpt lat="47.15383" lon="9.30558">
        <ele>2357</ele>
        <time>2024-07-10T07:15:04Z</time>
      </trkpt>
      <trkpt lat="47.15382" lon="9.30557">
        <ele>2357</ele>
        <time>2024-07-10T07:15:05Z</time>
      </trkpt>
      <trkpt lat="47.15381" lon="9.30555">
        <ele>2357</ele>
        <time>2024-07-10T07:15:06Z</time>
      </trkpt>
      <trkpt lat="47.1538" lon="9.30553">
        <ele>2357</ele>
        <time>2024-07-10T07:15:07Z</time>
      </trkpt>
      <trkpt lat="47.1538" lon="9.30552">
        <ele>2357.4</ele>
        <time>2024-07-10T07:15:08Z</time>
      </trkpt>
      <trkpt lat="47.15379" lon="9.3055">
        <ele>2357.4</ele>
        <time>2024-07-10T07:15:09Z</time>
      </trkpt>
      <trkpt lat="47.15378" lon="9.30549">
        <ele>2357.6</ele>
        <time>2024-07-10T07:15:11Z</time>
      </trkpt>
      <trkpt lat="47.15377" lon="9.30547">
        <ele>2357.6</ele>
        <time>2024-07-10T07:15:12Z</time>
      </trkpt>
      <trkpt lat="47.15376" lon="9.30545">
        <ele>2357.2</ele>
        <time>2024-07-10T07:15:14Z</time>
      </trkpt>
      <trkpt lat="47.15376" lon="9.30543">
        <ele>2357.1</ele>
        <time>2024-07-10T07:15:15Z</time>
      </trkpt>
      <trkpt lat="47.15375" lon="9.30541">
        <ele>2357.1</ele>
        <time>2024-07-10T07:15:17Z</time>
      </trkpt>
      <trkpt lat="47.15375" lon="9.3054">
        <ele>2357.1</ele>
        <time>2024-07-10T07:15:18Z</time>
      </trkpt>
      <trkpt lat="47.15374" lon="9.30538">
        <ele>2357.2</ele>
        <time>2024-07-10T07:15:19Z</time>
      </trkpt>
      <trkpt lat="47.15374" lon="9.30536">
        <ele>2357.3</ele>
        <time>2024-07-10T07:15:20Z</time>
      </trkpt>
      <trkpt lat="47.15374" lon="9.30534">
        <ele>2357</ele>
        <time>2024-07-10T07:15:21Z</time>
      </trkpt>
      <trkpt lat="47.15373" lon="9.30532">
        <ele>2357</ele>
        <time>2024-07-10T07:15:23Z</time>
      </trkpt>
      <trkpt lat="47.15372" lon="9.3053">
        <ele>2357.5</ele>
        <time>2024-07-10T07:15:24Z</time>
      </trkpt>
      <trkpt lat="47.15371" lon="9.30528">
        <ele>2357.9</ele>
        <time>2024-07-10T07:15:25Z</time>
      </trkpt>
      <trkpt lat="47.15371" lon="9.30527">
        <ele>2357.8</ele>
        <time>2024-07-10T07:15:26Z</time>
      </trkpt>
      <trkpt lat="47.1537" lon="9.30525">
        <ele>2357.8</ele>
        <time>2024-07-10T07:15:27Z</time>
      </trkpt>
      <trkpt lat="47.1537" lon="9.30524">
        <ele>2358</ele>
        <time>2024-07-10T07:15:28Z</time>
      </trkpt>
      <trkpt lat="47.1537" lon="9.30523">
        <ele>2358.2</ele>
        <time>2024-07-10T07:15:29Z</time>
      </trkpt>
      <trkpt lat="47.15369" lon="9.30522">
        <ele>2358.6</ele>
        <time>2024-07-10T07:15:30Z</time>
      </trkpt>
      <trkpt lat="47.15368" lon="9.30519">
        <ele>2358.3</ele>
        <time>2024-07-10T07:15:32Z</time>
      </trkpt>
      <trkpt lat="47.15368" lon="9.30517">
        <ele>2358</ele>
        <time>2024-07-10T07:15:33Z</time>
      </trkpt>
      <trkpt lat="47.15367" lon="9.30516">
        <ele>2358</ele>
        <time>2024-07-10T07:15:34Z</time>
      </trkpt>
      <trkpt lat="47.15366" lon="9.30514">
        <ele>2358.4</ele>
        <time>2024-07-10T07:15:35Z</time>
      </trkpt>
      <trkpt lat="47.15366" lon="9.30513">
        <ele>2358.8</ele>
        <time>2024-07-10T07:15:36Z</time>
      </trkpt>
      <trkpt lat="47.15365" lon="9.30511">
        <ele>2358.7</ele>
        <time>2024-07-10T07:15:37Z</time>
      </trkpt>
      <trkpt lat="47.15364" lon="9.3051">
        <ele>2358.2</ele>
        <time>2024-07-10T07:15:39Z</time>
      </trkpt>
      <trkpt lat="47.15363" lon="9.30509">
        <ele>2358.1</ele>
        <time>2024-07-10T07:15:40Z</time>
      </trkpt>
      <trkpt lat="47.15362" lon="9.30507">
        <ele>2358.3</ele>
        <time>2024-07-10T07:15:41Z</time>
      </trkpt>
      <trkpt lat="47.15362" lon="9.30506">
        <ele>2358.2</ele>
        <time>2024-07-10T07:15:42Z</time>
      </trkpt>
      <trkpt lat="47.15361" lon="9.30504">
        <ele>2358.1</ele>
        <time>2024-07-10T07:15:43Z</time>
      </trkpt>
      <trkpt lat="47.15361" lon="9.30502">
        <ele>2358.1</ele>
        <time>2024-07-10T07:15:45Z</time>
      </trkpt>
      <trkpt lat="47.1536" lon="9.30501">
        <ele>2357.9</ele>
        <time>2024-07-10T07:15:46Z</time>
      </trkpt>
      <trkpt lat="47.1536" lon="9.30499">
        <ele>2357.9</ele>
        <time>2024-07-10T07:15:47Z</time>
      </trkpt>
      <trkpt lat="47.15359" lon="9.30498">
        <ele>2357.8</ele>
        <time>2024-07-10T07:15:49Z</time>
      </trkpt>
      <trkpt lat="47.15357" lon="9.30498">
        <ele>2358</ele>
        <time>2024-07-10T07:15:51Z</time>
      </trkpt>
      <trkpt lat="47.15355" lon="9.30498">
        <ele>2358.4</ele>
        <time>2024-07-10T07:15:52Z</time>
      </trkpt>
      <trkpt lat="47.15355" lon="9.30497">
        <ele>2358.5</ele>
        <time>2024-07-10T07:15:53Z</time>
      </trkpt>
      <trkpt lat="47.15353" lon="9.30496">
        <ele>2358.7</ele>
        <time>2024-07-10T07:15:55Z</time>
      </trkpt>
      <trkpt lat="47.15352" lon="9.30495">
        <ele>2358.8</ele>
        <time>2024-07-10T07:15:56Z</time>
      </trkpt>
      <trkpt lat="47.15351" lon="9.30493">
        <ele>2358.7</ele>
        <time>2024-07-10T07:15:57Z</time>
      </trkpt>
      <trkpt lat="47.1535" lon="9.30492">
        <ele>2358.8</ele>
        <time>2024-07-10T07:15:58Z</time>
      </trkpt>
      <trkpt lat="47.15349" lon="9.30492">
        <ele>2358.9</ele>
        <time>2024-07-10T07:15:59Z</time>
      </trkpt>
      <trkpt lat="47.15348" lon="9.30491">
        <ele>2359</ele>
        <time>2024-07-10T07:16:00Z</time>
      </trkpt>
      <trkpt lat="47.15347" lon="9.30489">
        <ele>2359.3</ele>
        <time>2024-07-10T07:16:02Z</time>
      </trkpt>
      <trkpt lat="47.15346" lon="9.30488">
        <ele>2359.3</ele>
        <time>2024-07-10T07:16:03Z</time>
      </trkpt>
      <trkpt lat="47.15345" lon="9.30486">
        <ele>2359.4</ele>
        <time>2024-07-10T07:16:05Z</time>
      </trkpt>
      <trkpt lat="47.15345" lon="9.30484">
        <ele>2359.3</ele>
        <time>2024-07-10T07:16:06Z</time>
      </trkpt>
      <trkpt lat="47.15344" lon="9.30483">
        <ele>2359.3</ele>
        <time>2024-07-10T07:16:07Z</time>
      </trkpt>
      <trkpt lat="47.15343" lon="9.30482">
        <ele>2359.3</ele>
        <time>2024-07-10T07:16:08Z</time>
      </trkpt>
      <trkpt lat="47.15342" lon="9.30481">
        <ele>2359.3</ele>
        <time>2024-07-10T07:16:09Z</time>
      </trkpt>
      <trkpt lat="47.15341" lon="9.3048">
        <ele>2359.2</ele>
        <time>2024-07-10T07:16:10Z</time>
      </trkpt>
      <trkpt lat="47.1534" lon="9.30478">
        <ele>2358.8</ele>
        <time>2024-07-10T07:16:11Z</time>
      </trkpt>
      <trkpt lat="47.1534" lon="9.30477">
        <ele>2358.7</ele>
        <time>2024-07-10T07:16:12Z</time>
      </trkpt>
      <trkpt lat="47.15339" lon="9.30476">
        <ele>2358.5</ele>
        <time>2024-07-10T07:16:14Z</time>
      </trkpt>
      <trkpt lat="47.15338" lon="9.30474">
        <ele>2357.5</ele>
        <time>2024-07-10T07:16:16Z</time>
      </trkpt>
      <trkpt lat="47.15337" lon="9.30472">
        <ele>2357.4</ele>
        <time>2024-07-10T07:16:19Z</time>
      </trkpt>
      <trkpt lat="47.15338" lon="9.30473">
        <ele>2355.9</ele>
        <time>2024-07-10T07:16:26Z</time>
      </trkpt>
      <trkpt lat="47.15338" lon="9.30471">
        <ele>2354.7</ele>
        <time>2024-07-10T07:16:28Z</time>
      </trkpt>
      <trkpt lat="47.15337" lon="9.3047">
        <ele>2353.5</ele>
        <time>2024-07-10T07:16:30Z</time>
      </trkpt>
      <trkpt lat="47.15336" lon="9.30469">
        <ele>2353.1</ele>
        <time>2024-07-10T07:16:31Z</time>
      </trkpt>
      <trkpt lat="47.15335" lon="9.30468">
        <ele>2352.8</ele>
        <time>2024-07-10T07:16:32Z</time>
      </trkpt>
      <trkpt lat="47.15335" lon="9.30466">
        <ele>2352.3</ele>
        <time>2024-07-10T07:16:33Z</time>
      </trkpt>
      <trkpt lat="47.15334" lon="9.30465">
        <ele>2352.2</ele>
        <time>2024-07-10T07:16:34Z</time>
      </trkpt>
      <trkpt lat="47.15333" lon="9.30464">
        <ele>2352.1</ele>
        <time>2024-07-10T07:16:35Z</time>
      </trkpt>
      <trkpt lat="47.15332" lon="9.30464">
        <ele>2351.9</ele>
        <time>2024-07-10T07:16:36Z</time>
      </trkpt>
      <trkpt lat="47.15331" lon="9.30462">
        <ele>2351.8</ele>
        <time>2024-07-10T07:16:37Z</time>
      </trkpt>
      <trkpt lat="47.15331" lon="9.3046">
        <ele>2351.8</ele>
        <time>2024-07-10T07:16:38Z</time>
      </trkpt>
      <trkpt lat="47.15331" lon="9.30459">
        <ele>2352.1</ele>
        <time>2024-07-10T07:16:39Z</time>
      </trkpt>
      <trkpt lat="47.1533" lon="9.30457">
        <ele>2352.4</ele>
        <time>2024-07-10T07:16:41Z</time>
      </trkpt>
      <trkpt lat="47.15329" lon="9.30456">
        <ele>2352.7</ele>
        <time>2024-07-10T07:16:43Z</time>
      </trkpt>
      <trkpt lat="47.15328" lon="9.30455">
        <ele>2352.7</ele>
        <time>2024-07-10T07:16:48Z</time>
      </trkpt>
      <trkpt lat="47.15327" lon="9.30454">
        <ele>2352.6</ele>
        <time>2024-07-10T07:16:50Z</time>
      </trkpt>
      <trkpt lat="47.15326" lon="9.30453">
        <ele>2351.9</ele>
        <time>2024-07-10T07:16:52Z</time>
      </trkpt>
      <trkpt lat="47.15325" lon="9.30452">
        <ele>2351.8</ele>
        <time>2024-07-10T07:16:54Z</time>
      </trkpt>
      <trkpt lat="47.15325" lon="9.3045">
        <ele>2351.4</ele>
        <time>2024-07-10T07:16:55Z</time>
      </trkpt>
      <trkpt lat="47.15324" lon="9.30448">
        <ele>2351.3</ele>
        <time>2024-07-10T07:16:56Z</time>
      </trkpt>
      <trkpt lat="47.15323" lon="9.30446">
        <ele>2351.1</ele>
        <time>2024-07-10T07:16:57Z</time>
      </trkpt>
      <trkpt lat="47.15323" lon="9.30444">
        <ele>2350.8</ele>
        <time>2024-07-10T07:16:58Z</time>
      </trkpt>
      <trkpt lat="47.15322" lon="9.30443">
        <ele>2350.9</ele>
        <time>2024-07-10T07:16:59Z</time>
      </trkpt>
      <trkpt lat="47.15322" lon="9.30441">
        <ele>2350.7</ele>
        <time>2024-07-10T07:17:00Z</time>
      </trkpt>
      <trkpt lat="47.15321" lon="9.3044">
        <ele>2350.3</ele>
        <time>2024-07-10T07:17:01Z</time>
      </trkpt>
      <trkpt lat="47.15321" lon="9.30439">
        <ele>2350.1</ele>
        <time>2024-07-10T07:17:02Z</time>
      </trkpt>
      <trkpt lat="47.15319" lon="9.30438">
        <ele>2349.3</ele>
        <time>2024-07-10T07:17:04Z</time>
      </trkpt>
      <trkpt lat="47.15318" lon="9.30437">
        <ele>2348.9</ele>
        <time>2024-07-10T07:17:06Z</time>
      </trkpt>
      <trkpt lat="47.15318" lon="9.30436">
        <ele>2349</ele>
        <time>2024-07-10T07:17:08Z</time>
      </trkpt>
      <trkpt lat="47.15317" lon="9.30435">
        <ele>2349.3</ele>
        <time>2024-07-10T07:17:10Z</time>
      </trkpt>
      <trkpt lat="47.15316" lon="9.30434">
        <ele>2349.5</ele>
        <time>2024-07-10T07:17:13Z</time>
      </trkpt>
      <trkpt lat="47.15315" lon="9.30432">
        <ele>2349.2</ele>
        <time>2024-07-10T07:17:16Z</time>
      </trkpt>
      <trkpt lat="47.15315" lon="9.30431">
        <ele>2348.7</ele>
        <time>2024-07-10T07:17:18Z</time>
      </trkpt>
      <trkpt lat="47.15315" lon="9.30429">
        <ele>2347.9</ele>
        <time>2024-07-10T07:17:20Z</time>
      </trkpt>
      <trkpt lat="47.15316" lon="9.30427">
        <ele>2345.6</ele>
        <time>2024-07-10T07:17:23Z</time>
      </trkpt>
      <trkpt lat="47.15316" lon="9.30426">
        <ele>2345</ele>
        <time>2024-07-10T07:17:24Z</time>
      </trkpt>
      <trkpt lat="47.15316" lon="9.30424">
        <ele>2344.6</ele>
        <time>2024-07-10T07:17:25Z</time>
      </trkpt>
      <trkpt lat="47.15317" lon="9.30422">
        <ele>2344.3</ele>
        <time>2024-07-10T07:17:27Z</time>
      </trkpt>
      <trkpt lat="47.15317" lon="9.3042">
        <ele>2343.9</ele>
        <time>2024-07-10T07:17:29Z</time>
      </trkpt>
      <trkpt lat="47.15318" lon="9.30419">
        <ele>2343.6</ele>
        <time>2024-07-10T07:17:30Z</time>
      </trkpt>
      <trkpt lat="47.15319" lon="9.30417">
        <ele>2342.6</ele>
        <time>2024-07-10T07:17:32Z</time>
      </trkpt>
      <trkpt lat="47.1532" lon="9.30416">
        <ele>2342.3</ele>
        <time>2024-07-10T07:17:33Z</time>
      </trkpt>
      <trkpt lat="47.15321" lon="9.30415">
        <ele>2341.8</ele>
        <time>2024-07-10T07:17:34Z</time>
      </trkpt>
      <trkpt lat="47.15321" lon="9.30413">
        <ele>2341.6</ele>
        <time>2024-07-10T07:17:35Z</time>
      </trkpt>
      <trkpt lat="47.15322" lon="9.30412">
        <ele>2341.7</ele>
        <time>2024-07-10T07:17:36Z</time>
      </trkpt>
      <trkpt lat="47.15322" lon="9.3041">
        <ele>2341.6</ele>
        <time>2024-07-10T07:17:37Z</time>
      </trkpt>
      <trkpt lat="47.15324" lon="9.30409">
        <ele>2341.6</ele>
        <time>2024-07-10T07:17:39Z</time>
      </trkpt>
      <trkpt lat="47.15325" lon="9.30408">
        <ele>2341.6</ele>
        <time>2024-07-10T07:17:40Z</time>
      </trkpt>
      <trkpt lat="47.15326" lon="9.30406">
        <ele>2341.8</ele>
        <time>2024-07-10T07:17:41Z</time>
      </trkpt>
      <trkpt lat="47.15326" lon="9.30405">
        <ele>2341.6</ele>
        <time>2024-07-10T07:17:42Z</time>
      </trkpt>
      <trkpt lat="47.15326" lon="9.30403">
        <ele>2341.2</ele>
        <time>2024-07-10T07:17:43Z</time>
      </trkpt>
      <trkpt lat="47.15327" lon="9.304">
        <ele>2341.1</ele>
        <time>2024-07-10T07:17:45Z</time>
      </trkpt>
      <trkpt lat="47.15328" lon="9.30399">
        <ele>2340.6</ele>
        <time>2024-07-10T07:17:47Z</time>
      </trkpt>
      <trkpt lat="47.15328" lon="9.30396">
        <ele>2340</ele>
        <time>2024-07-10T07:17:49Z</time>
      </trkpt>
      <trkpt lat="47.15328" lon="9.30395">
        <ele>2339.6</ele>
        <time>2024-07-10T07:17:50Z</time>
      </trkpt>
      <trkpt lat="47.15328" lon="9.30393">
        <ele>2339.3</ele>
        <time>2024-07-10T07:17:51Z</time>
      </trkpt>
      <trkpt lat="47.15328" lon="9.30391">
        <ele>2338.3</ele>
        <time>2024-07-10T07:17:53Z</time>
      </trkpt>
      <trkpt lat="47.15328" lon="9.30389">
        <ele>2338.5</ele>
        <time>2024-07-10T07:17:55Z</time>
      </trkpt>
      <trkpt lat="47.15328" lon="9.30388">
        <ele>2338.2</ele>
        <time>2024-07-10T07:17:56Z</time>
      </trkpt>
      <trkpt lat="47.15329" lon="9.30387">
        <ele>2338</ele>
        <time>2024-07-10T07:17:58Z</time>
      </trkpt>
      <trkpt lat="47.15329" lon="9.30386">
        <ele>2338.3</ele>
        <time>2024-07-10T07:18:04Z</time>
      </trkpt>
      <trkpt lat="47.15327" lon="9.30385">
        <ele>2337.6</ele>
        <time>2024-07-10T07:18:56Z</time>
      </trkpt>
      <trkpt lat="47.15328" lon="9.30385">
        <ele>2337.5</ele>
        <time>2024-07-10T07:18:57Z</time>
      </trkpt>
      <trkpt lat="47.1533" lon="9.30385">
        <ele>2337.6</ele>
        <time>2024-07-10T07:18:58Z</time>
      </trkpt>
      <trkpt lat="47.15331" lon="9.30385">
        <ele>2337.6</ele>
        <time>2024-07-10T07:18:59Z</time>
      </trkpt>
      <trkpt lat="47.15332" lon="9.30386">
        <ele>2337.5</ele>
        <time>2024-07-10T07:19:01Z</time>
      </trkpt>
      <trkpt lat="47.15334" lon="9.30387">
        <ele>2337.8</ele>
        <time>2024-07-10T07:19:02Z</time>
      </trkpt>
      <trkpt lat="47.15335" lon="9.30386">
        <ele>2337.6</ele>
        <time>2024-07-10T07:19:03Z</time>
      </trkpt>
      <trkpt lat="47.15336" lon="9.30386">
        <ele>2337.6</ele>
        <time>2024-07-10T07:19:04Z</time>
      </trkpt>
      <trkpt lat="47.15338" lon="9.30385">
        <ele>2337.1</ele>
        <time>2024-07-10T07:19:06Z</time>
      </trkpt>
      <trkpt lat="47.15339" lon="9.30384">
        <ele>2336.6</ele>
        <time>2024-07-10T07:19:08Z</time>
      </trkpt>
      <trkpt lat="47.1534" lon="9.30383">
        <ele>2336</ele>
        <time>2024-07-10T07:19:10Z</time>
      </trkpt>
      <trkpt lat="47.15341" lon="9.30382">
        <ele>2335.1</ele>
        <time>2024-07-10T07:19:13Z</time>
      </trkpt>
      <trkpt lat="47.15343" lon="9.30381">
        <ele>2335.5</ele>
        <time>2024-07-10T07:19:15Z</time>
      </trkpt>
      <trkpt lat="47.15344" lon="9.3038">
        <ele>2336</ele>
        <time>2024-07-10T07:19:16Z</time>
      </trkpt>
      <trkpt lat="47.15346" lon="9.30379">
        <ele>2336.2</ele>
        <time>2024-07-10T07:19:18Z</time>
      </trkpt>
      <trkpt lat="47.15346" lon="9.30377">
        <ele>2335.8</ele>
        <time>2024-07-10T07:19:20Z</time>
      </trkpt>
      <trkpt lat="47.15347" lon="9.30375">
        <ele>2336</ele>
        <time>2024-07-10T07:19:22Z</time>
      </trkpt>
      <trkpt lat="47.15348" lon="9.30374">
        <ele>2335.6</ele>
        <time>2024-07-10T07:19:24Z</time>
      </trkpt>
      <trkpt lat="47.15349" lon="9.30373">
        <ele>2334.8</ele>
        <time>2024-07-10T07:19:26Z</time>
      </trkpt>
      <trkpt lat="47.1535" lon="9.30371">
        <ele>2334</ele>
        <time>2024-07-10T07:19:28Z</time>
      </trkpt>
      <trkpt lat="47.1535" lon="9.3037">
        <ele>2332.1</ele>
        <time>2024-07-10T07:19:31Z</time>
      </trkpt>
      <trkpt lat="47.15351" lon="9.3037">
        <ele>2330.2</ele>
        <time>2024-07-10T07:19:33Z</time>
      </trkpt>
      <trkpt lat="47.15352" lon="9.3037">
        <ele>2329.7</ele>
        <time>2024-07-10T07:19:34Z</time>
      </trkpt>
      <trkpt lat="47.15353" lon="9.3037">
        <ele>2328.6</ele>
        <time>2024-07-10T07:19:36Z</time>
      </trkpt>
      <trkpt lat="47.15354" lon="9.3037">
        <ele>2328.4</ele>
        <time>2024-07-10T07:19:38Z</time>
      </trkpt>
      <trkpt lat="47.15355" lon="9.30369">
        <ele>2327.6</ele>
        <time>2024-07-10T07:19:41Z</time>
      </trkpt>
      <trkpt lat="47.15356" lon="9.30368">
        <ele>2327.2</ele>
        <time>2024-07-10T07:19:44Z</time>
      </trkpt>
      <trkpt lat="47.15357" lon="9.30367">
        <ele>2326.9</ele>
        <time>2024-07-10T07:19:46Z</time>
      </trkpt>
      <trkpt lat="47.15357" lon="9.30366">
        <ele>2326.6</ele>
        <time>2024-07-10T07:19:48Z</time>
      </trkpt>
      <trkpt lat="47.15357" lon="9.30364">
        <ele>2326.3</ele>
        <time>2024-07-10T07:19:50Z</time>
      </trkpt>
      <trkpt lat="47.15356" lon="9.30362">
        <ele>2325.8</ele>
        <time>2024-07-10T07:19:53Z</time>
      </trkpt>
      <trkpt lat="47.15357" lon="9.30362">
        <ele>2325.4</ele>
        <time>2024-07-10T07:19:56Z</time>
      </trkpt>
      <trkpt lat="47.15358" lon="9.30363">
        <ele>2325.4</ele>
        <time>2024-07-10T07:19:57Z</time>
      </trkpt>
      <trkpt lat="47.15357" lon="9.30363">
        <ele>2324.7</ele>
        <time>2024-07-10T07:19:59Z</time>
      </trkpt>
      <trkpt lat="47.15356" lon="9.30362">
        <ele>2324.6</ele>
        <time>2024-07-10T07:20:00Z</time>
      </trkpt>
      <trkpt lat="47.15355" lon="9.30361">
        <ele>2324.6</ele>
        <time>2024-07-10T07:20:01Z</time>
      </trkpt>
      <trkpt lat="47.15355" lon="9.3036">
        <ele>2324.7</ele>
        <time>2024-07-10T07:20:02Z</time>
      </trkpt>
      <trkpt lat="47.15354" lon="9.30359">
        <ele>2324.7</ele>
        <time>2024-07-10T07:20:03Z</time>
      </trkpt>
      <trkpt lat="47.15353" lon="9.30358">
        <ele>2324.4</ele>
        <time>2024-07-10T07:20:04Z</time>
      </trkpt>
      <trkpt lat="47.15352" lon="9.30357">
        <ele>2324.3</ele>
        <time>2024-07-10T07:20:05Z</time>
      </trkpt>
      <trkpt lat="47.15351" lon="9.30356">
        <ele>2324.1</ele>
        <time>2024-07-10T07:20:07Z</time>
      </trkpt>
      <trkpt lat="47.1535" lon="9.30354">
        <ele>2323.8</ele>
        <time>2024-07-10T07:20:09Z</time>
      </trkpt>
      <trkpt lat="47.15349" lon="9.30353">
        <ele>2323.6</ele>
        <time>2024-07-10T07:20:11Z</time>
      </trkpt>
      <trkpt lat="47.15349" lon="9.30352">
        <ele>2323.4</ele>
        <time>2024-07-10T07:20:12Z</time>
      </trkpt>
      <trkpt lat="47.15348" lon="9.3035">
        <ele>2323.3</ele>
        <time>2024-07-10T07:20:13Z</time>
      </trkpt>
      <trkpt lat="47.15347" lon="9.30349">
        <ele>2322.8</ele>
        <time>2024-07-10T07:20:14Z</time>
      </trkpt>
      <trkpt lat="47.15346" lon="9.30348">
        <ele>2322.3</ele>
        <time>2024-07-10T07:20:15Z</time>
      </trkpt>
      <trkpt lat="47.15346" lon="9.30346">
        <ele>2320.9</ele>
        <time>2024-07-10T07:20:17Z</time>
      </trkpt>
      <trkpt lat="47.15345" lon="9.30345">
        <ele>2320.2</ele>
        <time>2024-07-10T07:20:19Z</time>
      </trkpt>
      <trkpt lat="47.15344" lon="9.30343">
        <ele>2320.2</ele>
        <time>2024-07-10T07:20:21Z</time>
      </trkpt>
      <trkpt lat="47.15343" lon="9.30341">
        <ele>2320.3</ele>
        <time>2024-07-10T07:20:23Z</time>
      </trkpt>
      <trkpt lat="47.15342" lon="9.3034">
        <ele>2320.1</ele>
        <time>2024-07-10T07:20:25Z</time>
      </trkpt>
      <trkpt lat="47.15341" lon="9.30339">
        <ele>2318.9</ele>
        <time>2024-07-10T07:20:27Z</time>
      </trkpt>
      <trkpt lat="47.15341" lon="9.30337">
        <ele>2318.5</ele>
        <time>2024-07-10T07:20:29Z</time>
      </trkpt>
      <trkpt lat="47.15339" lon="9.30335">
        <ele>2318</ele>
        <time>2024-07-10T07:20:31Z</time>
      </trkpt>
      <trkpt lat="47.15338" lon="9.30334">
        <ele>2317.7</ele>
        <time>2024-07-10T07:20:33Z</time>
      </trkpt>
      <trkpt lat="47.15336" lon="9.30333">
        <ele>2317.2</ele>
        <time>2024-07-10T07:20:35Z</time>
      </trkpt>
      <trkpt lat="47.15335" lon="9.30332">
        <ele>2315.8</ele>
        <time>2024-07-10T07:20:45Z</time>
      </trkpt>
      <trkpt lat="47.15336" lon="9.30331">
        <ele>2315.7</ele>
        <time>2024-07-10T07:20:53Z</time>
      </trkpt>
      <trkpt lat="47.15338" lon="9.30332">
        <ele>2314.9</ele>
        <time>2024-07-10T07:20:55Z</time>
      </trkpt>
      <trkpt lat="47.15339" lon="9.30332">
        <ele>2314.7</ele>
        <time>2024-07-10T07:20:56Z</time>
      </trkpt>
      <trkpt lat="47.1534" lon="9.30333">
        <ele>2314.5</ele>
        <time>2024-07-10T07:20:57Z</time>
      </trkpt>
      <trkpt lat="47.15341" lon="9.30333">
        <ele>2313.9</ele>
        <time>2024-07-10T07:20:58Z</time>
      </trkpt>
      <trkpt lat="47.15343" lon="9.30333">
        <ele>2313.5</ele>
        <time>2024-07-10T07:20:59Z</time>
      </trkpt>
      <trkpt lat="47.15344" lon="9.30333">
        <ele>2313.1</ele>
        <time>2024-07-10T07:21:00Z</time>
      </trkpt>
      <trkpt lat="47.15345" lon="9.30333">
        <ele>2312.6</ele>
        <time>2024-07-10T07:21:01Z</time>
      </trkpt>
      <trkpt lat="47.15347" lon="9.30333">
        <ele>2311.4</ele>
        <time>2024-07-10T07:21:02Z</time>
      </trkpt>
      <trkpt lat="47.15348" lon="9.30333">
        <ele>2310.5</ele>
        <time>2024-07-10T07:21:03Z</time>
      </trkpt>
      <trkpt lat="47.15349" lon="9.30333">
        <ele>2310.6</ele>
        <time>2024-07-10T07:21:04Z</time>
      </trkpt>
      <trkpt lat="47.15351" lon="9.30332">
        <ele>2310</ele>
        <time>2024-07-10T07:21:05Z</time>
      </trkpt>
      <trkpt lat="47.15352" lon="9.30332">
        <ele>2309.5</ele>
        <time>2024-07-10T07:21:06Z</time>
      </trkpt>
      <trkpt lat="47.15353" lon="9.30332">
        <ele>2308.7</ele>
        <time>2024-07-10T07:21:07Z</time>
      </trkpt>
      <trkpt lat="47.15354" lon="9.30331">
        <ele>2308.6</ele>
        <time>2024-07-10T07:21:09Z</time>
      </trkpt>
      <trkpt lat="47.15355" lon="9.30329">
        <ele>2308.7</ele>
        <time>2024-07-10T07:21:12Z</time>
      </trkpt>
      <trkpt lat="47.15356" lon="9.30328">
        <ele>2309</ele>
        <time>2024-07-10T07:21:13Z</time>
      </trkpt>
      <trkpt lat="47.15357" lon="9.30328">
        <ele>2308.4</ele>
        <time>2024-07-10T07:21:15Z</time>
      </trkpt>
      <trkpt lat="47.15359" lon="9.30327">
        <ele>2307.9</ele>
        <time>2024-07-10T07:21:17Z</time>
      </trkpt>
      <trkpt lat="47.15359" lon="9.30328">
        <ele>2305.3</ele>
        <time>2024-07-10T07:21:22Z</time>
      </trkpt>
      <trkpt lat="47.1536" lon="9.30329">
        <ele>2304.3</ele>
        <time>2024-07-10T07:21:25Z</time>
      </trkpt>
      <trkpt lat="47.15359" lon="9.30328">
        <ele>2302.5</ele>
        <time>2024-07-10T07:21:29Z</time>
      </trkpt>
      <trkpt lat="47.15357" lon="9.30326">
        <ele>2302</ele>
        <time>2024-07-10T07:21:30Z</time>
      </trkpt>
      <trkpt lat="47.15356" lon="9.30324">
        <ele>2301.4</ele>
        <time>2024-07-10T07:21:31Z</time>
      </trkpt>
      <trkpt lat="47.15354" lon="9.30323">
        <ele>2300.7</ele>
        <time>2024-07-10T07:21:32Z</time>
      </trkpt>
      <trkpt lat="47.15353" lon="9.30321">
        <ele>2299.8</ele>
        <time>2024-07-10T07:21:33Z</time>
      </trkpt>
      <trkpt lat="47.15352" lon="9.30319">
        <ele>2299.6</ele>
        <time>2024-07-10T07:21:34Z</time>
      </trkpt>
      <trkpt lat="47.15351" lon="9.30317">
        <ele>2299.4</ele>
        <time>2024-07-10T07:21:35Z</time>
      </trkpt>
      <trkpt lat="47.1535" lon="9.30316">
        <ele>2299.3</ele>
        <time>2024-07-10T07:21:36Z</time>
      </trkpt>
      <trkpt lat="47.15349" lon="9.30314">
        <ele>2299.1</ele>
        <time>2024-07-10T07:21:37Z</time>
      </trkpt>
      <trkpt lat="47.15348" lon="9.30314">
        <ele>2299</ele>
        <time>2024-07-10T07:21:38Z</time>
      </trkpt>
      <trkpt lat="47.15347" lon="9.30313">
        <ele>2299.1</ele>
        <time>2024-07-10T07:21:39Z</time>
      </trkpt>
      <trkpt lat="47.15346" lon="9.30313">
        <ele>2299</ele>
        <time>2024-07-10T07:21:40Z</time>
      </trkpt>
      <trkpt lat="47.15345" lon="9.30312">
        <ele>2298.8</ele>
        <time>2024-07-10T07:21:41Z</time>
      </trkpt>
      <trkpt lat="47.15344" lon="9.30311">
        <ele>2299.1</ele>
        <time>2024-07-10T07:21:42Z</time>
      </trkpt>
      <trkpt lat="47.15343" lon="9.3031">
        <ele>2299.5</ele>
        <time>2024-07-10T07:21:44Z</time>
      </trkpt>
      <trkpt lat="47.15343" lon="9.30308">
        <ele>2299.3</ele>
        <time>2024-07-10T07:21:46Z</time>
      </trkpt>
      <trkpt lat="47.15342" lon="9.30306">
        <ele>2299.4</ele>
        <time>2024-07-10T07:21:49Z</time>
      </trkpt>
      <trkpt lat="47.15341" lon="9.30305">
        <ele>2299.1</ele>
        <time>2024-07-10T07:21:53Z</time>
      </trkpt>
      <trkpt lat="47.1534" lon="9.30305">
        <ele>2299</ele>
        <time>2024-07-10T07:21:54Z</time>
      </trkpt>
      <trkpt lat="47.15339" lon="9.30304">
        <ele>2298.9</ele>
        <time>2024-07-10T07:21:55Z</time>
      </trkpt>
      <trkpt lat="47.15338" lon="9.30303">
        <ele>2298.9</ele>
        <time>2024-07-10T07:21:56Z</time>
      </trkpt>
      <trkpt lat="47.15338" lon="9.30302">
        <ele>2298.5</ele>
        <time>2024-07-10T07:21:57Z</time>
      </trkpt>
      <trkpt lat="47.15337" lon="9.30301">
        <ele>2297.5</ele>
        <time>2024-07-10T07:21:59Z</time>
      </trkpt>
      <trkpt lat="47.15336" lon="9.30301">
        <ele>2296.6</ele>
        <time>2024-07-10T07:22:02Z</time>
      </trkpt>
      <trkpt lat="47.15335" lon="9.30302">
        <ele>2296.6</ele>
        <time>2024-07-10T07:22:07Z</time>
      </trkpt>
      <trkpt lat="47.15334" lon="9.30302">
        <ele>2297.1</ele>
        <time>2024-07-10T07:22:16Z</time>
      </trkpt>
      <trkpt lat="47.15332" lon="9.30302">
        <ele>2297</ele>
        <time>2024-07-10T07:22:19Z</time>
      </trkpt>
      <trkpt lat="47.15331" lon="9.30302">
        <ele>2297.2</ele>
        <time>2024-07-10T07:22:21Z</time>
      </trkpt>
      <trkpt lat="47.15331" lon="9.30301">
        <ele>2296.9</ele>
        <time>2024-07-10T07:22:24Z</time>
      </trkpt>
      <trkpt lat="47.15331" lon="9.30298">
        <ele>2305.6</ele>
        <time>2024-07-10T07:22:29Z</time>
      </trkpt>
      <trkpt lat="47.15332" lon="9.303">
        <ele>2309.2</ele>
        <time>2024-07-10T07:22:40Z</time>
      </trkpt>
      <trkpt lat="47.15331" lon="9.30298">
        <ele>2308.7</ele>
        <time>2024-07-10T07:22:43Z</time>
      </trkpt>
      <trkpt lat="47.15331" lon="9.30296">
        <ele>2307</ele>
        <time>2024-07-10T07:22:44Z</time>
      </trkpt>
      <trkpt lat="47.15332" lon="9.30295">
        <ele>2305.2</ele>
        <time>2024-07-10T07:22:46Z</time>
      </trkpt>
      <trkpt lat="47.15335" lon="9.30301">
        <ele>2293.6</ele>
        <time>2024-07-10T07:22:53Z</time>
      </trkpt>
      <trkpt lat="47.15336" lon="9.30302">
        <ele>2292.9</ele>
        <time>2024-07-10T07:22:55Z</time>
      </trkpt>
      <trkpt lat="47.15337" lon="9.30302">
        <ele>2292.7</ele>
        <time>2024-07-10T07:22:56Z</time>
      </trkpt>
      <trkpt lat="47.15338" lon="9.30302">
        <ele>2292.2</ele>
        <time>2024-07-10T07:22:58Z</time>
      </trkpt>
      <trkpt lat="47.15339" lon="9.30302">
        <ele>2291.6</ele>
        <time>2024-07-10T07:22:59Z</time>
      </trkpt>
      <trkpt lat="47.1534" lon="9.30303">
        <ele>2290.9</ele>
        <time>2024-07-10T07:23:00Z</time>
      </trkpt>
      <trkpt lat="47.15341" lon="9.30303">
        <ele>2290.7</ele>
        <time>2024-07-10T07:23:01Z</time>
      </trkpt>
      <trkpt lat="47.15343" lon="9.30304">
        <ele>2290.2</ele>
        <time>2024-07-10T07:23:03Z</time>
      </trkpt>
      <trkpt lat="47.15344" lon="9.30304">
        <ele>2289.9</ele>
        <time>2024-07-10T07:23:04Z</time>
      </trkpt>
      <trkpt lat="47.15346" lon="9.30304">
        <ele>2289.4</ele>
        <time>2024-07-10T07:23:05Z</time>
      </trkpt>
      <trkpt lat="47.15348" lon="9.30305">
        <ele>2288.3</ele>
        <time>2024-07-10T07:23:07Z</time>
      </trkpt>
      <trkpt lat="47.15349" lon="9.30306">
        <ele>2287.9</ele>
        <time>2024-07-10T07:23:08Z</time>
      </trkpt>
      <trkpt lat="47.1535" lon="9.30305">
        <ele>2287.9</ele>
        <time>2024-07-10T07:23:09Z</time>
      </trkpt>
      <trkpt lat="47.15351" lon="9.30305">
        <ele>2287.4</ele>
        <time>2024-07-10T07:23:11Z</time>
      </trkpt>
      <trkpt lat="47.15353" lon="9.30305">
        <ele>2287.6</ele>
        <time>2024-07-10T07:23:13Z</time>
      </trkpt>
      <trkpt lat="47.15354" lon="9.30305">
        <ele>2287.5</ele>
        <time>2024-07-10T07:23:14Z</time>
      </trkpt>
      <trkpt lat="47.15355" lon="9.30306">
        <ele>2287.7</ele>
        <time>2024-07-10T07:23:15Z</time>
      </trkpt>
      <trkpt lat="47.15356" lon="9.30306">
        <ele>2289.2</ele>
        <time>2024-07-10T07:23:16Z</time>
      </trkpt>
      <trkpt lat="47.15357" lon="9.30306">
        <ele>2290.2</ele>
        <time>2024-07-10T07:23:17Z</time>
      </trkpt>
      <trkpt lat="47.15358" lon="9.30306">
        <ele>2290.4</ele>
        <time>2024-07-10T07:23:18Z</time>
      </trkpt>
      <trkpt lat="47.1536" lon="9.30307">
        <ele>2290</ele>
        <time>2024-07-10T07:23:20Z</time>
      </trkpt>
      <trkpt lat="47.15361" lon="9.30306">
        <ele>2290.3</ele>
        <time>2024-07-10T07:23:21Z</time>
      </trkpt>
      <trkpt lat="47.15362" lon="9.30307">
        <ele>2290.6</ele>
        <time>2024-07-10T07:23:23Z</time>
      </trkpt>
      <trkpt lat="47.15364" lon="9.30308">
        <ele>2290.9</ele>
        <time>2024-07-10T07:23:25Z</time>
      </trkpt>
      <trkpt lat="47.15365" lon="9.30309">
        <ele>2291</ele>
        <time>2024-07-10T07:23:26Z</time>
      </trkpt>
      <trkpt lat="47.15366" lon="9.30308">
        <ele>2291.2</ele>
        <time>2024-07-10T07:23:28Z</time>
      </trkpt>
      <trkpt lat="47.15367" lon="9.30308">
        <ele>2291.2</ele>
        <time>2024-07-10T07:23:29Z</time>
      </trkpt>
      <trkpt lat="47.15368" lon="9.30308">
        <ele>2291.1</ele>
        <time>2024-07-10T07:23:30Z</time>
      </trkpt>
      <trkpt lat="47.15369" lon="9.30307">
        <ele>2291.1</ele>
        <time>2024-07-10T07:23:31Z</time>
      </trkpt>
      <trkpt lat="47.1537" lon="9.30307">
        <ele>2290.9</ele>
        <time>2024-07-10T07:23:33Z</time>
      </trkpt>
      <trkpt lat="47.15371" lon="9.30307">
        <ele>2290.5</ele>
        <time>2024-07-10T07:23:34Z</time>
      </trkpt>
      <trkpt lat="47.15373" lon="9.30306">
        <ele>2290.2</ele>
        <time>2024-07-10T07:23:36Z</time>
      </trkpt>
      <trkpt lat="47.15374" lon="9.30307">
        <ele>2290.1</ele>
        <time>2024-07-10T07:23:38Z</time>
      </trkpt>
      <trkpt lat="47.15376" lon="9.30308">
        <ele>2289.4</ele>
        <time>2024-07-10T07:23:40Z</time>
      </trkpt>
      <trkpt lat="47.15377" lon="9.30308">
        <ele>2288.6</ele>
        <time>2024-07-10T07:23:41Z</time>
      </trkpt>
      <trkpt lat="47.15379" lon="9.30308">
        <ele>2287.6</ele>
        <time>2024-07-10T07:23:43Z</time>
      </trkpt>
      <trkpt lat="47.1538" lon="9.30308">
        <ele>2287.3</ele>
        <time>2024-07-10T07:23:44Z</time>
      </trkpt>
      <trkpt lat="47.15381" lon="9.30307">
        <ele>2287.4</ele>
        <time>2024-07-10T07:23:45Z</time>
      </trkpt>
      <trkpt lat="47.15382" lon="9.30307">
        <ele>2287.3</ele>
        <time>2024-07-10T07:23:46Z</time>
      </trkpt>
      <trkpt lat="47.15383" lon="9.30308">
        <ele>2287.9</ele>
        <time>2024-07-10T07:23:47Z</time>
      </trkpt>
      <trkpt lat="47.15385" lon="9.30308">
        <ele>2287.9</ele>
        <time>2024-07-10T07:23:49Z</time>
      </trkpt>
      <trkpt lat="47.15386" lon="9.30308">
        <ele>2287.2</ele>
        <time>2024-07-10T07:23:51Z</time>
      </trkpt>
      <trkpt lat="47.15387" lon="9.30308">
        <ele>2286.5</ele>
        <time>2024-07-10T07:23:52Z</time>
      </trkpt>
      <trkpt lat="47.15389" lon="9.30308">
        <ele>2286.3</ele>
        <time>2024-07-10T07:23:53Z</time>
      </trkpt>
      <trkpt lat="47.1539" lon="9.30309">
        <ele>2286.1</ele>
        <time>2024-07-10T07:23:54Z</time>
      </trkpt>
      <trkpt lat="47.15391" lon="9.30309">
        <ele>2284.7</ele>
        <time>2024-07-10T07:23:56Z</time>
      </trkpt>
      <trkpt lat="47.15392" lon="9.30308">
        <ele>2283.4</ele>
        <time>2024-07-10T07:23:58Z</time>
      </trkpt>
      <trkpt lat="47.15394" lon="9.30308">
        <ele>2282.4</ele>
        <time>2024-07-10T07:24:00Z</time>
      </trkpt>
      <trkpt lat="47.15395" lon="9.30308">
        <ele>2281.7</ele>
        <time>2024-07-10T07:24:02Z</time>
      </trkpt>
      <trkpt lat="47.15396" lon="9.30309">
        <ele>2281.3</ele>
        <time>2024-07-10T07:24:03Z</time>
      </trkpt>
      <trkpt lat="47.15397" lon="9.30309">
        <ele>2281.1</ele>
        <time>2024-07-10T07:24:04Z</time>
      </trkpt>
      <trkpt lat="47.15399" lon="9.30309">
        <ele>2280.5</ele>
        <time>2024-07-10T07:24:06Z</time>
      </trkpt>
      <trkpt lat="47.154" lon="9.30308">
        <ele>2280</ele>
        <time>2024-07-10T07:24:07Z</time>
      </trkpt>
      <trkpt lat="47.15402" lon="9.30308">
        <ele>2279.6</ele>
        <time>2024-07-10T07:24:08Z</time>
      </trkpt>
      <trkpt lat="47.15403" lon="9.30308">
        <ele>2279.4</ele>
        <time>2024-07-10T07:24:09Z</time>
      </trkpt>
      <trkpt lat="47.15405" lon="9.30307">
        <ele>2279.6</ele>
        <time>2024-07-10T07:24:10Z</time>
      </trkpt>
      <trkpt lat="47.15406" lon="9.30307">
        <ele>2279.6</ele>
        <time>2024-07-10T07:24:11Z</time>
      </trkpt>
      <trkpt lat="47.15408" lon="9.30307">
        <ele>2279.4</ele>
        <time>2024-07-10T07:24:13Z</time>
      </trkpt>
      <trkpt lat="47.1541" lon="9.30308">
        <ele>2278.8</ele>
        <time>2024-07-10T07:24:15Z</time>
      </trkpt>
      <trkpt lat="47.15411" lon="9.30309">
        <ele>2278.5</ele>
        <time>2024-07-10T07:24:16Z</time>
      </trkpt>
      <trkpt lat="47.15412" lon="9.30309">
        <ele>2278.4</ele>
        <time>2024-07-10T07:24:17Z</time>
      </trkpt>
      <trkpt lat="47.15413" lon="9.30309">
        <ele>2277.1</ele>
        <time>2024-07-10T07:24:19Z</time>
      </trkpt>
      <trkpt lat="47.15414" lon="9.30309">
        <ele>2276.5</ele>
        <time>2024-07-10T07:24:20Z</time>
      </trkpt>
      <trkpt lat="47.15416" lon="9.30309">
        <ele>2275.8</ele>
        <time>2024-07-10T07:24:21Z</time>
      </trkpt>
      <trkpt lat="47.15417" lon="9.30309">
        <ele>2275.9</ele>
        <time>2024-07-10T07:24:22Z</time>
      </trkpt>
      <trkpt lat="47.15418" lon="9.3031">
        <ele>2275.9</ele>
        <time>2024-07-10T07:24:23Z</time>
      </trkpt>
      <trkpt lat="47.1542" lon="9.3031">
        <ele>2275.2</ele>
        <time>2024-07-10T07:24:25Z</time>
      </trkpt>
      <trkpt lat="47.15421" lon="9.3031">
        <ele>2275.2</ele>
        <time>2024-07-10T07:24:26Z</time>
      </trkpt>
      <trkpt lat="47.15422" lon="9.3031">
        <ele>2274.5</ele>
        <time>2024-07-10T07:24:27Z</time>
      </trkpt>
      <trkpt lat="47.15424" lon="9.3031">
        <ele>2274.1</ele>
        <time>2024-07-10T07:24:28Z</time>
      </trkpt>
      <trkpt lat="47.15425" lon="9.30309">
        <ele>2274.1</ele>
        <time>2024-07-10T07:24:29Z</time>
      </trkpt>
      <trkpt lat="47.15425" lon="9.30308">
        <ele>2273.8</ele>
        <time>2024-07-10T07:24:30Z</time>
      </trkpt>
      <trkpt lat="47.15426" lon="9.30307">
        <ele>2273.6</ele>
        <time>2024-07-10T07:24:31Z</time>
      </trkpt>
      <trkpt lat="47.15427" lon="9.30307">
        <ele>2273.3</ele>
        <time>2024-07-10T07:24:32Z</time>
      </trkpt>
      <trkpt lat="47.15428" lon="9.30307">
        <ele>2273</ele>
        <time>2024-07-10T07:24:33Z</time>
      </trkpt>
      <trkpt lat="47.1543" lon="9.30307">
        <ele>2272.6</ele>
        <time>2024-07-10T07:24:34Z</time>
      </trkpt>
      <trkpt lat="47.15431" lon="9.30307">
        <ele>2272.2</ele>
        <time>2024-07-10T07:24:35Z</time>
      </trkpt>
      <trkpt lat="47.15432" lon="9.30307">
        <ele>2271.7</ele>
        <time>2024-07-10T07:24:36Z</time>
      </trkpt>
      <trkpt lat="47.15433" lon="9.30308">
        <ele>2270.2</ele>
        <time>2024-07-10T07:24:38Z</time>
      </trkpt>
      <trkpt lat="47.15434" lon="9.30309">
        <ele>2270.4</ele>
        <time>2024-07-10T07:24:39Z</time>
      </trkpt>
      <trkpt lat="47.15436" lon="9.30309">
        <ele>2270.1</ele>
        <time>2024-07-10T07:24:41Z</time>
      </trkpt>
      <trkpt lat="47.15437" lon="9.30309">
        <ele>2269.2</ele>
        <time>2024-07-10T07:24:43Z</time>
      </trkpt>
      <trkpt lat="47.15439" lon="9.30309">
        <ele>2268.9</ele>
        <time>2024-07-10T07:24:44Z</time>
      </trkpt>
      <trkpt lat="47.1544" lon="9.30309">
        <ele>2268.9</ele>
        <time>2024-07-10T07:24:45Z</time>
      </trkpt>
      <trkpt lat="47.15441" lon="9.30308">
        <ele>2269.6</ele>
        <time>2024-07-10T07:24:46Z</time>
      </trkpt>
      <trkpt lat="47.15442" lon="9.30307">
        <ele>2270.3</ele>
        <time>2024-07-10T07:24:47Z</time>
      </trkpt>
      <trkpt lat="47.15443" lon="9.30307">
        <ele>2270.2</ele>
        <time>2024-07-10T07:24:48Z</time>
      </trkpt>
      <trkpt lat="47.15444" lon="9.30306">
        <ele>2270</ele>
        <time>2024-07-10T07:24:49Z</time>
      </trkpt>
      <trkpt lat="47.15445" lon="9.30306">
        <ele>2270.4</ele>
        <time>2024-07-10T07:24:51Z</time>
      </trkpt>
      <trkpt lat="47.15447" lon="9.30307">
        <ele>2271</ele>
        <time>2024-07-10T07:24:53Z</time>
      </trkpt>
      <trkpt lat="47.15448" lon="9.30306">
        <ele>2272.1</ele>
        <time>2024-07-10T07:24:55Z</time>
      </trkpt>
      <trkpt lat="47.15449" lon="9.30306">
        <ele>2273.8</ele>
        <time>2024-07-10T07:25:01Z</time>
      </trkpt>
      <trkpt lat="47.15449" lon="9.30305">
        <ele>2273.9</ele>
        <time>2024-07-10T07:25:03Z</time>
      </trkpt>
      <trkpt lat="47.15449" lon="9.30303">
        <ele>2273.8</ele>
        <time>2024-07-10T07:25:04Z</time>
      </trkpt>
      <trkpt lat="47.15449" lon="9.30302">
        <ele>2273.7</ele>
        <time>2024-07-10T07:25:06Z</time>
      </trkpt>
      <trkpt lat="47.15447" lon="9.303">
        <ele>2273.8</ele>
        <time>2024-07-10T07:25:08Z</time>
      </trkpt>
      <trkpt lat="47.15447" lon="9.303">
        <ele>2273.5</ele>
        <time>2024-07-10T07:25:09Z</time>
      </trkpt>
      <trkpt lat="47.15445" lon="9.30299">
        <ele>2273.2</ele>
        <time>2024-07-10T07:25:11Z</time>
      </trkpt>
      <trkpt lat="47.15445" lon="9.30298">
        <ele>2273.3</ele>
        <time>2024-07-10T07:25:14Z</time>
      </trkpt>
      <trkpt lat="47.15447" lon="9.30298">
        <ele>2273.1</ele>
        <time>2024-07-10T07:25:17Z</time>
      </trkpt>
      <trkpt lat="47.15448" lon="9.30298">
        <ele>2272.8</ele>
        <time>2024-07-10T07:25:19Z</time>
      </trkpt>
      <trkpt lat="47.15449" lon="9.30298">
        <ele>2272.1</ele>
        <time>2024-07-10T07:25:21Z</time>
      </trkpt>
      <trkpt lat="47.15451" lon="9.30297">
        <ele>2271.5</ele>
        <time>2024-07-10T07:25:23Z</time>
      </trkpt>
      <trkpt lat="47.15453" lon="9.30296">
        <ele>2271</ele>
        <time>2024-07-10T07:25:25Z</time>
      </trkpt>
      <trkpt lat="47.15454" lon="9.30295">
        <ele>2270.7</ele>
        <time>2024-07-10T07:25:26Z</time>
      </trkpt>
      <trkpt lat="47.15455" lon="9.30294">
        <ele>2270.6</ele>
        <time>2024-07-10T07:25:28Z</time>
      </trkpt>
      <trkpt lat="47.15457" lon="9.30294">
        <ele>2269.6</ele>
        <time>2024-07-10T07:25:30Z</time>
      </trkpt>
      <trkpt lat="47.15458" lon="9.30294">
        <ele>2268.9</ele>
        <time>2024-07-10T07:25:31Z</time>
      </trkpt>
      <trkpt lat="47.15459" lon="9.30293">
        <ele>2268.8</ele>
        <time>2024-07-10T07:25:33Z</time>
      </trkpt>
      <trkpt lat="47.1546" lon="9.30292">
        <ele>2268.4</ele>
        <time>2024-07-10T07:25:38Z</time>
      </trkpt>
      <trkpt lat="47.15461" lon="9.30292">
        <ele>2267.8</ele>
        <time>2024-07-10T07:25:40Z</time>
      </trkpt>
      <trkpt lat="47.15462" lon="9.30291">
        <ele>2266.8</ele>
        <time>2024-07-10T07:25:42Z</time>
      </trkpt>
      <trkpt lat="47.15464" lon="9.3029">
        <ele>2265.4</ele>
        <time>2024-07-10T07:25:44Z</time>
      </trkpt>
      <trkpt lat="47.15465" lon="9.30289">
        <ele>2265</ele>
        <time>2024-07-10T07:25:46Z</time>
      </trkpt>
      <trkpt lat="47.15466" lon="9.30289">
        <ele>2264.1</ele>
        <time>2024-07-10T07:25:48Z</time>
      </trkpt>
      <trkpt lat="47.15467" lon="9.30288">
        <ele>2262.6</ele>
        <time>2024-07-10T07:25:50Z</time>
      </trkpt>
      <trkpt lat="47.15469" lon="9.30287">
        <ele>2260.8</ele>
        <time>2024-07-10T07:25:55Z</time>
      </trkpt>
      <trkpt lat="47.1547" lon="9.30287">
        <ele>2260</ele>
        <time>2024-07-10T07:25:57Z</time>
      </trkpt>
      <trkpt lat="47.15471" lon="9.30287">
        <ele>2259.9</ele>
        <time>2024-07-10T07:26:01Z</time>
      </trkpt>
      <trkpt lat="47.15473" lon="9.30287">
        <ele>2259.4</ele>
        <time>2024-07-10T07:26:03Z</time>
      </trkpt>
      <trkpt lat="47.15474" lon="9.30287">
        <ele>2259.3</ele>
        <time>2024-07-10T07:26:05Z</time>
      </trkpt>
      <trkpt lat="47.15475" lon="9.30286">
        <ele>2259.1</ele>
        <time>2024-07-10T07:26:07Z</time>
      </trkpt>
      <trkpt lat="47.15476" lon="9.30285">
        <ele>2258.7</ele>
        <time>2024-07-10T07:26:08Z</time>
      </trkpt>
      <trkpt lat="47.15477" lon="9.30285">
        <ele>2258.5</ele>
        <time>2024-07-10T07:26:09Z</time>
      </trkpt>
      <trkpt lat="47.15479" lon="9.30285">
        <ele>2257.9</ele>
        <time>2024-07-10T07:26:11Z</time>
      </trkpt>
      <trkpt lat="47.1548" lon="9.30285">
        <ele>2257.3</ele>
        <time>2024-07-10T07:26:13Z</time>
      </trkpt>
      <trkpt lat="47.15482" lon="9.30285">
        <ele>2256.9</ele>
        <time>2024-07-10T07:26:15Z</time>
      </trkpt>
      <trkpt lat="47.15484" lon="9.30285">
        <ele>2256.8</ele>
        <time>2024-07-10T07:26:16Z</time>
      </trkpt>
      <trkpt lat="47.15486" lon="9.30286">
        <ele>2256.2</ele>
        <time>2024-07-10T07:26:18Z</time>
      </trkpt>
      <trkpt lat="47.15487" lon="9.30285">
        <ele>2255.9</ele>
        <time>2024-07-10T07:26:19Z</time>
      </trkpt>
      <trkpt lat="47.15488" lon="9.30285">
        <ele>2255.4</ele>
        <time>2024-07-10T07:26:20Z</time>
      </trkpt>
      <trkpt lat="47.15489" lon="9.30284">
        <ele>2255.4</ele>
        <time>2024-07-10T07:26:22Z</time>
      </trkpt>
      <trkpt lat="47.1549" lon="9.30283">
        <ele>2254.4</ele>
        <time>2024-07-10T07:26:24Z</time>
      </trkpt>
      <trkpt lat="47.15491" lon="9.30282">
        <ele>2254.4</ele>
        <time>2024-07-10T07:26:28Z</time>
      </trkpt>
      <trkpt lat="47.15492" lon="9.30281">
        <ele>2254.2</ele>
        <time>2024-07-10T07:26:31Z</time>
      </trkpt>
      <trkpt lat="47.15493" lon="9.30279">
        <ele>2254.6</ele>
        <time>2024-07-10T07:26:33Z</time>
      </trkpt>
      <trkpt lat="47.15494" lon="9.30278">
        <ele>2254.6</ele>
        <time>2024-07-10T07:26:35Z</time>
      </trkpt>
      <trkpt lat="47.15495" lon="9.30276">
        <ele>2254.3</ele>
        <time>2024-07-10T07:26:37Z</time>
      </trkpt>
      <trkpt lat="47.15496" lon="9.30276">
        <ele>2254.3</ele>
        <time>2024-07-10T07:26:39Z</time>
      </trkpt>
      <trkpt lat="47.15497" lon="9.30275">
        <ele>2254.3</ele>
        <time>2024-07-10T07:26:40Z</time>
      </trkpt>
      <trkpt lat="47.15498" lon="9.30275">
        <ele>2253.9</ele>
        <time>2024-07-10T07:26:42Z</time>
      </trkpt>
      <trkpt lat="47.15499" lon="9.30275">
        <ele>2253.6</ele>
        <time>2024-07-10T07:26:48Z</time>
      </trkpt>
      <trkpt lat="47.155" lon="9.30274">
        <ele>2253.1</ele>
        <time>2024-07-10T07:26:51Z</time>
      </trkpt>
      <trkpt lat="47.15499" lon="9.30272">
        <ele>2252.9</ele>
        <time>2024-07-10T07:26:53Z</time>
      </trkpt>
      <trkpt lat="47.15498" lon="9.3027">
        <ele>2252.9</ele>
        <time>2024-07-10T07:26:55Z</time>
      </trkpt>
      <trkpt lat="47.15497" lon="9.3027">
        <ele>2252.7</ele>
        <time>2024-07-10T07:26:56Z</time>
      </trkpt>
      <trkpt lat="47.15496" lon="9.30269">
        <ele>2252.4</ele>
        <time>2024-07-10T07:26:57Z</time>
      </trkpt>
      <trkpt lat="47.15496" lon="9.30268">
        <ele>2252</ele>
        <time>2024-07-10T07:26:59Z</time>
      </trkpt>
      <trkpt lat="47.15494" lon="9.30267">
        <ele>2251.6</ele>
        <time>2024-07-10T07:27:01Z</time>
      </trkpt>
      <trkpt lat="47.15493" lon="9.30266">
        <ele>2251</ele>
        <time>2024-07-10T07:27:03Z</time>
      </trkpt>
      <trkpt lat="47.15492" lon="9.30265">
        <ele>2250.2</ele>
        <time>2024-07-10T07:27:05Z</time>
      </trkpt>
      <trkpt lat="47.15491" lon="9.30265">
        <ele>2249.9</ele>
        <time>2024-07-10T07:27:06Z</time>
      </trkpt>
      <trkpt lat="47.1549" lon="9.30265">
        <ele>2249.3</ele>
        <time>2024-07-10T07:27:07Z</time>
      </trkpt>
      <trkpt lat="47.15489" lon="9.30264">
        <ele>2248.9</ele>
        <time>2024-07-10T07:27:08Z</time>
      </trkpt>
      <trkpt lat="47.15488" lon="9.30264">
        <ele>2248.8</ele>
        <time>2024-07-10T07:27:09Z</time>
      </trkpt>
      <trkpt lat="47.15487" lon="9.30263">
        <ele>2248</ele>
        <time>2024-07-10T07:27:11Z</time>
      </trkpt>
      <trkpt lat="47.15485" lon="9.30263">
        <ele>2246.9</ele>
        <time>2024-07-10T07:27:14Z</time>
      </trkpt>
      <trkpt lat="47.15484" lon="9.30263">
        <ele>2247.1</ele>
        <time>2024-07-10T07:27:15Z</time>
      </trkpt>
      <trkpt lat="47.15483" lon="9.30262">
        <ele>2247</ele>
        <time>2024-07-10T07:27:16Z</time>
      </trkpt>
      <trkpt lat="47.15482" lon="9.30262">
        <ele>2246.7</ele>
        <time>2024-07-10T07:27:17Z</time>
      </trkpt>
      <trkpt lat="47.15481" lon="9.30261">
        <ele>2246.2</ele>
        <time>2024-07-10T07:27:18Z</time>
      </trkpt>
      <trkpt lat="47.1548" lon="9.3026">
        <ele>2245.6</ele>
        <time>2024-07-10T07:27:19Z</time>
      </trkpt>
      <trkpt lat="47.15479" lon="9.30259">
        <ele>2244.9</ele>
        <time>2024-07-10T07:27:20Z</time>
      </trkpt>
      <trkpt lat="47.15478" lon="9.30258">
        <ele>2244.5</ele>
        <time>2024-07-10T07:27:21Z</time>
      </trkpt>
      <trkpt lat="47.15477" lon="9.30258">
        <ele>2244.2</ele>
        <time>2024-07-10T07:27:22Z</time>
      </trkpt>
      <trkpt lat="47.15476" lon="9.30258">
        <ele>2243.9</ele>
        <time>2024-07-10T07:27:23Z</time>
      </trkpt>
      <trkpt lat="47.15475" lon="9.30257">
        <ele>2243.6</ele>
        <time>2024-07-10T07:27:24Z</time>
      </trkpt>
      <trkpt lat="47.15474" lon="9.30257">
        <ele>2243</ele>
        <time>2024-07-10T07:27:26Z</time>
      </trkpt>
      <trkpt lat="47.15472" lon="9.30256">
        <ele>2242.5</ele>
        <time>2024-07-10T07:27:28Z</time>
      </trkpt>
      <trkpt lat="47.15471" lon="9.30255">
        <ele>2242.2</ele>
        <time>2024-07-10T07:27:30Z</time>
      </trkpt>
      <trkpt lat="47.15471" lon="9.30254">
        <ele>2242</ele>
        <time>2024-07-10T07:27:31Z</time>
      </trkpt>
      <trkpt lat="47.1547" lon="9.30253">
        <ele>2241.7</ele>
        <time>2024-07-10T07:27:33Z</time>
      </trkpt>
      <trkpt lat="47.15468" lon="9.30252">
        <ele>2241.1</ele>
        <time>2024-07-10T07:27:35Z</time>
      </trkpt>
      <trkpt lat="47.15467" lon="9.30251">
        <ele>2240.9</ele>
        <time>2024-07-10T07:27:36Z</time>
      </trkpt>
      <trkpt lat="47.15466" lon="9.3025">
        <ele>2240.6</ele>
        <time>2024-07-10T07:27:37Z</time>
      </trkpt>
      <trkpt lat="47.15465" lon="9.30249">
        <ele>2240.4</ele>
        <time>2024-07-10T07:27:38Z</time>
      </trkpt>
      <trkpt lat="47.15464" lon="9.30248">
        <ele>2239.7</ele>
        <time>2024-07-10T07:27:39Z</time>
      </trkpt>
      <trkpt lat="47.15463" lon="9.30248">
        <ele>2239</ele>
        <time>2024-07-10T07:27:41Z</time>
      </trkpt>
      <trkpt lat="47.15462" lon="9.30246">
        <ele>2238.9</ele>
        <time>2024-07-10T07:27:43Z</time>
      </trkpt>
      <trkpt lat="47.15461" lon="9.30245">
        <ele>2237.9</ele>
        <time>2024-07-10T07:27:45Z</time>
      </trkpt>
      <trkpt lat="47.1546" lon="9.30245">
        <ele>2237.9</ele>
        <time>2024-07-10T07:27:46Z</time>
      </trkpt>
      <trkpt lat="47.15459" lon="9.30245">
        <ele>2237.8</ele>
        <time>2024-07-10T07:27:47Z</time>
      </trkpt>
      <trkpt lat="47.15457" lon="9.30244">
        <ele>2237.3</ele>
        <time>2024-07-10T07:27:49Z</time>
      </trkpt>
      <trkpt lat="47.15456" lon="9.30243">
        <ele>2237.2</ele>
        <time>2024-07-10T07:27:51Z</time>
      </trkpt>
      <trkpt lat="47.15455" lon="9.30242">
        <ele>2236.7</ele>
        <time>2024-07-10T07:27:54Z</time>
      </trkpt>
      <trkpt lat="47.15454" lon="9.30241">
        <ele>2236.2</ele>
        <time>2024-07-10T07:27:57Z</time>
      </trkpt>
      <trkpt lat="47.15453" lon="9.30241">
        <ele>2236.4</ele>
        <time>2024-07-10T07:27:59Z</time>
      </trkpt>
      <trkpt lat="47.15451" lon="9.3024">
        <ele>2236.1</ele>
        <time>2024-07-10T07:28:01Z</time>
      </trkpt>
      <trkpt lat="47.1545" lon="9.3024">
        <ele>2235.9</ele>
        <time>2024-07-10T07:28:02Z</time>
      </trkpt>
      <trkpt lat="47.15449" lon="9.30239">
        <ele>2235.5</ele>
        <time>2024-07-10T07:28:03Z</time>
      </trkpt>
      <trkpt lat="47.15448" lon="9.30238">
        <ele>2235.2</ele>
        <time>2024-07-10T07:28:04Z</time>
      </trkpt>
      <trkpt lat="47.15448" lon="9.30237">
        <ele>2234.9</ele>
        <time>2024-07-10T07:28:05Z</time>
      </trkpt>
      <trkpt lat="47.15446" lon="9.30236">
        <ele>2234.9</ele>
        <time>2024-07-10T07:28:06Z</time>
      </trkpt>
      <trkpt lat="47.15445" lon="9.30236">
        <ele>2234.9</ele>
        <time>2024-07-10T07:28:07Z</time>
      </trkpt>
      <trkpt lat="47.15444" lon="9.30235">
        <ele>2234.6</ele>
        <time>2024-07-10T07:28:08Z</time>
      </trkpt>
      <trkpt lat="47.15443" lon="9.30234">
        <ele>2234.4</ele>
        <time>2024-07-10T07:28:09Z</time>
      </trkpt>
      <trkpt lat="47.15442" lon="9.30233">
        <ele>2234.7</ele>
        <time>2024-07-10T07:28:10Z</time>
      </trkpt>
      <trkpt lat="47.15441" lon="9.30232">
        <ele>2234.4</ele>
        <time>2024-07-10T07:28:11Z</time>
      </trkpt>
      <trkpt lat="47.15439" lon="9.30231">
        <ele>2233.4</ele>
        <time>2024-07-10T07:28:13Z</time>
      </trkpt>
      <trkpt lat="47.15438" lon="9.3023">
        <ele>2232.9</ele>
        <time>2024-07-10T07:28:14Z</time>
      </trkpt>
      <trkpt lat="47.15437" lon="9.3023">
        <ele>2232.6</ele>
        <time>2024-07-10T07:28:15Z</time>
      </trkpt>
      <trkpt lat="47.15436" lon="9.30229">
        <ele>2232.2</ele>
        <time>2024-07-10T07:28:16Z</time>
      </trkpt>
      <trkpt lat="47.15435" lon="9.30229">
        <ele>2231.8</ele>
        <time>2024-07-10T07:28:17Z</time>
      </trkpt>
      <trkpt lat="47.15434" lon="9.30228">
        <ele>2231.4</ele>
        <time>2024-07-10T07:28:18Z</time>
      </trkpt>
      <trkpt lat="47.15433" lon="9.30227">
        <ele>2231.2</ele>
        <time>2024-07-10T07:28:19Z</time>
      </trkpt>
      <trkpt lat="47.15432" lon="9.30226">
        <ele>2231.2</ele>
        <time>2024-07-10T07:28:20Z</time>
      </trkpt>
      <trkpt lat="47.15431" lon="9.30226">
        <ele>2230.9</ele>
        <time>2024-07-10T07:28:21Z</time>
      </trkpt>
      <trkpt lat="47.15429" lon="9.30225">
        <ele>2230.5</ele>
        <time>2024-07-10T07:28:23Z</time>
      </trkpt>
      <trkpt lat="47.15428" lon="9.30225">
        <ele>2230.1</ele>
        <time>2024-07-10T07:28:25Z</time>
      </trkpt>
      <trkpt lat="47.15427" lon="9.30225">
        <ele>2229.9</ele>
        <time>2024-07-10T07:28:27Z</time>
      </trkpt>
      <trkpt lat="47.15426" lon="9.30224">
        <ele>2228.9</ele>
        <time>2024-07-10T07:28:31Z</time>
      </trkpt>
      <trkpt lat="47.15425" lon="9.30223">
        <ele>2228.6</ele>
        <time>2024-07-10T07:28:33Z</time>
      </trkpt>
      <trkpt lat="47.15424" lon="9.30222">
        <ele>2227.8</ele>
        <time>2024-07-10T07:28:35Z</time>
      </trkpt>
      <trkpt lat="47.15422" lon="9.30221">
        <ele>2227.1</ele>
        <time>2024-07-10T07:28:37Z</time>
      </trkpt>
      <trkpt lat="47.15421" lon="9.3022">
        <ele>2226.3</ele>
        <time>2024-07-10T07:28:39Z</time>
      </trkpt>
      <trkpt lat="47.1542" lon="9.30219">
        <ele>2226.1</ele>
        <time>2024-07-10T07:28:40Z</time>
      </trkpt>
      <trkpt lat="47.15419" lon="9.30218">
        <ele>2225.5</ele>
        <time>2024-07-10T07:28:42Z</time>
      </trkpt>
      <trkpt lat="47.15418" lon="9.30217">
        <ele>2225.4</ele>
        <time>2024-07-10T07:28:43Z</time>
      </trkpt>
      <trkpt lat="47.15418" lon="9.30216">
        <ele>2225</ele>
        <time>2024-07-10T07:28:44Z</time>
      </trkpt>
      <trkpt lat="47.15417" lon="9.30214">
        <ele>2224.6</ele>
        <time>2024-07-10T07:28:45Z</time>
      </trkpt>
      <trkpt lat="47.15416" lon="9.30213">
        <ele>2224.2</ele>
        <time>2024-07-10T07:28:46Z</time>
      </trkpt>
      <trkpt lat="47.15415" lon="9.30213">
        <ele>2223.7</ele>
        <time>2024-07-10T07:28:47Z</time>
      </trkpt>
      <trkpt lat="47.15414" lon="9.30212">
        <ele>2222.6</ele>
        <time>2024-07-10T07:28:49Z</time>
      </trkpt>
      <trkpt lat="47.15412" lon="9.30213">
        <ele>2221.9</ele>
        <time>2024-07-10T07:28:51Z</time>
      </trkpt>
      <trkpt lat="47.15411" lon="9.30211">
        <ele>2221.2</ele>
        <time>2024-07-10T07:28:53Z</time>
      </trkpt>
      <trkpt lat="47.15409" lon="9.3021">
        <ele>2220.6</ele>
        <time>2024-07-10T07:28:55Z</time>
      </trkpt>
      <trkpt lat="47.15408" lon="9.30209">
        <ele>2219.6</ele>
        <time>2024-07-10T07:28:57Z</time>
      </trkpt>
      <trkpt lat="47.15406" lon="9.30208">
        <ele>2219.1</ele>
        <time>2024-07-10T07:28:59Z</time>
      </trkpt>
      <trkpt lat="47.15405" lon="9.30208">
        <ele>2219.1</ele>
        <time>2024-07-10T07:29:01Z</time>
      </trkpt>
      <trkpt lat="47.15404" lon="9.30208">
        <ele>2218.5</ele>
        <time>2024-07-10T07:29:03Z</time>
      </trkpt>
      <trkpt lat="47.15403" lon="9.30207">
        <ele>2217.6</ele>
        <time>2024-07-10T07:29:06Z</time>
      </trkpt>
      <trkpt lat="47.15402" lon="9.30207">
        <ele>2218</ele>
        <time>2024-07-10T07:29:09Z</time>
      </trkpt>
      <trkpt lat="47.15402" lon="9.30205">
        <ele>2218.5</ele>
        <time>2024-07-10T07:29:13Z</time>
      </trkpt>
      <trkpt lat="47.15401" lon="9.30204">
        <ele>2218.5</ele>
        <time>2024-07-10T07:29:15Z</time>
      </trkpt>
      <trkpt lat="47.15399" lon="9.30203">
        <ele>2218.8</ele>
        <time>2024-07-10T07:29:17Z</time>
      </trkpt>
      <trkpt lat="47.15398" lon="9.30202">
        <ele>2219.3</ele>
        <time>2024-07-10T07:29:19Z</time>
      </trkpt>
      <trkpt lat="47.15396" lon="9.30202">
        <ele>2219.5</ele>
        <time>2024-07-10T07:29:20Z</time>
      </trkpt>
      <trkpt lat="47.15395" lon="9.30201">
        <ele>2219.3</ele>
        <time>2024-07-10T07:29:22Z</time>
      </trkpt>
      <trkpt lat="47.15394" lon="9.30202">
        <ele>2219.2</ele>
        <time>2024-07-10T07:29:24Z</time>
      </trkpt>
      <trkpt lat="47.15393" lon="9.30202">
        <ele>2219</ele>
        <time>2024-07-10T07:29:26Z</time>
      </trkpt>
      <trkpt lat="47.15392" lon="9.30202">
        <ele>2218.8</ele>
        <time>2024-07-10T07:29:27Z</time>
      </trkpt>
      <trkpt lat="47.15391" lon="9.30202">
        <ele>2218.5</ele>
        <time>2024-07-10T07:29:28Z</time>
      </trkpt>
      <trkpt lat="47.15389" lon="9.30202">
        <ele>2218.5</ele>
        <time>2024-07-10T07:29:29Z</time>
      </trkpt>
      <trkpt lat="47.15388" lon="9.30202">
        <ele>2218.6</ele>
        <time>2024-07-10T07:29:30Z</time>
      </trkpt>
      <trkpt lat="47.15387" lon="9.30202">
        <ele>2218.9</ele>
        <time>2024-07-10T07:29:32Z</time>
      </trkpt>
      <trkpt lat="47.15385" lon="9.30201">
        <ele>2219.4</ele>
        <time>2024-07-10T07:29:34Z</time>
      </trkpt>
      <trkpt lat="47.15384" lon="9.302">
        <ele>2218.9</ele>
        <time>2024-07-10T07:29:36Z</time>
      </trkpt>
      <trkpt lat="47.15383" lon="9.30199">
        <ele>2218.6</ele>
        <time>2024-07-10T07:29:37Z</time>
      </trkpt>
      <trkpt lat="47.15381" lon="9.30199">
        <ele>2218.1</ele>
        <time>2024-07-10T07:29:39Z</time>
      </trkpt>
      <trkpt lat="47.1538" lon="9.30198">
        <ele>2218.2</ele>
        <time>2024-07-10T07:29:40Z</time>
      </trkpt>
      <trkpt lat="47.15379" lon="9.30197">
        <ele>2218.5</ele>
        <time>2024-07-10T07:29:42Z</time>
      </trkpt>
      <trkpt lat="47.15378" lon="9.30197">
        <ele>2219.2</ele>
        <time>2024-07-10T07:29:43Z</time>
      </trkpt>
      <trkpt lat="47.15377" lon="9.30197">
        <ele>2219.3</ele>
        <time>2024-07-10T07:29:44Z</time>
      </trkpt>
      <trkpt lat="47.15375" lon="9.30196">
        <ele>2220.4</ele>
        <time>2024-07-10T07:29:46Z</time>
      </trkpt>
      <trkpt lat="47.15374" lon="9.30196">
        <ele>2220.5</ele>
        <time>2024-07-10T07:29:47Z</time>
      </trkpt>
      <trkpt lat="47.15373" lon="9.30196">
        <ele>2220.6</ele>
        <time>2024-07-10T07:29:48Z</time>
      </trkpt>
      <trkpt lat="47.15372" lon="9.30195">
        <ele>2220.5</ele>
        <time>2024-07-10T07:29:50Z</time>
      </trkpt>
      <trkpt lat="47.1537" lon="9.30194">
        <ele>2220.3</ele>
        <time>2024-07-10T07:29:52Z</time>
      </trkpt>
      <trkpt lat="47.15369" lon="9.30194">
        <ele>2220.2</ele>
        <time>2024-07-10T07:29:54Z</time>
      </trkpt>
      <trkpt lat="47.15367" lon="9.30195">
        <ele>2220.5</ele>
        <time>2024-07-10T07:29:56Z</time>
      </trkpt>
      <trkpt lat="47.15366" lon="9.30195">
        <ele>2221.3</ele>
        <time>2024-07-10T07:29:58Z</time>
      </trkpt>
      <trkpt lat="47.15365" lon="9.30195">
        <ele>2222.4</ele>
        <time>2024-07-10T07:30:00Z</time>
      </trkpt>
      <trkpt lat="47.15364" lon="9.30195">
        <ele>2222.8</ele>
        <time>2024-07-10T07:30:02Z</time>
      </trkpt>
      <trkpt lat="47.15363" lon="9.30194">
        <ele>2223.2</ele>
        <time>2024-07-10T07:30:04Z</time>
      </trkpt>
      <trkpt lat="47.15361" lon="9.30194">
        <ele>2223.5</ele>
        <time>2024-07-10T07:30:06Z</time>
      </trkpt>
      <trkpt lat="47.1536" lon="9.30195">
        <ele>2223.6</ele>
        <time>2024-07-10T07:30:08Z</time>
      </trkpt>
      <trkpt lat="47.15359" lon="9.30194">
        <ele>2223.8</ele>
        <time>2024-07-10T07:30:09Z</time>
      </trkpt>
      <trkpt lat="47.15358" lon="9.30194">
        <ele>2224.5</ele>
        <time>2024-07-10T07:30:12Z</time>
      </trkpt>
      <trkpt lat="47.15357" lon="9.30194">
        <ele>2224.7</ele>
        <time>2024-07-10T07:30:13Z</time>
      </trkpt>
      <trkpt lat="47.15356" lon="9.30194">
        <ele>2225.2</ele>
        <time>2024-07-10T07:30:16Z</time>
      </trkpt>
      <trkpt lat="47.15355" lon="9.30194">
        <ele>2225.9</ele>
        <time>2024-07-10T07:30:18Z</time>
      </trkpt>
      <trkpt lat="47.15354" lon="9.30194">
        <ele>2226.3</ele>
        <time>2024-07-10T07:30:20Z</time>
      </trkpt>
      <trkpt lat="47.15353" lon="9.30193">
        <ele>2227.1</ele>
        <time>2024-07-10T07:30:22Z</time>
      </trkpt>
      <trkpt lat="47.15352" lon="9.30193">
        <ele>2227.5</ele>
        <time>2024-07-10T07:30:24Z</time>
      </trkpt>
      <trkpt lat="47.1535" lon="9.30192">
        <ele>2227.7</ele>
        <time>2024-07-10T07:30:26Z</time>
      </trkpt>
      <trkpt lat="47.15349" lon="9.30192">
        <ele>2227.8</ele>
        <time>2024-07-10T07:30:29Z</time>
      </trkpt>
      <trkpt lat="47.15348" lon="9.30191">
        <ele>2228</ele>
        <time>2024-07-10T07:30:31Z</time>
      </trkpt>
      <trkpt lat="47.15347" lon="9.30191">
        <ele>2228.1</ele>
        <time>2024-07-10T07:30:32Z</time>
      </trkpt>
      <trkpt lat="47.15346" lon="9.30191">
        <ele>2228.4</ele>
        <time>2024-07-10T07:30:34Z</time>
      </trkpt>
      <trkpt lat="47.15345" lon="9.30191">
        <ele>2228.8</ele>
        <time>2024-07-10T07:30:36Z</time>
      </trkpt>
      <trkpt lat="47.15344" lon="9.30192">
        <ele>2229.7</ele>
        <time>2024-07-10T07:30:39Z</time>
      </trkpt>
      <trkpt lat="47.15343" lon="9.30192">
        <ele>2230</ele>
        <time>2024-07-10T07:30:41Z</time>
      </trkpt>
      <trkpt lat="47.15341" lon="9.30192">
        <ele>2230</ele>
        <time>2024-07-10T07:30:43Z</time>
      </trkpt>
      <trkpt lat="47.15341" lon="9.30192">
        <ele>2229.8</ele>
        <time>2024-07-10T07:30:46Z</time>
      </trkpt>
      <trkpt lat="47.1534" lon="9.30193">
        <ele>2230.2</ele>
        <time>2024-07-10T07:30:49Z</time>
      </trkpt>
      <trkpt lat="47.15339" lon="9.30195">
        <ele>2230.8</ele>
        <time>2024-07-10T07:30:54Z</time>
      </trkpt>
      <trkpt lat="47.15337" lon="9.30197">
        <ele>2230.8</ele>
        <time>2024-07-10T07:30:56Z</time>
      </trkpt>
      <trkpt lat="47.15337" lon="9.30198">
        <ele>2230.6</ele>
        <time>2024-07-10T07:30:57Z</time>
      </trkpt>
      <trkpt lat="47.15336" lon="9.30199">
        <ele>2230.4</ele>
        <time>2024-07-10T07:30:59Z</time>
      </trkpt>
      <trkpt lat="47.15336" lon="9.30201">
        <ele>2230.4</ele>
        <time>2024-07-10T07:31:02Z</time>
      </trkpt>
      <trkpt lat="47.15336" lon="9.30202">
        <ele>2230.9</ele>
        <time>2024-07-10T07:31:05Z</time>
      </trkpt>
      <trkpt lat="47.15336" lon="9.30203">
        <ele>2231.9</ele>
        <time>2024-07-10T07:31:08Z</time>
      </trkpt>
      <trkpt lat="47.15337" lon="9.30204">
        <ele>2232.6</ele>
        <time>2024-07-10T07:31:12Z</time>
      </trkpt>
      <trkpt lat="47.15337" lon="9.30206">
        <ele>2233.3</ele>
        <time>2024-07-10T07:31:15Z</time>
      </trkpt>
      <trkpt lat="47.15338" lon="9.30205">
        <ele>2234.4</ele>
        <time>2024-07-10T07:31:42Z</time>
      </trkpt>
      <trkpt lat="47.15336" lon="9.30204">
        <ele>2235.7</ele>
        <time>2024-07-10T07:31:59Z</time>
      </trkpt>
      <trkpt lat="47.15333" lon="9.30202">
        <ele>2237.2</ele>
        <time>2024-07-10T07:32:16Z</time>
      </trkpt>
      <trkpt lat="47.15334" lon="9.30204">
        <ele>2237.4</ele>
        <time>2024-07-10T07:32:36Z</time>
      </trkpt>
      <trkpt lat="47.15334" lon="9.30204">
        <ele>2236.5</ele>
        <time>2024-07-10T07:34:37Z</time>
      </trkpt>
      <trkpt lat="47.15338" lon="9.30206">
        <ele>2233.9</ele>
        <time>2024-07-10T07:34:58Z</time>
      </trkpt>
      <trkpt lat="47.15338" lon="9.30209">
        <ele>2233.1</ele>
        <time>2024-07-10T07:35:24Z</time>
      </trkpt>
      <trkpt lat="47.15334" lon="9.30205">
        <ele>2235.1</ele>
        <time>2024-07-10T07:35:56Z</time>
      </trkpt>
      <trkpt lat="47.15335" lon="9.30204">
        <ele>2235.6</ele>
        <time>2024-07-10T07:35:59Z</time>
      </trkpt>
      <trkpt lat="47.15335" lon="9.30203">
        <ele>2238.5</ele>
        <time>2024-07-10T07:36:31Z</time>
      </trkpt>
      <trkpt lat="47.15335" lon="9.30202">
        <ele>2235.2</ele>
        <time>2024-07-10T07:37:05Z</time>
      </trkpt>
      <trkpt lat="47.15334" lon="9.30202">
        <ele>2234.7</ele>
        <time>2024-07-10T07:37:07Z</time>
      </trkpt>
      <trkpt lat="47.15333" lon="9.30201">
        <ele>2234.4</ele>
        <time>2024-07-10T07:37:08Z</time>
      </trkpt>
      <trkpt lat="47.15332" lon="9.302">
        <ele>2233.7</ele>
        <time>2024-07-10T07:37:10Z</time>
      </trkpt>
      <trkpt lat="47.15331" lon="9.30199">
        <ele>2233.2</ele>
        <time>2024-07-10T07:37:13Z</time>
      </trkpt>
      <trkpt lat="47.15334" lon="9.30203">
        <ele>2232.3</ele>
        <time>2024-07-10T07:38:08Z</time>
      </trkpt>
      <trkpt lat="47.15335" lon="9.30203">
        <ele>2232.3</ele>
        <time>2024-07-10T07:38:09Z</time>
      </trkpt>
      <trkpt lat="47.15336" lon="9.30205">
        <ele>2232.3</ele>
        <time>2024-07-10T07:38:11Z</time>
      </trkpt>
      <trkpt lat="47.15337" lon="9.30207">
        <ele>2232.4</ele>
        <time>2024-07-10T07:38:13Z</time>
      </trkpt>
      <trkpt lat="47.15336" lon="9.30204">
        <ele>2235.5</ele>
        <time>2024-07-10T07:39:05Z</time>
      </trkpt>
      <trkpt lat="47.15338" lon="9.30205">
        <ele>2236.1</ele>
        <time>2024-07-10T07:39:07Z</time>
      </trkpt>
    </trkseg>
  </trk>
</gpx>